ECMWFFLT1_500_spd_000.txt.gz
Wind_Speed
25 24 24 25 24 23 21 20 19 18 18 17 15 15 17 17 18 19 20 20 20 20 19 20 21 21 20 20 20 20 20 20 20 20 19 18 18 19 19 20 20 19 19 19 20 20 22 23 24 25 26 26 25 25 24 23 23 23 24 24 25 26 26
26 25 24 22 21 20 19 18 17 16 15 14 13 13 14 15 14 15 17 19 19 19 19 19 19 19 20 20 19 19 19 19 19 19 19 19 20 20 20 20 21 21 21 22 22 22 22 24 26 26 27 27 27 26 26 25 24 24 25 25 26 26 27
21 21 17 14 14 15 16 16 14 14 14 14 13 13 14 14 14 14 16 18 19 19 18 18 18 19 20 20 19 18 18 19 19 20 21 21 21 20 20 20 22 23 24 24 24 24 25 26 27 28 28 28 27 28 27 26 26 26 25 26 26 26 28
12 13 11 12 13 14 16 16 14 14 15 15 14 14 13 13 15 16 16 17 18 18 17 18 19 19 18 18 18 17 18 19 20 21 22 22 22 22 21 21 23 25 26 27 26 25 27 30 30 30 30 28 27 27 28 28 27 27 27 27 26 26 27
12 12 12 14 16 17 17 17 17 16 17 17 16 14 12 13 16 16 16 17 17 18 18 19 19 17 16 17 16 16 17 18 19 21 21 22 23 23 23 24 25 27 28 28 28 27 30 33 33 31 30 30 28 28 29 29 28 28 28 28 28 27 27
17 17 15 15 18 21 20 19 20 20 19 19 17 14 12 12 13 15 16 16 16 17 19 18 16 15 15 15 14 14 15 16 18 19 21 22 23 23 24 25 27 28 29 29 30 31 33 35 36 36 34 33 31 30 29 29 29 30 31 31 31 31 30
21 19 17 17 19 21 22 22 23 22 21 21 18 15 13 12 12 14 15 15 16 17 18 16 15 14 13 12 11 12 13 15 17 18 22 24 23 24 25 26 28 28 29 30 32 33 35 37 38 39 39 36 33 33 32 32 32 33 34 35 36 35 34
24 22 19 19 20 20 22 23 25 25 24 23 20 15 13 12 11 12 13 14 16 17 16 14 13 12 10 10 10 10 12 15 17 19 23 24 25 27 28 30 31 31 32 34 36 37 38 37 38 39 41 39 36 36 35 35 35 37 38 39 39 39 38
23 21 19 20 23 22 23 24 26 27 25 24 21 16 14 13 11 11 11 13 14 14 14 13 12 11 10 9 8 9 12 16 18 20 22 23 23 25 28 32 32 32 35 37 39 42 40 35 34 37 40 41 40 40 38 37 38 40 41 42 41 40 39
20 18 16 18 22 25 26 26 27 27 25 25 23 17 15 15 14 12 11 11 12 13 13 12 11 10 9 9 10 10 14 17 19 21 22 21 22 24 28 31 31 32 36 37 40 46 42 34 34 39 42 42 41 40 39 37 36 36 38 41 41 40 39
19 18 15 15 19 23 26 27 26 25 25 26 24 18 16 18 17 15 12 11 13 12 12 11 11 11 10 12 14 14 17 20 22 24 21 19 23 27 27 28 29 32 36 39 40 42 38 34 36 40 41 41 39 38 38 36 34 34 37 40 40 40 39
18 17 17 17 17 19 23 23 23 24 26 27 25 20 18 18 18 17 15 14 15 14 13 12 12 14 13 14 17 20 22 23 25 28 28 28 32 34 32 32 34 36 38 41 37 33 32 34 35 34 35 36 35 31 29 29 29 31 35 39 40 42 43
16 17 18 19 18 18 20 21 22 25 27 28 27 22 20 19 18 18 17 17 17 16 16 14 16 18 15 16 20 23 24 25 25 26 30 35 39 40 37 36 38 41 43 43 38 32 33 35 35 34 34 33 30 25 23 25 27 30 36 39 41 43 45
14 16 18 21 21 20 21 22 23 26 27 29 28 25 22 20 19 19 19 20 20 19 18 18 19 20 18 20 24 23 24 27 26 24 26 33 39 41 41 38 39 42 44 43 40 37 38 38 36 33 30 29 28 25 27 31 34 37 41 43 44 44 45
16 18 18 20 22 24 24 24 25 27 27 29 28 26 24 22 21 20 21 22 22 22 21 21 21 21 21 25 27 26 27 30 31 30 32 36 38 38 40 40 39 40 41 42 41 39 39 40 38 34 31 30 28 27 29 33 37 41 44 46 47 45 44
19 21 20 20 23 26 27 27 28 28 27 28 28 27 26 24 22 22 23 24 25 25 24 24 23 22 25 28 29 29 32 34 35 36 37 38 38 37 39 41 40 39 40 41 42 41 42 43 41 38 35 31 29 31 33 36 39 42 43 44 47 46 43
21 22 22 23 25 27 29 31 31 29 28 28 28 27 27 25 23 24 26 27 27 26 26 26 26 27 29 30 29 31 34 36 37 38 37 36 37 39 42 45 45 44 44 44 45 46 47 46 44 41 38 36 35 37 38 39 40 41 41 42 45 46 42
24 26 25 25 27 29 32 34 32 28 28 29 29 28 28 27 26 27 28 28 28 27 27 27 28 29 30 29 29 32 35 36 37 37 36 35 36 38 42 45 47 47 48 48 48 49 48 47 44 40 38 37 38 40 41 40 39 40 41 42 43 43 40
29 30 28 26 26 29 33 35 32 30 30 30 30 30 30 30 29 29 30 32 31 30 29 28 27 25 25 26 29 33 36 37 38 39 39 40 40 41 42 45 47 48 49 50 51 52 51 48 43 39 37 37 38 41 42 40 39 39 40 39 38 37 36
33 33 29 26 26 29 33 35 34 33 32 31 32 33 34 33 32 32 34 35 35 34 32 30 27 26 26 28 32 35 37 39 41 43 44 46 46 46 46 48 50 51 52 53 54 54 54 51 46 41 39 39 39 40 41 39 38 38 37 36 34 32 31
36 34 31 28 28 31 34 34 33 34 34 34 35 36 36 36 35 36 38 38 37 37 34 32 30 29 29 31 34 37 40 43 45 47 49 51 51 51 51 51 52 53 54 56 57 56 56 55 50 44 41 41 40 40 39 37 35 34 33 32 31 30 28
36 35 34 32 31 33 34 32 30 32 34 36 39 40 40 40 39 38 39 39 38 38 36 36 35 34 34 35 37 40 42 45 47 49 50 52 52 52 53 53 53 54 55 56 58 58 57 57 52 46 42 41 40 40 38 35 32 30 30 29 28 28 26
39 38 36 33 33 35 36 34 31 33 36 39 41 42 42 43 43 41 40 40 40 39 38 38 38 38 39 40 42 43 45 46 48 49 51 53 53 53 54 55 56 56 56 57 58 58 58 57 53 46 40 39 39 38 36 34 31 29 28 27 26 26 26
40 41 39 36 35 36 38 37 35 36 39 42 43 44 43 44 46 45 43 43 44 43 41 40 40 41 43 44 46 46 47 48 49 50 52 55 55 55 56 57 58 58 58 59 60 60 58 56 52 44 38 37 37 36 34 32 31 30 29 28 26 24 22
42 42 42 39 38 38 39 39 38 39 43 45 47 47 46 46 47 46 43 43 45 46 46 46 44 43 45 47 48 48 48 49 50 52 55 57 58 58 58 59 60 59 59 62 64 62 58 56 52 44 38 36 35 33 32 31 31 31 30 29 26 22 19
43 43 42 41 40 39 40 41 41 42 45 47 48 49 49 50 50 48 46 46 46 48 50 48 45 44 45 47 48 49 50 50 51 54 58 60 60 60 60 60 60 60 62 66 66 60 56 55 52 43 37 35 34 32 31 31 31 31 29 27 24 22 19
42 42 41 41 41 40 41 42 44 45 46 48 50 50 51 52 53 52 50 49 49 51 50 48 45 44 45 48 50 51 50 51 53 56 59 62 62 61 62 62 63 63 65 66 62 57 55 54 49 41 36 34 33 32 32 31 30 30 29 26 24 24 25
42 42 42 41 41 42 42 43 44 46 47 48 49 51 52 53 54 54 52 51 52 52 49 46 46 46 47 49 52 53 52 53 55 57 60 62 62 61 63 65 65 65 64 62 58 56 55 51 44 38 36 35 34 35 34 31 29 30 31 30 30 32 35
43 44 44 43 43 44 44 45 46 46 47 48 49 50 52 53 54 53 52 52 51 49 47 46 47 48 49 50 52 53 54 56 57 59 61 63 62 63 64 64 62 61 59 58 56 54 50 44 39 37 37 36 36 37 35 33 33 34 36 36 36 37 37
45 45 45 45 45 45 44 45 45 45 46 47 48 47 48 49 51 51 52 52 50 48 46 45 46 49 50 52 53 54 56 57 58 60 63 63 62 63 62 58 55 54 53 52 49 45 41 38 37 37 36 37 38 38 37 39 40 41 41 40 39 37 35
46 47 46 47 47 46 45 44 44 44 45 45 46 46 46 48 49 51 53 54 54 52 49 45 46 50 53 55 56 56 57 57 58 60 62 62 61 59 56 51 48 47 45 43 41 39 38 38 37 37 37 38 39 40 42 43 43 41 40 40 38 36 35
45 46 46 47 46 45 44 42 42 43 42 42 44 45 45 46 49 51 52 51 50 50 48 46 48 52 55 56 56 55 56 58 58 59 58 57 54 51 46 43 41 40 39 38 39 38 38 38 38 39 39 41 42 43 44 43 41 39 40 39 37 36 34
45 45 46 46 46 44 42 41 41 41 41 42 43 43 44 45 46 47 46 45 45 45 45 47 51 54 56 56 55 54 54 56 56 56 52 48 45 42 40 39 39 38 38 38 39 39 39 39 40 41 42 43 44 44 43 41 40 39 39 36 35 35 34
45 46 47 47 47 45 44 44 44 43 43 44 45 44 44 44 43 42 42 44 45 46 46 49 53 54 55 55 54 54 55 54 52 50 46 43 41 40 41 41 40 39 38 39 40 41 41 41 42 43 44 44 44 44 42 40 38 38 36 34 34 35 34
46 47 48 48 48 49 50 50 49 48 47 46 45 43 42 41 41 42 43 45 46 47 48 51 53 53 54 54 54 55 54 51 48 47 45 43 42 43 43 43 42 41 41 41 42 43 43 43 44 44 44 45 44 42 41 39 38 37 37 35 34 33 32
46 47 47 48 50 51 53 53 52 50 48 45 42 40 39 40 41 42 44 46 47 47 48 50 52 53 53 53 54 54 51 47 46 46 46 46 46 45 45 44 43 43 44 44 44 45 45 45 45 45 45 46 44 41 41 40 39 38 36 34 32 31 32
43 46 47 48 49 51 53 53 50 45 42 40 38 38 40 41 43 43 44 46 47 47 47 49 50 51 51 51 51 50 47 46 46 46 46 47 47 47 46 46 46 46 46 46 47 47 47 46 46 46 46 46 44 42 41 40 38 36 33 32 31 32 33
43 45 47 47 47 50 53 50 45 39 36 36 37 38 40 42 43 45 46 46 47 48 49 49 48 47 47 48 48 47 45 45 45 45 46 46 47 47 47 47 48 48 48 48 48 47 47 46 46 47 47 46 44 42 40 38 35 33 32 32 32 33 34

ECMWFFLT1_500_spd_006.txt.gz
Wind_Speed
28 27 29 28 26 26 25 25 27 28 26 24 23 19 16 13 13 15 16 17 19 20 21 20 20 22 22 23 23 23 23 23 23 23 24 25 24 23 22 21 19 17 17 18 18 18 17 18 19 20 23 28 31 31 32 31 29 26 25 26 27 28 28
29 27 28 26 25 27 27 26 28 28 23 21 21 19 15 12 11 14 16 17 19 20 22 22 23 23 24 25 25 24 24 24 24 24 24 24 23 22 21 19 16 15 16 17 17 16 16 18 19 21 27 31 32 33 34 33 28 24 23 25 28 30 31
29 27 26 24 23 25 27 28 28 25 21 19 19 16 12 10 9 11 14 16 18 20 21 22 23 24 26 26 26 25 25 25 24 24 24 23 22 20 18 15 13 13 15 16 16 16 17 19 20 24 29 30 29 30 31 30 24 21 22 27 31 33 33
25 25 25 22 19 21 25 28 28 23 19 18 16 13 10 8 8 9 11 14 16 18 20 21 23 24 25 26 26 25 25 24 24 24 23 22 20 17 13 11 11 13 13 13 14 16 18 19 21 25 27 27 27 26 25 25 24 22 25 30 32 33 32
24 26 25 22 19 20 22 24 25 21 15 13 12 10 9 7 6 7 9 12 14 16 18 20 22 22 23 24 24 24 24 24 24 23 22 20 16 11 9 9 11 11 10 9 12 18 20 19 19 22 24 25 25 25 24 24 24 25 28 30 31 30 29
31 32 23 19 19 20 21 23 24 19 15 12 11 10 9 8 7 8 10 12 13 16 17 19 21 22 21 21 22 23 24 24 23 21 19 14 9 7 7 9 11 11 10 11 15 19 20 17 17 18 20 22 23 24 25 25 25 26 28 29 30 29 28
34 36 28 22 23 25 24 25 26 23 19 17 15 13 11 10 10 10 12 13 14 15 17 18 21 22 21 20 21 22 23 22 20 17 13 7 4 4 6 10 12 12 11 12 15 16 17 16 15 17 18 20 21 22 23 25 26 26 27 29 30 30 31
32 38 36 25 21 23 22 23 26 24 22 20 18 15 13 13 14 14 14 16 17 16 17 18 19 21 20 19 20 21 21 20 16 11 6 2 2 5 7 10 12 12 12 13 13 15 16 16 16 17 18 19 20 21 22 23 25 26 27 29 30 32 33
30 37 35 25 21 26 25 23 25 23 22 23 19 15 14 14 15 16 17 18 18 17 17 17 16 17 18 18 19 19 18 15 10 6 4 3 5 6 9 11 11 11 11 11 12 14 16 16 16 17 18 19 21 21 22 23 25 27 28 29 30 32 33
32 34 33 29 29 32 29 26 26 23 24 27 24 18 14 14 14 15 17 18 19 18 17 16 13 13 15 17 19 18 14 9 5 4 4 5 6 8 10 11 11 10 10 9 10 13 15 16 17 18 19 20 21 22 23 24 26 28 30 30 31 31 32
33 32 31 32 33 33 31 29 27 23 24 29 28 21 15 14 14 15 16 18 20 20 18 16 13 12 14 17 19 17 12 6 3 4 6 6 6 8 10 11 11 11 10 11 12 13 15 16 17 18 19 21 23 24 25 26 28 31 32 33 33 33 33
30 30 32 35 37 37 33 30 27 25 27 30 29 23 17 15 16 17 18 20 22 21 19 16 14 13 15 17 17 13 10 6 4 6 7 6 6 8 9 10 11 12 12 13 14 16 17 18 18 18 21 24 26 27 27 28 30 33 35 36 37 38 37
33 36 39 41 42 38 34 32 30 30 33 33 30 24 17 15 17 19 20 21 23 23 20 17 14 15 16 16 13 9 7 7 6 8 9 7 5 6 8 9 10 12 14 16 18 19 20 22 23 23 24 27 30 31 31 31 33 36 38 39 40 42 42
37 40 40 40 39 34 33 35 35 35 38 38 35 26 17 16 19 20 21 22 24 24 21 17 15 15 16 14 10 8 7 7 8 9 9 7 5 5 7 10 13 15 18 20 21 23 25 26 27 28 28 30 33 35 35 35 36 39 41 41 42 44 45
36 36 36 38 38 35 34 36 36 38 42 42 38 29 20 18 20 22 22 23 24 24 23 18 15 16 15 12 10 9 8 8 8 9 8 7 7 8 11 14 17 19 21 22 24 25 28 29 30 31 30 31 36 39 40 40 40 42 44 44 43 45 47
38 36 37 40 39 37 37 36 35 38 42 41 35 28 23 22 21 22 22 23 23 24 25 21 16 15 14 12 11 11 9 8 7 8 8 8 10 13 15 17 19 21 23 24 26 28 30 32 34 35 34 35 39 42 43 45 45 45 47 47 47 47 49
41 37 39 40 35 35 38 36 35 38 40 36 29 25 26 25 23 22 22 23 24 24 27 24 18 15 15 13 13 12 10 9 9 10 9 10 13 16 18 19 21 24 26 27 29 30 32 34 36 38 39 41 43 44 45 47 47 47 49 50 50 50 52
45 39 39 38 32 33 37 36 36 39 39 35 29 27 28 27 26 25 23 24 24 24 27 26 20 16 15 15 13 12 12 12 13 14 13 14 16 18 19 21 24 27 29 30 30 32 34 36 37 39 41 43 46 47 47 47 48 49 49 50 52 52 54
42 40 41 40 34 34 36 36 38 41 40 37 33 30 29 29 29 27 24 23 24 25 27 28 23 18 16 15 13 12 13 15 16 17 16 16 18 19 20 23 26 29 31 32 32 33 35 37 38 40 42 44 47 49 49 49 50 51 50 51 52 54 55
38 37 39 43 42 40 39 37 38 40 39 37 35 32 31 31 30 27 24 24 26 26 27 28 25 20 17 15 13 13 14 15 16 16 17 19 21 22 24 26 28 31 32 33 33 34 36 38 40 42 44 46 48 49 50 50 52 53 53 52 52 54 53
38 36 36 40 42 43 45 41 36 36 36 35 35 34 34 34 32 29 27 27 27 26 26 28 26 22 19 17 15 15 15 17 17 18 20 23 24 26 28 29 31 33 34 35 36 36 38 40 41 44 46 48 48 49 49 50 52 53 53 51 51 51 48
42 39 38 41 42 44 45 40 34 34 34 34 36 37 37 36 34 31 29 29 28 26 26 29 28 25 21 19 18 17 17 19 21 22 24 26 28 30 32 33 34 36 37 38 38 38 40 42 43 45 48 49 47 46 49 51 51 51 52 50 48 46 42
48 46 45 45 45 46 45 40 36 35 35 36 39 40 39 38 36 34 31 29 28 27 28 30 30 27 24 22 20 20 21 23 24 25 27 29 32 34 35 36 37 38 39 40 40 40 41 43 45 47 49 49 47 48 52 53 51 50 49 46 42 39 35
52 53 54 53 51 50 48 43 40 39 38 39 40 41 41 41 39 35 32 30 30 30 30 31 30 28 27 25 24 24 25 26 27 29 31 33 35 37 38 39 40 41 42 42 41 42 43 45 46 48 48 48 47 48 51 51 48 46 42 37 34 33 31
57 59 58 57 57 54 51 46 41 40 42 43 43 43 44 43 40 36 33 33 33 32 31 31 31 29 29 28 26 26 28 30 31 33 35 37 39 40 41 41 42 44 46 45 44 44 44 46 48 49 47 46 46 47 49 47 44 39 35 32 31 32 32
59 64 62 61 60 59 61 57 49 45 45 45 45 46 46 45 43 39 36 36 35 33 31 32 32 32 32 30 28 29 31 33 35 37 39 40 41 42 43 44 45 47 49 49 48 47 46 48 50 48 46 45 46 47 47 45 40 36 34 33 33 33 33
51 57 62 65 64 63 67 63 51 46 46 45 46 49 48 47 46 43 40 38 36 32 32 35 36 35 33 30 28 31 35 37 38 40 41 42 43 44 46 47 47 49 49 49 49 51 50 48 46 44 44 45 47 48 47 43 40 38 37 36 36 35 34
48 51 54 56 57 62 68 64 52 47 47 45 46 50 50 49 49 47 43 39 36 34 35 38 37 34 32 31 31 35 39 40 41 43 43 45 46 47 48 48 47 47 46 45 48 51 48 43 41 42 44 46 47 48 46 43 41 40 39 38 38 37 37
53 56 52 47 47 54 63 62 54 50 49 47 48 51 51 50 51 49 44 39 38 38 38 38 35 33 34 35 37 39 41 42 44 45 45 47 49 49 49 48 46 45 43 42 45 46 41 38 39 43 46 47 48 48 45 42 42 41 40 40 39 39 40
53 59 57 50 47 48 53 55 52 50 50 50 51 53 53 52 51 48 43 41 41 40 38 36 35 34 37 40 41 42 42 43 45 47 47 48 50 51 49 46 44 44 42 42 43 43 40 39 42 45 47 47 47 46 44 42 42 42 41 40 40 41 42
45 53 59 58 53 49 50 53 51 49 51 52 53 55 54 52 51 48 44 43 42 40 38 37 37 37 40 42 43 43 44 45 47 48 49 50 51 50 48 44 43 44 43 43 44 43 42 43 45 47 48 47 46 45 43 43 43 42 42 41 42 42 42
41 50 58 59 55 53 54 53 50 49 52 54 54 55 54 54 53 50 46 43 41 39 39 40 40 41 43 44 45 45 46 48 49 51 52 51 49 47 46 44 43 44 44 45 46 46 46 46 48 49 48 47 45 44 43 42 43 43 42 42 42 42 41
43 48 52 52 51 54 56 53 51 52 54 55 55 55 55 57 55 51 47 44 40 39 39 40 42 44 45 45 46 47 48 49 50 53 55 51 45 44 45 44 43 43 45 47 48 49 49 49 50 51 50 47 45 44 42 42 43 42 42 42 42 41 41
48 48 48 47 48 51 50 46 45 47 48 51 55 56 55 55 53 50 48 46 43 41 41 41 43 43 44 45 46 46 48 49 51 55 56 48 41 42 45 44 41 43 46 48 50 50 50 51 52 52 49 46 45 44 43 43 42 42 42 42 42 42 42
51 50 46 41 38 39 39 37 39 43 44 46 50 52 50 48 48 48 48 48 46 45 44 44 43 43 44 46 45 46 48 49 50 53 52 44 39 41 44 44 43 45 48 50 51 52 53 53 52 50 47 45 44 44 44 44 43 43 43 43 43 43 43
45 44 43 39 34 33 37 38 37 39 40 40 42 46 47 47 48 48 49 50 49 48 47 46 45 45 46 46 45 46 50 50 49 51 49 43 39 42 45 47 48 49 50 51 52 53 54 53 49 47 46 45 44 44 45 45 44 44 44 44 44 44 45
35 34 35 34 34 36 40 39 34 32 33 32 34 41 46 47 48 48 48 49 49 49 50 49 47 47 48 47 47 49 51 50 49 49 49 45 43 45 49 52 53 52 51 52 53 53 52 49 47 46 46 46 45 45 45 45 45 45 45 45 46 46 46
29 31 30 30 33 37 40 40 35 32 33 33 34 39 44 46 47 47 46 47 49 50 50 49 49 50 49 49 49 51 52 50 48 49 50 50 50 52 54 55 54 52 52 53 53 51 48 47 46 47 47 46 46 45 45 46 46 46 46 46 46 46 45

ECMWFFLT1_500_spd_009.txt.gz
Wind_Speed
25 24 25 23 22 23 21 20 20 22 22 20 19 18 17 18 18 20 22 24 25 26 25 23 21 20 19 19 20 20 20 20 20 19 17 15 14 13 12 11 9 7 6 6 7 7 7 7 8 10 13 15 17 18 19 19 19 19 19 19 18 19 21
27 27 28 25 23 22 20 20 21 23 24 24 23 21 19 19 20 21 23 25 25 26 26 24 22 20 20 20 21 21 21 21 21 19 18 16 14 12 11 9 6 4 4 6 6 4 5 7 8 10 12 14 16 18 19 19 19 20 20 21 21 21 22
26 30 29 25 24 22 19 20 22 23 25 26 25 22 20 21 22 22 24 25 25 25 26 25 23 22 21 21 21 22 22 22 21 20 18 15 13 11 8 5 4 4 6 7 5 2 5 9 10 10 11 13 15 16 17 17 19 20 21 21 21 22 22
25 29 27 23 23 22 19 19 23 24 25 27 26 23 22 24 23 22 23 24 24 25 25 25 25 23 22 22 22 23 23 23 21 19 17 14 11 8 4 6 6 6 7 7 6 4 6 9 10 10 11 12 13 14 15 16 18 20 21 21 22 23 23
27 28 23 18 20 20 18 19 23 24 24 25 26 25 24 26 24 22 22 23 23 23 23 24 23 22 21 21 20 21 21 21 19 17 14 11 8 6 8 9 8 6 7 7 6 7 8 8 8 9 10 10 11 12 14 15 17 19 21 22 23 23 24
24 27 22 17 16 17 18 21 23 23 20 21 24 26 26 27 26 23 22 23 23 22 21 21 20 19 19 18 17 17 16 15 13 12 9 7 6 9 10 8 6 5 6 6 5 6 7 7 7 8 9 10 11 12 14 15 16 18 20 21 22 22 23
21 25 23 21 20 18 18 19 20 20 19 21 24 26 26 27 27 26 25 24 22 20 19 17 16 16 15 15 14 13 11 9 8 6 4 5 10 11 8 6 5 5 6 6 6 6 7 8 9 9 10 10 11 12 13 15 17 18 18 20 21 21 22
24 25 24 23 23 20 17 17 18 18 20 24 26 25 25 27 29 28 27 25 22 19 17 15 14 13 12 12 11 9 6 5 4 2 4 10 12 10 7 6 6 6 6 7 7 7 7 9 10 10 10 10 10 11 13 16 18 20 20 20 21 21 22
30 30 27 25 24 21 18 17 19 19 18 21 23 24 24 25 27 27 27 25 22 18 15 13 13 11 10 9 9 7 4 2 3 6 10 13 11 8 7 7 7 7 6 6 6 7 8 9 9 9 9 9 10 12 15 18 21 23 24 24 24 24 24
35 37 34 30 25 22 21 20 21 21 20 20 22 23 23 23 25 26 26 26 23 19 16 14 12 10 8 8 7 6 4 5 8 12 14 13 10 8 7 6 6 6 6 6 6 6 7 7 7 7 8 9 11 14 17 19 22 24 26 27 27 27 27
34 35 35 32 26 24 25 25 23 23 23 23 22 23 23 23 24 25 26 26 24 21 19 16 13 10 9 9 8 7 6 8 13 16 16 13 11 9 8 6 4 3 3 4 4 5 5 6 7 8 10 11 14 16 18 20 22 25 28 29 29 29 30
29 27 27 29 30 30 30 27 24 25 27 28 26 25 27 26 25 26 27 26 24 23 21 18 14 12 11 11 9 8 7 12 16 17 16 14 13 10 9 6 4 2 2 2 4 5 5 6 8 9 12 14 16 18 20 21 23 26 28 29 30 31 31
26 24 25 29 34 35 31 27 27 29 30 31 30 28 30 29 26 27 28 27 25 25 24 21 16 13 13 13 11 9 9 15 18 16 16 15 14 12 9 7 5 3 2 4 6 8 9 9 10 12 14 17 17 18 20 22 24 27 30 32 34 34 34
26 26 28 32 37 36 31 27 29 30 31 33 32 31 32 31 28 27 29 29 28 28 27 24 18 14 14 14 13 10 12 18 18 16 16 16 15 13 11 8 5 4 5 8 10 13 14 15 15 16 18 19 19 20 21 23 25 28 31 35 36 36 36
27 30 31 31 31 32 30 29 30 31 32 34 33 32 33 33 31 29 30 30 30 30 30 27 20 15 15 15 14 13 16 19 18 16 16 16 16 15 11 8 6 7 9 11 13 15 16 17 18 19 21 22 23 23 24 26 27 30 33 35 36 36 36
28 32 34 31 29 30 31 31 32 33 34 35 35 35 36 36 35 34 33 33 32 31 32 29 22 17 16 16 15 16 19 19 17 16 16 16 18 16 11 9 8 9 11 13 15 16 17 18 19 21 23 25 26 26 27 28 29 32 33 35 35 36 37
32 35 35 33 32 32 34 34 35 36 37 38 39 39 39 39 38 37 37 38 37 35 35 33 25 19 18 17 18 19 21 20 17 17 17 18 19 17 12 10 11 11 12 14 16 17 18 19 20 22 24 27 28 29 30 31 31 32 34 35 36 37 38
35 39 38 38 37 35 35 37 38 41 43 43 43 42 41 39 38 38 39 38 37 37 37 35 28 21 19 19 20 21 21 20 19 19 19 19 18 16 13 13 13 13 15 16 17 19 20 20 21 23 26 28 30 32 34 34 34 34 36 38 38 37 38
36 38 37 39 43 43 43 44 46 49 48 45 44 43 40 38 38 38 37 35 36 38 37 35 30 23 21 21 21 21 21 21 21 21 21 20 19 17 16 15 15 16 18 19 20 21 22 22 23 24 26 30 32 34 35 36 36 36 38 41 40 38 38
40 37 31 29 35 41 45 47 49 49 45 42 42 42 39 38 37 37 36 36 36 37 36 34 31 26 22 23 23 22 22 23 23 23 23 22 21 20 19 18 18 19 20 21 22 24 24 26 27 26 28 32 35 37 38 39 38 36 39 43 44 41 40
45 42 35 31 33 38 42 47 48 45 42 39 38 38 38 39 38 37 37 37 37 36 34 31 29 28 25 25 25 24 24 24 24 24 24 23 23 22 21 20 20 21 22 24 25 26 27 29 29 28 31 37 40 40 41 42 41 39 41 44 43 40 39
47 46 44 41 41 42 43 46 48 48 47 44 39 36 37 40 40 39 37 37 36 36 34 31 30 29 28 27 27 26 26 26 26 25 24 24 25 24 22 22 22 22 24 25 26 28 29 30 31 32 35 41 43 43 42 43 42 41 41 43 41 39 38
48 49 49 48 48 48 47 48 50 51 51 49 44 41 40 40 41 41 38 37 37 38 36 34 32 30 30 29 29 29 29 28 28 26 26 26 26 24 23 23 23 23 25 26 27 29 31 33 35 37 40 43 45 44 41 40 39 37 37 39 40 39 38
52 51 51 52 52 53 53 54 55 54 53 51 47 44 42 42 44 44 41 39 40 40 38 37 34 32 31 31 31 32 31 30 29 28 27 26 26 24 24 24 24 24 26 27 28 30 33 35 38 40 42 44 42 40 38 36 33 33 36 39 40 40 39
57 54 52 52 53 54 54 53 51 50 51 49 44 41 41 43 46 47 45 43 43 41 40 39 36 34 34 34 33 34 33 32 30 28 27 25 24 24 25 25 24 25 27 28 30 31 34 37 40 42 44 43 40 38 37 35 34 36 39 41 41 41 40
56 55 55 55 56 55 54 51 47 46 50 51 46 42 43 47 49 50 49 47 45 44 43 42 39 38 37 38 37 36 34 33 31 29 25 23 23 25 26 25 25 26 28 30 31 33 36 38 40 42 42 41 39 38 37 36 37 39 41 42 42 41 39
56 55 56 56 56 57 58 57 51 47 51 56 52 45 43 47 50 51 51 50 49 48 46 44 44 43 43 42 40 38 35 34 31 27 24 24 25 26 26 26 27 29 30 32 33 35 37 38 39 40 39 37 36 37 36 36 38 41 43 43 42 41 40
59 61 62 61 58 55 56 59 58 53 53 59 60 53 47 47 49 51 53 54 53 51 49 49 50 49 47 46 43 39 37 36 30 25 25 27 28 28 28 28 30 32 32 34 36 38 39 39 39 40 38 37 37 38 37 37 41 43 44 43 42 41 39
54 58 62 65 65 60 56 56 60 62 61 62 65 63 57 53 53 56 58 57 55 53 53 54 55 53 50 49 46 42 39 36 30 28 30 31 30 30 31 31 32 33 34 36 39 41 41 41 41 40 39 38 39 39 39 40 43 44 44 44 43 41 39
47 49 52 57 60 61 59 55 55 61 66 67 69 69 67 64 63 63 62 59 56 55 57 57 57 57 55 53 50 46 42 38 33 32 32 32 32 32 32 32 34 35 36 39 41 42 43 44 43 41 39 39 40 41 42 43 45 45 45 45 43 41 39
49 48 50 51 53 57 58 56 54 57 62 66 70 72 71 72 71 68 66 64 60 58 61 63 62 61 61 59 55 51 45 40 36 35 35 34 32 32 31 32 35 36 38 41 43 44 46 46 43 39 38 39 41 44 45 45 46 46 45 44 41 40 39
52 49 49 50 53 55 57 57 56 57 60 64 68 70 72 74 75 72 71 71 69 66 66 67 67 67 66 63 58 55 51 48 44 41 40 35 30 30 32 34 37 39 41 44 45 45 46 44 39 36 37 40 43 46 47 47 47 46 43 41 39 39 40
55 52 49 50 52 54 56 57 56 57 61 67 69 69 71 73 72 70 70 71 72 72 71 69 68 69 65 59 55 53 52 51 48 41 34 30 28 30 34 37 39 42 43 45 47 46 43 39 36 36 39 42 45 47 48 48 47 45 42 40 40 40 40
55 53 52 52 51 52 54 56 56 55 57 62 65 67 70 72 70 68 67 67 68 70 73 72 69 66 59 51 48 47 43 41 38 32 27 28 30 33 36 39 42 43 45 48 50 46 40 38 38 40 42 44 46 48 48 47 46 45 42 41 41 41 40
53 54 54 53 52 52 52 54 55 54 52 55 58 62 66 70 70 68 68 68 66 63 67 69 66 63 54 42 38 40 36 30 29 28 28 30 32 35 38 40 42 44 46 49 47 41 38 39 41 42 44 46 49 50 48 46 45 44 42 41 41 41 41
51 53 54 54 54 54 53 52 53 53 54 57 59 60 61 63 66 67 68 67 61 56 58 57 53 52 47 37 31 30 27 25 25 27 29 32 35 38 41 43 44 43 43 44 44 43 43 44 43 43 45 48 51 51 47 43 43 42 41 40 41 41 40
50 51 52 52 53 53 52 51 51 52 55 59 60 60 60 60 62 64 63 58 48 44 46 43 36 35 36 34 30 27 25 24 26 29 32 35 39 41 42 44 44 42 41 43 47 49 49 46 45 46 48 49 50 48 43 40 40 40 40 39 39 39 38
48 49 50 51 52 54 56 55 54 55 57 59 60 63 62 58 57 56 51 46 40 35 33 29 25 26 30 32 32 30 28 28 31 34 36 38 40 42 43 43 43 42 43 46 49 50 49 48 49 50 49 46 44 41 38 37 38 39 39 38 38 37 37

ECMWFFLT1_500_spd_012.txt.gz
Wind_Speed
22 21 21 21 21 23 22 22 22 23 23 22 20 20 20 19 18 17 17 18 19 19 19 18 18 19 19 18 18 18 17 16 16 17 16 15 14 13 13 13 14 15 16 14 12 11 8 6 4 3 5 7 8 8 8 8 9 9 9 9 9 10 11
23 23 22 21 22 23 23 23 24 24 23 22 22 22 20 20 19 19 20 21 21 20 19 19 19 20 20 20 19 18 17 17 18 18 18 17 16 15 15 15 15 17 16 14 12 11 7 4 3 4 6 8 9 9 9 9 9 9 9 9 10 10 12
23 24 23 23 24 24 23 23 22 22 23 22 22 22 21 20 20 21 23 24 23 21 20 19 19 20 21 21 20 19 18 18 19 20 20 19 17 17 16 16 17 18 16 14 12 10 7 5 4 6 7 8 9 10 9 8 8 8 9 10 11 11 12
22 24 25 24 26 27 26 25 23 22 23 23 22 22 21 21 21 23 24 25 24 22 20 20 20 21 22 22 21 20 19 20 22 23 23 21 19 19 18 18 19 19 16 13 11 10 9 7 6 7 7 8 10 10 10 9 8 9 10 11 12 13 14
20 22 24 26 27 28 28 25 23 23 23 23 22 21 21 22 23 24 25 25 23 22 22 22 21 21 22 23 23 22 22 22 24 24 24 21 21 20 19 20 21 19 15 12 10 10 9 7 7 7 8 9 10 10 9 9 9 10 11 12 13 14 15
17 16 19 24 26 27 27 24 23 24 25 24 23 21 21 22 23 24 25 23 23 22 22 22 22 22 22 23 23 23 23 23 23 23 22 21 21 21 22 23 22 18 14 12 11 9 8 7 7 7 8 8 9 9 9 9 10 11 12 12 14 15 16
16 14 14 19 23 26 26 24 24 26 27 26 24 22 21 21 20 21 22 21 21 22 22 22 22 22 22 22 22 22 22 22 22 21 20 21 22 23 24 24 20 16 14 12 10 8 7 7 8 8 8 8 8 9 10 11 12 13 14 14 15 16 17
19 17 15 15 19 23 25 24 24 26 26 24 23 22 21 20 19 19 18 18 20 21 21 22 22 22 22 21 20 21 21 20 20 19 21 23 23 24 25 23 19 16 13 10 9 8 8 8 9 9 8 8 9 10 11 12 13 15 16 16 17 17 19
20 20 19 16 16 19 22 22 22 23 24 23 22 22 21 19 19 18 18 18 19 20 21 22 23 22 21 20 19 19 19 19 20 21 23 24 24 25 24 22 19 15 12 10 10 9 9 9 9 9 9 9 10 10 11 12 14 16 17 17 17 18 19
21 22 23 21 19 19 21 21 22 23 25 25 24 23 20 17 17 18 19 19 18 18 20 21 22 22 21 19 18 18 18 19 21 24 24 24 25 25 24 22 18 14 13 12 11 10 10 10 10 10 9 9 9 9 10 12 14 15 16 17 18 19 20
23 23 23 24 23 21 21 22 23 25 27 27 24 23 21 17 15 16 18 17 17 18 19 20 21 22 21 19 17 17 18 19 22 24 24 25 25 25 24 21 18 16 15 14 12 12 11 10 10 10 10 9 9 9 10 12 14 15 16 18 19 21 23
24 23 23 24 24 23 22 23 24 25 28 28 25 24 23 19 16 16 17 18 18 19 19 20 21 21 21 19 17 17 18 20 23 25 25 26 27 26 24 21 19 18 16 15 14 12 11 10 11 11 11 10 9 9 10 12 13 14 17 19 20 22 25
25 24 23 24 23 23 24 24 23 25 28 28 26 25 24 21 19 18 19 20 22 22 20 20 22 22 22 20 18 18 19 19 23 26 27 28 28 26 24 22 20 19 17 16 15 13 12 12 11 11 11 9 8 8 9 11 13 15 18 20 22 24 26
28 25 23 24 24 24 24 24 23 26 28 28 28 28 27 25 23 22 21 22 25 25 23 22 23 22 22 21 20 19 20 20 24 28 29 29 29 27 25 24 22 20 19 18 17 16 15 13 11 10 9 7 8 9 10 12 14 17 20 22 24 27 28
30 26 24 26 26 26 25 24 25 26 28 29 31 32 31 29 26 25 24 25 26 28 26 24 23 22 21 21 21 20 22 23 26 30 31 31 31 28 27 25 23 22 21 19 18 17 14 12 10 8 8 9 10 11 12 15 17 20 24 27 29 31 31
31 31 29 28 29 28 25 25 26 25 26 30 33 35 34 31 28 27 27 26 26 28 28 27 25 23 22 20 20 22 24 26 28 32 34 33 31 29 28 27 26 24 21 19 17 15 12 9 8 8 10 12 14 15 16 18 20 25 29 32 35 36 36
34 36 35 32 30 29 26 26 26 26 27 31 35 37 36 32 30 29 29 28 27 27 28 29 28 27 25 23 23 24 26 28 31 33 35 34 31 30 29 29 27 25 21 18 17 14 11 9 8 9 11 14 17 18 19 21 24 29 33 35 38 41 41
38 40 40 38 34 30 29 29 28 28 29 33 36 38 36 33 32 32 32 31 29 29 30 31 31 31 29 27 27 28 28 29 33 35 36 35 33 32 31 30 28 24 20 18 16 14 12 9 9 11 13 16 18 21 22 23 26 31 33 35 39 41 41
38 39 42 44 40 35 34 34 34 33 33 33 35 36 35 35 35 34 34 32 32 32 33 33 32 32 30 29 29 29 29 30 33 35 36 36 34 34 34 33 29 24 20 18 17 15 12 11 11 13 15 17 19 21 23 24 27 30 32 34 37 38 39
39 38 41 44 43 40 39 38 38 39 37 36 36 36 37 38 37 35 34 34 35 36 36 35 33 32 30 29 29 29 29 31 34 36 36 36 36 36 36 34 29 25 22 21 19 16 13 13 13 14 16 18 20 22 24 26 28 30 31 33 34 36 38
42 40 41 41 41 41 41 42 42 42 41 39 39 39 40 39 38 36 35 36 38 40 39 37 34 32 30 29 29 30 30 30 33 35 36 37 37 36 36 35 31 27 25 23 20 16 14 14 15 16 17 19 21 23 25 27 29 31 33 34 34 35 37
44 44 43 42 41 40 41 42 42 42 42 41 40 40 41 41 41 40 40 41 41 41 40 38 35 33 31 31 31 32 31 30 32 35 37 37 36 36 36 36 34 30 28 25 21 17 16 16 16 17 19 20 23 25 26 27 29 32 34 33 32 34 38
46 46 45 44 43 43 43 44 43 44 45 44 42 40 41 44 44 44 43 43 42 40 39 38 36 34 33 33 33 34 33 31 31 34 37 38 37 36 36 35 34 32 30 27 22 19 18 18 19 19 20 22 24 26 26 27 30 32 33 32 32 34 38
50 49 47 46 46 47 47 47 48 49 50 47 43 40 42 45 46 45 45 45 43 41 38 37 36 36 35 35 35 35 35 33 32 33 37 40 40 38 36 36 35 34 31 28 24 22 21 21 21 21 22 24 26 27 28 28 31 33 33 32 33 36 38
55 54 52 49 49 50 50 50 50 50 50 49 45 42 42 45 46 45 46 47 47 45 41 39 39 38 37 36 36 35 34 34 33 33 36 40 42 40 37 37 36 35 32 29 27 25 25 24 23 23 24 26 28 29 29 30 32 33 34 34 35 37 38
54 56 55 53 53 54 55 54 53 52 51 51 49 46 44 46 48 47 48 49 48 46 44 44 43 42 41 40 38 36 35 35 36 35 36 39 42 41 39 39 37 35 32 30 30 29 27 25 25 26 26 28 30 31 31 33 34 34 34 36 37 37 38
47 49 52 54 57 59 60 59 57 55 54 53 52 51 49 48 49 50 50 51 49 46 46 46 45 45 45 45 43 40 37 36 38 38 37 38 40 41 40 40 38 36 33 32 32 31 29 28 28 27 27 30 32 32 33 35 36 36 36 37 37 37 38
46 47 47 50 53 56 60 62 61 60 59 58 57 57 55 53 53 53 54 54 52 49 47 47 47 46 46 47 47 45 43 40 40 40 40 40 40 41 40 39 39 38 37 37 37 35 33 32 30 28 28 31 33 33 35 38 39 38 37 37 36 37 38
46 47 46 47 48 49 52 57 60 63 64 63 62 61 59 58 57 58 59 60 58 54 50 49 48 46 46 48 49 49 49 46 43 43 43 43 43 43 40 39 40 41 41 42 42 41 39 37 34 30 30 32 33 34 36 40 41 38 35 35 36 38 39
46 46 45 44 45 47 49 52 55 58 60 62 62 61 59 59 59 59 60 62 62 59 57 56 54 51 51 51 51 51 53 52 49 47 46 47 48 47 43 42 43 45 46 47 47 49 49 45 40 35 31 31 34 36 38 42 41 35 33 36 39 40 40
46 46 46 44 44 45 48 52 55 56 56 57 59 60 60 60 59 59 61 62 62 61 59 58 59 58 55 53 53 55 56 56 54 51 49 50 52 51 49 48 47 48 50 51 51 53 52 49 44 37 33 32 35 39 41 42 40 36 36 40 42 42 42
48 48 49 49 48 47 48 51 55 58 58 57 57 58 58 59 59 60 63 64 65 65 65 65 66 65 61 56 56 57 57 59 60 57 54 53 55 55 55 52 50 52 54 55 56 55 53 50 45 38 33 34 38 42 43 41 39 39 41 43 43 43 42
53 53 54 54 54 54 53 53 53 55 57 60 61 60 60 62 63 64 66 67 67 66 62 61 62 63 63 63 64 62 60 60 62 61 58 56 56 58 57 55 56 59 59 58 58 55 50 46 41 36 35 37 42 45 42 37 37 39 42 42 43 44 42
56 57 58 59 59 59 59 58 57 54 52 56 59 60 61 64 66 67 68 69 70 67 62 57 56 57 61 66 69 70 69 67 66 66 65 63 62 60 59 59 62 64 63 61 57 52 48 44 40 39 39 41 44 45 40 35 35 38 40 41 43 43 40
57 57 57 58 58 58 58 59 59 56 53 53 55 56 57 59 61 63 65 66 67 69 69 67 65 63 63 66 68 70 72 73 73 72 70 68 67 66 64 63 65 66 66 64 57 51 49 47 44 43 44 45 44 41 37 35 36 37 38 39 40 37 34
56 56 55 54 53 53 53 53 54 54 53 54 55 56 57 58 58 60 61 62 64 66 69 70 68 65 64 66 66 64 68 73 77 78 76 75 75 76 72 67 66 69 71 66 56 50 49 49 47 46 45 42 39 36 35 36 38 39 38 37 34 32 31
54 54 54 53 52 52 51 50 50 51 53 55 56 56 57 59 59 60 60 61 63 66 68 69 69 66 65 66 61 56 60 66 67 68 72 76 79 80 76 67 65 69 68 61 52 48 50 50 47 43 39 36 35 35 37 38 39 40 38 35 32 31 32
54 53 52 51 51 50 50 49 49 50 51 52 54 55 57 58 59 61 61 62 63 65 66 68 68 67 67 68 63 56 57 61 59 56 57 63 67 70 68 63 61 61 57 50 46 47 47 46 42 38 36 37 37 37 38 39 40 40 37 33 31 31 32

ECMWFFLT1_500_spd_015.txt.gz
Wind_Speed
14 16 15 15 16 20 23 22 20 18 19 20 18 17 18 17 17 16 16 16 16 16 16 15 14 14 14 14 13 13 14 15 15 16 16 15 14 15 16 18 18 18 16 16 16 17 17 15 11 9 8 8 8 9 9 10 11 11 11 9 8 7 7
15 15 15 16 16 19 22 24 23 22 21 21 20 19 19 18 17 16 17 17 18 18 17 16 14 14 14 15 16 15 15 16 17 17 17 16 16 16 18 19 20 20 19 17 17 18 17 15 12 10 9 9 10 10 10 11 12 12 12 11 10 10 10
14 15 15 16 15 17 20 24 25 23 22 22 21 20 19 18 17 17 18 19 20 20 19 17 15 14 14 15 16 16 16 17 18 18 18 18 18 19 20 20 21 22 21 19 19 18 17 15 12 11 10 11 11 11 12 12 13 13 13 13 13 13 13
14 14 15 15 15 17 20 24 26 24 23 22 21 20 19 18 18 19 20 21 22 21 19 17 15 14 14 14 14 16 17 19 20 20 20 20 21 22 21 21 22 23 23 21 20 19 17 15 14 12 12 12 13 12 13 13 13 14 14 14 14 14 14
15 14 14 14 14 17 21 24 26 25 24 23 21 21 20 20 21 22 22 23 22 21 19 17 15 14 13 13 13 15 17 20 21 22 23 23 23 24 23 23 24 24 24 24 22 19 17 16 15 14 14 14 13 13 13 13 13 13 13 14 14 14 14
15 13 11 10 10 14 19 24 25 25 25 24 23 23 22 23 24 23 22 22 22 21 19 16 14 13 14 13 13 14 16 19 21 23 24 24 25 25 25 25 26 26 25 24 22 19 18 18 17 16 16 15 14 14 13 13 13 13 14 14 15 15 15
16 14 11 8 7 10 14 19 22 23 23 24 25 26 26 27 26 23 21 20 21 20 18 15 13 14 14 13 13 13 15 17 20 23 25 26 26 26 27 28 28 27 26 24 22 20 19 19 19 18 17 16 15 14 14 14 14 14 15 15 16 16 15
17 15 13 10 7 7 9 13 16 18 20 24 27 28 28 27 25 23 20 19 18 18 16 14 13 14 14 13 13 13 15 17 19 22 25 26 27 28 28 29 29 28 26 23 21 20 20 21 21 20 18 17 16 16 15 15 16 16 15 15 16 16 15
18 17 15 13 11 9 8 9 12 15 19 22 25 27 27 26 25 23 20 19 18 18 16 15 14 14 14 13 13 14 15 17 19 22 25 26 27 28 29 29 29 28 25 23 22 22 22 22 22 20 19 18 17 17 17 17 17 17 15 15 16 16 16
22 21 19 17 15 14 12 11 12 15 18 21 23 24 25 24 23 22 20 20 20 18 16 17 16 15 14 13 13 14 15 17 19 21 22 24 26 27 29 30 30 28 25 23 23 23 23 23 23 21 20 19 18 18 17 17 18 17 16 16 16 16 16
24 24 22 19 17 17 16 16 16 16 17 19 20 21 22 23 22 21 20 19 19 17 18 18 17 15 14 14 14 14 15 16 18 18 18 21 24 27 28 30 30 27 24 24 24 24 24 24 23 21 20 19 18 17 16 16 17 17 17 15 15 16 17
26 25 24 21 19 19 19 19 18 18 19 21 21 21 22 23 23 22 20 19 17 17 18 18 17 15 15 15 14 13 14 16 16 15 15 19 24 27 29 30 30 27 25 25 25 25 25 24 23 22 21 20 18 16 15 16 17 16 15 14 14 16 18
27 28 26 22 20 20 20 20 19 18 19 21 23 23 22 23 23 22 21 19 17 16 17 17 16 16 16 16 14 13 13 15 16 15 14 17 24 29 31 32 30 27 25 26 26 26 26 25 24 23 21 19 17 16 16 16 16 15 14 13 15 19 22
31 31 29 25 23 22 21 21 20 18 17 19 22 23 22 22 23 23 21 19 18 17 16 16 16 16 17 17 14 12 13 15 17 17 16 18 25 30 33 33 30 27 28 28 28 27 26 25 24 23 21 18 17 17 16 15 14 15 16 17 19 23 25
34 34 32 29 27 26 25 23 22 20 18 18 20 22 23 22 23 24 24 22 21 20 17 16 17 17 18 18 15 13 14 16 18 19 19 20 24 30 34 33 29 29 30 29 28 27 27 26 24 22 20 18 18 17 15 14 14 16 18 20 22 26 28
33 33 32 31 30 29 28 25 23 21 19 18 20 22 24 24 24 25 26 25 24 22 19 18 18 17 18 17 16 15 17 18 19 20 22 22 24 29 34 34 31 32 32 30 28 28 28 27 24 21 20 19 18 17 15 15 15 16 18 19 23 27 29
32 32 30 30 31 30 29 27 25 22 19 19 21 22 24 25 26 27 27 28 28 25 22 21 19 18 18 16 16 18 19 20 21 22 23 24 25 28 34 36 34 34 33 31 29 29 29 28 24 22 22 21 19 18 17 16 15 15 16 19 23 28 32
34 34 32 29 29 29 29 29 27 25 22 22 23 23 24 25 26 28 28 29 29 27 25 23 22 20 19 17 18 20 21 22 23 24 25 26 27 28 33 37 37 36 35 32 30 30 30 29 26 25 24 23 22 20 19 17 16 15 16 20 24 29 34
36 36 35 32 29 28 29 29 28 26 25 26 26 25 24 25 26 27 28 29 29 28 27 26 24 23 22 21 21 21 22 24 25 26 26 27 29 29 33 38 39 38 37 34 31 32 32 30 29 27 25 24 23 21 20 17 15 15 17 21 24 29 36
40 38 36 35 33 31 30 30 29 29 29 30 30 28 27 27 27 27 28 29 30 30 30 29 28 27 25 24 23 22 23 24 26 27 28 29 31 32 32 36 40 40 39 37 34 34 34 32 30 28 27 26 25 24 21 18 16 16 18 21 25 30 35
42 41 39 38 37 36 35 34 33 33 33 32 32 32 32 30 29 29 29 30 32 33 33 32 31 30 27 25 26 26 26 26 27 27 28 29 31 32 32 35 40 42 41 39 37 36 35 33 31 29 28 28 27 26 23 20 17 17 19 22 26 31 35
43 44 42 41 40 39 39 39 38 37 36 35 35 37 37 33 33 33 32 32 34 35 35 35 34 32 30 28 28 29 29 29 29 28 28 28 30 31 32 34 38 42 43 41 39 39 38 36 32 30 30 29 28 27 24 21 19 19 21 24 28 33 35
44 44 43 42 41 41 41 42 42 40 38 37 37 38 37 36 35 36 36 36 38 38 38 37 36 34 32 30 31 32 32 32 31 30 29 29 29 30 31 33 37 41 43 42 41 40 40 38 33 31 31 31 30 29 26 23 22 22 24 27 31 35 36
44 43 43 44 44 42 40 41 43 42 39 38 38 36 36 37 39 39 40 40 41 42 41 39 38 37 34 32 31 32 33 34 33 32 31 31 30 29 29 31 35 39 43 43 42 42 41 39 35 34 35 34 33 30 28 26 25 25 27 30 33 37 38
45 44 44 46 45 43 41 42 44 45 42 39 38 37 36 38 41 42 43 44 45 45 43 41 40 39 36 31 29 29 31 33 34 33 32 32 32 30 29 30 32 37 42 43 42 42 42 41 40 39 39 38 36 33 30 29 29 29 31 33 35 38 40
47 47 47 47 46 45 44 43 44 45 44 42 40 40 40 41 42 44 45 46 46 46 45 44 43 42 38 33 31 31 31 32 33 34 34 34 33 32 32 31 31 35 40 44 44 44 43 43 44 43 42 41 41 37 34 34 34 34 35 36 37 39 40
46 48 49 48 49 48 47 47 46 46 45 43 43 43 44 44 45 45 45 47 48 48 48 48 46 45 42 38 37 36 35 34 33 33 35 35 34 34 35 35 34 34 37 43 47 46 45 45 46 46 44 45 45 41 39 38 38 39 40 41 43 43 41
43 45 47 48 50 50 50 50 51 50 49 48 47 48 48 48 48 47 48 50 51 50 49 49 48 47 45 43 41 40 39 38 36 35 36 37 38 38 38 39 38 36 37 41 46 49 49 48 48 48 48 49 48 45 44 43 43 45 46 46 48 46 40
42 43 44 45 47 48 49 50 50 51 51 50 50 51 51 51 51 51 51 52 51 51 50 49 48 47 47 47 46 44 43 44 43 40 38 39 41 42 42 43 43 41 40 41 45 48 50 50 50 50 50 51 51 50 49 47 48 51 52 51 49 43 35
42 42 42 43 43 44 44 45 44 45 46 46 46 47 49 51 52 53 54 53 52 52 52 50 49 49 49 49 49 48 48 49 50 48 45 43 44 46 46 46 46 46 45 45 46 48 50 51 52 51 51 54 56 55 54 52 54 57 56 54 50 43 36
44 43 41 41 41 41 41 41 40 40 41 42 43 43 45 47 49 51 52 52 52 53 53 51 50 51 53 54 54 54 54 53 54 55 54 50 49 49 49 49 48 48 49 50 51 51 51 50 51 52 54 58 59 58 57 58 60 60 56 54 51 44 37
45 44 44 42 41 40 40 40 40 40 41 42 44 46 46 46 46 47 49 49 51 52 53 54 54 55 55 56 56 56 56 55 56 58 59 57 54 51 50 49 49 49 51 53 54 56 55 53 52 54 57 59 60 60 60 62 64 62 56 53 49 41 34
46 46 46 45 43 42 41 41 42 43 43 43 44 46 48 47 46 46 47 49 51 51 52 54 55 56 56 57 58 58 57 56 57 59 61 61 59 57 56 54 52 52 54 55 56 58 58 58 57 58 61 63 61 62 63 65 67 64 59 55 48 38 32
48 47 47 46 45 44 44 44 45 46 47 47 46 45 46 47 47 47 47 48 50 51 52 53 54 55 56 57 59 60 60 59 59 60 62 62 63 66 68 64 59 56 54 53 56 60 61 62 64 66 68 67 64 63 66 70 70 66 61 56 47 37 35
50 50 49 47 47 47 47 48 48 49 49 50 49 48 48 48 48 48 49 50 51 52 53 54 54 55 56 57 59 62 63 64 65 65 65 65 66 66 64 61 59 59 58 55 56 60 61 64 69 71 68 66 65 66 68 70 71 68 64 57 47 39 38
53 53 52 51 50 50 50 50 51 52 52 52 52 52 52 52 52 52 52 52 52 52 53 55 56 56 56 58 61 64 67 69 70 69 68 68 66 61 58 56 55 56 58 59 59 61 63 67 73 74 68 63 62 63 65 67 68 68 66 60 53 46 41
54 55 55 55 55 55 55 55 55 56 56 56 55 56 56 56 56 55 56 55 54 52 53 55 56 57 58 60 62 65 67 69 70 69 67 67 66 63 62 62 58 54 57 60 61 63 67 72 76 78 76 71 66 63 63 63 63 63 62 59 56 52 44
56 57 59 59 60 60 61 60 58 57 57 57 56 56 58 58 57 56 56 56 55 55 54 55 56 57 59 61 62 64 67 68 70 70 67 65 65 64 65 66 63 60 60 61 64 70 73 75 76 78 81 82 78 72 66 62 59 59 58 56 57 53 42

ECMWFFLT1_500_spd_018.txt.gz
Wind_Speed
23 23 21 19 17 14 11 11 13 13 14 13 12 13 13 12 11 11 11 11 12 13 12 12 12 11 12 14 15 16 15 15 14 14 14 15 16 16 17 17 17 16 16 15 15 15 16 17 17 16 13 11 11 11 10 9 10 11 12 13 13 12 13
23 22 21 21 19 17 13 12 15 16 16 15 15 16 16 14 12 10 11 13 13 14 14 13 12 11 12 14 15 16 17 17 17 16 16 16 17 17 18 19 18 18 17 17 16 15 16 19 19 17 14 12 12 11 10 9 10 11 12 13 13 13 13
21 19 18 18 18 16 14 13 15 18 19 18 17 18 18 16 13 12 13 14 15 16 15 13 12 12 13 14 15 15 17 18 18 18 17 18 19 19 19 20 20 20 19 19 18 16 17 19 20 19 16 14 13 12 10 9 9 10 11 12 13 12 12
22 19 18 18 17 17 16 17 17 19 21 21 20 20 20 18 16 15 17 17 17 17 15 14 15 15 15 15 15 15 16 18 20 20 19 20 21 21 21 21 21 22 21 20 20 18 18 19 20 20 17 15 14 13 11 10 9 10 10 11 12 12 12
22 21 20 20 20 20 19 20 19 19 21 23 23 22 21 21 20 19 19 19 19 18 17 17 16 15 14 14 14 15 16 18 20 21 21 21 22 22 22 22 23 24 23 22 21 20 20 20 21 21 19 17 16 14 12 10 9 10 10 11 12 12 12
19 21 21 20 20 20 19 20 20 20 21 23 24 23 22 23 22 20 20 20 19 18 18 17 15 14 14 14 15 15 15 16 18 20 21 22 23 23 23 24 25 25 25 24 23 22 22 21 21 22 20 19 17 15 13 11 10 10 10 11 12 12 12
17 20 20 18 17 17 17 18 19 21 22 24 25 25 25 26 25 22 21 20 20 19 18 16 14 14 16 16 16 15 15 15 16 19 20 22 22 23 24 25 26 26 27 26 25 24 23 22 22 22 21 20 18 16 14 12 11 11 11 12 13 13 13
18 20 20 18 16 15 13 13 14 17 21 25 27 27 28 27 25 23 21 19 20 20 19 15 13 14 17 18 16 15 15 15 15 16 18 20 21 23 25 25 26 28 28 27 26 25 24 24 23 22 21 21 20 18 16 13 12 12 13 13 14 14 14
19 20 21 20 18 16 12 10 11 13 18 23 26 27 28 27 26 23 20 19 20 20 19 16 14 16 18 18 16 15 15 14 13 14 15 17 20 22 25 26 27 29 29 28 28 27 26 25 24 23 22 21 21 20 18 15 14 14 15 15 15 15 15
21 22 23 22 21 19 16 13 13 14 16 19 22 23 24 24 23 22 20 20 20 19 18 17 17 19 18 17 16 16 15 13 12 13 14 16 18 20 23 25 27 30 30 30 30 28 27 26 25 23 22 22 22 21 20 18 16 16 16 16 16 16 16
25 25 26 25 24 23 20 18 17 15 14 15 16 16 17 18 19 19 20 20 18 16 17 18 20 19 18 17 17 16 14 12 12 12 14 15 16 18 20 23 26 29 31 31 31 29 27 26 24 23 23 23 23 23 23 21 18 18 18 18 17 18 17
27 28 29 27 26 25 23 20 19 16 14 13 12 12 13 14 16 18 18 17 16 15 16 19 20 20 18 17 17 15 13 12 12 12 13 14 15 17 18 20 23 26 29 31 31 29 27 25 24 23 24 25 24 24 24 22 20 20 20 19 19 20 19
27 28 29 28 27 26 25 23 21 19 17 14 13 13 14 15 15 16 16 16 15 15 16 18 20 20 19 18 16 14 12 11 12 12 13 13 15 17 18 19 21 23 25 28 29 27 25 24 24 24 25 26 26 26 25 24 22 21 21 21 22 22 21
24 26 27 28 27 27 26 25 24 22 21 18 17 16 17 17 17 17 17 17 17 17 17 18 19 19 18 18 16 13 10 11 12 12 13 15 16 17 18 19 20 22 23 24 25 25 24 24 25 26 27 27 27 27 26 24 23 22 22 23 25 25 24
22 24 27 28 28 27 26 25 24 24 24 22 19 18 19 19 20 20 19 19 19 19 18 17 18 17 17 17 16 12 11 13 14 13 14 16 17 18 19 20 20 22 23 23 23 23 24 26 28 28 28 28 28 27 26 24 23 22 23 25 27 27 26
21 24 26 27 28 27 25 24 24 24 25 23 21 20 19 19 20 20 20 19 20 20 19 19 18 17 16 16 14 12 14 16 16 14 14 15 18 20 20 21 21 22 23 23 22 22 24 28 30 29 28 28 28 27 26 24 23 23 25 26 27 27 27
24 25 26 26 27 28 27 25 26 27 27 26 23 21 19 18 19 20 21 20 21 21 21 21 20 18 16 15 14 14 15 16 17 17 16 15 18 20 22 23 23 23 23 23 21 21 24 29 31 30 28 28 28 28 27 26 23 24 26 27 27 28 28
26 27 27 26 27 28 28 27 28 29 28 27 26 23 21 20 20 21 22 21 21 22 22 22 22 21 18 17 17 17 15 15 17 18 18 17 18 21 24 25 26 26 26 24 22 21 24 28 30 31 29 29 29 29 29 27 24 25 27 27 28 30 31
28 28 28 27 27 28 28 27 29 30 29 29 29 25 21 21 21 20 20 20 22 24 25 24 23 23 21 19 20 18 16 15 16 18 20 21 21 23 26 27 27 27 29 27 24 22 23 26 30 32 31 30 31 31 30 28 26 27 28 28 30 32 33
29 29 29 29 28 28 28 26 28 30 31 31 30 25 22 22 22 20 20 23 26 27 26 25 24 24 23 23 23 21 19 18 18 19 21 23 23 24 24 26 27 28 30 30 27 23 23 25 28 32 33 32 31 32 32 30 29 30 30 31 32 34 35
32 30 30 31 30 30 29 28 27 29 30 32 31 28 26 25 24 23 24 26 27 25 24 24 25 26 26 26 25 24 23 22 21 21 22 24 25 24 23 24 26 27 28 30 29 25 24 26 28 32 34 34 33 34 34 32 32 33 33 33 34 36 37
35 33 32 32 32 32 31 31 30 29 29 30 30 29 28 28 27 25 26 29 28 25 24 25 26 27 28 28 28 27 25 24 24 23 23 24 26 27 26 25 25 26 27 29 30 28 26 26 29 31 34 36 36 35 35 35 35 36 36 36 37 39 39
37 36 34 34 34 34 33 33 32 31 30 30 30 29 28 28 28 28 29 31 31 28 27 27 28 28 28 28 29 28 28 27 27 26 25 25 26 28 28 28 26 27 27 27 29 29 28 27 29 32 35 38 39 38 37 38 39 39 39 38 39 41 41
39 38 37 36 36 36 36 35 34 32 31 31 32 32 31 30 30 30 31 32 32 31 30 30 30 29 29 30 30 30 30 30 30 30 29 29 29 29 29 30 28 28 29 28 28 29 30 30 31 33 36 38 40 40 39 40 42 42 41 41 42 43 43
40 40 39 38 37 38 39 38 37 34 33 33 34 34 33 33 33 33 33 33 33 33 34 33 31 31 32 32 32 32 33 32 32 32 31 32 32 32 31 32 31 30 30 31 31 31 31 32 32 33 35 37 40 42 43 44 45 44 44 44 45 45 45
40 40 40 39 39 39 40 41 40 38 36 35 35 35 34 34 34 34 34 35 35 35 34 33 32 33 33 34 35 36 36 36 35 34 33 32 32 32 33 33 33 32 32 33 33 33 34 34 34 34 35 36 39 43 46 47 47 46 46 47 48 48 48
41 41 40 40 40 41 42 43 42 41 40 38 38 37 37 36 36 35 35 35 35 35 34 33 34 35 36 36 37 37 38 39 38 36 34 33 33 34 35 35 34 33 33 35 37 37 37 36 36 36 36 36 38 43 47 49 49 48 49 51 52 51 50
43 43 42 42 41 42 44 45 44 44 44 42 40 40 39 39 39 39 38 37 36 34 34 34 36 37 38 38 38 39 40 40 39 39 38 37 37 37 38 39 37 35 34 36 39 41 41 40 39 39 38 38 39 42 47 50 50 49 51 54 55 54 53
44 44 44 44 43 44 46 47 47 46 47 45 43 42 41 41 41 42 41 40 39 37 37 38 38 39 41 41 41 42 43 42 41 42 42 41 39 39 41 42 42 41 39 38 40 43 44 44 43 42 41 41 41 43 46 49 51 52 54 56 56 56 55
43 43 44 45 45 45 47 48 49 49 49 48 46 45 44 43 43 43 43 42 42 42 42 42 42 42 43 43 44 45 46 45 44 43 44 44 43 43 44 45 45 46 47 46 46 46 46 46 47 47 46 45 45 45 46 48 51 54 56 58 59 58 57
43 43 43 45 45 45 46 48 48 49 49 50 49 49 47 46 46 46 46 46 46 47 47 47 48 47 46 45 45 46 46 47 46 44 44 45 46 45 46 46 47 49 51 52 53 52 50 49 49 50 51 50 50 49 48 49 54 58 59 60 60 59 58
43 43 43 43 43 43 44 45 46 47 47 48 49 49 48 47 45 45 46 47 47 47 47 48 48 48 48 47 47 47 47 48 48 46 46 46 48 47 46 47 49 50 51 53 54 54 54 53 52 52 54 56 56 54 52 52 56 60 63 64 64 62 60
44 43 43 43 42 42 43 43 43 44 44 44 44 44 43 42 40 39 39 40 40 41 41 42 43 44 45 45 45 45 45 45 45 46 46 47 48 48 48 49 51 52 53 54 54 55 56 55 54 54 56 57 59 59 58 58 60 63 66 67 66 64 62
44 43 43 42 40 40 41 41 42 42 42 42 42 40 39 39 38 38 38 38 38 38 39 39 41 41 42 43 42 43 43 43 44 45 47 48 50 50 51 52 53 54 55 56 56 56 56 56 55 56 56 58 58 59 61 62 64 67 70 70 68 65 63
46 44 42 41 40 40 41 41 41 41 42 42 42 41 40 40 40 40 40 40 40 40 40 41 41 42 43 44 44 44 45 46 47 48 50 52 53 54 55 56 57 58 59 59 59 59 59 58 58 58 60 61 61 61 61 63 65 66 66 66 65 63 64
52 49 46 45 44 44 44 43 41 41 42 42 43 42 42 42 43 44 44 44 44 44 44 44 44 44 45 45 46 47 48 49 50 52 53 55 56 57 58 59 60 61 61 61 61 61 61 62 61 63 66 66 63 59 59 62 66 65 61 59 59 59 61
56 54 52 50 49 48 47 45 43 42 43 43 44 44 44 45 46 47 47 48 48 47 47 47 47 48 48 49 49 50 51 53 54 55 57 58 59 60 61 62 63 63 63 63 62 62 63 64 64 66 69 68 63 58 57 62 67 66 62 61 61 61 61
57 57 55 53 52 50 49 48 46 44 44 45 45 46 46 47 49 50 51 51 50 50 50 50 51 52 52 53 53 53 54 55 57 58 58 59 60 62 63 64 65 66 66 65 64 63 64 65 65 67 68 67 62 59 58 63 68 69 68 68 69 69 67

ECMWFFLT1_500_spd_021.txt.gz
Wind_Speed
25 23 22 21 21 21 21 20 18 17 17 19 19 19 18 17 16 15 15 16 17 17 18 18 18 18 17 18 18 19 18 16 15 15 15 16 16 17 17 17 17 17 17 16 15 14 14 13 13 12 11 12 12 11 11 10 9 9 6 4 5 7 8
27 25 23 22 21 20 21 22 22 21 20 20 20 20 18 17 15 13 14 15 16 17 17 18 18 17 18 19 20 19 19 18 17 17 16 16 17 17 18 18 18 18 18 17 16 16 15 15 15 14 13 12 12 12 12 11 10 10 8 5 4 5 6
27 25 23 22 21 20 19 20 22 22 22 21 21 20 19 17 15 14 15 16 17 18 17 17 17 17 18 19 19 20 19 19 19 18 18 19 19 19 19 19 19 19 19 18 18 17 17 17 17 16 14 13 13 13 13 12 11 11 10 7 4 4 5
26 26 25 23 21 19 18 19 20 21 23 23 23 22 21 19 18 17 17 17 18 19 18 18 19 19 20 19 19 19 20 20 20 20 21 21 22 21 21 20 20 20 20 20 20 19 18 18 18 18 16 15 14 13 14 14 12 12 12 9 6 4 4
26 27 26 23 19 17 16 17 18 19 20 22 23 24 22 22 21 20 19 19 19 20 19 20 20 20 19 19 18 18 19 20 20 21 22 23 24 23 22 22 21 21 22 22 21 20 20 19 19 19 18 17 15 14 15 15 13 13 13 12 8 6 5
26 27 26 22 20 19 18 18 18 18 19 20 22 23 23 23 23 22 21 20 20 21 20 20 18 18 18 18 17 17 18 19 19 20 21 22 24 24 23 24 23 23 23 23 23 22 21 21 21 21 20 19 17 16 15 16 15 14 15 14 11 8 7
26 27 27 24 21 21 22 21 20 20 21 22 24 25 25 26 24 24 24 23 22 21 20 18 17 17 18 18 19 18 18 19 19 20 20 21 22 23 24 25 24 24 24 25 24 23 22 22 22 22 22 21 20 18 16 17 17 16 15 16 14 11 9
25 27 29 26 24 23 23 22 20 21 23 24 26 27 27 26 26 26 25 23 22 22 20 18 17 17 19 20 20 20 20 21 20 20 20 20 20 21 23 24 25 25 25 25 25 25 24 24 24 24 24 23 22 20 18 18 18 17 17 17 16 13 11
28 29 29 28 27 26 25 23 22 22 24 26 28 29 29 28 27 26 25 23 23 22 20 18 18 18 20 21 21 21 22 21 20 19 18 18 19 19 21 23 25 26 26 26 27 26 26 25 25 25 25 25 23 21 19 19 19 18 18 18 18 15 13
32 32 31 29 29 28 27 25 24 23 23 25 27 29 30 29 28 26 25 24 23 21 21 20 19 20 20 21 21 22 23 21 19 18 17 17 18 18 19 21 22 24 25 26 26 27 27 26 26 27 27 26 24 22 21 20 21 20 20 20 19 17 15
35 34 33 31 31 30 29 28 25 23 23 23 24 25 29 30 29 27 25 24 23 21 22 22 21 21 21 21 22 23 23 21 19 18 17 17 17 17 18 19 19 20 21 23 24 25 25 26 27 27 27 26 25 23 22 23 23 22 22 22 21 19 16
33 34 35 34 33 32 32 31 28 25 23 23 22 22 25 27 27 26 25 24 23 22 24 24 23 23 22 22 23 23 23 21 19 17 17 16 16 16 17 16 16 16 16 17 18 19 20 22 24 26 26 26 25 25 24 25 25 24 23 23 22 20 18
26 30 34 34 34 34 34 33 30 27 25 25 23 22 23 24 24 25 24 24 24 24 25 25 24 23 21 21 22 23 23 21 19 18 17 16 16 15 14 12 11 11 11 11 11 11 13 15 18 21 23 24 26 26 26 27 26 25 25 24 22 21 19
20 25 29 32 32 33 34 34 31 28 25 24 24 23 22 23 23 24 23 23 24 25 25 24 23 21 20 19 19 20 21 21 19 18 17 16 15 14 12 9 8 7 8 8 8 9 9 10 13 15 18 22 25 27 27 28 27 26 26 25 23 22 21
18 21 25 28 30 31 32 33 32 30 26 23 24 24 23 23 23 23 22 22 23 23 23 23 22 20 19 17 16 17 20 21 20 19 18 16 15 13 11 10 8 7 8 8 9 10 10 10 11 13 15 19 24 27 28 28 27 26 27 26 25 24 23
19 20 22 24 27 28 29 31 31 30 28 26 25 25 24 23 22 21 20 20 20 20 20 21 20 19 17 15 13 15 19 21 21 20 18 16 14 13 12 12 11 10 10 11 11 12 12 12 12 12 15 18 23 27 28 27 27 27 28 28 27 26 26
22 21 22 23 24 26 28 30 29 30 29 28 27 26 24 23 21 20 19 20 20 20 20 20 20 18 16 14 13 15 18 20 20 20 18 16 15 14 13 14 14 14 13 13 14 14 14 13 12 13 15 18 22 25 27 27 27 28 29 29 29 29 28
24 24 23 23 24 25 28 29 28 28 28 28 28 27 25 24 23 22 20 19 21 21 22 21 20 19 18 16 16 16 17 18 19 19 18 17 17 16 15 15 16 16 16 16 17 18 16 14 13 14 15 17 20 23 24 27 29 30 30 30 31 31 31
27 27 26 25 24 25 27 27 27 27 27 28 29 28 26 25 25 24 21 20 21 23 23 22 21 21 21 20 19 18 17 17 18 17 18 18 18 19 19 17 17 17 19 20 20 20 19 16 14 14 15 16 18 20 22 26 30 31 31 32 33 34 34
30 30 29 27 26 25 25 25 25 26 26 28 29 28 28 27 26 26 25 25 25 25 24 24 24 25 24 23 22 20 19 19 18 17 17 18 19 20 21 19 18 18 19 20 21 20 19 18 16 15 15 16 17 19 22 26 29 31 32 33 35 36 37
33 32 31 29 27 26 25 25 24 25 25 27 29 29 28 27 26 27 29 29 28 27 26 27 28 28 27 26 24 23 22 22 21 20 18 18 20 21 21 20 19 18 18 19 20 20 19 19 18 17 16 17 19 20 22 24 27 31 33 35 36 38 40
34 33 32 30 28 27 26 26 25 25 26 27 28 29 28 28 28 28 30 31 30 29 29 29 28 27 28 27 25 25 25 24 23 23 22 20 20 21 22 22 21 20 20 21 22 23 22 22 21 19 19 19 20 21 22 23 25 28 33 36 38 40 42
35 35 34 32 30 29 28 28 27 27 27 27 28 29 29 30 30 30 30 30 30 29 29 29 28 26 26 25 24 23 23 24 26 26 26 24 23 22 23 23 23 23 23 24 25 26 26 26 25 23 23 23 23 23 24 25 24 26 31 37 40 43 43
38 37 36 34 33 31 31 31 30 29 28 28 28 29 30 31 32 32 31 31 31 31 30 30 29 27 25 24 23 23 23 24 27 28 28 28 27 26 25 25 25 26 27 28 30 30 29 30 29 28 27 27 26 25 26 28 27 27 30 36 41 44 45
39 38 37 37 35 34 33 33 32 31 30 30 30 30 30 31 32 32 32 33 34 33 32 30 29 28 27 26 26 26 26 27 27 28 29 29 28 28 29 29 29 29 30 32 33 33 33 33 33 32 31 30 30 29 29 30 30 29 30 35 41 45 47
41 40 39 38 37 36 35 35 35 34 33 32 32 32 32 32 33 33 33 33 33 33 32 31 30 31 31 31 31 31 31 30 30 30 32 32 31 31 32 33 32 32 32 32 32 32 34 35 35 35 34 33 34 34 33 33 33 31 32 35 40 44 48
43 41 39 39 39 39 38 37 38 37 36 34 34 34 34 34 35 35 35 35 35 34 33 34 34 35 35 35 35 34 32 33 33 34 36 36 35 35 34 34 33 34 34 34 33 32 33 34 35 36 35 36 36 37 37 37 36 34 34 37 40 43 47
45 43 41 40 40 41 40 40 39 39 38 37 35 35 36 36 36 36 37 37 37 37 36 36 36 37 37 37 36 34 33 34 35 35 37 38 37 36 36 35 36 37 37 37 36 36 35 35 35 35 36 36 37 37 39 40 40 39 39 39 41 43 46
47 46 44 42 41 41 42 42 41 41 40 39 38 37 38 38 37 37 38 38 38 38 37 36 36 36 37 37 36 35 34 36 36 36 37 38 38 38 38 38 39 40 40 39 39 39 38 37 36 36 36 37 37 38 38 40 42 43 44 44 45 45 46
47 47 46 44 41 41 42 43 43 42 42 41 40 40 40 39 39 39 39 39 40 40 39 38 38 37 37 37 37 37 37 38 38 38 38 39 40 41 42 42 43 43 43 42 42 41 41 41 40 40 40 40 40 40 39 39 40 42 45 47 48 49 49
48 48 47 46 43 42 42 43 43 43 42 42 42 42 42 41 41 41 40 41 42 42 42 42 41 40 40 39 39 40 40 40 41 41 41 42 43 44 45 45 46 46 45 45 45 44 43 43 43 43 44 44 44 43 42 42 42 42 42 44 47 52 54
48 48 48 47 45 43 42 42 42 43 43 44 44 44 44 44 43 42 42 42 43 44 44 44 44 43 42 41 42 42 43 44 44 44 44 44 45 46 46 47 48 48 48 47 47 47 47 46 47 47 47 46 46 46 46 46 46 45 45 46 49 53 56
46 47 47 46 45 44 42 39 39 40 41 43 43 43 45 46 46 45 44 43 44 46 46 46 46 45 45 45 45 46 47 47 46 46 45 45 46 46 47 48 49 50 50 49 48 48 48 49 50 50 48 47 47 49 50 51 50 48 48 50 51 52 55
45 44 44 45 44 44 42 39 37 36 38 39 40 40 41 42 44 45 45 46 46 47 48 48 48 48 47 47 47 47 48 48 47 46 46 46 47 48 49 49 50 51 51 49 47 47 48 49 50 50 49 49 50 52 54 55 54 52 52 53 53 52 54
45 43 42 42 43 43 43 41 38 37 37 37 37 37 37 39 41 43 44 45 45 45 46 46 46 45 45 44 43 42 43 44 44 44 44 45 45 47 48 48 50 51 51 50 50 50 50 50 50 51 51 52 54 56 57 57 57 56 56 57 56 56 57
46 44 43 42 43 44 43 42 40 39 37 36 35 36 38 39 41 42 42 42 43 42 43 43 42 42 41 41 41 41 42 43 43 44 44 45 45 46 46 47 49 50 50 51 52 52 52 53 53 54 56 57 58 59 60 60 59 59 60 60 60 59 61
49 47 46 45 45 45 44 44 42 40 38 36 35 35 38 40 41 41 41 42 42 43 42 42 42 41 42 42 42 43 44 45 46 46 47 47 47 48 48 49 50 51 52 53 54 55 56 57 57 58 60 61 62 62 62 63 63 62 62 63 64 64 66
52 50 49 48 47 47 47 46 44 41 39 39 38 37 38 40 41 42 42 43 44 44 43 43 43 44 45 45 46 47 47 48 49 50 50 51 51 52 52 52 53 54 55 56 57 58 59 61 62 63 64 65 65 65 65 66 65 64 63 64 66 68 71

ECMWFFLT1_500_spd_024.txt.gz
Wind_Speed
30 29 27 26 25 24 23 23 24 25 25 24 24 24 24 23 23 23 24 24 24 24 24 24 23 23 22 21 21 21 20 20 19 19 18 18 18 18 18 18 18 18 17 17 16 14 12 12 12 11 10 9 8 8 8 8 8 9 9 9 8 5 4
30 29 27 26 25 24 24 24 25 26 26 26 26 26 25 24 24 23 23 23 23 24 23 23 23 23 22 22 22 21 21 20 20 19 19 18 19 19 19 18 18 18 18 18 17 16 14 14 13 12 11 11 10 9 9 9 9 10 10 10 9 7 6
30 28 27 26 25 24 24 25 26 26 27 27 27 27 26 25 24 23 22 22 23 23 23 23 22 22 22 22 22 22 21 20 19 19 19 19 20 20 20 19 18 19 18 18 18 17 16 15 15 14 13 13 12 11 11 11 11 10 10 10 10 8 7
31 29 27 26 25 25 25 25 26 27 27 28 28 28 26 25 25 24 23 23 23 22 22 22 22 22 22 23 23 22 21 20 20 20 20 21 21 21 20 19 19 19 19 19 19 18 17 16 16 15 15 14 14 13 13 13 13 12 11 11 10 9 8
32 30 29 27 25 25 24 24 23 24 25 26 27 28 27 27 26 26 25 24 23 22 21 22 23 23 24 23 22 22 21 21 20 20 20 21 21 21 20 21 21 21 21 21 20 19 18 18 17 17 17 16 16 15 15 15 15 14 13 12 11 10 9
33 32 30 27 26 24 22 21 19 19 21 23 25 27 27 28 28 27 27 25 24 23 22 23 23 23 23 22 22 21 21 20 20 19 20 20 21 21 21 22 22 23 22 22 22 20 19 19 18 18 18 18 18 17 16 16 16 16 15 13 12 11 10
35 33 30 28 26 24 21 20 18 18 20 23 26 27 28 29 29 28 28 26 25 24 23 23 23 23 23 22 22 21 21 20 20 20 20 21 21 21 21 22 23 23 24 24 23 22 21 20 20 20 20 20 20 19 18 18 17 17 17 16 14 12 12
35 33 31 30 28 25 23 22 21 21 22 24 26 26 28 29 29 28 27 26 26 25 24 23 22 22 22 22 22 22 22 21 21 21 22 22 21 21 21 22 23 24 25 24 24 24 23 22 22 21 22 22 22 21 20 19 19 18 18 18 16 15 14
34 33 32 31 30 28 25 24 24 24 24 25 24 24 27 29 29 28 27 27 27 26 25 23 22 22 22 22 22 22 23 22 22 23 23 22 21 20 21 22 23 24 24 24 25 24 23 23 23 23 23 24 24 23 22 21 20 20 19 19 19 17 16
35 33 33 32 31 30 29 29 28 27 26 25 24 24 26 27 28 29 29 29 29 27 26 25 24 23 23 23 23 23 23 23 23 23 23 22 21 21 22 22 22 23 23 24 24 23 23 23 24 24 24 24 24 24 24 23 22 21 21 21 21 20 18
37 36 35 35 34 34 34 33 31 29 28 26 25 25 26 26 26 27 29 29 29 28 28 28 26 23 23 24 24 24 23 23 23 23 23 23 22 22 22 22 21 21 21 21 21 20 21 21 22 23 23 24 24 25 25 25 24 23 23 23 23 22 21
39 38 37 37 38 38 38 36 34 32 31 29 27 26 26 26 26 26 27 27 28 28 29 29 28 25 24 25 25 23 22 23 23 22 22 23 23 22 22 21 20 19 19 19 18 17 17 17 18 20 21 22 23 24 25 25 25 24 24 25 25 24 23
41 40 39 39 39 40 40 39 37 35 34 32 29 27 27 27 27 27 26 25 26 28 30 30 29 27 25 25 25 23 22 22 22 22 22 23 22 22 21 20 18 16 16 15 14 13 11 11 12 14 17 19 20 21 23 24 25 25 25 26 26 25 25
42 41 40 40 40 40 41 41 39 37 36 35 32 29 28 28 28 27 26 25 25 27 30 30 30 28 27 26 25 23 21 22 22 22 23 23 23 22 21 18 15 13 13 13 11 9 8 6 7 9 11 14 16 18 19 22 23 23 24 25 26 26 26
40 41 42 42 41 40 41 42 41 40 38 37 35 32 29 28 27 26 24 24 24 25 28 31 31 30 29 27 24 22 21 23 23 23 24 24 23 22 20 18 15 14 13 12 11 9 7 5 5 7 9 12 13 16 17 19 20 20 22 24 25 26 26
35 38 41 43 43 43 43 43 43 42 41 39 37 33 29 27 26 25 23 23 23 23 26 29 31 31 29 26 23 22 22 24 24 24 24 24 23 22 21 19 16 15 14 13 12 10 8 7 7 8 9 11 13 15 17 18 18 19 21 23 24 26 27
29 32 36 39 41 43 44 44 42 42 41 40 38 35 31 27 25 25 24 23 23 23 25 27 28 27 25 23 22 22 23 24 25 25 24 23 23 22 21 19 18 16 15 14 13 11 10 10 10 10 11 12 14 15 17 18 18 18 20 22 24 25 27
28 28 30 32 33 34 36 38 38 38 39 40 39 38 34 29 27 26 26 24 23 24 25 25 25 24 23 23 23 23 23 23 24 24 23 22 21 21 21 20 19 17 16 15 14 13 14 14 13 13 14 14 15 16 17 18 18 18 20 22 23 24 26
28 27 27 27 27 27 28 30 32 34 36 37 38 39 37 33 29 27 25 24 24 25 25 23 23 23 22 23 23 22 22 22 22 21 20 20 21 21 21 21 20 18 17 16 16 16 17 17 17 17 16 16 16 17 18 19 19 19 20 22 24 24 26
27 26 26 26 25 24 23 23 26 28 30 32 33 35 36 34 31 29 27 25 25 25 23 22 22 22 22 21 21 20 20 20 20 19 20 20 21 21 22 22 21 20 19 18 18 19 19 19 19 19 19 19 18 19 20 20 19 19 21 23 25 26 28
27 27 27 27 26 25 22 21 22 23 24 26 26 28 30 32 32 31 29 27 25 24 23 23 23 23 22 21 20 20 20 19 18 19 20 21 22 21 22 23 23 22 21 21 20 21 20 20 20 19 19 20 20 20 21 20 20 20 20 23 26 28 30
30 29 29 29 29 27 25 24 23 21 21 22 23 24 26 29 31 31 29 28 26 24 24 25 24 24 23 22 21 21 20 20 20 20 20 21 22 22 21 21 22 22 23 23 22 22 22 22 22 22 23 23 23 22 22 23 23 23 22 23 26 29 31
34 33 32 32 31 30 29 27 25 23 22 22 23 25 26 28 30 30 29 28 27 26 26 27 26 26 26 25 24 23 22 22 22 23 22 22 22 22 21 21 22 23 24 24 25 25 25 25 25 26 27 28 27 26 25 25 26 26 25 25 27 30 32
37 36 35 34 34 33 31 29 27 26 24 24 25 26 27 28 29 29 29 29 28 26 27 27 27 27 28 28 27 26 25 24 23 24 25 23 22 23 24 24 24 25 25 25 26 26 27 27 28 28 29 30 31 31 30 30 29 28 28 29 30 33 33
39 39 38 36 36 35 33 31 30 28 27 26 27 28 28 29 30 30 30 30 29 28 26 26 27 28 29 29 28 27 26 25 24 25 25 24 24 25 26 26 27 27 28 29 28 27 28 29 29 29 29 29 31 33 34 34 33 32 30 31 32 34 35
40 39 39 38 37 36 36 34 32 31 30 29 29 30 30 31 31 31 31 31 31 29 27 26 28 29 30 30 30 28 27 26 26 26 26 26 26 27 27 27 29 30 32 31 30 30 30 30 31 31 30 29 30 32 33 34 34 34 33 33 34 35 37
39 39 38 38 38 37 37 36 35 34 33 32 31 31 32 33 32 32 32 32 31 30 29 29 30 31 32 33 33 31 30 28 28 27 27 28 30 30 30 30 32 34 35 34 34 33 33 33 33 34 34 33 34 34 34 34 35 36 35 34 35 36 39
38 38 38 38 38 38 37 37 37 36 35 35 34 33 34 34 34 33 33 33 32 32 31 31 32 33 35 36 36 35 34 33 32 31 31 32 33 34 34 34 35 37 37 37 37 37 36 37 37 37 37 38 39 39 38 38 38 38 37 35 35 36 38
39 39 39 39 38 38 37 37 38 37 37 37 36 35 36 36 36 35 35 34 34 34 33 33 34 35 36 38 38 38 37 36 36 36 36 36 37 36 36 37 38 38 38 39 39 39 39 40 41 41 41 42 43 42 42 41 40 40 38 37 36 37 38
39 39 40 40 40 39 38 38 38 38 38 37 37 36 36 37 37 37 36 36 36 36 36 36 36 37 37 38 39 39 38 38 39 40 40 40 40 39 38 38 39 39 39 40 41 41 42 42 43 44 44 45 45 45 44 44 43 43 40 38 39 40 41
40 40 40 41 41 41 40 39 39 38 38 38 38 37 36 37 38 38 37 38 38 38 38 38 38 39 39 40 40 41 41 40 40 40 40 41 40 39 39 39 40 41 41 41 42 43 43 43 44 46 47 47 47 47 46 46 46 45 43 41 41 43 44
42 40 40 40 42 42 42 41 39 38 38 38 38 38 37 37 38 38 38 39 39 39 40 40 40 40 41 41 41 42 42 41 40 40 40 40 40 40 40 40 41 42 42 43 44 44 44 44 45 47 48 49 49 50 49 49 48 46 44 44 45 45 45
44 42 41 40 41 42 42 42 40 39 38 38 38 39 39 38 38 39 39 39 39 40 41 41 42 42 42 42 42 42 42 42 41 41 41 42 42 42 42 42 43 43 44 45 45 44 45 46 47 49 51 52 53 53 53 52 51 49 46 45 46 46 47
45 44 42 41 41 41 41 41 41 40 39 38 39 39 40 40 39 39 39 40 40 41 42 42 43 43 43 43 43 44 44 44 44 44 44 45 45 45 45 45 46 47 47 47 46 46 47 48 50 51 53 54 55 55 56 55 54 52 49 46 46 48 49
46 45 44 43 41 40 40 40 40 40 40 39 39 39 39 40 40 41 41 41 42 42 42 43 44 44 45 45 45 46 46 46 47 47 48 48 49 49 49 49 49 50 49 49 49 49 50 51 53 53 54 55 55 56 57 57 56 56 53 51 52 53 54
47 46 45 44 43 41 40 39 39 39 39 39 39 38 38 39 39 40 41 42 42 42 42 42 43 44 45 46 47 48 49 49 49 49 49 49 48 48 48 48 49 49 49 50 50 51 52 53 53 53 54 55 56 56 57 58 58 58 57 56 56 57 58
47 47 46 45 44 43 42 41 40 39 39 39 39 38 37 37 37 37 38 40 41 41 41 42 42 44 45 46 47 48 49 48 48 47 46 45 44 43 43 44 45 46 48 49 50 51 52 53 54 54 55 56 57 57 58 59 59 60 60 59 59 60 62
47 47 47 47 46 45 44 42 41 40 40 40 40 39 37 36 36 36 36 38 39 41 42 42 43 44 45 45 46 46 46 46 45 44 43 43 43 42 42 43 44 45 47 49 51 53 54 55 56 57 58 59 59 59 60 60 61 62 63 63 62 63 65

ECMWFFLT1_500_spd_027.txt.gz
Wind_Speed
31 29 28 28 27 26 25 23 22 23 22 21 22 22 24 24 24 23 23 23 23 23 23 23 23 23 22 22 22 21 21 20 19 19 19 19 18 17 17 17 16 15 15 14 12 11 10 10 9 9 8 7 7 7 8 8 9 9 8 6 4 4 4
32 30 28 30 29 27 26 24 24 24 23 22 22 23 23 23 23 23 24 24 25 25 25 25 24 24 23 23 23 22 21 20 20 19 19 19 19 18 18 17 17 17 16 15 14 13 12 11 11 11 10 9 8 9 9 9 9 10 10 8 7 5 5
27 27 29 30 27 25 25 25 24 25 24 23 23 23 23 23 23 24 25 26 26 26 26 26 26 25 25 24 23 22 21 20 20 20 20 20 20 19 18 17 17 17 17 17 16 15 14 13 13 12 12 11 10 10 11 11 11 10 11 11 9 8 7
28 27 29 28 25 24 26 26 25 25 25 24 23 23 23 24 25 26 26 26 26 26 26 26 26 25 25 24 23 21 20 20 19 20 20 21 21 20 18 17 17 17 17 17 17 16 16 15 15 14 14 13 12 12 12 13 12 12 12 12 11 11 10
32 29 29 27 26 26 26 26 25 24 24 24 24 24 24 25 26 26 26 26 26 26 26 26 26 25 24 23 22 22 20 20 19 19 19 20 20 19 18 18 17 17 17 17 17 17 17 16 16 16 16 15 14 14 14 14 14 13 13 13 13 13 12
37 32 28 27 27 27 25 25 25 25 25 25 25 26 26 26 26 26 26 26 26 26 26 25 24 23 22 23 22 22 21 20 19 19 19 19 19 19 18 18 19 18 18 18 18 18 18 18 17 17 17 17 17 16 16 16 16 15 15 14 14 14 14
38 33 28 28 27 24 23 24 26 26 26 26 26 26 26 26 26 25 25 24 25 25 24 23 23 22 22 22 22 21 21 20 20 20 19 19 19 18 19 19 19 20 20 19 19 19 19 20 19 19 19 19 19 18 18 18 17 17 17 16 16 16 16
37 31 27 28 27 24 25 26 26 27 27 25 25 25 26 26 27 26 25 24 24 24 23 22 22 22 22 22 22 21 21 21 21 20 20 19 19 19 19 19 20 20 20 19 20 20 20 20 20 20 21 21 20 20 20 20 20 19 18 18 18 18 18
37 31 27 27 27 27 29 28 26 26 25 24 24 25 26 27 27 26 24 24 24 24 22 22 21 21 22 22 22 22 22 22 21 21 20 19 19 19 19 19 19 19 19 19 19 20 20 20 20 20 21 22 22 21 21 21 21 21 20 20 20 20 20
37 35 31 28 28 27 27 26 25 24 24 24 25 26 26 26 26 26 25 25 24 23 22 23 23 22 21 21 21 23 23 22 22 21 20 19 19 20 20 20 19 19 19 19 19 19 20 20 20 19 20 21 22 23 23 23 23 23 22 22 22 22 22
38 35 33 31 28 26 25 24 23 23 23 24 24 25 26 26 25 26 27 27 25 25 25 25 25 24 22 21 23 23 23 22 22 20 19 20 20 20 20 20 19 19 19 19 19 19 20 20 19 18 19 20 21 23 24 24 24 24 24 23 23 23 23
34 30 31 31 29 28 28 26 25 25 25 24 24 24 24 25 26 26 27 28 28 28 28 27 27 25 23 23 24 23 22 21 21 19 19 20 21 21 21 20 19 19 19 19 19 19 19 19 18 17 17 19 20 21 23 24 24 24 24 24 23 23 23
29 27 31 33 32 32 32 30 29 29 28 27 27 25 23 24 26 27 26 26 28 29 28 27 27 26 25 25 25 24 22 21 20 19 20 21 22 21 21 21 20 19 19 19 19 19 18 18 17 15 15 15 16 17 19 21 23 23 24 24 23 23 23
31 31 33 34 34 34 33 33 33 32 32 31 31 29 26 25 26 27 26 27 27 28 27 27 27 27 27 28 27 25 23 22 22 22 22 22 23 22 21 21 20 19 20 19 18 17 17 16 15 14 13 13 13 14 15 16 17 18 19 21 21 22 22
34 34 36 38 37 35 34 34 35 35 36 35 34 33 31 29 27 27 27 27 27 27 27 27 27 27 28 29 30 27 25 24 24 24 24 24 23 22 21 21 21 21 20 19 17 16 16 16 15 14 13 12 11 12 12 12 13 14 15 17 19 20 20
36 37 40 40 38 38 38 37 38 39 39 38 37 35 34 33 31 29 28 28 27 26 27 26 25 25 26 28 30 30 28 27 26 25 25 25 23 23 22 22 22 22 20 18 17 16 16 16 16 14 13 12 11 11 11 11 11 12 13 15 17 19 19
38 40 42 41 39 40 41 40 41 41 41 41 39 38 37 36 34 32 31 30 28 27 27 26 23 22 23 25 28 30 29 28 27 27 26 26 24 24 23 24 23 22 20 18 17 17 17 18 17 15 14 13 12 12 11 11 12 12 14 16 17 19 20
38 39 39 39 38 38 39 40 42 42 42 41 40 39 39 38 36 35 33 32 31 29 27 25 23 20 20 21 25 27 27 26 27 27 26 26 25 24 24 24 24 22 20 18 17 18 19 19 18 17 16 15 14 13 14 14 14 14 15 16 18 20 21
37 38 38 38 37 38 39 39 40 42 42 41 39 38 37 38 38 37 36 35 34 31 28 25 23 21 20 20 21 23 24 25 25 25 25 25 25 25 24 24 23 22 20 18 19 20 21 21 20 19 18 17 16 16 16 16 17 17 17 18 19 21 22
36 36 36 36 36 38 38 36 35 38 39 40 39 37 36 37 38 38 37 37 35 33 29 25 24 23 21 20 20 20 22 23 23 24 24 25 24 23 22 22 22 22 20 20 20 21 21 22 22 21 20 20 19 18 18 18 18 19 19 19 20 22 24
33 33 33 33 34 33 33 33 34 36 37 38 38 37 35 36 38 39 39 38 36 33 30 25 23 22 21 21 20 21 21 21 22 22 22 22 22 21 20 20 21 21 21 21 21 22 22 23 23 23 22 22 21 20 19 18 19 19 21 22 22 24 26
32 33 34 32 31 29 28 30 31 31 33 35 35 35 35 35 37 39 39 38 37 34 31 26 22 20 20 20 19 19 20 20 21 21 20 20 20 19 18 19 20 21 22 23 23 23 24 24 24 24 24 24 24 23 22 21 21 20 21 23 25 27 29
35 35 34 31 30 29 28 27 26 25 27 29 31 32 33 34 36 37 38 39 38 35 32 27 22 19 18 17 17 17 17 18 19 19 19 19 18 17 18 19 21 22 23 23 23 23 24 25 26 26 26 27 27 26 26 25 24 23 22 23 26 28 31
35 33 31 30 30 30 29 27 26 25 24 24 25 27 30 31 33 34 35 36 37 36 34 28 23 20 19 18 18 18 18 18 19 19 19 19 19 18 19 20 21 23 24 24 24 24 25 26 27 27 28 29 29 29 28 28 27 25 24 24 25 28 31
36 33 32 32 31 30 29 28 27 26 25 23 23 24 26 28 30 31 31 32 34 36 35 30 25 23 22 22 21 21 21 21 22 22 21 21 21 22 22 22 23 24 25 26 26 26 27 28 28 28 29 29 29 29 29 29 29 29 27 26 26 27 30
38 37 36 35 32 31 30 29 28 28 27 26 24 25 26 26 28 29 29 30 31 32 33 32 29 27 26 25 25 24 24 24 24 24 23 23 24 24 24 24 24 24 25 26 26 27 28 29 30 30 30 30 30 30 30 29 30 30 29 29 29 29 31
40 39 38 37 35 34 33 31 30 30 29 28 27 27 27 27 27 28 28 29 30 31 31 32 31 30 29 28 27 26 26 26 25 24 25 25 25 25 25 25 25 25 25 26 27 29 29 30 32 32 32 31 31 32 32 32 33 33 32 32 32 33 34
42 42 41 40 38 37 36 34 33 32 31 29 28 29 29 29 29 28 28 29 31 31 31 31 31 32 32 30 28 28 27 27 26 26 26 27 26 26 26 26 27 27 27 28 30 32 32 33 34 35 35 34 34 34 34 35 36 36 35 34 35 36 38
43 43 44 43 41 40 39 37 36 35 34 32 30 30 30 31 30 29 29 30 32 32 32 31 32 33 34 32 30 29 29 28 27 28 28 28 28 29 29 29 30 30 31 32 33 35 35 35 36 38 38 38 37 37 37 36 37 39 38 36 37 39 40
43 43 44 44 44 43 41 40 39 38 37 35 33 32 32 32 32 31 31 31 31 33 34 33 32 33 34 34 33 31 30 29 29 29 30 31 32 32 32 33 34 34 35 36 37 39 39 39 39 40 40 40 40 40 40 40 40 41 41 39 38 39 41
43 42 43 44 45 44 43 43 41 40 39 37 35 35 34 34 34 34 33 32 32 34 35 35 34 34 34 35 34 33 32 31 30 31 32 34 35 36 37 37 38 39 39 40 42 43 42 42 42 41 41 41 42 43 43 44 44 45 45 43 40 41 43
44 43 42 43 44 44 44 44 42 41 40 39 38 37 36 36 36 36 35 35 35 35 35 35 35 35 35 35 35 35 34 34 33 34 35 37 38 39 40 41 42 43 43 44 44 44 44 43 43 43 43 43 44 45 46 47 48 48 48 47 44 45 47
44 43 43 42 42 43 44 43 42 42 41 40 40 39 38 37 37 37 37 37 37 36 36 36 36 36 36 36 36 36 37 37 37 38 39 40 41 42 43 44 45 46 46 46 45 44 44 44 44 44 45 45 46 47 48 49 50 50 50 50 49 48 50
45 45 44 42 41 42 42 42 41 42 41 41 41 40 40 39 39 38 38 38 37 38 38 37 37 38 38 38 38 38 39 40 40 41 42 43 44 45 46 46 47 47 46 46 45 45 45 45 45 46 47 48 49 49 50 51 51 51 52 53 53 52 53
46 46 45 44 42 41 41 40 40 40 40 40 40 40 40 40 40 40 39 39 38 39 38 38 38 39 39 40 40 40 40 41 41 42 43 44 45 46 46 46 46 46 46 45 45 46 46 47 48 48 49 50 51 51 51 52 52 52 54 56 56 55 55
47 47 46 46 45 43 42 41 40 40 40 39 39 40 40 40 40 40 40 40 39 39 39 39 39 40 40 41 41 41 42 42 43 43 43 44 45 46 46 46 46 46 47 47 47 48 50 50 51 51 51 51 52 51 52 53 53 54 56 57 58 57 56
49 49 48 47 46 45 44 43 42 41 40 39 39 39 39 39 40 40 39 40 40 40 40 40 40 41 41 41 42 42 43 44 44 45 45 46 47 47 47 48 48 49 49 50 51 51 52 51 50 49 49 50 51 51 52 53 54 55 57 58 59 60 59
50 50 49 49 48 47 46 45 44 42 41 41 40 40 40 39 39 39 39 39 40 40 40 41 41 41 42 43 43 44 45 46 46 47 47 48 49 49 49 49 50 51 51 51 51 51 50 49 48 47 48 49 50 52 53 54 55 57 59 60 61 63 64

ECMWFFLT1_500_spd_030.txt.gz
Wind_Speed
31 29 23 22 23 23 21 20 21 21 20 17 14 16 18 19 20 21 21 21 21 21 21 21 21 20 20 20 21 20 18 17 16 16 15 13 12 11 10 10 10 9 8 8 7 7 7 6 7 7 6 5 5 6 5 5 6 7 7 8 8 8 7
30 30 26 24 25 23 21 21 22 21 19 15 13 15 17 19 20 21 22 22 22 22 21 21 21 20 21 21 21 20 18 16 15 15 14 13 12 11 10 10 9 9 8 8 8 8 8 8 8 8 7 6 7 7 7 7 7 7 8 8 8 9 8
29 31 30 25 22 21 21 22 23 23 19 15 13 14 15 17 19 21 22 22 22 22 21 21 21 21 21 21 20 19 17 15 14 14 14 13 13 12 10 10 10 10 10 9 9 9 9 9 10 10 9 9 8 9 9 8 8 8 9 9 9 9 9
26 28 30 23 17 19 20 20 23 23 17 14 14 14 14 17 19 21 22 22 22 21 21 21 22 22 21 20 19 17 15 14 14 14 14 14 13 12 11 11 11 11 12 12 11 10 10 11 11 11 12 12 11 11 11 10 10 10 10 10 10 10 10
23 25 27 21 16 19 21 19 20 21 17 15 16 16 16 18 19 20 20 21 21 21 21 21 21 21 19 18 17 16 15 14 14 14 14 14 14 13 13 13 13 12 12 13 12 12 12 12 12 13 13 14 14 14 13 13 12 12 12 12 12 11 11
21 25 27 23 18 18 21 19 18 20 21 21 19 18 18 18 19 20 20 20 21 20 20 20 19 18 18 17 16 16 15 14 14 13 13 14 13 13 13 14 13 13 13 13 14 13 14 14 14 15 15 15 15 15 15 15 15 15 14 14 14 13 12
24 26 27 28 22 17 19 20 19 22 25 25 22 21 20 19 18 19 20 19 19 19 19 18 18 17 17 17 17 16 16 15 14 14 14 14 14 13 14 14 14 15 14 14 14 14 14 15 15 16 16 16 17 17 17 17 17 17 16 16 16 15 15
27 26 28 31 25 19 20 22 22 23 25 25 23 21 18 18 19 19 19 19 19 19 19 18 18 18 18 18 18 18 18 17 16 15 15 14 14 14 14 15 15 15 14 14 14 14 14 14 14 14 15 16 17 17 18 19 19 19 18 18 18 17 17
25 25 28 27 24 23 22 21 20 20 22 25 24 19 16 17 18 18 19 20 20 20 19 19 19 19 20 19 19 19 19 18 17 16 15 14 14 14 15 15 16 15 15 15 15 14 14 14 14 13 14 15 16 17 18 19 20 20 20 20 20 19 18
23 25 26 21 20 22 21 19 19 20 23 26 25 20 16 15 17 18 19 20 20 20 20 20 20 20 19 19 19 19 18 17 17 16 16 15 15 15 15 15 15 14 14 14 13 13 14 14 14 14 14 14 15 16 18 19 20 21 21 21 22 22 21
25 30 29 25 25 24 20 19 21 22 23 22 21 20 18 17 18 18 19 20 19 20 20 20 20 19 19 19 19 18 17 17 16 16 15 15 16 16 15 15 14 14 14 14 13 13 14 14 15 15 15 14 14 14 16 17 19 20 21 21 22 23 22
27 29 29 28 30 28 21 18 20 23 23 18 16 18 18 18 19 18 19 20 20 21 21 21 21 20 20 20 19 18 17 16 15 15 15 15 15 16 15 14 14 14 14 14 13 13 14 15 15 15 14 13 12 12 13 14 15 17 19 20 21 22 23
27 28 28 26 27 24 17 15 20 24 23 19 17 18 18 18 18 18 19 20 21 22 22 22 22 21 21 21 20 19 17 16 15 15 16 16 16 16 15 15 14 14 15 15 15 14 14 15 15 14 13 13 11 10 10 11 12 14 15 17 18 19 20
28 29 29 27 25 20 14 17 23 25 23 20 19 18 19 19 19 20 20 21 22 22 22 23 23 22 21 21 21 20 18 18 17 17 17 18 17 17 17 16 15 15 15 16 16 15 15 15 15 13 13 12 10 9 9 9 10 11 12 14 15 15 16
29 30 29 28 25 20 17 20 24 25 23 22 21 20 19 20 20 21 22 22 22 21 22 22 22 22 21 20 21 21 21 21 20 19 20 20 20 19 19 18 18 17 17 16 17 16 15 15 14 13 12 12 11 9 9 8 9 9 10 12 13 14 14
32 31 29 29 27 24 21 22 25 27 25 23 22 22 21 20 20 20 21 22 21 21 21 21 21 22 22 21 22 23 25 25 24 23 22 22 22 21 21 20 20 19 18 17 17 17 16 15 13 12 12 12 11 10 9 8 8 9 10 11 13 14 14
34 33 32 32 32 30 26 25 26 27 26 24 24 24 23 22 21 21 21 21 21 21 22 22 21 21 22 22 23 24 26 27 26 25 23 23 23 23 22 22 21 19 18 18 17 17 17 15 13 13 13 13 12 11 9 9 9 10 11 13 15 16 16
35 34 32 31 31 30 28 28 28 27 26 26 27 27 26 24 22 21 21 21 21 21 22 21 21 21 20 21 22 23 24 26 26 25 23 22 23 23 23 22 20 19 18 18 18 17 17 16 14 14 14 14 14 12 11 10 11 11 13 15 17 19 19
33 34 32 30 28 27 27 29 30 31 30 30 29 29 29 27 25 24 23 22 22 21 21 21 21 20 19 19 19 19 21 22 23 22 21 21 22 23 23 21 19 18 18 18 18 17 17 17 16 16 15 15 15 14 13 13 13 14 15 16 18 20 21
32 34 33 31 28 26 27 28 29 30 30 30 30 30 30 29 28 27 26 25 23 22 23 23 23 23 21 20 19 19 19 20 20 19 19 20 21 22 21 19 18 18 18 18 18 17 16 17 18 18 17 17 16 16 16 16 15 15 16 17 18 20 22
30 32 32 31 28 27 27 28 27 26 26 27 28 28 28 28 28 29 28 27 26 26 25 26 26 26 25 23 21 20 20 20 18 18 18 18 19 20 18 17 17 18 18 17 17 17 17 17 18 18 18 18 18 17 16 16 16 16 16 16 18 20 22
30 33 33 31 29 27 27 27 26 26 26 28 29 29 29 29 29 30 30 29 29 29 28 28 28 28 27 25 23 21 19 19 18 18 17 17 18 18 17 17 16 17 17 17 17 17 17 17 17 17 18 19 19 18 16 16 16 16 16 17 19 22 24
33 34 32 30 27 24 25 27 26 26 28 30 33 33 32 31 30 30 31 30 31 32 32 32 31 30 28 27 24 21 18 17 17 18 18 18 18 17 16 16 16 16 17 17 16 16 16 16 17 17 17 18 18 18 17 18 18 18 17 18 20 22 23
33 32 31 31 26 21 24 27 26 27 27 29 31 31 31 31 30 30 31 30 31 33 34 34 34 33 31 29 27 21 16 15 15 15 16 16 16 15 15 15 16 16 16 16 16 16 16 16 17 17 18 18 18 18 19 20 21 21 20 21 22 23 24
33 31 31 30 25 22 26 27 26 25 25 25 26 27 27 28 28 28 29 29 30 33 34 35 36 35 33 32 29 22 18 17 15 14 14 14 14 15 15 15 16 16 17 17 17 17 18 17 17 18 19 20 20 20 20 21 22 23 24 24 26 27 27
34 32 32 30 27 26 28 28 26 26 25 24 24 25 24 24 24 24 24 25 27 29 31 33 36 36 35 34 31 25 21 20 18 17 17 17 17 17 16 17 17 18 18 19 19 20 20 20 19 19 19 20 21 21 21 22 23 24 25 26 27 28 29
35 33 33 31 29 29 30 29 27 27 27 26 25 25 24 23 21 21 22 22 23 25 27 30 33 35 35 35 33 29 24 23 22 21 20 21 20 19 19 19 19 20 20 21 21 22 22 22 22 21 21 21 22 22 22 23 25 25 25 26 27 29 31
38 37 36 35 33 32 32 31 29 28 28 28 28 27 26 24 22 21 22 22 22 23 25 27 29 31 32 33 34 32 28 26 25 24 24 24 24 23 22 22 22 21 21 22 22 23 23 23 24 24 24 25 25 25 26 26 28 28 28 28 29 31 33
42 41 40 38 37 35 34 34 32 31 31 30 30 29 28 27 25 24 24 24 24 24 25 25 26 28 30 31 32 32 31 29 27 26 26 26 26 25 25 25 24 23 23 23 24 24 25 26 26 27 27 28 29 29 29 30 31 32 32 32 33 34 36
43 42 42 41 40 38 37 37 36 35 33 32 32 31 31 29 28 27 27 26 26 26 26 26 26 27 29 30 30 30 31 30 29 29 29 28 28 28 27 27 26 26 26 26 27 27 28 28 29 30 30 32 33 33 34 34 35 36 35 34 35 36 37
43 43 43 43 42 40 39 39 38 36 35 34 33 33 33 32 30 29 28 28 28 28 29 28 28 27 28 29 30 30 31 31 31 31 31 31 31 30 30 29 29 28 28 28 29 30 30 31 32 33 34 35 36 37 37 38 39 39 39 38 37 38 39
45 44 44 45 44 42 42 42 40 38 37 36 35 35 35 34 32 30 29 29 29 30 31 31 30 29 29 29 30 31 31 31 31 32 33 34 34 33 32 32 31 31 31 31 32 32 33 34 35 36 37 38 39 40 41 42 42 43 43 44 43 42 42
47 45 45 46 46 45 45 45 43 42 40 39 38 38 37 36 35 32 31 31 31 32 32 32 32 31 30 30 31 31 31 32 32 33 34 35 36 36 35 34 34 34 33 34 35 36 36 37 38 39 40 41 42 43 44 45 45 46 47 49 48 46 46
49 47 45 46 46 46 47 47 47 45 44 42 42 41 40 39 38 36 35 34 33 34 34 34 33 33 32 32 32 32 32 32 33 34 34 35 36 37 37 36 36 36 36 36 37 38 39 40 40 42 43 45 46 47 48 48 48 48 50 51 51 50 50
50 48 46 45 45 46 47 48 48 47 46 46 45 44 43 42 41 40 38 37 36 36 35 35 35 34 34 34 33 33 33 33 34 35 35 35 36 37 38 37 38 38 39 39 40 41 41 43 44 45 47 48 50 50 50 50 50 51 52 53 53 54 54
50 49 47 45 45 45 46 47 47 47 47 48 47 46 45 44 43 42 41 39 39 38 37 37 37 37 37 36 36 35 34 35 36 36 36 36 37 37 38 39 39 40 41 42 42 43 45 46 47 49 50 51 51 51 51 51 51 52 54 55 57 57 57
50 49 48 46 45 45 45 46 47 47 47 48 48 48 47 46 45 44 43 42 41 41 40 39 39 39 39 38 38 37 36 37 38 37 37 38 39 39 39 40 41 42 43 43 44 45 46 47 49 49 50 51 52 52 53 53 54 55 56 57 58 58 58
51 50 49 47 46 46 46 46 47 47 47 48 48 48 48 47 46 45 44 44 43 43 42 41 41 41 40 40 40 39 39 40 40 39 39 40 41 41 41 42 43 44 44 44 46 47 48 49 49 50 51 52 53 54 54 55 56 57 57 57 57 57 57

ECMWFFLT1_500_spd_033.txt.gz
Wind_Speed
20 17 15 17 18 17 15 14 13 12 13 15 18 20 20 21 21 22 22 24 24 22 19 16 14 14 14 15 15 14 13 13 13 13 13 11 9 8 8 8 7 7 6 5 4 4 5 5 4 3 4 4 4 4 4 4 4 5 6 7 7 6 5
19 19 20 20 20 19 17 15 13 12 13 16 18 19 20 20 21 22 22 23 23 22 21 19 17 15 15 15 15 14 13 13 13 14 13 11 10 9 9 9 8 7 6 6 6 6 6 6 5 4 4 5 5 5 5 5 5 5 6 7 7 7 7
17 17 19 19 19 19 18 16 14 12 13 17 18 18 20 22 22 22 22 23 23 21 20 19 18 17 16 15 14 13 13 13 13 13 12 11 10 9 9 9 9 8 8 8 8 8 8 8 8 7 7 7 7 7 7 6 6 6 6 6 7 7 8
17 17 17 17 19 20 20 19 17 14 15 17 18 19 21 23 23 22 22 23 22 20 19 17 17 17 17 16 15 14 13 13 13 13 12 11 10 9 9 9 9 9 9 9 9 9 9 9 10 10 10 10 10 10 10 9 9 8 7 7 7 7 8
20 20 19 18 19 20 21 21 18 16 16 18 18 19 20 22 23 22 22 22 21 20 18 17 16 16 17 16 15 14 14 13 13 12 11 11 10 9 9 9 9 9 9 8 8 9 9 10 10 11 11 11 11 11 12 12 11 11 10 9 9 8 9
24 21 20 19 19 21 22 20 18 17 17 19 20 19 19 21 22 22 22 22 21 19 17 16 15 15 14 14 14 14 14 13 12 12 12 11 11 10 10 11 10 9 9 9 9 9 9 10 10 11 12 12 12 12 13 13 13 13 12 11 11 11 10
24 19 19 19 18 20 21 19 18 19 19 20 21 19 17 19 20 20 21 22 20 18 17 15 15 14 14 13 13 13 13 12 12 13 13 12 12 12 11 11 10 10 10 9 9 9 9 10 10 10 11 12 12 13 13 14 14 14 14 13 13 13 12
24 20 20 20 19 19 19 18 19 20 19 18 17 17 17 18 18 18 20 21 19 17 16 16 16 16 16 15 14 14 13 13 13 14 14 14 13 12 11 10 10 10 9 9 9 8 8 9 9 9 9 10 11 12 13 14 15 16 16 15 14 14 14
24 21 21 21 21 22 20 19 19 17 15 14 15 16 17 17 16 17 20 20 19 17 17 17 17 16 16 15 14 14 14 13 13 13 13 13 12 12 11 10 9 8 8 8 8 8 8 8 8 8 8 9 10 11 13 14 14 15 16 16 15 15 14
27 23 20 19 21 24 23 21 18 14 14 14 16 17 17 16 15 16 18 19 18 18 17 17 17 17 16 15 14 14 14 13 12 12 11 11 11 10 9 9 8 8 8 8 8 8 8 7 7 7 8 9 10 10 12 13 12 13 13 14 15 14 14
28 24 21 21 22 24 25 22 17 14 15 17 16 16 15 15 15 15 16 18 18 18 17 17 16 16 16 15 14 14 13 12 11 11 10 9 9 8 8 8 8 8 8 8 8 8 8 7 7 7 7 9 9 9 9 10 10 10 11 12 12 13 13
25 22 21 20 19 22 23 22 19 17 18 19 19 17 16 15 15 15 17 18 18 17 17 16 15 15 15 15 14 14 13 12 11 10 9 8 8 8 8 8 8 8 8 9 9 9 8 8 8 7 6 7 7 7 7 7 7 8 9 9 10 11 11
20 18 17 15 17 20 20 20 19 18 18 20 20 18 17 16 15 17 18 18 18 17 16 16 15 15 14 14 14 14 13 12 11 10 9 8 8 8 9 9 9 9 9 10 10 10 9 9 8 7 6 5 5 6 5 5 5 6 7 7 7 8 8
21 21 18 13 17 18 18 19 19 17 17 18 20 19 17 16 15 17 18 17 17 17 16 15 15 14 14 15 14 14 14 13 13 11 10 10 10 10 10 10 10 10 10 10 10 10 10 10 8 7 6 5 4 5 5 4 4 4 5 5 5 6 7
24 23 19 13 12 13 15 17 19 19 17 17 19 19 17 16 16 17 17 16 16 16 16 15 13 12 12 13 13 13 15 15 14 13 12 12 12 12 12 12 13 12 11 11 10 10 10 10 9 7 7 6 5 5 4 4 4 3 4 4 4 5 7
24 22 19 14 11 12 14 15 17 19 19 18 20 19 18 18 18 18 16 16 15 14 14 13 11 9 8 8 10 12 14 15 15 15 15 15 14 14 14 15 15 14 12 11 11 11 10 10 9 8 8 7 6 5 4 4 4 4 4 4 5 5 6
25 22 20 18 14 13 14 15 16 17 17 19 20 21 21 21 21 20 18 17 16 14 12 10 8 7 6 7 9 10 11 13 14 16 17 17 17 16 17 18 17 15 13 12 12 12 11 11 10 9 8 7 6 5 5 4 4 4 5 6 7 6 6
26 22 21 22 19 17 17 17 18 18 18 20 22 23 25 24 23 21 19 17 16 14 12 10 8 8 8 8 8 9 11 12 14 15 17 17 18 18 19 19 18 16 14 13 13 14 13 12 11 10 9 8 7 6 6 6 6 6 7 9 9 9 7
29 29 28 27 23 19 18 20 22 23 22 22 23 24 24 23 21 20 18 17 16 15 13 11 10 9 9 9 9 8 9 12 13 15 16 17 18 19 20 20 19 16 15 14 15 14 14 13 12 10 10 9 8 7 7 7 7 8 9 10 11 12 10
28 31 30 27 22 18 18 19 21 23 24 23 24 24 23 21 20 19 18 17 16 15 13 11 10 10 10 10 10 9 9 11 12 14 14 15 17 19 19 20 19 17 16 16 15 13 13 14 13 11 10 9 10 9 8 8 8 9 11 11 12 12 11
27 29 26 22 22 22 20 17 16 17 19 21 24 24 24 22 21 19 18 16 15 14 13 12 12 12 12 12 12 12 11 11 12 14 14 15 16 17 17 18 18 17 17 16 15 14 15 15 14 12 10 9 10 10 10 10 11 11 12 12 12 13 12
26 26 24 20 21 22 22 19 17 15 15 17 19 21 22 21 20 19 17 16 15 15 14 14 14 14 14 15 15 15 15 14 13 14 14 15 15 15 16 17 17 17 17 16 16 16 15 13 12 12 12 11 10 10 9 11 12 12 12 12 12 13 14
24 24 23 22 21 20 21 20 18 17 16 17 18 19 20 20 19 18 17 16 15 15 16 16 17 17 18 18 17 17 18 18 16 14 14 16 16 15 16 16 16 17 18 17 17 15 14 13 13 13 13 13 11 9 9 10 11 12 12 11 11 13 13
25 25 25 24 22 20 20 20 19 18 17 17 17 18 19 20 20 19 18 17 16 16 16 16 18 20 21 21 20 20 19 20 19 17 15 16 17 17 17 17 17 18 18 17 16 15 14 14 14 13 13 12 11 11 10 10 11 12 12 12 13 14 15
27 27 26 25 23 21 20 20 20 19 17 17 18 19 20 20 20 20 20 20 20 20 19 18 19 22 24 25 24 23 22 22 20 18 15 15 16 16 17 17 17 17 17 17 16 15 14 13 13 12 12 12 12 12 12 11 12 13 13 14 15 17 18
29 28 27 26 25 23 22 21 21 20 19 19 20 20 21 20 19 20 20 21 22 22 22 21 22 24 26 27 27 25 25 24 22 19 17 15 15 15 15 16 17 17 17 17 17 16 15 14 13 12 12 12 13 13 12 12 13 14 14 15 17 19 21
31 29 29 29 27 25 23 23 23 23 22 21 20 21 21 20 19 19 19 19 20 22 23 24 25 26 27 28 29 28 27 27 25 22 20 18 18 18 17 17 17 18 17 18 18 17 16 15 14 13 13 13 13 13 13 13 14 15 16 18 20 22 24
32 31 31 30 29 26 24 23 24 25 23 22 21 22 21 21 20 19 18 18 18 19 22 24 25 26 27 28 29 29 29 29 28 25 23 22 21 21 21 20 20 20 19 19 19 18 17 16 16 15 14 14 14 14 15 16 17 18 19 21 22 24 26
35 34 34 32 30 28 26 25 25 25 24 23 22 22 22 22 21 20 18 18 17 18 20 21 23 24 25 26 27 28 29 30 30 28 26 25 25 24 24 24 23 23 22 22 21 20 18 17 17 16 16 16 17 17 18 19 20 21 23 25 26 27 29
38 38 37 35 32 30 29 28 26 25 24 24 24 24 24 24 23 22 21 19 19 19 20 20 21 22 23 24 25 26 28 29 29 29 28 28 28 28 26 26 26 26 26 25 24 22 21 20 20 19 19 20 20 21 22 23 24 26 28 29 31 31 32
43 42 41 38 36 33 32 30 29 27 26 25 25 26 25 25 25 24 23 22 22 22 22 22 22 21 22 24 24 25 26 28 28 29 29 29 30 30 30 29 28 28 28 28 27 26 25 24 24 24 23 24 24 24 26 27 29 31 33 34 33 33 34
47 46 44 42 39 37 35 34 32 30 29 28 28 28 27 27 26 25 25 25 24 24 24 25 24 23 23 24 24 25 26 27 28 28 28 29 30 31 32 32 31 30 30 30 29 29 28 28 28 28 28 28 28 28 30 32 34 36 36 35 34 35 36
48 49 47 45 43 41 39 38 36 33 32 32 31 31 31 29 28 27 27 27 27 27 27 28 28 27 26 26 26 26 27 27 28 27 28 28 29 30 31 32 32 32 32 32 32 31 31 31 31 32 32 32 32 32 33 35 36 37 38 37 37 38 39
48 50 50 48 46 45 44 42 40 38 36 36 35 35 34 33 32 30 30 30 29 29 30 31 30 29 28 28 29 28 28 29 29 28 28 29 29 30 31 32 32 33 33 33 33 33 33 33 34 34 35 35 34 35 35 37 38 39 40 41 41 42 43
47 49 50 49 48 47 47 45 43 42 40 39 38 37 37 36 35 33 33 32 32 31 31 32 32 31 31 31 31 31 31 31 31 30 30 30 30 31 32 32 33 33 33 34 34 34 35 35 36 36 37 37 37 37 38 40 41 41 42 44 44 45 46
47 47 48 48 47 47 47 47 46 44 43 41 41 40 40 39 38 36 35 34 33 33 33 33 33 33 33 33 33 33 33 33 33 33 32 32 32 32 33 33 34 34 34 34 34 35 36 37 38 38 39 39 40 41 41 42 43 44 45 46 47 48 49
48 48 48 48 48 48 48 47 47 46 44 44 43 42 42 41 40 39 37 36 36 36 35 35 35 35 35 35 35 34 34 34 34 34 34 34 34 34 34 35 35 35 35 36 36 37 38 39 40 40 40 41 42 43 44 44 45 46 47 48 49 50 51
48 48 49 49 49 49 48 48 47 46 45 45 45 45 44 43 42 41 40 39 39 39 39 39 38 38 37 36 36 36 36 36 36 36 35 35 36 36 37 37 37 37 37 38 38 38 39 40 41 42 42 43 44 45 45 46 47 48 49 50 51 52 54

ECMWFFLT1_500_spd_036.txt.gz
Wind_Speed
17 22 21 19 18 15 13 12 11 10 10 12 14 15 17 19 20 21 21 21 20 20 20 20 19 19 19 19 19 18 17 16 16 16 16 15 14 13 13 12 11 10 9 8 7 6 5 4 2 2 2 1 0 1 2 3 4 5 5 5 5 5 5
14 20 21 20 18 15 14 14 13 10 10 13 16 16 17 18 19 20 20 21 22 22 22 21 20 20 20 20 20 19 18 18 18 17 17 16 15 14 14 13 12 11 9 9 7 7 6 4 3 2 2 2 2 3 4 4 4 4 4 5 5 5 5
14 20 23 20 16 14 13 14 13 11 10 14 17 16 16 18 19 20 21 21 22 23 23 23 22 21 22 21 21 20 20 19 19 19 18 18 17 16 16 15 14 12 10 10 10 9 7 6 6 6 6 6 6 6 7 7 7 6 6 5 5 5 5
16 22 22 18 15 15 16 15 14 14 13 14 17 17 17 18 19 20 21 21 21 22 22 22 21 22 22 22 21 21 21 20 21 20 20 19 18 17 17 16 15 14 13 12 12 11 10 9 9 10 10 10 9 9 9 10 10 9 9 8 8 8 7
17 22 23 21 20 19 17 15 16 17 16 16 18 17 16 17 19 20 20 20 20 21 22 22 22 22 22 22 22 22 22 22 22 21 20 19 18 17 17 17 16 15 14 13 13 12 12 12 11 11 11 11 11 10 10 10 10 11 11 10 10 10 10
17 21 25 24 21 17 15 15 17 19 18 18 18 16 14 15 17 18 19 20 20 20 21 21 21 21 21 22 22 22 23 23 22 21 20 19 19 19 19 18 17 15 14 13 12 12 11 11 10 10 10 10 11 11 11 11 11 11 11 11 11 11 11
18 20 24 23 19 16 15 16 19 21 21 20 18 17 15 14 15 16 18 19 21 20 20 19 19 19 19 20 22 23 23 23 22 21 21 20 20 20 19 18 16 15 14 13 12 11 11 10 10 9 10 10 11 12 12 11 11 12 12 11 11 11 12
17 19 24 23 19 16 16 18 21 24 23 22 20 17 15 14 14 14 16 18 21 21 20 20 19 19 19 20 21 23 24 24 24 23 22 21 20 19 18 17 16 14 13 12 11 11 10 10 10 10 10 11 11 12 12 12 12 12 12 12 11 11 11
17 19 22 22 20 17 16 18 23 25 24 22 18 16 16 16 15 14 15 18 20 21 21 21 20 21 21 21 21 23 24 25 25 24 22 21 20 18 17 16 15 13 12 12 11 11 11 10 10 10 11 11 11 11 11 12 12 12 12 11 11 10 10
20 20 21 21 20 17 15 18 23 25 23 21 18 16 18 18 17 16 16 17 19 21 22 22 21 22 23 24 23 24 24 24 23 22 21 20 19 18 17 15 13 12 11 11 11 11 11 10 10 11 11 11 11 11 11 11 11 11 11 10 9 9 9
21 21 22 23 21 19 18 20 23 22 21 20 18 18 19 19 19 19 17 16 18 21 22 22 22 22 23 24 24 23 23 22 22 21 20 19 18 17 16 14 13 12 11 11 11 12 11 10 10 10 10 11 10 10 10 10 10 10 10 9 8 8 8
20 20 24 26 24 22 22 22 22 20 18 19 20 20 21 20 20 20 18 17 18 19 21 21 22 22 23 23 22 22 22 21 21 21 20 19 19 17 16 14 13 12 12 12 12 12 11 10 10 9 9 9 9 9 9 9 10 9 8 7 6 6 5
19 20 24 28 27 25 24 23 22 21 18 18 20 22 22 22 21 20 18 17 19 20 20 20 21 21 22 22 21 21 20 20 21 21 20 20 19 18 16 15 14 13 13 13 12 11 11 10 9 9 9 9 9 9 9 10 9 7 6 5 3 3 3
19 21 23 27 27 24 22 23 25 24 21 20 21 23 24 24 22 20 18 18 19 21 21 21 21 21 21 21 21 20 20 21 21 21 20 20 19 17 16 15 14 14 13 13 12 11 11 9 8 9 9 10 10 10 10 9 8 6 4 3 3 4 5
19 22 23 24 23 21 22 24 27 27 25 22 22 23 25 24 22 20 19 18 20 21 22 22 22 21 20 20 20 20 21 21 21 20 19 18 18 17 16 15 15 14 14 13 12 11 11 9 9 10 10 10 11 10 10 8 7 5 4 4 3 4 4
18 21 23 22 19 19 22 26 27 27 26 24 22 23 25 23 20 18 17 17 19 21 22 23 22 22 21 20 20 21 21 21 20 19 18 18 18 18 16 15 15 15 14 13 13 11 11 10 10 11 11 11 11 11 10 8 7 6 5 4 3 2 3
20 21 23 22 20 22 25 26 27 27 27 25 22 23 23 21 19 18 16 17 18 18 19 19 20 20 20 20 21 21 21 21 20 18 18 17 17 17 16 16 15 15 14 14 13 12 12 12 12 12 11 11 11 11 10 9 8 7 6 5 4 3 3
21 21 22 23 23 24 26 26 25 26 26 24 23 23 22 22 21 19 18 17 17 17 17 16 16 17 18 18 19 19 18 19 19 19 19 18 18 17 17 17 16 15 15 15 14 14 13 13 13 13 12 11 11 12 11 11 10 8 8 7 6 5 4
23 23 23 23 23 24 25 24 23 24 24 24 23 24 24 24 23 21 20 19 18 17 16 15 15 15 15 15 14 14 14 15 15 17 18 18 18 19 19 19 18 17 17 17 17 17 16 14 14 13 13 12 12 13 13 12 11 10 9 9 7 6 6
23 25 26 26 25 24 25 25 25 26 27 27 26 26 28 28 26 25 24 22 20 18 17 16 16 15 14 13 12 12 12 11 12 13 14 16 18 19 19 18 18 18 19 20 20 19 17 15 15 14 14 13 14 15 14 14 13 12 11 10 8 7 7
22 24 26 27 28 28 29 30 30 31 31 30 29 29 31 31 29 28 27 25 22 20 19 18 17 16 15 14 13 13 12 11 11 12 13 15 17 17 17 17 18 19 20 21 21 20 18 18 17 16 16 15 16 16 15 15 15 14 13 12 11 10 10
22 22 24 25 26 27 28 31 33 33 31 29 27 28 30 32 31 29 27 26 24 22 21 20 19 17 17 15 14 14 12 11 11 11 12 13 15 16 17 17 17 18 20 22 22 20 19 18 18 17 16 17 18 17 16 17 17 16 15 15 15 14 12
23 20 20 21 21 21 22 25 28 28 27 25 24 25 27 30 30 29 28 27 26 25 23 22 20 18 17 17 16 15 14 13 13 12 12 12 14 16 17 17 18 19 21 21 21 20 18 18 18 18 18 19 19 18 18 18 18 18 17 17 17 16 15
24 21 20 19 19 19 19 20 21 21 21 22 23 24 26 28 29 29 27 26 26 25 24 23 21 19 18 18 18 18 17 15 14 14 13 12 13 15 18 19 19 20 21 21 20 20 19 19 20 19 19 19 19 19 20 20 20 20 19 19 19 18 17
24 22 20 19 19 19 19 19 20 20 19 20 21 23 24 26 27 27 26 25 23 23 22 21 20 19 19 19 20 20 20 18 16 15 15 14 14 14 17 19 20 20 21 21 21 21 21 21 20 20 19 19 19 19 20 21 21 21 20 20 20 19 18
25 23 21 20 20 19 19 20 21 22 22 21 22 22 23 24 25 25 25 25 24 23 22 21 21 21 20 21 21 22 22 21 19 18 17 17 16 15 15 18 20 20 21 21 21 21 21 21 20 19 19 19 20 20 21 21 21 21 21 21 21 21 20
28 27 24 22 21 21 21 22 22 23 24 24 23 23 23 23 24 25 25 25 24 24 24 24 24 24 24 24 24 24 24 23 22 21 20 19 18 17 15 15 17 18 19 20 20 20 20 20 19 19 19 19 20 21 21 22 22 22 22 22 22 21 21
32 31 29 26 24 23 23 23 24 25 25 25 25 24 24 25 26 27 28 28 27 27 26 26 26 26 26 27 26 26 26 26 25 24 23 22 21 19 17 16 16 16 16 17 18 18 19 19 19 19 18 18 19 20 21 22 23 23 23 22 21 21 22
36 34 33 30 28 27 26 25 25 25 26 27 27 27 27 28 28 29 29 29 28 28 28 28 28 28 29 29 29 29 29 29 29 28 27 26 24 23 21 20 19 19 18 19 19 19 19 20 20 20 20 19 20 21 22 23 24 24 23 23 22 23 23
39 37 35 33 31 29 28 27 26 25 26 27 28 29 29 29 28 28 29 29 28 28 28 29 29 30 30 31 32 33 33 33 32 31 30 29 28 27 25 23 23 22 22 22 22 22 22 22 22 21 21 21 22 22 23 24 25 25 24 23 24 25 26
42 40 36 34 33 31 30 29 27 26 26 26 27 28 28 28 28 28 28 28 28 28 29 29 29 30 30 31 31 32 33 34 34 33 33 32 31 30 28 27 26 25 25 24 24 24 24 24 24 23 23 23 23 24 25 26 26 26 25 25 26 28 29
45 42 39 36 34 34 33 31 29 28 27 27 27 27 27 27 27 27 27 27 28 28 28 28 28 28 28 28 28 29 31 33 34 34 35 35 34 33 32 31 29 29 28 28 27 26 26 26 26 25 25 25 26 26 27 28 29 28 28 28 30 31 32
48 45 42 39 37 37 36 35 33 31 30 29 28 27 26 26 25 25 25 26 26 26 26 26 26 26 25 25 25 26 27 29 31 33 34 35 35 35 34 34 33 32 32 31 31 30 30 29 28 28 27 27 28 29 30 32 32 31 31 32 33 34 35
51 48 45 42 40 40 39 38 36 34 33 32 30 28 27 26 25 25 24 24 24 25 25 25 25 25 24 24 24 24 25 26 27 29 31 33 33 33 32 33 33 33 33 33 33 33 33 33 32 31 30 30 30 32 33 34 34 34 34 35 35 36 37
51 48 45 43 42 42 42 41 39 37 35 34 33 31 29 27 26 25 24 24 25 25 26 26 25 25 25 25 24 24 24 25 26 27 29 30 29 29 30 31 31 31 32 33 33 33 34 35 35 34 34 34 34 35 35 36 36 37 38 38 38 39 40
49 47 44 43 43 44 44 44 43 41 39 38 36 34 32 30 28 27 26 27 27 27 27 27 27 27 26 26 26 26 25 25 26 27 28 28 28 28 29 30 30 31 31 32 32 33 34 35 35 36 37 37 38 38 38 39 39 40 40 40 41 41 42
48 46 43 41 42 43 45 45 45 44 42 41 39 37 35 33 32 30 29 30 30 30 30 30 29 29 28 28 28 28 28 28 28 28 28 28 29 30 31 31 31 31 32 32 33 33 34 35 36 37 38 39 39 40 41 41 41 42 42 42 43 43 44
51 49 46 43 41 42 43 44 45 46 45 44 43 41 39 37 36 34 33 32 32 32 32 32 32 31 31 30 31 31 30 30 30 30 30 30 31 31 32 32 33 33 33 34 34 35 35 36 36 37 38 39 39 40 41 42 42 43 43 44 45 45 46

ECMWFFLT1_500_spd_039.txt.gz
Wind_Speed
21 24 26 27 26 23 21 17 14 13 12 12 13 14 16 18 21 24 24 22 21 22 24 25 24 23 22 21 20 19 18 18 17 17 17 17 17 17 17 16 15 13 11 10 9 8 8 7 8 8 6 5 4 3 3 2 3 4 5 6 6 6 6
23 25 26 28 27 24 23 20 17 15 13 13 14 14 15 18 21 23 23 22 21 22 23 24 24 23 23 22 21 20 19 19 19 18 17 17 17 18 18 17 16 14 12 11 10 9 9 9 9 9 7 5 4 2 2 2 2 2 2 3 4 4 5
25 28 29 29 27 25 25 23 20 17 14 13 14 15 15 17 20 22 23 23 22 22 23 24 25 25 24 23 22 21 21 21 20 19 18 18 18 19 19 18 17 15 13 12 11 11 11 10 9 8 7 6 5 5 5 5 6 5 5 5 5 4 4
25 28 30 31 29 27 26 24 21 18 15 14 14 16 17 19 21 23 23 23 23 22 22 23 25 25 25 24 22 22 22 22 22 21 20 20 20 20 19 18 17 16 14 14 13 13 12 11 10 9 8 8 8 8 8 8 8 8 8 7 7 6 6
23 27 30 32 31 30 27 25 22 19 17 15 15 17 19 21 23 23 23 23 23 23 23 24 25 26 25 24 23 23 23 23 23 23 23 22 21 20 20 19 18 18 17 16 15 14 13 12 11 10 10 9 10 10 10 10 9 9 8 8 8 7 7
21 26 30 33 32 30 28 25 21 19 17 16 16 18 20 22 22 23 23 23 23 23 24 26 26 26 25 25 25 25 25 25 24 24 23 22 21 21 21 21 20 20 19 18 16 15 13 13 12 12 11 11 11 11 10 10 9 9 9 8 8 7 7
20 23 28 31 31 30 27 23 20 19 18 18 19 21 22 23 23 23 23 23 23 23 24 25 25 25 24 24 25 25 25 25 25 25 24 23 22 21 22 22 21 21 19 18 17 15 14 14 14 13 12 11 11 10 10 10 10 10 9 9 8 8 8
21 21 24 29 30 28 24 21 20 20 19 20 22 22 22 23 24 24 23 23 24 23 23 24 25 24 23 23 24 25 26 26 26 26 25 23 23 23 23 22 22 21 19 18 17 16 15 15 14 13 12 12 11 11 10 10 10 10 10 10 9 8 8
23 21 23 27 29 27 24 22 21 20 20 21 22 20 20 21 23 24 24 24 24 23 23 24 25 25 24 23 23 24 26 27 26 26 26 25 24 24 23 22 22 20 19 18 18 16 16 15 14 14 13 12 12 11 11 11 11 11 10 10 9 9 8
24 22 22 27 30 29 26 24 22 22 21 22 22 20 20 21 22 24 25 25 25 24 24 25 25 25 25 23 23 24 26 26 27 27 27 26 26 24 23 22 21 20 19 19 17 16 16 15 15 14 13 13 12 12 12 11 11 11 10 10 10 9 9
25 22 23 28 33 32 30 27 25 23 23 22 22 21 20 21 23 24 25 25 24 24 25 25 26 25 25 24 24 25 25 26 27 28 28 27 26 25 24 22 21 20 20 18 17 17 16 16 15 14 14 13 13 13 12 11 11 11 11 10 10 10 11
24 24 25 30 35 35 32 29 26 23 23 23 22 21 22 23 23 23 24 24 24 24 24 24 25 25 25 25 25 25 25 26 27 28 28 27 26 25 24 23 22 21 20 18 18 18 17 16 15 14 14 14 13 13 12 12 12 12 12 11 10 10 11
25 27 27 31 36 37 33 29 26 24 23 23 22 22 23 24 24 23 23 23 22 22 23 23 24 25 25 25 25 26 27 27 27 27 27 27 26 26 25 23 22 21 20 19 19 18 17 16 15 15 14 13 13 13 13 13 13 12 11 10 10 10 11
29 32 32 33 35 35 34 31 27 24 23 23 24 24 24 24 25 24 24 23 22 21 21 22 23 24 24 25 26 27 28 28 28 28 27 27 26 26 25 23 23 22 21 20 19 19 18 17 16 15 14 13 13 13 13 13 12 11 11 11 10 10 11
31 35 36 35 34 33 33 32 28 25 25 24 25 25 25 24 25 26 25 24 22 21 22 23 24 24 24 25 26 27 27 28 28 28 28 27 26 25 24 24 23 23 21 20 20 19 19 18 17 15 15 14 14 13 13 12 11 11 11 11 11 11 12
28 33 36 35 33 33 32 31 29 28 27 25 24 24 24 25 26 26 25 24 23 23 23 24 25 25 26 26 27 28 28 28 28 28 28 27 26 26 25 25 24 23 22 21 21 20 20 18 17 16 16 16 15 13 12 12 11 12 12 12 13 13 13
24 27 31 32 34 34 32 30 30 29 28 26 24 23 23 25 27 26 25 24 23 24 24 25 26 26 27 28 28 28 29 29 28 28 28 28 28 27 27 26 25 24 23 22 21 21 20 18 17 17 17 16 15 14 13 13 13 13 13 14 14 14 14
21 23 28 34 36 35 32 31 30 29 29 27 26 23 23 25 29 28 25 23 22 24 26 27 27 28 27 28 28 28 28 29 28 28 28 29 29 28 28 27 26 24 23 22 22 22 20 19 18 18 18 16 15 14 14 14 15 15 15 15 15 15 15
21 23 28 34 35 32 31 30 29 28 27 27 26 24 23 26 28 26 23 21 22 23 25 27 28 28 27 27 28 28 28 27 27 26 27 27 27 27 27 26 25 24 23 23 23 22 20 20 20 19 18 17 16 15 16 17 17 17 17 17 17 16 16
23 24 28 33 32 27 27 28 28 27 26 27 27 26 26 28 28 26 24 23 23 24 24 25 26 27 27 27 27 27 26 26 25 24 25 25 25 26 25 24 24 23 23 23 23 22 21 21 21 20 19 18 17 18 19 19 20 20 20 20 19 18 16
23 27 30 33 32 27 25 27 28 29 28 29 31 31 31 32 30 29 29 27 26 25 24 24 25 26 26 26 25 24 24 24 24 24 24 25 25 25 24 24 24 24 24 24 23 22 23 23 23 22 21 20 20 20 20 20 21 22 22 21 20 19 17
22 28 33 34 33 30 27 28 30 30 30 31 33 33 33 34 33 32 31 29 27 26 25 25 25 25 25 24 22 22 21 21 21 22 22 23 24 24 24 25 25 25 25 25 24 23 23 24 24 24 23 22 21 21 20 21 23 23 22 21 21 21 19
23 32 37 36 35 33 31 31 32 32 32 33 34 35 35 35 35 33 31 30 28 27 26 26 25 24 24 23 23 22 21 21 19 18 18 19 19 20 22 23 24 25 25 25 24 24 24 25 26 26 25 24 23 22 21 22 24 24 23 23 23 23 21
26 34 40 38 37 36 36 35 35 34 34 34 35 35 34 34 33 32 31 30 29 28 26 26 26 25 24 24 24 23 22 21 19 18 17 16 15 16 18 20 22 24 24 24 24 24 25 27 28 27 27 26 24 23 23 24 25 26 25 25 25 25 23
28 35 40 40 39 39 38 37 36 36 36 36 36 35 33 32 33 32 31 30 29 28 27 27 27 25 24 24 24 23 22 21 20 19 18 16 15 15 16 18 20 23 24 23 24 25 27 28 29 28 27 26 25 24 24 26 27 27 27 27 28 26 25
29 33 37 38 40 41 40 39 39 38 37 36 35 34 33 33 34 34 33 32 31 30 29 29 28 27 25 25 24 23 23 23 22 21 19 18 16 16 16 16 18 21 23 23 23 25 27 28 28 28 27 26 26 25 25 26 28 28 28 29 28 27 26
30 31 33 34 35 36 36 36 37 37 36 35 35 34 33 34 36 36 35 34 33 33 33 32 31 29 27 26 25 24 24 24 24 23 22 21 19 18 17 17 16 18 22 23 23 24 26 27 27 27 27 27 26 26 26 26 27 28 29 29 27 27 26
33 33 33 32 32 31 30 30 30 30 30 32 33 34 33 33 35 37 37 36 36 36 37 36 34 32 30 29 28 27 27 26 26 26 26 25 23 21 20 19 18 17 19 23 24 23 24 26 27 26 27 27 27 26 26 26 26 27 28 28 27 27 26
36 37 36 34 32 32 30 29 28 28 29 30 32 33 32 32 33 36 38 38 38 39 39 38 36 34 33 32 31 31 31 31 30 31 30 29 28 25 23 22 21 19 18 20 24 25 25 26 26 26 26 26 26 25 25 25 25 26 27 27 27 27 27
36 38 38 36 34 32 31 29 29 30 31 32 33 33 33 33 34 36 38 39 39 39 38 37 36 35 35 35 35 35 35 35 34 34 33 32 31 29 28 26 25 22 20 19 20 22 23 24 24 24 24 24 24 23 23 24 24 24 25 26 27 27 27
37 37 36 35 33 31 29 28 28 30 32 33 34 34 34 34 34 36 38 39 40 40 39 38 37 37 37 37 37 37 37 38 37 36 35 35 34 33 32 31 29 27 24 22 20 20 20 21 21 22 22 22 23 23 24 24 24 24 24 25 27 27 28
37 37 35 33 31 30 28 27 27 27 29 31 33 34 35 35 35 36 37 39 40 42 42 42 41 40 40 39 39 39 39 39 39 39 38 38 37 36 36 35 33 31 29 27 25 23 22 22 22 22 23 23 24 25 26 26 26 26 27 28 29 30 30
38 38 36 34 32 30 29 28 27 27 27 28 31 33 34 35 36 37 38 40 41 43 44 44 44 44 43 43 42 42 42 42 42 42 42 42 41 40 40 38 37 35 33 31 29 27 25 24 24 23 24 24 25 27 27 28 28 28 29 30 31 32 32
41 41 39 37 35 33 32 31 30 29 29 29 29 31 32 34 35 37 38 40 41 42 43 44 44 44 44 44 44 44 44 44 44 44 44 44 43 43 42 41 40 38 37 35 33 30 29 27 26 26 26 27 28 29 29 29 29 29 31 32 33 33 34
44 44 43 40 39 37 36 35 33 32 31 31 31 30 30 31 33 35 37 38 38 39 41 41 42 43 43 43 43 43 43 43 43 42 42 43 43 43 42 42 41 41 40 38 36 34 33 32 31 31 31 31 31 32 32 31 31 31 32 33 34 34 35
46 45 45 43 42 40 39 39 38 37 35 34 33 32 31 30 31 32 34 35 36 36 37 38 38 39 39 39 39 39 39 38 38 37 37 38 39 41 41 41 40 40 40 39 39 38 38 37 36 35 35 34 35 35 35 34 34 35 35 35 36 37 37
47 47 46 46 45 44 43 43 42 41 39 37 35 34 32 31 31 31 32 33 33 33 33 34 34 35 35 36 36 35 35 34 33 32 31 31 32 34 36 37 38 38 38 38 39 39 39 38 38 37 37 36 36 36 37 37 37 38 38 38 39 40 40
51 50 49 48 48 47 46 46 45 44 42 39 37 36 34 33 33 32 32 32 32 31 31 31 32 33 33 34 34 34 34 32 31 30 29 28 28 28 30 31 33 33 34 35 37 38 38 38 38 37 37 37 37 37 38 39 39 40 40 40 41 41 42

ECMWFFLT1_500_spd_042.txt.gz
Wind_Speed
28 27 27 26 26 26 22 20 20 21 21 20 19 18 18 18 20 22 25 25 24 23 25 28 29 28 27 24 23 20 18 17 17 17 17 17 17 16 16 16 16 15 14 12 11 10 10 10 10 10 11 11 10 10 9 9 9 10 10 11 11 11 11
33 29 28 28 28 27 24 22 22 22 22 21 20 19 18 17 18 21 24 26 25 24 26 28 29 29 28 26 24 22 20 19 19 18 17 17 16 16 16 16 16 15 14 12 12 12 12 11 11 11 11 11 9 8 6 5 4 5 5 5 6 7 7
35 33 30 29 29 27 26 25 23 22 22 22 20 19 17 17 18 21 24 26 26 26 27 29 31 30 30 28 26 23 22 21 21 19 18 17 17 17 18 18 18 16 14 13 13 13 13 13 12 11 10 9 8 6 4 3 2 1 0 1 1 2 2
34 34 33 31 30 29 28 27 25 23 22 22 20 19 18 17 19 22 25 27 27 26 27 29 31 31 31 29 27 25 23 23 22 21 20 19 18 18 19 19 18 17 15 15 15 15 15 14 14 12 10 8 7 6 4 4 4 4 4 3 2 1 1
34 34 34 32 31 31 30 30 28 26 24 23 22 21 20 19 21 23 26 28 27 27 29 31 33 33 32 30 28 27 25 25 24 23 22 21 19 19 19 19 18 17 17 16 16 16 16 15 14 13 11 10 8 7 6 6 6 6 6 5 4 3 3
34 35 34 33 32 31 31 30 29 27 25 24 23 22 21 21 22 23 26 28 28 27 29 32 33 34 32 31 29 27 26 26 25 24 23 22 20 20 20 20 19 18 18 17 16 16 16 15 13 12 11 10 9 8 8 8 7 7 7 6 5 4 4
31 35 35 33 32 32 31 31 29 28 27 26 26 25 24 23 23 24 26 27 28 27 27 29 31 32 32 31 30 28 27 27 26 25 24 23 22 21 21 21 20 19 19 17 17 16 15 14 13 12 11 10 10 10 10 9 8 8 7 7 6 5 5
26 33 36 35 33 32 32 32 30 30 30 30 29 27 26 24 23 24 26 27 28 28 27 27 29 30 31 31 30 29 28 29 28 27 26 24 23 23 23 22 22 21 20 19 18 17 15 14 13 12 12 12 11 11 10 10 9 9 9 8 7 7 7
23 27 31 32 32 32 32 32 32 32 33 32 29 27 26 25 24 24 26 27 28 28 27 27 28 29 31 32 31 30 30 30 29 28 27 25 25 24 24 24 23 22 21 20 19 18 16 15 14 14 14 13 12 12 11 11 10 10 10 9 9 9 8
26 26 26 25 26 28 30 31 32 34 35 33 30 28 27 25 24 24 25 27 27 28 28 28 29 30 30 31 31 31 30 30 29 28 27 26 26 26 26 25 25 24 23 22 20 19 18 17 16 15 15 14 13 13 13 13 13 12 11 11 11 11 10
28 28 26 23 22 25 29 33 35 35 35 33 30 28 27 26 25 24 25 25 27 28 29 29 30 30 30 30 30 29 29 29 29 28 28 28 28 28 28 27 26 25 24 23 21 21 20 19 18 16 15 15 15 14 15 15 14 13 12 12 13 12 12
31 31 29 27 24 25 29 33 35 34 32 32 31 28 27 26 25 24 25 26 28 30 30 30 30 30 31 30 29 28 28 28 28 28 28 28 29 30 30 29 28 26 25 25 23 23 21 20 19 17 17 17 17 16 16 15 13 13 13 14 14 14 14
37 35 32 30 29 29 31 32 35 34 31 31 31 29 28 27 26 25 25 26 28 30 30 31 30 30 31 30 29 28 27 27 27 28 28 29 31 32 32 30 28 28 27 26 25 24 22 20 20 19 19 18 17 16 15 14 13 14 14 14 15 15 15
41 40 37 34 33 34 35 34 35 35 32 31 31 30 29 29 27 27 26 27 28 30 30 30 30 30 30 30 29 28 27 27 27 28 29 30 32 34 33 31 29 29 28 27 26 24 22 21 21 20 20 18 16 15 14 13 13 14 15 15 16 16 17
37 39 40 39 37 36 37 37 36 35 32 31 32 32 31 30 30 29 28 28 29 30 30 30 30 29 29 29 29 29 29 28 28 28 29 31 33 33 32 31 30 30 29 28 26 24 23 22 21 20 20 18 16 15 14 14 14 15 15 16 17 17 18
31 36 41 41 39 38 38 38 36 34 33 32 33 33 33 31 31 30 28 27 28 29 30 30 30 30 29 29 29 30 30 30 30 30 30 31 33 32 32 31 31 30 29 27 26 25 23 22 21 21 20 18 16 16 15 15 15 15 15 16 17 18 19
27 33 39 41 40 39 39 38 36 35 34 33 32 33 33 32 30 29 28 28 28 28 30 30 30 30 29 29 30 31 31 31 31 31 31 32 32 32 32 32 31 30 29 27 26 25 23 22 21 21 20 18 17 17 16 16 15 15 16 17 18 19 19
26 31 37 40 40 39 38 36 35 37 35 31 32 34 34 32 31 29 29 29 28 29 30 30 30 30 30 30 31 31 30 31 31 32 32 32 32 32 32 32 31 29 28 27 26 25 23 22 21 21 20 19 18 18 17 17 17 16 17 18 19 20 20
26 30 34 37 38 38 36 34 35 38 34 31 32 33 32 31 29 28 29 30 30 30 29 29 28 29 30 31 31 30 30 31 32 32 32 32 32 32 32 31 29 28 28 27 27 25 23 22 22 21 20 20 19 18 18 18 18 17 17 18 20 20 21
27 30 32 34 36 37 34 32 33 35 33 31 32 32 31 30 29 29 31 32 31 31 30 29 29 29 31 31 31 31 32 32 32 32 32 32 31 31 31 29 28 28 28 28 26 24 23 23 23 22 21 20 20 19 19 19 19 18 18 19 21 21 21
29 29 30 32 35 36 35 34 34 33 32 33 34 33 32 31 31 31 32 32 32 32 31 31 31 31 32 32 32 32 32 32 32 32 31 31 31 30 29 28 28 28 28 27 26 24 24 24 23 22 22 21 21 20 20 21 21 20 19 21 22 22 21
28 29 29 30 34 37 37 36 34 33 34 35 34 34 32 31 31 32 33 33 33 32 32 32 32 32 32 32 32 32 32 32 31 31 31 30 29 29 27 27 27 27 27 26 25 25 25 24 23 23 23 23 22 21 22 23 22 21 21 23 23 23 22
26 28 29 30 34 38 39 37 35 34 35 36 35 35 34 32 32 34 35 34 33 31 31 31 31 32 31 31 31 31 31 31 30 29 28 27 26 26 26 26 26 26 27 26 26 25 25 25 24 25 25 25 24 23 24 25 24 23 23 24 25 24 23
24 26 28 31 35 38 38 37 37 36 37 38 38 38 36 34 34 35 36 34 32 31 30 29 29 30 30 30 31 31 30 29 29 27 26 25 25 25 26 26 27 27 28 28 27 27 27 27 27 26 26 26 26 26 26 26 26 25 25 26 26 25 25
25 25 28 32 36 38 38 37 38 39 39 40 40 40 39 38 35 35 35 34 33 31 29 28 28 28 28 29 29 28 27 27 27 26 25 25 25 25 26 26 27 28 28 28 29 29 29 29 28 28 27 27 28 28 28 27 27 27 26 26 27 26 26
27 24 25 32 37 38 39 38 37 38 39 39 39 40 40 40 36 34 34 34 32 31 29 28 28 27 27 28 27 26 25 25 26 26 25 24 24 24 25 25 26 26 27 27 29 29 29 29 29 29 29 29 30 30 29 28 29 28 27 27 27 27 27
29 24 23 31 39 40 39 38 36 36 37 37 37 39 39 39 35 32 32 33 31 29 28 29 29 28 27 27 26 25 26 26 26 25 25 24 23 22 22 22 23 23 24 25 27 28 28 29 29 29 30 31 32 31 29 29 29 29 28 27 28 28 28
31 27 25 32 40 41 40 39 37 36 37 36 36 37 37 35 33 31 31 31 30 29 29 29 29 29 28 27 26 26 26 26 26 25 24 24 23 21 21 21 21 21 21 22 23 24 26 27 27 28 29 31 32 31 30 29 29 29 29 28 28 28 28
32 29 27 33 42 43 42 41 39 37 37 36 35 36 35 33 32 31 32 32 32 32 32 31 31 32 31 30 28 28 29 28 27 27 27 26 25 24 23 22 21 21 20 20 19 20 21 24 25 26 27 28 29 30 29 29 29 28 28 28 28 28 27
34 30 28 35 44 46 44 44 42 39 38 37 36 35 34 33 32 33 35 35 35 35 35 34 35 35 34 33 32 31 31 31 30 30 30 29 29 28 27 26 25 23 22 21 20 18 18 20 23 24 24 25 26 28 29 29 29 28 28 28 28 28 27
36 31 30 37 45 47 46 45 44 42 40 39 37 35 34 33 32 33 36 37 37 37 37 37 38 38 37 36 34 33 32 32 31 31 30 30 30 30 30 29 28 27 26 24 23 20 18 18 20 23 24 24 24 26 28 29 29 28 27 27 26 26 25
37 34 33 39 46 48 48 47 45 43 42 40 37 35 34 33 33 33 35 37 39 41 41 41 40 41 40 39 37 36 35 33 33 32 31 31 31 32 32 31 30 30 29 27 26 24 22 21 19 20 22 24 25 26 27 28 28 27 26 25 24 24 24
40 38 37 39 44 47 48 47 45 43 41 38 34 32 32 32 33 33 35 37 39 41 43 45 45 44 44 43 42 41 39 38 37 37 36 36 35 35 34 33 33 32 31 31 30 28 27 26 23 21 21 22 24 25 26 26 25 24 24 24 24 24 24
43 41 39 40 42 44 45 45 43 40 38 36 34 33 33 33 34 36 38 38 38 38 40 45 48 49 49 49 48 46 45 44 42 41 41 41 40 39 39 38 37 36 35 34 34 33 32 31 29 27 25 24 25 25 25 25 25 25 25 25 25 26 27
47 44 42 42 43 44 44 43 42 39 38 37 36 36 36 37 38 39 40 40 40 39 39 42 46 49 51 51 49 48 48 47 45 44 44 44 44 44 44 43 41 40 39 38 37 36 35 34 34 32 31 30 28 28 27 27 28 28 29 29 29 30 30
51 47 45 44 44 46 46 45 43 41 40 38 36 35 36 37 39 39 40 40 41 41 41 42 43 46 48 49 47 46 47 47 46 45 46 47 48 48 48 47 46 45 43 42 41 40 38 37 37 37 36 34 33 32 31 31 32 32 33 33 33 33 33
53 51 48 46 45 46 47 47 45 43 41 38 35 34 34 35 35 36 38 39 40 42 42 43 43 44 45 46 46 46 46 46 46 47 48 49 50 50 50 49 49 48 46 45 45 44 43 41 40 41 40 38 36 35 35 35 35 35 35 35 35 36 36
53 52 50 48 47 46 47 46 45 43 41 38 36 34 33 33 32 33 34 36 38 39 40 42 43 44 45 46 46 47 47 47 48 49 49 50 50 50 50 49 49 48 48 47 47 47 46 45 45 44 43 41 39 38 38 38 38 37 37 37 38 38 38

ECMWFFLT1_500_spd_045.txt.gz
Wind_Speed
39 38 35 32 30 28 25 22 20 19 19 20 20 20 21 21 24 26 27 28 26 25 26 28 29 29 29 29 27 24 21 20 20 20 20 19 19 18 17 16 15 14 14 13 11 10 10 11 11 12 13 14 15 15 15 14 14 13 13 12 12 11 10
40 38 37 34 31 29 26 24 23 22 21 21 21 21 21 21 22 25 27 29 29 27 27 29 30 30 30 30 28 25 23 21 21 21 20 19 18 17 17 17 16 15 15 14 11 10 11 12 13 14 15 14 14 12 11 11 10 10 10 10 10 10 10
39 38 37 35 33 30 28 26 25 24 22 21 21 21 20 21 21 23 26 29 30 30 29 30 32 32 32 31 29 27 25 24 23 21 20 19 19 18 18 17 17 16 15 13 12 12 13 13 14 15 15 14 12 10 9 7 6 6 6 6 6 6 6
39 37 36 36 34 32 31 29 27 25 23 22 22 21 21 22 23 24 26 28 30 30 29 30 32 34 34 32 30 28 27 25 24 23 22 21 20 20 18 18 17 16 15 14 13 14 14 14 15 16 15 14 12 10 8 6 5 4 3 3 3 4 4
39 37 36 36 35 34 33 31 30 27 25 24 23 23 23 24 25 26 26 28 30 30 30 32 35 36 36 34 31 30 29 28 27 26 24 23 21 20 19 18 18 18 17 16 15 16 16 16 16 17 16 14 12 10 8 6 5 4 3 3 3 4 5
38 38 37 36 35 34 33 33 31 29 28 26 25 24 24 25 26 26 27 28 30 31 31 32 35 37 37 35 33 31 30 30 29 28 25 24 22 21 20 20 20 20 19 17 17 18 18 17 17 17 15 13 11 10 8 7 6 5 5 4 4 5 5
37 38 37 36 35 35 34 34 33 31 30 29 28 27 27 27 26 27 27 28 30 32 31 31 33 36 37 36 35 33 31 31 30 29 26 25 23 22 22 22 22 21 20 19 19 19 19 19 18 17 15 13 12 10 8 7 7 6 6 5 6 7 7
36 36 36 36 36 36 35 35 35 34 34 33 31 29 29 28 27 27 27 28 29 31 31 30 32 35 36 36 35 33 32 31 31 30 28 26 25 24 23 23 23 22 21 20 20 20 20 20 19 18 16 14 13 11 10 9 8 8 8 7 7 8 9
34 34 34 35 36 36 36 35 36 37 37 35 32 30 30 29 28 28 27 28 29 30 30 30 32 34 36 36 35 34 33 32 32 30 29 27 27 26 25 24 24 23 23 23 22 22 21 21 20 18 17 15 14 13 12 11 10 10 9 9 9 10 10
34 33 33 34 35 36 35 35 37 39 38 37 34 32 32 31 30 28 28 28 29 30 31 31 32 34 36 36 36 35 34 33 32 31 30 29 28 28 27 26 25 24 25 25 24 23 23 22 21 19 18 17 15 15 14 13 12 11 11 10 10 11 11
36 35 36 36 36 35 36 36 38 40 40 39 36 34 33 32 31 30 29 29 29 30 31 32 32 33 35 36 36 36 34 33 32 31 30 30 30 29 29 28 27 26 27 27 26 25 24 23 21 20 19 18 17 16 15 14 13 13 12 11 11 12 12
37 37 38 39 38 37 37 36 36 37 39 40 39 37 35 34 32 31 30 30 30 31 32 32 33 33 34 36 36 35 34 34 32 32 31 31 31 31 31 30 29 28 28 28 28 27 26 24 23 22 21 20 18 17 16 15 14 13 13 12 13 13 13
38 38 38 40 40 40 39 37 34 33 35 38 39 38 37 35 33 32 32 31 32 32 33 33 33 33 34 35 35 35 35 33 33 32 32 32 32 32 32 31 31 30 30 30 29 28 26 25 25 24 22 21 19 18 16 15 14 13 13 13 14 15 15
43 42 41 41 42 43 41 39 35 32 32 34 36 37 37 35 34 33 33 33 33 33 33 33 34 34 34 34 34 34 34 33 33 33 34 33 33 33 33 32 32 32 32 31 30 29 28 27 26 25 22 21 20 18 16 15 14 14 14 14 15 15 15
46 45 44 44 43 43 42 40 36 33 31 32 34 36 36 35 34 34 35 35 35 35 34 34 34 34 34 34 33 33 33 34 34 34 34 34 34 33 33 33 33 33 33 32 31 30 29 28 27 25 22 21 21 19 16 14 14 15 15 14 15 15 16
49 49 48 46 45 44 43 41 38 35 32 31 33 34 36 36 35 34 35 36 36 36 34 34 33 34 34 33 33 34 34 34 34 34 33 33 33 33 33 33 34 34 33 32 32 31 30 29 27 25 23 22 21 19 17 15 16 16 16 14 14 14 15
52 51 50 50 49 47 44 41 39 36 33 31 32 34 35 35 34 34 35 36 37 36 34 33 33 33 33 33 34 35 36 35 35 34 33 32 32 32 32 33 34 34 34 33 32 32 31 29 27 25 24 23 22 19 17 17 17 17 16 15 14 14 14
50 51 53 54 52 50 47 44 41 38 34 32 33 35 35 35 35 35 36 37 37 36 35 33 33 32 33 34 35 36 36 36 35 34 33 32 32 32 32 33 34 34 33 33 33 32 31 29 27 26 25 24 22 20 18 19 19 18 17 15 15 15 15
50 51 52 51 48 47 46 45 43 39 36 35 36 35 35 36 35 35 36 36 37 37 35 33 33 33 34 35 36 36 36 36 36 35 33 33 32 33 33 34 34 33 33 33 33 33 31 29 28 27 25 24 22 20 20 20 20 19 17 16 16 16 16
45 44 42 40 41 44 46 45 43 41 40 40 39 36 36 37 36 35 37 37 37 37 35 33 33 33 35 36 36 36 37 36 36 35 34 34 34 34 34 33 33 33 34 34 33 32 30 29 28 27 25 24 23 22 21 21 21 20 18 17 17 17 17
36 34 33 34 36 41 45 46 45 43 43 43 40 37 39 38 35 36 38 38 38 37 35 34 34 34 36 37 37 37 36 36 35 34 34 34 34 34 34 33 33 33 33 33 32 30 30 29 28 27 25 25 24 22 21 21 21 21 19 19 19 19 18
29 28 29 31 33 35 40 45 46 44 44 42 39 38 39 36 33 36 38 39 39 38 36 35 34 35 36 37 37 36 35 34 34 34 33 33 33 33 33 33 32 32 32 31 30 29 29 29 28 27 26 25 24 23 22 22 22 22 21 20 20 19 19
27 27 27 30 32 33 37 45 48 45 42 40 38 39 38 34 33 36 39 40 40 38 37 36 35 35 36 36 35 35 34 33 33 33 32 32 32 32 32 32 31 31 31 30 29 29 29 28 28 27 27 26 25 24 24 24 24 23 23 22 21 20 19
27 27 28 29 30 31 37 45 47 44 40 38 38 39 38 35 34 37 39 40 40 38 37 36 35 35 35 34 34 33 33 32 32 32 31 31 31 31 32 31 31 31 30 29 29 29 29 29 29 28 27 26 25 26 26 26 25 25 25 24 22 20 19
28 26 26 27 28 31 36 44 46 42 39 38 37 38 37 36 36 37 39 39 38 37 36 35 35 34 33 32 33 32 32 31 31 31 31 30 31 31 31 31 30 30 29 28 28 28 28 29 28 27 27 26 26 27 27 27 27 26 26 26 24 21 20
29 25 24 25 28 31 36 42 44 41 38 38 38 38 38 37 37 37 38 38 37 36 35 34 34 34 33 33 32 32 31 31 31 31 31 30 30 30 30 29 28 27 27 26 27 28 28 28 28 28 28 28 28 28 28 28 29 28 28 28 26 23 21
30 26 23 24 28 31 36 40 42 41 40 39 39 39 38 38 37 37 37 37 35 34 33 33 33 33 32 32 32 32 31 31 31 31 30 30 29 28 27 27 26 25 26 26 27 27 27 27 27 28 28 28 28 29 29 30 31 31 31 30 29 26 22
32 27 24 24 27 31 35 39 41 42 41 41 40 40 39 38 38 38 37 34 31 31 33 32 31 31 30 31 31 31 31 31 31 31 30 29 28 26 26 26 25 24 24 25 25 25 25 26 27 27 28 28 28 29 30 31 33 33 33 32 31 28 24
34 30 26 25 26 29 35 40 41 41 41 41 40 39 39 39 39 39 36 32 30 31 32 31 29 28 28 28 29 31 31 31 30 30 29 28 28 27 26 26 25 24 24 24 24 24 25 25 26 27 28 28 29 29 30 32 33 34 34 34 33 30 26
37 33 30 27 28 30 35 39 41 41 42 41 40 39 39 39 40 39 35 32 31 31 31 30 28 27 27 27 28 30 30 30 29 29 29 30 30 29 28 27 25 24 24 24 24 23 23 23 23 24 25 26 27 28 29 30 31 32 32 32 32 31 27
41 37 33 29 29 32 36 40 41 41 42 41 40 40 40 39 39 38 35 34 33 32 32 31 29 29 29 29 29 29 29 29 29 29 30 31 31 30 29 27 26 24 23 23 23 23 22 22 21 21 21 22 23 25 26 27 28 28 29 29 29 28 27
43 40 37 32 30 32 37 41 43 43 43 42 41 40 39 38 38 37 35 34 34 33 34 33 32 31 31 31 30 30 30 29 29 30 30 30 30 30 29 28 27 26 25 24 23 23 23 23 22 21 20 20 21 23 24 25 26 26 26 27 27 26 26
45 42 40 35 32 34 39 43 45 45 45 43 41 39 37 36 36 35 35 36 35 35 36 36 35 34 34 33 33 33 32 32 32 32 32 32 32 32 31 30 29 29 28 27 26 26 26 26 25 24 23 22 22 22 24 25 25 25 25 25 26 26 26
47 44 42 39 36 36 42 46 46 46 46 44 41 38 36 34 33 34 35 36 37 37 38 39 39 38 37 36 36 36 35 35 34 34 34 34 35 35 34 34 33 32 31 31 31 30 30 29 29 28 27 26 25 24 23 23 24 25 25 26 26 27 27
50 46 44 42 39 39 43 48 49 47 47 46 43 41 38 36 34 34 35 36 37 37 39 41 43 43 41 39 39 38 38 38 37 35 34 34 35 37 37 36 35 35 34 35 34 34 33 32 31 31 30 29 28 27 26 24 24 24 25 26 26 26 26
52 49 46 44 42 41 44 49 51 50 49 48 46 44 42 39 37 36 37 38 37 37 39 41 44 44 43 43 43 42 42 42 41 38 37 36 36 37 38 38 37 36 36 36 36 36 35 35 34 33 32 32 31 31 30 29 28 27 27 27 27 27 27
54 51 49 47 45 42 43 49 53 52 51 50 49 47 45 44 40 38 39 39 39 39 39 39 39 40 41 43 47 47 46 46 45 43 41 40 39 40 40 39 39 39 38 38 38 37 37 37 37 36 36 35 34 34 34 34 34 33 32 32 31 31 31
57 53 51 49 47 44 43 47 52 54 53 52 51 49 47 45 41 38 38 38 36 37 37 36 37 38 38 40 45 50 50 49 49 49 47 45 44 44 43 43 43 42 41 41 41 41 41 41 41 40 40 39 38 38 38 37 37 37 37 37 36 35 35

ECMWFFLT1_500_spd_048.txt.gz
Wind_Speed
38 37 35 34 33 32 30 28 26 22 19 18 17 18 20 22 24 27 29 30 29 29 29 30 31 31 31 31 31 30 29 26 23 22 21 21 21 21 20 19 19 18 18 17 15 13 12 10 10 9 10 11 11 11 11 10 9 9 8 8 7 7 7
40 38 36 35 34 32 30 28 26 23 20 20 20 19 19 20 22 25 29 30 30 29 30 30 31 32 32 32 32 31 29 27 25 23 22 22 22 22 21 20 20 19 19 17 15 14 13 12 11 12 13 14 14 14 13 12 11 10 9 7 7 6 6
40 38 36 35 34 32 30 29 27 24 21 22 21 18 18 19 21 24 29 32 32 31 31 31 32 33 33 33 33 31 29 27 25 25 25 25 24 23 22 21 21 20 19 17 16 15 15 14 14 16 17 17 17 16 14 13 12 11 9 8 7 6 5
40 38 37 36 35 34 33 31 29 26 23 23 22 19 19 20 21 23 27 32 34 33 32 32 33 34 35 34 34 32 30 27 26 27 27 27 26 24 22 22 22 21 20 18 17 17 17 16 17 19 19 18 16 15 13 11 9 8 7 6 5 4 4
40 39 38 38 37 37 35 33 31 28 25 24 24 22 21 21 22 23 26 30 34 34 34 35 36 37 36 36 35 33 30 29 28 29 29 28 26 24 23 23 22 21 21 20 19 19 19 19 19 20 20 18 16 14 12 10 8 7 6 5 5 4 5
41 40 39 39 38 38 37 35 33 30 27 26 25 24 23 22 21 23 25 28 32 35 36 36 37 38 38 37 36 34 32 30 30 30 29 28 26 25 24 24 23 22 22 21 20 21 21 20 21 22 21 19 17 14 12 10 8 6 5 6 6 6 6
42 41 41 40 39 39 38 37 35 32 30 28 28 27 26 24 23 23 25 27 30 34 35 35 35 37 38 38 37 35 33 32 32 32 30 28 27 26 25 24 24 23 22 21 21 22 22 22 22 23 22 20 17 15 12 10 8 6 6 6 7 7 7
42 41 41 40 40 39 38 38 37 35 33 32 31 30 28 27 25 24 24 25 28 32 34 34 34 36 37 38 37 36 34 34 34 33 31 29 28 27 26 25 25 25 23 22 22 23 23 23 23 23 23 21 18 16 13 11 9 8 7 8 8 8 8
42 40 40 40 39 39 39 38 37 36 35 35 33 31 29 29 27 25 23 25 27 30 33 34 34 35 37 38 38 37 36 35 34 33 32 30 29 28 27 27 27 26 25 24 25 25 25 24 24 24 24 22 20 17 15 13 11 10 9 9 9 9 9
41 39 39 39 38 39 39 38 39 38 37 36 35 33 32 31 29 27 26 25 26 28 32 35 36 36 37 38 39 39 38 36 35 34 33 31 29 29 28 28 28 27 26 26 26 26 26 25 25 25 25 23 21 19 17 14 12 11 10 9 9 10 10
41 40 40 40 40 39 39 39 39 38 37 36 36 35 34 33 31 30 28 26 25 27 30 34 36 36 36 37 39 40 39 37 36 35 33 32 30 30 29 29 28 27 27 27 27 28 28 27 26 26 26 25 23 21 18 16 13 12 11 10 10 10 11
42 42 43 43 42 41 40 40 39 37 36 36 37 37 36 35 34 32 30 28 26 27 29 33 36 36 36 37 39 40 39 37 36 35 34 33 32 31 31 30 29 28 28 28 28 29 28 28 27 28 27 26 24 22 19 17 14 13 12 11 10 11 12
44 44 45 44 43 43 41 40 39 37 36 36 37 38 37 36 35 34 32 30 28 27 29 32 35 36 37 37 38 39 39 38 37 36 35 34 33 33 32 30 30 29 28 28 29 30 29 28 29 29 29 27 25 22 20 17 15 14 13 11 11 12 13
47 48 48 47 46 44 42 40 39 37 36 36 38 39 39 38 37 35 34 32 29 29 29 31 34 36 37 37 37 38 38 39 38 37 36 35 35 34 32 31 31 30 29 29 30 30 30 29 30 30 29 28 25 22 20 18 16 15 14 13 13 13 13
51 51 51 50 48 46 44 41 40 38 38 38 39 40 41 40 39 38 37 34 31 30 30 31 33 36 37 37 36 36 38 39 39 38 38 37 36 34 33 32 32 31 30 29 30 31 31 30 30 30 29 27 25 23 20 18 17 16 15 14 14 14 13
54 54 53 52 50 48 45 43 41 40 40 40 39 39 40 41 41 40 38 35 32 30 30 31 33 36 37 36 35 35 38 39 40 39 39 37 36 35 34 34 33 32 31 30 31 32 32 31 30 30 30 28 26 23 21 19 18 17 16 15 14 13 12
56 56 55 54 52 50 48 46 45 44 43 42 40 38 38 39 40 40 39 36 33 31 31 31 32 35 37 36 35 36 37 39 39 40 39 38 37 36 35 34 33 33 32 31 32 33 33 32 31 31 31 29 27 24 22 20 19 19 17 16 14 13 12
57 57 57 56 54 52 50 49 48 47 45 43 41 37 35 37 40 40 38 35 32 32 32 32 32 34 36 37 36 36 37 37 39 39 39 39 38 37 36 35 34 33 32 32 32 33 33 33 33 33 32 30 27 25 24 22 21 20 18 17 15 14 13
58 58 57 56 55 53 52 52 51 50 47 45 43 38 34 36 38 38 37 34 33 34 33 32 33 34 36 37 37 37 36 37 37 38 38 39 38 38 37 36 34 32 32 33 33 34 34 34 34 34 32 30 29 27 25 23 22 20 19 18 16 15 13
58 58 57 56 55 54 54 53 51 50 49 47 43 38 35 36 37 38 37 35 34 35 34 34 34 35 35 36 37 37 37 37 36 36 37 37 38 38 38 36 34 32 32 33 34 34 34 35 35 35 33 32 30 28 26 25 23 21 20 19 17 15 14
58 57 57 56 56 55 54 53 51 48 47 45 42 39 38 38 38 39 39 36 34 35 35 35 35 35 35 36 36 37 37 37 36 36 36 37 38 38 37 35 34 32 33 33 34 34 35 35 36 35 34 33 31 29 27 26 24 22 21 20 18 17 15
57 57 57 57 56 56 55 53 50 47 45 45 43 41 40 38 38 40 39 36 35 36 36 35 36 36 36 36 36 36 36 36 36 36 36 37 37 37 36 35 33 32 33 34 34 34 34 35 35 34 33 33 31 29 27 26 25 23 22 21 19 18 16
56 57 58 58 57 56 55 53 50 47 46 46 45 43 41 39 39 41 40 38 37 36 35 35 36 36 36 36 35 35 35 35 35 35 36 36 36 36 35 34 33 33 33 34 34 33 33 34 34 33 33 32 31 29 28 27 26 24 23 22 21 19 17
54 55 57 58 58 57 55 52 49 47 47 46 44 44 43 41 40 42 42 40 38 37 36 36 36 36 37 36 35 34 34 34 34 35 35 35 35 35 35 34 34 34 33 33 32 32 32 33 33 33 32 32 30 29 29 29 27 25 25 24 22 20 19
50 52 55 56 55 53 51 49 47 47 48 47 45 45 44 41 41 44 44 41 40 38 36 36 36 36 36 35 34 34 33 33 34 35 34 34 34 35 35 35 34 34 33 32 32 31 31 32 32 32 31 31 30 30 30 29 28 27 26 25 23 22 20
47 49 50 49 46 45 45 46 46 48 50 49 47 46 45 42 43 46 46 44 41 38 36 36 36 36 36 35 34 34 33 32 33 34 34 34 34 35 34 34 34 33 32 31 31 31 30 30 30 30 30 30 30 30 30 30 29 27 27 27 25 24 23
42 42 41 39 39 40 41 43 44 46 49 50 49 49 47 44 46 49 48 44 41 37 35 36 36 35 35 34 33 33 33 32 32 33 34 34 35 35 34 33 32 31 30 30 30 29 29 29 29 29 29 30 30 30 30 30 29 29 29 28 27 25 25
38 37 34 34 36 38 39 40 42 45 47 48 50 52 50 46 48 50 47 43 39 37 36 36 35 34 33 32 32 32 32 31 31 32 33 34 34 33 33 31 30 29 29 29 29 29 29 28 28 29 29 30 30 30 31 31 30 30 29 29 28 26 26
37 35 33 32 33 35 36 38 39 42 44 46 50 53 50 48 50 50 45 40 38 37 37 35 32 32 31 31 31 31 31 31 31 31 31 32 32 31 30 30 29 28 28 29 28 28 28 28 28 28 28 29 29 30 30 30 30 30 29 29 29 28 27
37 35 34 34 33 33 34 36 37 38 39 43 49 51 49 50 51 47 41 38 38 38 35 32 31 30 30 30 30 30 30 30 30 30 30 30 30 29 29 28 28 28 28 28 28 27 27 27 27 27 27 28 28 29 29 30 30 30 29 29 29 29 29
38 37 37 36 34 33 33 33 35 36 37 41 47 49 49 50 48 42 37 37 38 36 33 31 30 29 29 29 29 29 29 30 30 30 30 30 29 29 28 28 27 27 28 27 27 27 26 26 27 27 27 28 28 29 30 31 31 31 30 31 31 31 31
40 40 40 38 34 33 32 33 35 36 38 42 46 47 48 48 44 39 37 37 36 35 33 31 30 28 28 28 28 29 29 30 31 31 31 31 30 29 29 28 27 27 28 28 27 27 27 27 28 27 28 28 28 29 30 31 31 31 31 30 30 30 30
43 43 42 39 35 32 31 32 35 37 40 45 48 47 46 45 41 38 37 37 36 35 34 32 30 29 28 29 29 29 30 30 31 32 32 32 31 30 30 30 29 29 29 28 28 28 27 27 27 27 26 26 26 27 27 27 27 27 26 25 25 25 25
46 46 44 40 36 33 31 32 35 39 44 47 48 47 45 43 40 38 38 38 37 36 35 33 32 31 31 31 31 31 30 30 31 33 33 32 32 32 31 31 31 31 30 29 28 27 27 26 26 25 24 24 24 25 25 24 24 23 22 21 20 21 22
48 48 46 42 38 35 33 32 35 41 45 47 47 46 45 42 40 40 40 39 38 37 36 35 34 34 34 34 33 32 31 31 32 33 33 33 33 33 32 32 32 32 32 31 30 29 28 27 27 26 25 25 25 26 25 24 24 23 22 21 20 20 20
50 49 47 44 40 37 35 34 35 40 45 47 46 46 44 43 42 41 40 39 38 37 37 37 36 36 37 37 36 34 33 33 33 33 34 34 34 33 33 33 33 33 33 33 33 32 32 31 30 29 29 28 28 27 27 26 26 25 24 24 23 23 22
52 51 48 46 43 40 38 37 36 39 43 46 46 45 44 43 42 41 40 39 37 36 37 38 39 39 39 39 38 37 37 37 36 36 36 36 36 36 36 35 35 35 36 36 36 35 35 34 34 33 32 32 31 30 30 29 29 28 28 27 27 27 27
55 53 51 48 46 43 40 39 38 40 43 45 46 45 44 43 42 41 40 39 38 37 38 39 40 40 41 40 41 42 42 41 39 39 39 39 39 38 38 38 38 38 38 38 38 38 38 37 37 36 36 35 34 33 33 33 32 31 30 29 30 30 30

ECMWFFLT1_500_spd_051.txt.gz
Wind_Speed
35 36 35 32 30 28 25 23 22 22 20 17 14 14 14 15 17 21 26 29 29 28 28 28 28 28 28 28 28 27 26 24 23 22 22 22 22 23 22 22 21 20 18 17 15 14 12 11 10 10 10 10 9 9 9 8 8 7 6 6 5 5 5
37 36 36 33 30 27 26 27 26 22 20 17 15 15 14 13 14 18 23 28 29 29 29 29 29 28 29 29 29 29 27 26 24 23 22 22 22 22 22 22 22 21 20 18 16 14 13 12 11 10 10 10 10 10 10 9 8 7 6 5 5 4 4
38 36 36 33 29 27 29 30 28 23 20 18 16 16 14 13 13 15 20 26 29 30 30 29 30 30 30 30 30 30 28 27 25 24 23 23 23 23 23 23 22 22 21 19 17 15 14 13 11 11 11 10 10 10 10 10 9 8 8 7 6 5 5
40 39 38 36 31 29 32 32 29 24 22 19 17 17 16 14 14 15 17 23 28 30 30 30 30 31 32 32 31 31 29 27 26 24 24 24 24 24 24 24 23 22 21 19 18 17 15 14 12 12 12 12 12 13 13 13 12 11 9 8 7 6 5
42 42 42 39 35 32 34 34 30 26 23 20 19 19 18 17 15 14 15 19 24 29 31 32 33 33 33 33 33 32 31 29 27 26 26 25 25 25 24 24 23 23 22 21 20 19 17 16 14 15 15 15 15 15 15 13 12 10 9 7 5 4 3
44 44 43 41 37 33 34 34 31 28 25 22 20 21 20 18 16 15 15 16 21 27 31 33 34 34 34 35 34 33 32 30 28 27 27 27 26 25 25 24 24 23 23 22 21 20 19 17 17 17 18 17 17 16 15 13 11 9 7 6 5 5 4
46 46 43 41 39 34 33 35 34 30 28 25 23 23 23 20 18 16 16 16 18 22 28 31 32 33 35 36 36 35 34 32 30 29 28 28 28 27 26 25 25 24 24 23 22 21 20 19 19 20 20 19 18 17 15 13 11 9 8 7 6 6 6
46 46 43 41 40 36 34 34 34 32 30 28 26 25 25 22 20 19 16 16 16 17 22 28 31 32 34 35 36 36 35 33 32 31 30 30 29 28 27 26 25 25 24 23 22 22 22 21 21 21 21 21 20 18 16 14 12 10 9 8 8 8 7
46 45 45 42 41 38 35 34 33 34 35 32 28 27 27 25 22 20 18 17 17 16 18 23 28 31 33 35 36 36 36 35 33 32 31 30 29 29 28 27 26 26 25 24 23 23 23 22 22 22 23 22 22 20 18 15 13 11 10 9 9 9 9
45 44 45 43 41 40 37 35 36 38 38 36 32 29 29 28 25 23 22 20 19 17 18 20 25 30 33 34 35 37 37 36 34 33 32 31 30 29 28 28 27 27 26 26 25 25 25 24 23 23 23 24 23 22 20 18 15 13 11 10 10 10 10
44 44 44 42 41 40 38 37 38 39 38 36 34 32 31 30 28 26 25 23 21 20 20 20 22 26 30 34 35 36 37 37 35 34 33 31 31 30 29 29 28 28 28 27 27 26 26 25 24 24 24 25 25 24 22 20 17 14 12 11 10 11 10
44 43 42 41 40 39 38 39 39 38 37 37 35 34 33 32 31 30 28 26 24 23 22 21 21 22 27 32 35 36 37 37 36 35 33 32 32 31 31 30 29 29 29 28 28 28 28 27 26 25 26 27 27 26 24 21 18 15 13 12 11 12 12
47 45 44 43 42 40 39 42 42 39 38 38 37 37 35 33 33 32 30 28 27 26 24 22 21 21 24 29 33 35 36 37 37 36 34 34 33 33 32 31 29 29 29 29 28 28 28 28 27 27 27 28 29 28 25 22 18 15 13 13 13 13 13
46 44 42 44 44 43 43 44 44 41 40 39 39 39 36 35 35 34 32 31 30 29 26 23 22 21 23 27 31 33 35 36 37 37 36 36 35 34 33 31 30 29 29 29 28 28 29 29 28 28 27 28 29 28 26 22 19 16 14 14 14 14 14
44 43 42 44 46 45 44 44 43 42 41 41 40 40 38 37 37 36 35 33 32 31 28 25 23 22 22 25 28 31 34 35 36 37 38 37 36 36 34 32 31 30 29 28 28 28 29 30 29 28 27 28 28 28 25 22 19 17 16 16 15 15 14
43 46 46 46 49 50 49 48 46 44 43 43 42 41 39 38 37 36 36 35 33 32 30 27 25 22 21 23 25 29 33 35 36 37 38 38 37 36 35 34 32 31 29 29 29 28 28 30 30 29 28 28 27 27 25 22 20 19 18 17 15 15 14
44 46 48 46 48 51 51 50 49 46 45 45 44 41 39 38 37 36 36 36 34 33 31 29 27 23 21 22 24 27 31 34 36 36 37 38 38 37 36 35 34 32 30 30 29 28 28 29 30 30 29 28 27 27 25 23 21 20 19 18 16 15 14
49 49 50 49 49 50 51 50 49 47 46 45 43 41 39 38 36 37 37 37 35 34 33 31 29 25 23 23 24 25 27 32 34 35 36 37 38 38 37 36 35 33 32 31 30 29 28 28 29 30 30 28 27 27 26 25 23 21 20 18 16 15 14
52 52 51 50 50 50 51 51 50 48 46 45 44 42 39 37 36 35 36 36 35 35 35 33 31 28 25 24 23 23 25 29 32 34 35 35 37 38 38 37 36 34 32 32 31 31 29 28 29 31 31 30 28 28 27 26 24 23 22 20 17 16 15
52 52 51 50 50 52 52 51 50 49 47 46 45 42 40 39 36 34 35 37 37 37 37 36 34 31 27 25 23 22 24 28 30 32 33 33 35 37 38 37 36 35 34 33 32 31 30 29 29 30 31 32 30 29 29 28 26 24 23 21 19 18 16
50 52 52 51 51 52 53 52 51 49 48 47 45 43 42 41 38 36 36 37 37 37 37 37 35 32 29 26 24 23 24 26 29 31 31 31 32 34 36 37 36 35 35 34 32 31 30 30 30 31 31 32 32 32 31 29 27 26 25 23 21 19 17
50 52 53 53 53 53 53 53 52 51 49 47 45 45 44 42 39 37 35 35 35 35 36 37 35 33 31 27 25 23 24 26 27 29 30 31 31 31 34 35 36 35 35 35 33 32 31 31 31 31 32 33 33 33 32 31 29 28 27 25 22 21 18
50 53 54 54 54 54 54 54 53 52 50 48 47 47 45 42 40 38 36 35 34 34 36 36 35 33 31 28 26 24 26 26 26 27 29 30 30 30 31 32 34 35 35 35 34 33 32 32 32 32 33 33 33 33 33 33 31 30 29 27 24 22 20
49 53 55 56 56 56 55 54 53 52 51 50 48 47 45 44 43 41 39 37 34 34 36 36 34 32 30 29 27 26 27 27 25 25 27 29 30 31 31 31 32 33 34 35 35 34 33 33 33 33 33 33 32 33 33 33 33 32 30 28 25 24 22
49 52 56 57 57 57 56 55 54 53 53 51 50 48 47 47 45 43 41 39 36 35 36 35 33 31 30 30 28 27 28 28 25 24 26 27 29 31 32 32 32 33 33 34 35 34 34 33 33 32 32 32 32 32 33 33 33 32 31 29 26 25 24
49 51 55 58 59 58 57 56 55 54 54 53 51 49 49 48 48 46 44 41 39 37 36 34 32 31 31 30 29 28 29 29 26 24 24 26 28 30 32 33 33 33 33 34 34 34 34 33 32 31 31 31 31 31 32 33 32 31 30 29 27 26 25
48 50 53 56 58 59 58 57 56 55 56 54 52 50 50 50 49 48 46 44 41 38 36 34 34 32 32 31 30 29 29 29 27 25 25 26 27 28 31 33 33 33 32 32 33 33 33 32 31 31 30 30 30 31 32 33 32 30 29 28 27 27 27
48 49 50 53 56 58 58 57 56 56 56 55 52 50 50 50 49 47 46 44 42 39 37 36 35 34 33 32 31 30 30 30 29 27 26 26 26 27 29 31 33 33 32 32 32 31 31 31 30 30 30 29 29 30 30 31 30 28 27 27 28 27 27
47 48 49 51 54 56 57 55 55 56 56 54 51 49 51 51 48 46 44 42 42 42 41 39 37 35 34 33 32 31 30 30 30 29 27 27 26 26 27 29 32 32 31 31 31 30 30 31 30 30 29 28 28 29 29 29 29 27 27 27 27 27 27
45 46 48 49 52 54 53 52 53 54 53 52 50 49 51 51 49 46 43 43 44 45 43 40 38 36 35 34 33 31 30 30 30 29 28 27 27 27 27 28 30 31 31 31 31 30 30 30 29 29 28 27 28 28 28 28 27 26 26 26 27 27 26
43 45 47 48 50 51 51 50 50 50 50 50 50 49 49 49 49 48 46 45 46 47 44 42 40 38 37 36 35 32 31 30 30 29 29 28 27 27 27 28 28 29 30 30 30 29 29 29 28 27 27 27 27 26 26 26 25 25 25 26 27 27 27
43 44 45 46 48 50 49 47 46 46 47 47 47 46 46 46 48 49 49 47 47 47 46 44 41 39 39 38 36 33 31 30 29 29 29 28 27 27 27 27 28 28 29 30 29 28 27 27 27 26 26 25 25 25 25 25 25 26 26 26 27 27 27
43 43 42 43 45 45 43 41 41 43 44 44 43 43 43 44 46 49 51 50 49 49 48 46 43 41 40 38 36 33 31 30 29 29 29 27 27 27 27 27 28 28 28 28 27 27 27 26 26 26 25 24 25 25 26 26 26 26 26 26 27 27 27
44 43 42 41 41 41 39 39 40 41 42 42 42 41 40 40 42 46 50 51 50 50 50 47 43 42 40 38 35 33 31 30 29 29 28 27 27 27 28 28 28 27 27 27 27 27 27 27 26 26 25 25 26 27 26 26 26 26 26 25 25 24 24
45 44 42 42 41 40 39 38 38 39 39 40 41 41 41 40 40 42 47 50 51 51 51 48 44 41 40 37 35 33 31 30 30 29 28 28 29 29 29 29 29 28 28 29 29 28 28 27 27 27 26 26 27 27 26 25 25 24 23 22 21 20 20
46 45 44 42 41 40 39 38 38 38 38 39 39 41 43 43 43 44 47 50 52 52 51 48 43 40 38 36 34 33 31 30 30 29 29 29 29 29 29 29 29 30 29 29 28 28 28 28 28 27 27 27 27 26 25 24 23 21 21 20 19 19 19
48 46 45 43 42 40 39 39 39 38 37 38 39 41 44 45 45 47 48 50 52 53 52 47 42 38 36 35 33 33 33 32 31 29 29 29 29 29 30 31 31 31 30 30 29 30 30 30 29 29 28 27 26 25 24 23 22 21 21 20 20 19 19
49 48 47 45 43 42 41 42 42 40 38 39 40 41 43 45 45 46 48 50 53 53 50 45 41 38 35 35 35 35 34 34 33 31 30 31 31 31 32 33 33 33 32 32 32 33 33 32 32 31 30 28 27 26 25 25 24 23 23 23 23 23 22

ECMWFFLT1_500_spd_054.txt.gz
Wind_Speed
23 24 28 26 23 22 20 20 23 21 18 17 15 15 14 9 7 7 10 15 19 21 22 22 23 23 23 22 22 22 20 19 18 18 19 20 20 19 18 17 17 16 16 16 15 14 12 11 10 9 9 8 8 8 7 7 7 6 5 5 4 3 3
26 27 29 27 24 22 22 24 24 22 20 18 16 16 15 11 7 7 9 13 18 21 22 22 23 23 24 24 23 23 22 20 19 19 20 21 21 20 20 20 19 18 17 16 15 14 13 11 10 9 9 8 7 7 8 7 7 7 6 5 5 4 4
31 28 28 26 24 23 24 25 24 22 22 20 17 15 15 13 9 8 8 11 16 20 22 22 23 23 24 25 24 24 23 22 20 20 20 21 22 22 22 22 21 20 18 17 16 14 13 12 10 9 8 7 7 8 8 8 7 7 6 6 6 6 6
33 29 27 24 23 24 25 26 26 24 23 21 18 16 16 16 12 9 8 9 13 18 21 22 23 24 25 25 25 25 25 23 22 21 21 22 23 23 23 23 22 21 20 19 17 16 14 13 11 10 8 8 7 7 8 8 8 8 8 8 8 8 9
35 34 32 28 26 26 26 27 26 24 23 23 20 17 17 18 15 11 9 8 10 15 20 24 25 25 26 26 26 26 26 25 24 23 22 22 23 23 23 23 23 22 22 20 19 17 15 14 13 11 9 8 8 8 9 10 10 10 10 10 9 9 8
38 38 35 33 31 31 30 27 25 23 23 23 22 19 17 19 17 12 11 9 10 13 17 22 24 25 25 26 27 27 26 26 25 24 23 23 23 23 24 24 24 24 23 21 20 18 17 15 14 12 10 10 9 10 11 12 12 11 10 9 8 7 6
36 38 37 35 32 32 32 29 26 25 24 24 24 22 18 19 20 15 12 11 9 11 13 17 21 23 24 26 27 27 27 27 26 25 24 23 23 23 24 25 25 24 23 22 21 19 18 17 15 13 12 11 12 12 13 12 11 10 8 7 6 6 5
33 34 36 38 35 31 29 28 27 28 27 26 25 23 18 18 21 19 13 12 10 10 11 14 18 21 23 25 26 27 28 28 27 26 25 24 24 24 25 25 25 25 24 23 22 20 19 18 16 14 13 13 14 14 14 13 12 10 8 7 6 5 4
31 30 34 39 39 35 28 26 28 29 27 26 25 23 20 18 21 22 17 12 11 10 10 12 15 19 22 24 25 26 28 29 28 27 26 25 24 24 25 25 25 25 24 23 22 21 20 19 17 16 15 15 15 15 15 14 12 11 9 8 7 6 5
32 31 34 37 38 36 31 28 29 29 28 27 25 24 23 21 22 23 19 14 11 10 10 12 14 17 21 23 25 26 28 28 29 28 27 26 25 25 25 25 25 25 24 24 23 21 21 20 18 17 16 16 17 17 16 16 14 13 11 9 8 7 7
30 31 34 37 39 38 34 32 30 30 30 28 26 26 26 25 24 22 19 18 14 11 11 12 13 15 18 21 24 26 26 27 28 28 28 26 26 26 26 26 26 25 24 24 23 22 22 21 20 18 18 18 19 19 19 18 16 15 12 10 9 8 9
30 31 33 36 40 41 37 33 29 29 30 30 29 28 27 27 26 22 21 21 17 13 12 12 12 13 16 19 22 24 25 26 27 27 28 28 27 27 28 27 27 26 25 25 24 23 23 23 22 21 20 20 20 20 20 20 18 16 14 12 10 10 10
30 31 33 35 38 40 39 35 32 31 31 31 31 30 28 28 28 26 24 25 22 17 14 14 13 13 14 16 18 21 24 25 26 27 27 28 29 29 29 29 28 27 26 26 25 24 24 24 23 23 22 22 21 22 22 21 20 18 15 13 12 11 11
30 28 29 33 35 36 37 37 34 33 32 32 32 31 30 29 30 29 29 29 26 22 18 17 15 14 14 15 15 17 20 23 25 26 27 28 30 30 30 29 29 28 27 26 26 25 25 25 25 25 24 23 22 22 22 22 21 19 17 14 13 13 12
32 32 32 34 36 35 35 36 37 35 34 34 34 33 32 32 32 32 32 31 29 25 22 20 18 16 16 15 14 15 17 21 23 26 27 28 29 30 30 30 30 29 28 26 26 26 25 25 26 26 24 23 22 21 21 22 21 20 18 16 15 14 13
33 38 40 42 42 41 39 38 38 37 35 36 35 35 35 35 34 34 34 33 30 27 25 23 20 18 17 16 15 15 16 18 20 23 25 27 28 29 30 30 31 30 28 27 27 26 26 25 26 26 25 24 23 22 21 21 22 22 20 19 17 15 13
33 38 41 41 41 40 40 41 39 37 38 40 41 40 39 38 38 37 36 34 31 29 27 25 22 20 18 17 17 16 15 15 17 20 23 25 27 28 29 30 31 31 29 28 27 27 26 25 25 25 25 25 24 23 21 21 22 23 23 22 19 16 14
36 39 40 38 38 37 39 41 41 40 40 43 46 46 44 43 41 40 37 34 32 30 29 27 24 22 20 19 19 18 15 15 15 17 19 22 25 26 28 29 31 31 30 29 28 27 26 25 25 24 25 24 24 23 22 21 22 24 24 24 21 18 15
40 41 41 40 39 38 39 42 43 43 41 41 42 43 41 41 41 40 37 34 32 32 31 29 26 24 22 21 20 18 16 15 15 15 17 19 21 24 26 27 29 31 31 30 29 29 27 26 25 25 24 24 24 24 23 22 22 24 25 25 23 20 17
43 43 42 43 42 41 41 44 46 45 44 42 41 40 40 41 41 39 38 35 34 34 33 31 28 26 24 22 20 19 17 16 15 15 16 17 19 21 23 24 26 28 31 31 30 29 28 27 26 26 25 24 24 24 24 24 23 24 26 27 25 22 19
46 45 44 44 45 44 45 46 46 45 44 43 43 43 43 43 41 40 39 38 36 36 34 33 30 27 25 23 20 19 19 17 16 16 16 17 17 18 20 22 23 25 29 31 31 30 30 29 27 27 26 25 24 24 25 25 25 25 26 27 26 24 21
46 47 46 44 45 47 48 48 48 46 44 43 44 43 43 43 42 41 40 38 35 34 34 34 31 28 25 23 20 19 19 18 17 17 17 16 16 17 18 20 22 23 26 29 31 31 31 30 28 27 27 27 26 25 26 26 26 26 26 27 27 26 23
46 46 46 44 45 47 48 47 47 46 44 44 44 44 43 43 42 39 37 35 33 31 32 33 31 27 25 23 21 20 20 20 19 18 18 17 16 16 18 20 21 21 23 26 29 31 30 30 29 28 27 27 27 26 26 27 27 27 28 29 28 26 24
45 45 45 45 46 47 47 46 45 45 44 44 44 45 43 42 41 39 37 36 32 30 30 30 29 26 24 22 22 21 20 21 21 20 19 18 16 16 18 20 21 22 22 23 26 29 30 30 30 29 28 28 28 27 28 28 28 28 30 31 29 27 25
45 45 45 45 46 47 47 46 45 45 45 43 44 44 42 41 42 41 38 35 32 30 30 30 28 26 23 22 23 22 21 22 22 21 20 18 17 17 19 21 22 23 23 23 24 27 29 30 30 30 30 29 29 29 28 28 28 28 29 31 30 29 27
44 44 44 45 46 47 47 47 45 45 45 44 43 43 42 42 42 41 38 35 33 33 32 31 28 25 23 23 24 24 24 23 23 22 21 19 18 19 20 22 23 24 24 24 25 26 27 28 29 30 30 30 30 30 29 28 27 27 28 30 31 30 30
44 44 44 46 47 47 48 48 47 46 46 44 43 43 43 43 43 41 38 36 36 35 33 31 30 27 25 25 25 26 25 25 24 24 23 21 20 21 21 22 23 24 25 26 26 26 27 27 28 29 29 29 29 29 28 27 27 26 28 29 30 30 31
43 44 44 45 47 47 48 48 48 48 46 45 44 44 45 46 45 42 40 39 36 34 33 33 33 30 27 26 27 27 27 27 26 25 25 24 22 21 21 22 23 24 26 27 27 27 27 27 27 28 28 28 28 27 26 26 26 26 27 28 30 30 30
46 46 45 46 46 47 48 48 48 49 48 47 47 46 47 47 46 45 43 40 36 34 35 36 35 32 28 27 28 29 29 29 28 27 27 26 23 21 21 22 24 25 26 27 28 27 27 26 26 26 26 26 26 25 25 25 26 26 26 28 29 30 30
51 50 48 47 47 47 47 48 49 49 49 48 48 49 48 48 48 47 45 41 38 38 39 39 37 34 30 27 29 31 31 31 31 29 28 27 26 24 22 22 24 25 25 27 28 27 26 26 25 25 25 25 25 25 24 25 26 26 26 28 29 29 29
51 51 50 49 48 47 47 47 48 49 48 48 49 49 49 49 49 48 46 42 40 42 42 41 38 36 32 29 30 32 33 33 32 31 29 29 28 26 24 23 24 25 25 27 27 27 26 25 25 25 25 25 25 25 25 26 26 26 26 26 27 27 26
49 50 51 50 49 48 47 46 46 46 47 47 48 49 49 49 49 49 47 45 44 44 44 43 41 39 35 31 31 34 34 34 34 32 31 31 31 28 26 25 25 25 25 26 26 26 25 25 26 26 26 25 25 25 26 26 26 25 25 25 26 26 26
52 50 51 51 49 47 46 45 44 43 44 45 47 48 49 49 50 49 47 46 46 46 46 45 43 41 38 35 34 35 35 35 35 33 32 32 32 30 28 27 26 25 24 24 25 25 25 25 26 26 26 26 26 26 26 25 25 24 24 25 25 26 26
59 53 51 50 49 47 46 45 43 43 43 44 46 47 48 49 50 49 46 45 45 46 48 47 44 42 41 39 37 36 36 36 36 34 33 33 33 31 29 28 26 25 24 24 24 25 25 25 26 26 27 27 26 26 25 24 24 24 24 25 25 26 25
61 57 52 50 49 47 46 45 45 44 43 44 45 47 47 48 49 47 45 44 45 47 49 49 46 44 44 43 41 38 38 37 36 35 34 34 33 31 29 27 26 25 25 25 25 25 25 26 26 27 27 28 27 26 25 24 24 25 25 25 26 26 25
55 55 53 50 48 47 46 46 46 45 44 44 45 46 47 47 46 45 44 44 46 48 51 51 49 47 47 47 44 41 40 39 37 36 36 35 33 30 28 28 27 27 26 26 26 26 26 27 27 27 28 28 27 26 25 25 25 25 25 24 24 24 24
51 54 53 49 47 47 46 47 47 46 45 45 46 46 47 47 47 47 46 46 48 50 53 55 53 51 50 50 47 43 42 40 38 37 37 35 32 30 29 29 29 28 27 27 28 28 28 28 28 28 28 27 27 26 25 24 24 24 23 23 22 22 23
50 53 53 50 48 48 48 49 49 48 47 47 48 48 48 48 48 48 48 49 50 51 52 55 56 55 53 51 49 46 44 41 39 38 37 35 32 31 31 30 29 29 28 28 29 29 29 28 28 28 27 27 26 25 25 24 23 23 23 23 22 23 23

ECMWFFLT1_500_spd_057.txt.gz
Wind_Speed
22 20 20 20 19 19 16 14 15 14 13 11 10 9 7 5 4 5 7 11 18 20 20 20 20 20 19 19 18 17 16 15 14 14 14 15 15 15 14 14 14 15 15 15 15 14 13 12 11 9 8 6 5 4 3 2 2 3 4 4 5 6 7
25 20 18 17 17 17 16 16 16 16 14 12 11 9 7 5 4 5 8 10 16 21 22 21 21 21 21 21 19 18 17 16 16 15 15 15 15 15 15 15 15 15 15 15 15 14 13 12 11 9 8 7 6 5 4 4 3 2 3 3 4 6 7
24 22 21 19 18 16 15 17 18 18 16 13 11 9 8 7 6 7 9 10 14 20 23 23 23 23 23 22 21 20 18 17 17 16 16 16 16 16 16 17 17 17 16 15 15 14 13 12 11 9 8 7 7 7 6 5 4 3 3 4 5 7 9
25 24 24 24 24 20 17 18 19 18 16 14 12 10 9 9 10 9 9 10 11 17 22 24 25 25 25 24 22 21 20 19 18 18 18 17 17 16 17 17 18 17 17 16 16 15 13 12 11 9 8 7 7 7 7 7 6 5 5 6 8 9 11
30 28 26 25 25 22 18 17 18 17 16 15 13 12 11 11 11 10 9 9 10 14 21 26 27 28 28 26 24 23 21 21 20 19 19 19 18 17 17 17 18 18 18 17 16 15 14 13 12 10 8 7 7 7 7 7 8 8 9 10 11 11 11
31 31 25 20 20 20 19 18 16 15 15 15 14 14 13 13 12 11 9 8 9 12 18 24 26 28 28 28 26 25 23 22 21 20 20 20 19 18 18 18 18 18 18 17 17 16 15 14 13 11 9 7 7 7 8 9 10 11 11 12 11 11 10
30 32 26 20 20 21 22 22 19 17 16 15 16 16 15 14 13 12 11 9 8 9 12 18 23 25 27 28 27 26 24 23 22 22 21 21 20 20 20 19 19 19 19 18 17 17 16 15 14 12 9 8 7 7 9 11 11 12 11 11 10 9 8
31 32 29 25 23 23 24 25 23 21 19 17 16 16 15 15 15 14 13 12 10 7 8 13 19 23 25 27 27 26 25 25 24 23 23 22 21 21 21 20 20 20 20 19 18 18 17 16 15 13 10 9 9 8 9 11 11 11 11 10 9 8 7
32 32 31 29 26 23 23 25 25 23 21 19 17 16 16 17 17 16 16 16 13 9 8 11 16 21 24 26 27 28 27 26 25 24 23 22 21 21 21 22 22 21 21 20 20 19 18 17 16 14 11 10 10 9 10 10 11 11 10 9 8 7 7
30 31 31 31 28 24 24 25 25 23 21 20 20 19 19 18 18 18 18 17 14 11 10 11 13 18 22 25 27 28 28 27 26 25 24 22 22 21 22 23 23 23 22 22 21 20 19 18 17 15 13 12 11 11 11 11 11 11 10 9 8 7 6
31 30 30 31 29 25 25 26 25 23 20 19 20 21 21 20 20 20 19 18 16 13 12 11 12 15 19 23 26 28 28 27 25 24 23 22 22 22 23 23 23 23 23 23 22 21 20 19 18 17 15 14 14 13 13 13 13 12 11 10 8 7 5
32 30 29 28 26 25 26 26 26 26 25 22 21 21 22 22 21 21 20 20 19 16 14 12 12 13 16 20 23 26 26 26 25 23 22 23 23 23 24 24 24 24 23 23 23 22 22 20 19 19 18 17 16 15 15 15 14 14 12 10 9 8 6
34 33 31 30 26 26 27 26 26 27 27 27 26 24 23 23 23 23 23 22 21 19 16 14 12 13 14 16 19 22 24 25 24 23 23 23 24 24 25 24 24 24 24 24 24 23 22 21 21 20 20 19 18 17 17 16 16 16 14 12 10 9 8
32 34 36 36 33 31 29 26 27 28 28 29 29 27 26 27 27 27 26 26 25 22 19 16 14 13 14 14 15 17 20 22 23 23 23 24 24 25 25 25 24 24 25 25 24 23 22 22 22 22 21 20 19 18 18 17 17 17 16 14 13 11 10
31 32 35 37 36 34 31 29 30 31 31 31 30 28 29 30 30 30 30 30 29 26 22 20 18 16 15 14 14 15 17 19 20 22 22 23 23 23 24 24 25 25 25 25 24 23 23 23 24 23 23 22 20 19 18 18 18 18 18 17 16 14 12
35 33 34 36 37 37 35 35 35 36 36 36 35 33 33 33 33 32 31 31 31 29 27 25 21 19 17 16 16 16 15 16 16 18 20 21 22 22 23 23 24 25 25 25 25 24 23 23 24 24 23 23 21 20 18 18 18 19 19 20 19 17 15
37 34 33 35 37 38 38 37 36 36 37 39 39 38 38 38 37 35 34 34 34 33 32 29 25 22 21 19 19 17 15 14 14 14 16 19 20 22 22 23 24 24 25 25 26 25 24 24 24 24 24 24 22 21 19 19 19 20 20 21 21 20 17
36 35 33 33 34 36 38 37 35 33 35 38 39 40 41 41 40 39 39 39 38 38 38 35 30 25 23 22 21 19 17 15 14 13 14 15 18 20 22 23 23 23 24 25 26 26 25 24 24 24 25 24 23 22 20 20 21 21 20 21 22 22 20
36 36 35 34 34 35 36 38 38 36 35 37 39 40 40 41 41 40 40 40 40 40 40 38 35 30 26 24 22 20 19 17 15 14 13 14 16 18 20 22 22 23 23 25 26 27 26 24 24 24 25 24 23 22 22 21 22 22 21 21 22 24 23
40 39 38 38 39 39 38 39 40 39 37 37 38 38 38 39 39 39 40 39 38 37 37 37 36 33 28 24 22 20 20 19 17 15 15 15 15 16 18 20 22 23 24 25 26 27 27 26 25 25 25 25 24 23 23 22 22 22 23 22 23 24 24
43 42 42 42 42 43 42 41 41 41 40 39 39 39 38 38 38 39 41 39 36 33 33 34 34 31 25 21 20 20 19 19 18 17 16 15 15 15 16 19 21 23 24 25 25 26 28 28 27 26 26 26 25 24 23 23 23 23 23 23 23 23 24
47 46 45 45 45 44 43 44 44 42 41 40 40 41 41 40 38 38 40 38 34 32 32 31 30 29 25 21 19 19 19 19 19 18 17 17 15 15 16 17 20 23 24 25 25 25 27 29 28 27 27 26 26 25 24 23 23 23 23 24 24 23 24
53 52 50 48 47 46 45 46 46 44 42 41 41 42 43 41 39 38 38 37 35 34 34 33 30 27 26 23 19 19 19 19 19 20 19 18 16 15 16 17 19 22 24 24 24 24 25 27 29 29 28 27 26 25 25 24 24 24 24 24 25 24 23
56 56 55 52 50 49 48 47 47 46 44 43 42 43 44 43 41 40 39 38 36 35 35 33 29 26 26 23 20 20 20 21 21 21 21 19 17 16 17 17 19 21 23 24 24 24 25 26 28 30 30 29 27 26 25 25 25 25 25 25 25 24 23
57 57 56 55 54 52 50 48 47 46 45 44 43 42 43 44 42 40 40 38 36 35 33 30 28 27 26 24 21 21 22 23 23 23 22 20 19 18 18 18 19 21 22 24 24 24 25 26 27 28 29 29 29 28 27 26 26 25 25 25 25 24 23
56 57 57 57 57 55 52 51 49 48 46 45 43 43 43 43 42 40 40 38 36 34 32 29 28 29 28 26 25 24 24 24 25 25 24 22 21 20 19 20 20 21 22 23 24 25 25 25 25 27 28 29 29 29 28 27 26 26 26 26 25 25 24
55 57 59 59 60 58 56 54 52 50 49 47 46 45 44 44 42 40 39 38 36 34 30 27 28 31 31 29 28 27 25 25 25 26 26 25 24 23 22 21 21 21 22 23 24 25 25 24 25 25 26 27 28 29 29 28 28 27 27 26 26 26 25
58 59 63 63 61 59 59 57 55 52 51 50 48 47 45 44 42 41 39 37 35 33 30 28 29 32 32 30 30 28 26 25 25 27 28 28 27 26 25 23 23 23 23 24 24 25 25 25 25 25 26 27 27 28 28 29 28 28 28 27 27 27 26
59 58 63 65 62 59 59 58 57 54 52 51 50 48 46 44 41 40 39 37 34 32 32 31 32 33 33 32 31 29 28 27 27 28 28 29 28 28 27 26 25 24 24 25 25 25 26 26 25 26 26 26 27 26 27 27 28 27 27 27 27 28 28
59 56 58 61 59 57 57 57 56 55 53 52 50 48 47 45 42 40 39 36 34 35 35 35 35 35 35 35 33 30 29 28 29 30 30 30 30 30 30 29 27 26 26 26 26 26 26 26 26 26 26 27 27 26 26 26 26 26 26 27 27 28 28
61 57 55 57 57 56 55 55 55 54 53 51 50 49 47 45 43 40 39 37 37 38 38 38 37 37 37 36 34 31 30 29 30 31 31 31 31 31 31 31 30 29 27 27 27 27 27 27 26 26 26 27 27 26 26 25 25 25 26 27 27 28 28
63 60 57 57 56 55 55 54 53 52 51 51 50 49 47 45 43 40 40 40 40 40 40 40 39 39 38 36 34 31 30 30 31 31 32 33 32 32 33 33 32 30 29 28 27 27 27 27 27 26 26 27 28 27 27 27 26 25 26 27 28 27 28
65 62 58 57 57 55 54 53 53 52 51 50 50 49 47 45 44 41 41 42 41 41 41 41 40 39 38 36 34 32 31 30 30 31 32 33 34 34 34 35 34 32 30 27 26 25 26 27 27 27 26 27 28 29 29 28 26 26 27 28 28 27 28
67 64 60 58 58 56 54 53 52 51 49 48 48 48 47 46 45 44 43 43 43 41 42 42 41 40 38 37 36 34 32 31 31 31 33 34 35 35 35 34 34 33 30 27 25 25 26 27 27 28 28 28 30 30 30 29 27 26 28 29 29 29 30
66 66 61 59 59 57 54 52 51 49 47 45 45 45 46 46 46 45 45 45 44 43 43 43 43 41 40 39 38 36 36 34 33 34 34 35 35 36 35 35 35 34 31 29 27 27 27 28 28 29 30 30 31 31 30 29 28 28 29 31 31 31 30
68 68 63 58 57 56 54 52 51 49 47 46 44 44 45 46 46 46 46 46 46 45 45 45 44 43 42 41 41 40 40 40 39 37 36 35 36 37 37 36 37 36 33 30 29 29 28 29 29 30 31 32 31 31 30 30 30 30 30 31 31 30 29
71 71 67 60 55 52 50 51 51 50 49 48 47 45 45 45 46 46 47 48 48 47 47 46 46 45 44 44 44 44 44 44 43 41 39 38 37 40 40 38 37 37 33 30 30 31 30 30 31 32 33 32 31 31 31 31 31 31 30 30 30 30 29
72 72 71 66 58 50 48 50 51 51 50 49 48 47 46 46 45 46 47 49 48 48 48 48 47 47 46 46 46 46 45 44 44 44 44 44 44 43 42 40 38 37 33 30 31 31 31 31 32 32 33 32 32 32 31 31 31 30 30 30 30 30 30

ECMWFFLT1_500_spd_063.txt.gz
Wind_Speed
15 15 15 14 14 11 11 14 14 11 12 12 13 14 13 13 13 12 14 17 19 20 20 19 19 19 18 18 17 17 17 16 16 15 13 13 14 14 14 13 13 14 14 14 14 13 12 12 12 12 11 11 10 10 10 9 9 9 9 10 10 10 10
15 14 14 15 15 12 11 13 14 11 12 12 13 14 14 13 12 12 13 16 19 21 22 21 21 20 20 19 18 17 18 17 17 15 14 13 14 14 15 14 13 13 14 14 14 14 13 12 12 11 11 10 9 9 9 9 9 9 9 9 9 9 9
18 16 15 14 14 12 12 14 14 12 12 13 13 14 13 13 13 13 13 14 18 21 23 23 22 22 22 21 19 18 18 18 17 16 15 14 15 16 16 15 14 13 13 13 13 14 13 12 12 11 10 9 9 8 8 9 9 10 10 9 9 9 9
21 19 17 16 16 15 14 15 14 13 14 14 14 15 15 15 16 15 13 13 15 19 22 24 24 24 24 23 21 20 19 19 18 18 17 16 16 17 17 16 15 14 14 14 14 14 13 12 11 10 9 9 8 8 8 9 9 10 10 10 10 10 9
24 22 21 20 20 18 15 14 15 15 16 15 15 16 16 18 17 15 14 12 12 16 21 25 26 26 25 24 23 22 21 21 20 20 19 17 16 16 16 16 16 16 16 16 15 14 13 12 11 10 8 7 7 7 8 9 10 10 11 11 12 11 11
25 24 23 21 21 20 17 16 17 17 18 18 18 18 19 19 18 15 13 12 12 14 18 23 25 26 25 24 24 23 23 22 22 21 20 18 17 16 17 17 17 17 17 16 16 15 14 13 11 10 8 6 6 6 8 10 11 11 12 12 12 12 12
24 25 24 22 21 21 20 20 20 17 18 21 21 21 21 20 19 17 15 13 13 14 15 19 23 24 24 24 24 24 24 23 23 22 21 20 18 17 17 17 17 17 17 16 16 15 14 13 12 10 8 6 5 6 8 10 12 12 13 13 12 12 12
24 25 25 24 23 23 21 22 23 19 18 21 23 23 21 20 20 18 16 14 14 14 14 17 21 24 25 25 25 25 25 25 25 24 22 21 20 19 18 17 17 17 17 16 16 16 15 14 12 10 8 6 5 5 8 11 13 14 15 14 13 12 12
26 26 28 29 29 27 23 22 23 23 22 23 25 24 22 22 21 19 18 16 15 15 16 18 21 25 27 27 26 26 26 26 26 25 24 22 21 21 20 19 18 18 17 17 17 17 16 15 13 11 8 6 5 5 8 11 14 16 16 16 14 13 12
29 29 31 33 35 34 30 27 26 26 26 26 26 26 24 23 22 21 20 19 17 16 17 18 20 24 27 28 28 28 28 28 27 27 25 24 23 23 22 22 20 19 18 19 18 18 17 16 15 12 10 8 7 6 8 12 15 17 17 17 15 14 13
32 31 32 33 36 38 37 35 33 31 30 28 27 27 27 26 25 23 21 20 19 19 19 19 19 21 24 28 30 30 29 28 28 27 26 26 25 25 24 24 23 21 21 20 19 19 18 17 15 13 11 10 9 8 8 11 14 16 17 17 16 16 14
33 33 33 33 35 37 38 38 38 37 36 34 32 31 31 29 28 26 24 23 22 22 21 20 19 19 21 25 29 30 30 29 28 28 27 28 27 27 27 26 25 24 23 22 21 21 20 19 17 15 14 13 12 11 10 11 14 16 17 17 17 16 15
34 34 34 34 35 36 38 39 38 39 39 39 38 37 36 35 33 31 29 27 25 24 24 23 21 20 20 22 26 28 30 29 28 28 28 29 30 30 29 28 27 26 25 25 24 23 22 21 19 18 18 16 15 14 13 13 13 15 16 17 18 17 17
35 36 36 35 35 36 38 39 39 40 41 41 40 39 38 38 37 36 34 32 30 29 27 26 24 22 21 21 23 25 28 29 30 29 30 30 31 31 31 29 28 28 28 27 26 25 25 23 22 22 21 19 18 17 16 15 15 16 17 17 18 19 18
38 38 38 37 37 37 38 40 41 41 42 42 41 40 39 38 37 36 36 36 35 33 32 30 28 26 24 23 22 23 25 28 31 31 31 32 32 32 31 30 30 29 29 29 28 27 27 26 25 25 23 22 21 20 19 18 17 17 18 18 19 20 20
40 39 39 38 38 39 38 38 41 43 43 42 41 41 41 40 38 37 36 36 37 36 35 33 32 30 27 25 24 24 26 28 30 32 33 33 32 32 32 31 31 31 30 29 29 29 29 28 28 27 26 25 24 23 21 20 19 19 19 20 21 22 22
42 41 40 39 39 39 38 37 38 40 42 43 42 42 42 42 41 39 38 38 38 37 35 34 33 31 29 27 27 27 27 27 28 31 33 33 33 33 33 32 32 32 32 31 31 30 30 30 29 28 27 27 26 25 23 22 21 21 21 21 22 23 23
45 44 43 42 41 41 40 38 38 39 42 44 44 43 43 43 43 42 42 41 40 38 36 34 33 31 30 28 29 29 28 26 25 27 29 31 33 33 33 33 33 33 33 33 32 32 32 31 30 29 29 28 28 26 25 24 24 23 23 23 23 24 25
49 48 47 46 44 43 42 41 41 41 42 44 45 45 45 44 44 44 44 44 42 39 37 35 33 32 31 30 30 29 27 26 24 24 25 28 31 33 33 34 34 33 33 33 34 34 34 32 32 31 30 30 29 28 27 26 26 26 26 25 25 25 25
54 52 50 50 48 47 45 44 44 44 43 43 45 47 48 47 46 46 46 45 44 42 40 38 36 35 33 32 30 28 27 26 25 23 23 25 28 31 33 33 33 33 34 35 35 36 35 34 33 33 32 31 30 30 29 29 29 29 28 28 27 26 25
58 56 54 54 52 49 48 48 47 46 45 44 45 48 50 49 48 48 47 46 45 43 42 40 38 37 35 33 31 29 28 27 26 25 25 25 27 30 32 33 33 34 34 35 36 36 36 36 36 35 34 33 32 32 31 30 31 31 31 29 29 28 27
59 63 60 57 55 53 51 52 51 49 47 46 46 48 50 51 51 50 49 48 46 45 44 42 40 38 37 35 33 31 30 29 28 28 28 28 28 29 31 33 34 35 36 36 37 37 37 37 37 36 36 35 35 34 32 31 32 32 32 31 30 29 28
57 64 66 62 59 57 55 54 55 54 50 47 47 48 50 52 53 53 52 50 47 46 45 43 42 40 39 38 36 35 33 32 30 30 29 29 28 28 29 31 33 35 37 38 38 38 38 38 38 38 38 37 37 35 33 33 33 33 33 33 32 31 29
57 58 63 66 63 60 59 57 57 58 54 50 49 50 50 51 53 54 55 53 50 48 46 44 44 43 41 41 39 38 37 34 32 30 29 28 27 27 28 30 32 34 36 37 38 38 38 38 39 39 39 39 38 37 35 34 34 34 34 34 34 32 30
63 57 57 63 65 63 61 60 59 60 58 54 52 53 52 52 53 53 54 54 52 50 47 45 46 45 43 43 43 42 40 36 33 31 30 28 27 27 28 29 31 33 34 35 36 37 38 39 39 39 39 39 39 38 37 36 36 36 35 35 35 33 31
70 63 57 59 63 64 63 63 62 61 60 58 56 55 55 55 53 50 49 51 53 52 49 47 47 46 45 44 44 44 42 38 36 34 32 30 30 29 30 31 31 32 32 33 34 36 37 38 38 38 38 38 39 38 37 37 37 37 36 36 36 35 33
73 69 63 59 60 61 62 64 64 62 60 60 59 57 57 56 54 51 49 49 50 51 50 49 47 46 46 45 44 44 43 41 40 38 35 34 33 32 32 32 32 32 32 32 33 34 34 35 36 37 38 38 38 38 37 37 38 38 38 38 37 36 35
75 74 70 64 60 58 58 61 65 64 61 60 60 59 59 59 55 53 52 52 50 48 49 49 47 45 45 44 43 43 44 43 43 42 39 37 37 36 34 33 34 33 33 33 33 33 33 34 34 35 36 37 37 37 37 38 38 39 39 39 38 38 37
77 77 75 69 64 59 55 55 61 65 63 60 58 58 59 61 58 53 51 52 51 50 49 48 48 47 46 45 44 44 44 44 45 44 42 41 40 39 37 36 36 35 35 34 34 34 33 33 33 33 34 35 36 36 37 37 38 39 39 39 40 40 38
80 79 78 74 70 66 58 53 56 62 63 60 59 58 59 60 60 56 51 50 51 51 50 48 47 46 46 46 47 45 45 45 46 45 43 43 43 42 41 39 38 37 36 36 36 35 34 33 33 33 33 33 34 35 35 36 37 37 38 39 40 41 40
85 82 80 78 76 73 68 58 53 58 62 61 60 61 61 60 59 57 53 50 49 50 50 49 48 46 45 47 48 48 47 48 47 46 45 45 46 45 43 42 41 39 38 37 37 36 35 34 34 33 32 32 32 33 34 36 36 37 37 39 40 41 41
89 87 84 82 80 79 76 67 57 56 61 61 61 64 64 60 58 56 53 50 49 48 49 49 49 47 46 47 49 49 49 49 48 46 46 47 49 47 44 43 42 41 40 39 38 37 36 35 35 34 33 32 32 33 34 35 36 36 37 38 39 40 41
89 90 89 86 84 83 81 74 64 58 59 61 62 65 65 62 60 59 57 53 50 48 49 50 50 49 48 48 49 49 50 50 49 47 46 47 51 51 48 45 44 44 43 41 40 38 37 36 35 34 33 33 33 34 35 36 36 36 36 37 38 39 40
87 91 93 91 89 87 85 79 71 63 58 58 60 64 65 65 64 63 61 56 51 48 50 51 51 50 49 49 49 49 50 50 50 49 47 46 50 53 51 48 47 46 45 43 40 40 39 38 37 36 35 34 34 35 36 36 36 35 35 37 39 40 41
84 88 93 95 93 91 88 83 78 71 64 60 59 59 62 67 68 65 62 58 53 50 50 51 51 51 50 50 50 51 51 51 51 51 49 48 49 51 51 49 48 47 45 43 42 41 41 40 39 38 36 36 36 36 36 35 34 35 37 40 41 42 41
85 85 89 95 97 95 91 87 83 78 72 68 65 59 57 62 69 68 63 58 53 50 50 50 51 52 50 50 52 53 53 52 52 52 51 49 48 48 48 48 48 47 45 44 43 43 43 42 41 40 39 39 39 38 36 34 33 35 39 41 42 41 40
87 86 86 92 97 98 96 91 87 83 79 75 73 68 60 57 62 66 66 60 52 48 49 50 51 52 51 50 52 54 54 54 54 54 52 49 48 48 48 47 46 46 45 45 44 44 44 43 43 42 41 41 40 40 38 35 35 37 40 41 41 40 40
88 88 87 89 94 98 99 96 90 86 84 81 79 76 70 61 57 59 62 61 54 50 50 51 51 53 53 52 53 54 55 55 55 55 53 51 50 51 50 49 47 46 45 44 43 43 44 44 44 43 43 42 42 41 39 37 37 38 40 41 41 41 41

ECMWFFLT1_500_spd_066.txt.gz
Wind_Speed
23 23 23 22 20 18 16 19 19 17 16 15 14 14 13 13 12 12 14 16 19 19 19 20 20 20 20 19 17 16 16 16 17 16 13 11 12 13 15 15 15 16 16 16 15 13 13 12 13 13 13 13 13 13 14 13 13 13 13 12 11 11 11
20 19 21 21 21 20 18 21 21 19 17 16 16 15 14 14 13 13 14 16 19 21 20 21 22 21 21 20 18 17 17 18 18 17 14 12 11 13 14 15 15 15 15 14 13 12 12 13 13 14 14 13 13 13 13 13 13 14 13 13 12 11 11
20 18 19 20 22 21 20 22 24 21 19 18 16 16 16 15 15 14 15 16 19 21 22 22 22 23 23 22 20 18 18 19 19 18 16 14 13 13 15 15 15 15 15 14 13 12 12 12 13 14 14 13 13 13 13 13 13 14 14 14 13 12 11
23 19 19 20 22 22 20 22 25 23 21 19 18 17 17 18 17 16 16 16 18 21 23 23 24 24 24 23 21 20 19 19 20 19 18 17 15 14 14 15 16 15 15 15 14 13 12 12 13 14 13 13 13 13 13 13 14 14 14 14 13 13 12
25 22 22 22 23 21 19 21 24 23 21 21 20 19 19 19 19 17 16 15 16 19 24 26 26 26 25 24 23 22 21 21 21 20 19 18 16 14 14 15 15 15 15 15 14 13 13 13 14 13 13 12 12 13 13 13 14 14 14 14 14 13 12
26 25 25 25 25 24 21 22 25 23 22 22 22 22 22 21 20 19 17 15 14 16 21 25 26 26 25 25 24 23 23 22 22 21 20 18 17 15 14 15 15 16 16 15 14 14 14 14 14 13 12 11 11 12 13 13 14 14 14 14 14 13 13
28 28 29 29 29 28 26 26 28 27 25 26 26 25 23 22 21 21 18 16 14 14 16 21 25 26 25 25 25 24 24 24 23 23 21 19 18 17 16 15 15 16 16 15 14 14 14 14 14 13 11 10 10 11 12 13 14 14 14 15 14 14 14
30 31 32 33 33 32 30 29 31 31 30 30 29 27 26 25 24 22 20 17 15 14 14 17 23 26 27 26 26 25 25 25 25 25 23 21 19 19 18 16 15 16 16 15 15 15 15 14 14 12 11 9 8 9 11 13 14 15 15 15 15 15 15
32 33 34 35 36 35 33 31 31 33 32 32 32 31 30 29 27 26 24 21 18 16 15 16 20 26 28 28 27 27 27 27 27 26 25 22 20 20 19 18 17 16 15 16 16 16 16 15 15 13 11 9 8 8 9 12 14 15 16 16 16 16 15
34 35 37 38 38 37 35 33 33 33 32 32 33 34 34 32 31 30 29 26 22 19 18 18 20 25 29 30 29 29 29 28 28 27 26 24 23 22 22 21 20 18 17 17 17 17 17 17 16 14 12 10 9 8 10 12 15 16 16 17 17 16 15
37 37 39 40 40 39 38 35 34 34 33 32 33 34 35 35 34 33 32 31 28 25 23 22 22 24 28 31 32 31 30 29 29 28 28 27 26 25 25 24 22 21 19 19 18 18 19 18 17 15 13 12 11 10 11 13 15 17 17 17 17 16 15
39 39 41 42 41 41 40 38 36 36 36 34 33 34 35 35 35 33 32 32 31 30 28 26 25 24 27 30 33 33 32 31 30 30 29 29 28 28 28 27 25 24 23 21 20 20 20 19 19 17 16 15 13 12 12 13 16 18 18 18 18 17 16
39 40 42 43 43 42 42 41 39 38 38 37 34 34 35 35 35 33 31 31 31 31 30 29 27 25 25 28 32 34 34 33 32 32 32 31 31 31 30 29 28 26 25 24 23 22 21 21 20 20 19 17 16 14 13 13 15 18 19 19 19 18 18
40 40 41 42 43 43 43 43 41 40 40 39 37 36 36 37 36 34 32 32 32 31 30 30 29 27 26 27 29 33 36 36 35 35 34 33 33 33 31 30 29 28 28 27 26 24 23 23 22 22 22 20 18 17 16 14 15 17 19 20 21 20 20
41 41 41 42 42 43 44 45 44 42 42 41 39 38 38 39 38 37 36 35 34 33 33 32 30 29 27 26 27 30 35 38 38 37 36 36 35 34 33 32 30 30 30 28 27 27 26 25 24 24 23 22 21 20 19 17 16 17 19 20 21 22 22
42 42 42 43 42 43 45 46 46 44 43 42 40 39 39 40 40 40 39 38 38 37 36 35 32 30 28 26 26 29 33 37 39 39 38 37 35 35 34 34 33 32 31 30 29 29 29 28 27 26 25 24 24 23 21 20 19 19 19 21 22 23 23
44 44 44 44 44 44 45 46 46 46 44 43 41 41 41 41 42 42 41 41 40 39 38 37 35 32 30 28 27 29 31 35 38 40 40 38 37 36 36 35 35 34 33 32 31 31 30 30 29 28 27 27 26 25 23 22 21 21 21 21 22 23 24
47 46 46 46 46 46 45 45 46 47 46 45 44 43 42 42 42 43 43 43 42 41 40 38 36 35 33 31 30 30 30 32 36 40 41 40 40 39 38 37 36 35 34 33 33 32 32 31 30 30 29 29 28 27 25 24 23 23 23 22 22 23 24
50 49 48 48 48 47 46 45 46 47 48 48 47 45 45 44 44 44 44 45 44 43 41 40 38 37 35 34 33 32 31 32 34 37 40 41 41 41 40 39 38 36 35 34 34 34 33 32 32 31 31 30 29 28 27 26 26 25 25 24 24 24 25
54 52 51 50 49 48 48 47 47 47 49 49 48 48 47 47 46 46 45 45 45 45 43 41 40 39 38 37 35 34 33 32 32 34 37 40 42 42 42 40 39 37 37 36 36 35 34 33 33 33 32 31 31 30 29 28 28 27 27 27 27 27 26
57 56 55 54 52 51 50 49 49 49 49 49 49 50 50 49 49 47 46 46 47 46 45 44 42 41 40 39 38 36 35 33 31 32 34 37 41 42 43 42 40 39 38 38 37 37 36 36 35 35 34 33 32 32 30 29 29 29 29 28 29 29 29
60 60 59 57 56 55 53 52 51 51 50 50 50 50 51 51 51 50 48 47 48 49 48 47 45 43 42 41 40 38 37 35 32 32 33 35 38 40 42 42 41 40 40 39 39 39 38 38 38 37 36 36 35 33 32 31 31 31 30 30 31 31 31
61 62 62 60 59 59 57 55 54 53 52 51 51 51 51 51 52 51 50 49 50 51 50 47 46 45 43 42 41 40 38 37 34 32 33 34 35 37 39 41 41 41 41 40 40 40 39 39 39 39 39 38 36 34 33 32 33 33 32 32 33 33 32
64 63 63 62 62 61 61 59 57 56 55 54 53 53 52 51 51 51 51 51 52 52 49 45 45 46 46 44 43 41 40 38 35 33 33 33 33 34 35 38 39 40 41 41 41 40 40 39 39 39 39 38 37 36 34 34 35 35 34 34 34 34 33
67 66 64 63 63 63 63 62 60 59 58 57 56 56 55 54 52 51 51 52 53 53 50 47 46 47 48 47 45 43 42 40 37 35 34 34 33 33 34 35 36 38 39 39 39 39 39 39 39 38 38 38 37 37 36 36 36 37 36 36 36 36 35
68 69 69 66 65 64 65 65 64 62 61 61 60 60 58 56 54 53 53 52 52 53 52 51 50 48 48 49 48 45 44 42 40 38 37 36 34 34 33 33 33 33 34 34 35 36 37 37 37 37 37 38 38 38 37 37 38 38 38 38 38 37 37
69 70 71 71 69 68 68 68 67 66 64 64 64 63 62 59 56 55 55 54 52 51 52 53 53 52 50 49 49 48 46 45 44 42 40 38 36 35 34 32 32 31 31 31 32 33 35 35 36 36 37 37 37 38 38 38 39 40 40 40 40 39 39
71 71 71 72 73 73 72 71 70 70 68 66 66 66 65 62 58 57 57 55 53 51 52 53 55 55 53 52 51 50 49 49 48 46 44 42 39 37 35 34 33 32 31 31 31 31 32 33 33 34 35 36 36 37 37 38 39 40 41 41 41 41 40
72 73 73 72 73 74 75 74 73 73 73 69 67 68 69 66 62 59 58 57 55 53 53 54 55 56 56 56 54 53 53 53 51 48 46 44 41 39 37 36 36 35 33 32 32 31 31 31 31 31 31 32 33 34 36 38 39 40 41 41 41 41 41
72 73 75 75 75 75 76 77 76 75 75 74 70 69 70 70 67 62 59 59 58 56 55 55 55 56 57 58 56 54 53 52 49 47 47 46 44 41 40 39 38 37 36 35 34 33 32 32 31 30 29 29 30 31 33 36 38 39 40 40 40 41 40
72 73 75 77 77 77 77 78 78 78 77 76 74 71 70 70 69 66 63 62 61 59 58 57 56 55 56 57 57 55 52 50 49 48 47 47 47 45 43 42 41 40 38 37 36 36 35 34 33 31 30 29 28 29 31 34 36 37 38 39 39 39 40
72 74 75 77 79 80 79 79 80 80 79 76 74 73 71 69 69 68 67 65 64 62 60 59 58 56 56 57 58 57 55 52 50 50 49 48 48 47 46 45 44 42 41 39 38 38 37 36 35 33 31 30 29 29 31 33 34 35 36 37 38 38 39
74 74 75 77 79 82 83 82 81 82 81 78 75 74 73 71 70 70 69 68 68 66 62 61 61 59 57 58 58 57 57 56 52 51 51 50 48 47 48 48 47 46 44 42 40 39 39 38 37 35 33 32 30 30 32 33 33 33 34 34 36 37 38
77 76 75 77 78 81 84 85 84 83 82 80 77 76 74 72 71 72 71 70 70 69 66 65 64 60 57 57 57 56 56 57 55 53 51 51 50 49 49 50 50 48 47 44 42 41 41 40 39 38 36 34 33 33 33 34 33 32 32 34 36 37 38
82 79 78 78 78 80 82 86 87 86 84 83 81 79 76 72 67 66 69 71 71 70 69 69 67 62 57 56 57 56 55 55 55 54 53 51 51 51 50 51 51 51 49 47 46 44 43 42 42 41 40 38 36 35 35 34 33 32 34 36 38 38 38
83 83 81 80 80 80 80 84 88 89 88 86 84 82 80 76 67 60 61 68 71 71 70 69 67 64 59 56 55 56 56 54 53 53 52 51 51 52 52 52 52 52 51 49 48 47 47 46 45 44 43 41 38 37 37 36 33 34 37 39 38 38 38
81 84 84 83 83 82 81 82 86 90 91 90 88 85 83 82 76 66 58 60 67 71 71 68 65 61 57 54 53 54 55 55 54 52 51 50 50 51 53 54 54 53 52 50 49 49 49 49 47 46 46 44 41 40 39 38 36 37 39 40 39 39 39
75 81 85 86 85 85 84 83 84 88 92 93 92 89 85 83 82 77 67 59 60 67 72 71 65 59 55 54 53 52 52 54 55 54 52 51 51 51 52 54 54 54 52 51 50 50 51 52 50 48 47 46 45 44 42 40 39 39 40 41 42 42 41

ECMWFFLT1_500_spd_069.txt.gz
Wind_Speed
30 29 28 26 25 23 23 23 23 24 23 22 21 19 18 17 16 16 17 18 18 18 20 22 23 23 23 21 19 16 15 15 15 15 14 13 13 13 14 15 15 13 11 10 10 11 11 12 12 12 13 13 13 13 12 12 12 12 12 11 10 9 9
30 27 26 25 23 22 22 23 24 24 24 24 23 21 20 19 18 17 17 19 20 20 20 22 24 25 24 23 20 18 16 17 17 16 14 14 14 14 15 16 16 14 12 10 11 12 13 12 12 13 13 13 13 13 13 13 13 13 13 12 11 10 10
27 23 23 23 22 21 21 22 23 23 23 24 23 22 21 20 20 19 19 19 21 21 21 22 24 25 25 23 21 20 18 18 18 18 16 15 15 15 15 16 16 15 13 13 13 14 13 13 13 13 13 14 14 14 14 14 14 13 13 12 12 11 11
25 21 20 22 23 22 20 21 24 25 24 25 25 24 24 23 22 21 20 20 21 22 23 23 24 25 25 24 23 22 20 20 21 20 18 16 16 16 15 16 16 16 16 16 15 15 14 13 13 14 14 14 14 14 14 14 14 14 13 13 12 11 11
27 23 21 21 22 23 22 22 25 27 27 26 27 27 26 25 24 23 21 20 21 23 25 25 25 25 26 26 25 23 22 22 22 22 19 17 16 16 16 16 17 18 18 18 17 16 15 14 14 15 15 15 14 15 15 14 14 14 14 13 12 12 12
30 26 23 21 22 24 24 23 26 29 29 28 28 28 27 26 25 25 23 22 21 23 25 26 26 25 26 26 26 25 24 24 24 23 21 19 18 17 17 17 18 19 19 19 18 17 16 15 15 16 15 15 15 15 15 15 15 14 15 14 13 13 12
32 29 26 23 23 24 25 25 27 30 30 29 29 28 28 27 27 27 26 24 23 23 25 27 27 26 27 27 27 26 25 25 25 25 23 21 20 19 19 18 18 19 20 20 19 18 17 17 17 16 16 15 15 15 15 15 15 15 15 15 14 14 13
33 31 29 26 26 25 26 26 28 30 31 30 30 29 29 29 29 28 28 26 25 24 25 28 29 29 29 29 28 27 27 27 26 25 24 23 22 21 20 19 19 20 20 20 20 20 19 18 18 17 17 16 15 15 15 16 16 16 16 16 15 14 13
33 33 31 30 29 28 28 28 28 30 31 31 31 30 30 30 30 29 29 28 27 26 26 27 29 31 32 31 30 30 29 29 27 26 25 24 23 23 22 22 21 20 21 21 22 21 20 19 19 18 17 16 15 15 15 16 17 17 17 16 16 15 14
33 33 33 32 31 31 31 31 31 31 32 32 31 31 31 31 31 30 28 26 26 26 26 27 27 30 33 33 33 32 32 30 29 28 27 26 25 25 25 24 23 22 21 22 22 21 21 20 19 19 18 16 15 15 15 16 17 18 17 17 16 15 14
33 34 34 33 33 34 35 34 34 33 33 33 32 32 32 31 31 31 28 25 24 24 24 25 25 26 30 33 34 34 33 32 31 29 29 28 27 27 27 26 25 24 23 22 22 22 22 21 20 20 19 18 16 15 15 16 18 18 18 18 17 16 15
34 35 35 34 34 35 37 37 37 36 35 35 35 33 33 32 32 32 30 28 28 27 26 27 27 25 27 31 34 34 34 33 32 31 31 30 30 29 29 28 27 26 25 24 24 23 23 22 21 21 20 19 17 16 15 16 17 19 19 18 17 17 16
37 37 37 36 36 37 38 39 40 39 38 37 37 35 34 33 33 33 31 30 30 30 29 29 29 28 26 28 32 35 35 34 33 33 33 33 32 32 31 30 29 28 27 26 26 25 24 24 23 23 22 21 19 17 15 15 16 18 19 18 18 18 17
39 39 39 38 38 39 40 41 42 42 41 40 39 37 36 34 34 34 34 33 32 31 30 30 30 30 28 27 30 34 36 36 36 35 35 35 34 33 32 31 31 30 29 28 27 26 26 26 25 25 25 23 21 19 17 15 14 16 18 19 19 19 18
40 40 40 40 41 41 43 44 45 45 45 43 41 40 38 36 35 36 36 35 34 33 33 32 32 32 30 27 27 30 35 38 38 37 37 36 35 34 33 33 32 32 32 30 29 28 28 28 27 27 26 25 24 21 19 16 15 15 17 18 20 20 20
41 41 41 41 42 44 45 46 47 48 47 46 44 42 40 39 37 37 37 37 37 35 34 34 34 33 32 29 27 28 31 35 38 39 38 37 37 36 35 34 34 33 33 32 31 31 30 29 29 28 28 27 26 24 21 19 18 17 17 18 20 21 21
41 42 42 41 42 44 46 47 48 49 49 49 47 45 43 41 40 38 38 38 39 38 36 35 35 34 33 31 29 29 29 31 34 38 39 39 38 38 37 36 35 35 34 33 33 32 31 30 29 29 28 28 28 26 24 22 21 20 19 19 20 21 22
42 42 43 42 42 43 45 47 49 51 51 50 49 47 45 44 42 41 39 39 40 40 39 37 36 36 35 34 32 31 30 29 31 34 37 39 40 39 39 38 37 36 35 34 33 33 32 31 30 30 29 29 29 28 26 25 24 24 22 22 22 22 23
44 43 44 44 43 44 46 47 49 51 52 51 50 49 48 46 45 43 42 41 41 41 41 40 38 37 37 36 35 33 32 31 30 31 34 37 40 41 41 40 39 38 37 36 35 35 34 32 31 31 30 30 30 29 28 28 27 27 26 25 24 24 24
46 45 45 45 45 46 47 48 49 50 51 51 51 51 51 49 48 46 45 43 42 42 42 42 41 39 39 38 38 37 35 34 32 31 31 34 37 41 42 41 40 39 39 38 37 36 35 34 33 32 32 31 31 30 30 30 30 29 29 28 27 26 26
47 47 47 48 47 48 49 50 50 50 50 50 50 51 52 52 51 49 47 46 44 43 43 43 43 42 41 40 40 40 39 36 34 32 31 32 34 37 40 41 41 41 41 40 39 38 37 36 35 34 33 33 32 31 31 30 30 31 30 30 29 29 28
48 49 50 50 50 50 51 52 51 51 50 50 49 50 52 53 53 52 50 48 46 45 44 45 45 44 44 43 42 42 41 39 37 34 33 32 32 32 35 37 40 41 42 42 41 40 39 38 36 35 35 34 33 32 31 31 31 32 32 31 31 31 30
49 51 53 54 54 53 53 54 53 53 52 51 51 51 51 52 53 53 53 51 49 47 46 46 46 46 46 45 45 44 43 42 40 37 36 34 32 31 32 33 36 39 41 42 42 41 40 39 38 38 37 36 35 33 32 32 32 33 33 33 33 32 31
52 53 55 56 57 56 56 56 55 55 54 53 53 53 52 52 53 53 54 53 52 50 49 48 47 47 47 47 47 46 45 44 42 40 39 37 35 33 32 33 34 36 39 41 42 42 42 41 41 40 39 38 36 34 33 33 34 34 34 33 34 33 32
55 55 56 58 59 59 59 58 57 57 57 56 56 55 55 54 54 53 53 54 53 53 51 50 49 48 48 48 48 47 46 45 44 43 42 40 39 37 35 34 35 35 36 38 40 42 43 43 42 41 40 38 37 36 35 34 35 35 35 35 35 34 33
58 58 59 60 61 62 61 61 60 59 59 58 58 58 57 57 56 55 54 53 54 54 53 52 51 50 49 48 48 48 47 46 46 45 44 43 42 41 38 37 36 36 36 36 38 39 42 43 42 41 40 38 37 37 36 35 36 37 37 36 36 35 34
61 61 62 63 64 64 64 63 63 62 61 60 60 60 60 59 58 57 56 55 55 54 54 53 53 53 51 49 48 48 48 48 48 48 47 47 46 45 42 40 38 37 37 36 36 37 39 40 41 41 40 39 38 37 36 36 36 37 38 38 38 37 36
63 63 64 65 67 68 68 67 66 65 65 64 63 62 62 62 61 60 59 58 57 56 54 54 54 54 53 52 50 49 49 49 50 50 50 51 51 49 46 43 40 37 36 36 35 35 35 37 38 39 39 39 38 37 36 36 36 38 39 38 38 38 37
65 65 66 67 68 70 71 71 70 69 68 68 67 66 65 65 64 63 62 60 60 58 56 54 54 54 54 54 53 53 53 53 53 52 52 53 52 49 46 44 41 38 37 36 34 34 33 33 34 35 36 36 36 35 35 35 36 37 38 38 37 37 37
66 67 67 68 69 71 73 74 74 73 73 72 71 70 68 68 67 66 66 64 63 61 59 57 55 55 54 54 54 54 54 56 57 55 54 53 51 48 46 45 43 40 39 37 35 34 32 32 32 32 32 32 32 32 32 33 34 36 36 36 36 36 36
67 67 68 69 70 72 74 75 76 76 76 76 75 74 72 71 69 68 68 69 67 65 63 60 59 57 56 55 54 54 54 56 59 59 56 53 50 49 48 47 45 43 41 39 37 35 33 32 31 31 30 29 28 28 28 30 31 32 32 33 33 34 35
68 68 68 69 71 72 74 75 76 78 79 79 78 77 76 75 73 70 70 71 71 69 66 64 62 61 60 58 56 55 55 56 58 60 58 55 51 49 49 49 48 46 44 42 39 37 35 33 33 32 30 28 27 26 27 28 29 29 29 30 30 31 32
71 71 70 69 70 72 74 75 76 78 80 82 82 81 80 79 78 75 72 72 72 72 70 68 66 65 63 61 59 57 56 56 57 58 59 57 53 50 49 50 49 48 47 45 42 40 38 36 35 34 32 30 28 28 28 29 29 29 28 28 29 30 32
75 75 74 73 72 72 74 75 76 77 79 81 84 84 83 82 81 80 77 74 73 73 73 72 69 67 66 64 62 60 59 58 58 57 57 58 57 53 50 50 50 49 48 47 45 43 41 39 38 36 35 33 32 31 31 31 31 29 28 29 30 32 33
77 78 78 77 76 75 75 75 76 76 77 79 82 86 86 85 83 83 81 79 76 74 73 73 72 70 68 67 65 63 61 61 60 58 56 56 57 56 53 52 51 51 50 48 47 46 45 43 41 39 37 37 35 34 34 33 32 31 31 32 34 35 34
73 77 80 81 81 79 78 77 77 77 77 77 80 83 87 87 86 85 84 83 81 78 75 73 73 72 70 68 67 66 64 61 61 60 58 55 55 56 56 55 54 53 52 50 48 48 48 47 45 42 41 40 39 37 36 35 34 34 35 36 37 36 35
65 70 76 81 83 84 83 82 80 79 78 78 78 81 84 87 88 88 88 87 86 83 80 77 74 73 72 70 68 68 66 62 60 62 61 58 55 55 56 57 56 55 54 52 50 50 50 50 49 47 45 44 42 40 40 38 37 37 38 38 38 38 37
60 62 67 74 80 85 87 87 85 84 81 80 79 80 81 84 86 88 90 90 90 88 85 82 78 75 74 73 71 71 69 64 61 62 63 61 59 57 57 58 59 57 55 54 53 52 51 50 50 49 48 47 45 44 43 41 40 41 41 41 41 40 40

ECMWFFLT1_500_spd_072.txt.gz
Wind_Speed
30 30 28 27 25 23 22 23 24 23 22 22 21 20 19 18 18 19 20 20 19 19 19 21 22 23 24 23 20 17 16 16 16 17 16 16 16 16 17 17 16 15 13 11 11 12 12 11 11 10 9 9 10 10 10 9 9 8 8 8 8 8 8
31 30 29 28 26 23 21 22 23 23 22 22 22 22 21 20 20 20 21 21 21 20 21 22 23 25 25 24 21 19 18 18 18 18 17 16 16 17 17 18 17 16 14 12 11 11 12 11 11 10 10 10 10 11 10 10 9 9 9 9 9 9 8
31 31 30 28 27 25 22 22 23 23 23 24 24 24 23 23 23 23 23 24 23 23 22 23 24 26 26 25 23 21 20 19 19 19 18 17 17 17 18 18 18 17 15 13 13 12 12 12 11 11 10 11 11 11 11 11 10 10 10 9 9 9 8
32 31 29 27 26 26 24 23 23 23 24 26 26 25 24 24 24 24 25 26 26 25 25 24 26 27 27 27 26 24 22 21 21 21 19 18 18 17 18 18 18 17 16 15 14 14 13 13 12 11 12 12 12 11 11 11 11 10 10 9 9 8 8
33 32 29 26 25 25 25 24 23 23 24 26 27 26 26 25 25 24 25 25 25 27 27 26 27 28 29 29 28 26 25 24 23 22 21 19 18 18 18 18 18 18 17 16 16 15 14 14 13 12 12 12 12 12 12 11 11 10 10 9 8 8 8
34 33 30 26 24 25 26 26 24 23 25 27 28 28 27 26 26 26 24 23 24 25 25 26 27 28 29 30 30 29 27 26 25 24 23 21 19 19 19 19 19 19 18 18 18 17 16 15 14 13 13 13 13 12 12 11 11 10 10 10 9 8 8
34 35 31 26 23 24 26 26 25 24 25 27 27 28 28 28 28 27 26 24 23 23 24 26 26 27 29 30 31 30 29 27 26 25 24 23 21 20 20 20 20 19 19 20 20 19 17 16 15 14 14 14 14 13 12 12 11 11 11 10 9 8 8
34 35 33 29 25 24 25 26 26 26 26 27 28 28 28 29 29 28 26 24 22 22 23 25 25 25 27 28 29 30 29 28 27 26 25 24 23 22 22 22 21 21 20 21 21 20 19 17 16 15 15 15 14 14 13 12 12 11 11 10 9 9 8
35 34 33 30 28 26 25 25 26 27 27 27 28 29 28 29 30 28 25 24 23 23 23 24 24 24 25 26 27 28 28 28 27 26 25 24 24 23 23 23 23 22 22 23 23 22 20 19 17 16 16 16 15 14 14 13 12 12 11 11 10 9 9
36 35 34 32 29 28 27 26 26 27 27 27 28 29 29 29 28 28 27 27 26 24 24 25 25 26 26 27 28 28 28 28 27 27 26 25 25 24 24 25 24 24 24 24 24 23 22 20 19 18 17 17 16 16 15 14 14 13 12 12 11 11 10
37 37 36 35 32 31 29 28 28 27 28 28 29 30 30 29 28 27 28 29 28 26 27 27 27 27 27 28 29 28 28 29 28 28 27 26 26 26 26 26 25 25 25 25 25 25 24 22 20 19 19 19 18 17 16 15 15 14 14 14 13 12 11
39 38 38 37 36 34 33 31 30 29 29 30 30 31 31 30 31 29 27 28 28 29 30 29 27 27 26 27 28 28 28 29 29 29 29 29 28 27 27 27 26 26 26 26 26 26 25 24 23 22 21 21 20 19 17 16 15 15 15 15 14 14 13
41 40 40 39 37 37 36 35 34 33 32 32 32 31 31 30 32 32 30 28 27 29 31 30 28 27 27 27 26 26 27 30 31 31 31 31 30 29 28 28 27 27 27 27 27 27 26 26 25 24 24 24 22 21 19 17 16 15 15 15 15 15 15
42 42 41 41 39 38 38 38 37 36 35 34 34 33 32 31 32 32 32 30 28 29 31 30 29 28 28 28 27 25 26 29 32 33 33 33 32 31 29 29 28 28 28 28 28 27 27 27 27 27 26 25 24 22 20 18 17 16 15 15 16 16 16
43 43 42 42 41 40 39 39 39 38 38 38 37 35 34 33 32 33 33 33 31 30 31 30 30 30 29 29 28 27 27 28 30 33 34 34 34 33 31 30 29 29 29 28 28 28 28 28 28 28 28 27 26 24 22 19 18 17 16 16 17 17 17
44 45 44 43 43 42 41 40 40 40 40 40 40 39 38 36 35 34 34 35 34 32 31 32 31 31 31 30 30 30 30 28 28 30 33 34 35 34 33 32 31 30 30 29 29 29 29 28 29 29 29 28 28 26 24 21 19 18 18 17 17 17 17
45 45 45 44 44 44 43 42 42 41 41 42 43 42 41 40 39 37 36 37 37 34 33 33 33 32 32 33 32 32 32 30 28 28 30 33 35 35 35 34 33 31 31 30 30 30 29 29 29 29 29 30 29 28 26 23 22 21 20 19 18 18 18
44 45 45 44 44 45 45 44 44 43 43 43 44 44 44 43 43 41 39 39 39 38 35 34 34 34 33 35 35 34 33 32 30 29 28 31 34 36 37 36 35 33 32 31 31 31 30 30 30 30 30 30 30 29 27 25 24 24 23 21 19 19 19
45 45 44 44 44 45 45 45 45 45 44 44 44 45 46 46 45 44 42 41 41 41 39 36 35 35 36 36 35 35 34 33 32 30 29 29 32 35 38 38 36 35 34 33 33 32 31 30 30 30 31 30 30 30 29 28 27 27 25 24 22 22 21
46 45 44 44 44 44 44 44 44 44 45 45 45 46 46 47 48 47 46 44 42 42 42 40 37 36 37 37 35 35 35 35 33 32 31 30 30 33 35 37 37 37 36 36 35 33 31 31 31 31 31 31 30 30 30 30 29 29 28 27 26 25 24
47 46 45 45 44 44 43 43 43 44 44 44 46 47 47 48 49 49 48 47 45 43 43 43 41 38 38 38 38 37 37 36 36 34 33 32 31 31 32 34 35 37 37 37 36 35 34 34 33 32 31 31 31 31 31 30 31 31 31 30 29 28 27
49 48 47 47 46 45 44 44 43 43 43 44 45 46 47 48 49 50 51 50 48 46 44 44 44 42 40 39 39 40 39 38 37 37 36 35 33 32 31 31 32 35 37 38 38 37 37 36 35 33 33 33 32 32 31 31 32 32 32 32 32 31 29
51 51 50 49 48 48 47 46 45 44 43 44 44 44 45 46 48 50 52 52 51 49 47 45 45 45 43 41 40 41 41 40 40 39 39 38 36 34 33 33 32 33 36 38 39 39 39 38 37 36 35 35 34 32 32 32 32 33 33 33 33 32 30
53 53 52 52 51 50 49 49 48 46 45 44 44 45 45 45 46 48 50 52 52 52 51 49 47 46 46 45 43 42 41 42 42 42 41 41 40 38 37 36 36 35 35 36 37 38 40 40 39 38 37 36 35 34 33 33 33 33 33 34 34 33 31
55 54 54 53 53 52 51 51 51 50 48 46 46 46 46 46 46 47 48 50 52 52 53 52 51 49 48 47 46 44 42 42 43 43 43 43 43 42 42 41 40 38 37 36 36 36 38 39 39 39 38 38 37 36 35 35 35 34 34 35 35 34 32
55 56 56 55 55 54 53 53 52 52 51 50 48 48 48 48 47 47 48 49 50 51 52 53 54 53 51 49 49 47 46 44 44 43 44 44 45 46 46 44 42 40 39 38 36 34 33 35 37 39 39 39 39 39 38 37 37 36 36 37 36 35 34
54 56 57 58 57 57 56 55 55 54 54 53 51 50 50 50 50 49 49 49 50 50 51 51 53 54 54 52 51 50 49 48 46 46 45 45 47 49 48 45 43 40 38 38 37 35 33 33 34 35 37 39 40 40 39 38 38 38 38 38 38 37 35
55 56 58 59 60 60 59 58 58 57 57 56 55 54 53 53 53 52 52 52 52 51 51 51 52 52 53 54 53 53 52 51 50 49 48 47 48 49 48 45 43 40 39 39 39 38 37 35 32 32 33 36 38 39 39 39 39 39 39 39 40 39 37
57 57 58 59 61 62 62 61 61 61 61 60 59 58 57 56 56 55 55 54 54 54 53 53 53 53 53 53 53 53 53 54 53 52 52 51 50 48 47 46 45 43 42 43 41 40 39 37 34 32 32 33 34 36 37 39 39 40 40 41 41 40 39
60 60 60 61 62 63 64 64 64 64 64 64 64 63 61 60 59 59 58 57 57 57 56 56 56 55 54 54 54 53 53 54 55 54 54 53 52 50 48 47 47 46 45 44 42 42 41 39 37 34 32 31 32 33 35 37 38 40 41 41 41 41 40
62 62 62 63 63 64 66 66 66 66 66 67 68 68 67 65 64 63 62 62 61 61 60 59 59 58 57 57 56 55 54 54 55 55 55 55 54 53 51 49 48 47 46 44 43 43 42 40 39 36 33 31 30 31 33 35 37 39 40 40 41 41 40
61 62 63 63 64 65 66 68 68 68 68 69 70 72 71 70 69 67 66 66 65 64 64 63 62 61 60 60 59 58 57 55 55 56 56 56 55 54 53 52 50 48 47 46 44 44 43 41 40 38 35 33 31 31 33 35 35 37 38 39 39 38 38
61 62 62 63 64 65 66 67 69 70 70 71 72 73 74 74 74 72 70 69 69 68 67 66 65 64 63 63 62 61 60 58 58 57 57 57 56 55 55 54 53 51 48 47 47 47 45 42 41 41 39 36 35 35 35 34 34 34 35 36 36 36 36
64 64 64 64 65 65 65 66 67 69 71 72 73 74 75 76 77 77 75 74 73 72 71 69 68 67 66 65 65 64 63 62 61 60 59 58 57 56 56 55 54 52 50 49 49 49 48 45 43 43 42 40 39 38 36 34 33 32 32 34 35 35 35
67 68 68 68 68 67 67 67 67 68 69 71 73 75 76 77 78 79 80 79 77 76 75 73 71 70 69 68 67 67 66 65 64 63 62 60 58 57 57 56 55 53 51 51 51 51 50 48 46 45 44 43 41 39 36 32 31 32 33 34 34 34 34
67 69 71 72 72 72 71 71 70 70 70 70 72 74 75 77 78 80 82 82 82 81 79 77 75 73 72 71 70 70 69 69 67 66 65 63 62 60 58 57 56 53 51 51 53 53 52 51 49 47 46 45 42 40 37 34 33 34 35 34 33 33 33
65 68 71 73 74 75 75 75 75 74 73 72 72 73 74 76 77 79 81 83 85 85 84 82 80 78 75 74 73 72 72 72 71 70 68 67 65 63 61 59 58 56 53 51 53 54 54 53 52 49 47 46 44 43 42 40 38 37 38 37 37 36 35
60 64 68 71 74 76 77 78 78 78 77 76 76 75 75 76 76 78 80 82 84 86 86 86 84 83 80 78 76 75 74 74 73 73 72 70 69 67 64 63 61 59 56 53 52 53 54 54 53 52 49 47 45 45 44 44 43 42 41 41 40 39 38

ECMWFFLT1_500_spd_075.txt.gz
Wind_Speed
25 26 24 22 21 20 20 21 21 22 21 21 22 21 20 20 20 21 20 21 22 21 20 21 22 24 25 24 22 19 17 17 18 19 19 18 17 16 16 17 16 14 12 11 10 9 9 9 9 9 9 9 8 7 7 6 5 4 3 3 4 4 4
26 26 25 23 22 22 22 21 21 22 22 23 24 23 22 22 21 21 21 23 24 23 22 22 23 24 25 25 23 20 19 19 20 20 20 19 18 17 18 18 17 16 14 13 11 11 11 11 11 11 10 9 8 8 7 6 5 4 3 3 4 4 4
26 25 25 24 24 25 24 22 21 22 23 23 24 24 23 23 23 23 24 25 24 23 22 22 23 24 24 24 24 22 20 20 20 21 20 20 19 18 18 19 19 17 16 15 14 13 13 12 12 11 11 10 9 8 7 6 5 4 4 4 4 4 4
26 25 25 25 26 26 26 25 21 19 20 21 22 24 25 25 25 25 25 26 25 23 23 23 23 24 24 25 24 23 21 21 21 20 20 20 19 18 18 19 20 19 18 17 16 15 14 14 13 12 11 10 9 8 7 7 6 5 5 5 5 5 5
27 26 25 27 28 27 27 27 23 20 18 19 23 27 27 27 27 27 25 26 26 23 23 24 23 22 22 23 24 23 22 21 21 20 20 19 18 18 19 19 20 20 20 19 18 17 16 15 14 13 12 11 10 9 8 7 7 6 6 6 5 5 5
28 27 26 28 29 27 26 26 25 23 22 22 24 27 27 27 27 27 26 25 24 23 22 22 21 19 20 21 22 22 22 21 20 20 19 19 18 19 19 19 19 20 20 19 19 18 17 16 15 14 13 11 10 10 9 8 8 8 7 7 7 6 6
30 28 28 29 29 28 27 26 25 24 23 25 24 22 24 26 27 28 27 26 24 22 21 20 19 19 20 21 22 23 22 22 21 20 19 19 19 19 19 19 19 20 20 20 20 19 18 17 16 15 14 12 11 10 10 9 9 8 8 8 8 7 7
31 30 29 29 29 28 27 27 26 25 25 26 24 20 21 24 26 28 27 25 24 21 20 20 20 21 22 23 25 24 23 23 22 21 20 19 19 19 19 19 20 20 21 21 21 20 19 18 17 16 14 13 12 12 11 10 10 9 9 9 9 9 9
33 32 30 30 30 30 29 28 26 26 26 26 25 23 21 20 22 24 25 24 24 22 20 20 21 22 23 23 24 24 24 24 24 23 22 21 20 20 20 21 20 21 21 22 22 22 21 19 18 17 15 14 14 13 12 11 10 10 10 10 10 10 10
34 33 32 32 31 31 32 31 28 27 26 26 26 26 23 19 18 21 22 22 23 23 22 21 21 22 22 22 22 22 22 23 24 24 24 23 21 20 21 21 22 22 22 23 23 23 22 20 19 17 16 15 15 14 14 13 11 11 11 11 11 11 11
36 35 34 33 33 32 33 33 32 29 27 26 27 27 25 20 18 20 20 18 20 23 23 22 21 22 22 21 20 20 21 23 24 24 25 24 23 22 21 21 22 23 23 23 23 23 23 21 20 19 18 17 16 15 15 14 12 12 11 12 12 12 11
37 36 36 35 34 33 34 34 34 31 29 28 27 27 26 24 22 23 22 20 19 22 24 22 21 22 21 21 21 21 22 23 24 25 25 25 25 24 22 21 22 23 23 23 23 23 23 22 21 20 19 18 17 16 16 15 13 13 12 12 13 12 12
40 38 37 37 36 34 35 35 33 30 29 29 28 27 26 25 25 25 25 24 22 21 22 22 23 24 22 21 22 22 22 23 24 25 26 26 25 24 23 22 22 22 23 23 23 23 24 23 22 22 21 20 19 18 17 16 14 13 13 13 13 13 14
43 41 40 39 38 37 36 35 33 31 30 30 30 29 28 26 27 27 27 26 25 22 21 21 23 25 25 24 23 23 23 23 24 25 25 25 25 25 24 23 22 22 23 23 22 23 24 23 23 23 22 21 20 19 18 17 15 14 13 13 14 15 15
44 44 42 41 40 39 38 37 36 35 33 32 32 32 31 29 29 28 28 28 27 25 23 21 22 24 26 27 25 24 24 24 25 26 26 26 26 27 26 26 24 23 23 23 22 23 24 24 24 24 23 22 21 20 20 18 16 15 14 14 14 15 16
45 45 44 43 41 40 40 40 40 38 37 36 36 35 34 33 32 31 30 31 30 27 25 23 21 22 25 26 27 26 26 26 26 27 27 28 28 29 29 28 26 25 25 24 23 24 24 24 24 24 24 24 23 22 21 20 18 16 15 15 15 16 16
46 46 46 46 44 43 43 43 42 41 39 39 38 38 37 36 35 34 33 32 31 30 28 25 24 23 23 25 27 28 28 27 27 26 26 26 28 28 29 29 29 28 26 25 25 24 24 24 24 25 25 25 24 23 22 21 20 19 17 17 16 16 16
45 46 47 48 47 46 46 45 45 44 42 40 40 40 40 39 38 37 36 35 34 32 31 30 28 26 25 25 27 28 29 29 28 27 26 26 27 27 28 30 31 30 29 28 27 27 26 25 25 25 25 26 25 25 24 23 23 21 20 19 17 16 16
44 45 47 48 48 48 47 47 47 46 44 43 42 42 42 41 41 40 39 39 37 36 35 34 33 31 30 28 28 29 29 30 30 30 29 29 28 27 28 30 31 31 30 30 30 29 28 27 26 25 26 26 26 26 26 25 25 24 23 23 21 19 18
44 44 45 47 48 48 48 48 48 47 47 46 44 44 44 44 43 43 42 42 41 39 38 38 37 35 34 33 31 31 31 32 32 31 31 31 31 30 29 29 31 32 32 32 32 31 30 29 28 28 27 26 26 26 27 27 27 26 26 26 25 23 22
44 44 45 46 47 48 49 49 48 48 49 48 47 46 46 46 46 45 44 44 44 43 42 41 40 38 37 37 35 34 34 34 34 32 32 33 33 32 31 29 30 32 33 34 34 33 32 31 30 30 29 28 27 27 27 27 27 28 28 29 29 27 26
45 45 45 46 47 48 48 48 48 49 50 50 50 49 48 48 48 47 46 46 46 46 45 44 43 42 41 41 40 39 37 36 36 35 35 35 34 34 33 32 32 33 34 35 35 34 33 32 31 31 31 30 30 28 27 28 28 28 29 30 31 31 29
47 47 47 47 47 48 48 48 48 48 49 50 50 50 50 50 49 49 48 47 47 47 48 47 46 44 45 44 43 42 40 38 38 38 37 36 34 34 35 34 33 31 31 32 33 32 31 30 30 30 30 30 31 30 28 29 29 29 30 31 32 32 31
49 48 48 48 48 48 48 48 48 48 48 48 49 49 49 50 50 50 49 48 48 48 48 49 48 47 47 46 44 42 41 40 39 39 38 37 36 36 36 35 33 30 29 30 30 29 30 30 29 30 31 30 30 30 30 30 31 31 31 32 33 32 31
50 50 50 50 50 49 48 48 49 48 48 48 48 48 48 48 49 49 49 49 49 49 49 49 49 49 50 49 46 45 44 44 43 43 42 40 39 38 37 35 34 33 32 32 29 28 30 31 30 29 31 32 31 31 31 32 33 33 33 33 34 33 32
52 52 52 52 52 50 50 50 50 49 49 49 48 48 47 47 47 48 48 48 49 50 50 50 50 50 51 51 51 49 48 47 46 45 46 45 43 40 39 37 35 34 34 33 31 30 30 32 30 29 29 30 31 31 31 32 33 34 34 35 35 35 34
52 52 53 53 53 53 53 52 51 50 50 50 49 49 49 48 48 47 48 48 48 49 50 50 51 51 51 52 53 52 52 51 49 46 46 46 46 43 40 37 35 36 36 34 33 32 31 31 32 30 29 29 29 30 31 32 33 35 36 36 36 37 36
54 53 54 54 54 55 55 54 53 53 52 52 52 52 51 50 50 49 49 49 48 49 49 50 51 51 51 52 53 54 54 54 54 52 49 46 46 45 42 39 36 36 36 35 35 35 34 33 33 32 30 30 29 28 29 30 32 35 38 39 38 38 38
57 56 56 56 56 56 56 56 55 55 55 55 54 54 54 53 52 51 51 51 51 51 50 50 51 51 51 52 54 55 55 55 56 56 54 51 49 46 45 43 40 38 36 34 35 36 36 35 34 33 33 32 32 31 29 29 30 32 36 39 40 41 41
58 59 59 59 59 59 58 57 57 57 57 57 57 57 56 56 55 54 54 54 54 54 53 52 52 52 53 53 54 55 56 56 56 56 55 55 54 51 48 46 44 43 40 37 36 36 36 36 36 36 35 34 35 35 34 33 32 33 35 37 39 41 42
58 59 60 61 61 61 61 60 60 59 59 60 60 60 59 59 58 57 57 57 57 57 56 56 55 54 54 55 55 56 56 56 57 56 56 55 55 54 52 50 47 46 44 42 40 39 38 37 37 38 38 37 37 39 39 39 38 36 34 34 36 38 40
57 58 59 61 62 63 63 63 63 62 62 62 63 63 63 62 61 60 59 60 60 60 60 59 58 58 57 57 57 57 58 57 57 57 57 56 55 54 54 52 51 49 47 44 43 42 41 39 39 40 41 41 41 40 38 39 39 36 33 31 32 34 35
55 56 57 59 61 62 64 65 65 65 65 64 65 66 66 65 64 63 63 62 62 63 63 62 62 61 60 60 60 60 60 60 59 59 58 58 57 56 54 53 52 51 50 48 46 44 43 42 43 43 43 43 43 41 37 36 35 34 35 35 33 32 33
52 53 55 57 58 60 62 64 65 67 67 67 67 67 68 67 67 67 66 65 65 65 65 65 65 64 63 63 63 62 62 62 62 61 61 60 59 58 56 55 53 52 51 51 50 48 47 46 46 46 45 44 43 42 40 38 36 35 36 38 36 33 33
53 53 54 55 56 57 59 61 63 65 67 68 69 69 69 70 69 69 69 69 68 68 67 67 67 67 66 66 66 65 65 65 64 63 63 62 62 61 59 57 56 54 53 52 51 50 50 50 49 49 48 46 44 42 41 40 40 37 36 37 37 36 35
56 56 56 57 57 58 58 59 61 62 64 66 68 69 70 71 71 72 72 72 72 71 70 70 69 69 69 68 68 68 68 68 67 66 65 64 64 63 62 60 59 57 55 54 52 51 51 51 50 50 49 48 47 45 42 40 41 40 38 36 37 37 37
57 58 58 59 59 60 60 61 62 62 63 64 66 68 69 70 72 73 74 74 74 74 74 73 72 71 70 70 70 70 70 70 70 69 69 67 66 66 65 63 62 60 58 56 55 53 52 52 51 50 50 49 47 47 45 43 42 43 42 39 37 38 40
55 56 58 59 59 60 61 62 63 64 65 66 66 67 68 69 71 72 74 75 76 76 76 76 75 74 73 73 72 72 72 73 72 72 71 71 70 69 68 66 65 64 62 60 58 56 54 53 52 50 50 50 48 47 46 45 44 44 44 42 40 40 41

ECMWFFLT1_500_spd_078.txt.gz
Wind_Speed
22 18 16 15 15 15 15 16 19 18 17 18 18 18 18 17 17 18 17 17 17 16 16 16 16 19 20 21 20 18 15 14 13 14 14 14 13 12 13 13 12 11 10 9 8 8 8 8 7 6 6 4 4 4 3 3 3 2 2 3 4 5 5
22 20 18 17 17 18 19 18 17 16 16 19 20 20 20 20 20 20 20 19 19 18 16 16 15 17 19 21 20 19 16 14 14 14 14 14 13 12 13 13 13 12 11 10 10 9 9 8 8 7 6 5 5 5 4 4 3 3 3 3 4 5 5
23 21 19 20 20 19 18 16 14 14 16 18 20 21 22 23 24 22 21 21 20 19 17 16 15 15 17 20 20 19 17 15 14 14 14 13 12 12 12 13 13 12 12 11 11 10 9 9 8 8 7 6 5 5 5 5 5 5 4 5 5 5 6
24 23 20 20 20 17 15 14 13 14 16 18 21 21 21 23 23 21 22 22 19 19 18 15 15 15 16 18 20 20 19 17 15 15 14 12 11 11 12 13 13 13 12 12 11 11 10 9 9 8 7 7 6 6 6 6 6 6 5 5 6 6 6
24 24 23 21 18 15 14 16 16 18 19 18 18 20 21 22 21 20 23 23 19 18 18 16 15 16 16 17 19 20 21 19 17 15 14 12 11 11 12 13 14 14 13 13 12 11 10 10 9 8 8 8 7 7 7 7 7 7 6 6 6 6 6
24 24 26 25 22 17 13 15 18 19 19 17 16 18 19 18 18 20 24 24 20 19 20 18 17 18 18 18 19 20 21 21 19 17 15 13 12 11 12 13 14 15 15 14 13 12 12 11 10 9 9 9 8 8 8 8 8 8 8 7 7 7 6
24 24 26 26 24 20 15 13 15 16 16 18 18 19 18 15 13 18 22 23 21 20 20 19 19 19 19 18 18 18 20 21 20 19 16 14 13 12 12 12 14 15 16 16 15 14 13 13 11 10 10 10 9 9 9 8 8 8 8 8 8 7 7
25 25 27 26 23 21 18 16 14 14 17 19 18 18 18 15 12 14 19 22 21 19 20 20 20 21 19 18 18 18 18 19 20 20 18 15 13 12 12 12 13 14 16 17 16 15 14 14 13 12 11 11 10 10 10 10 9 9 9 9 9 8 8
27 26 27 26 23 23 21 18 16 16 18 19 18 18 18 15 13 12 14 19 21 21 22 22 22 22 20 19 20 19 19 19 19 20 20 18 16 14 13 13 13 13 15 16 17 17 16 15 14 13 12 12 11 11 11 11 10 10 10 10 10 9 9
29 28 27 26 25 25 24 22 19 18 19 19 19 19 18 16 15 14 12 14 19 23 25 25 24 22 21 21 21 20 20 20 19 21 21 20 18 16 15 14 14 14 14 15 17 17 17 16 15 14 14 13 13 12 12 11 11 11 11 11 11 11 10
30 30 29 27 27 27 26 24 22 21 22 21 20 21 20 18 17 16 13 11 14 20 23 25 24 21 20 22 21 19 20 20 20 21 21 20 20 18 17 16 15 15 15 15 16 17 17 17 16 16 16 15 15 14 13 12 12 11 11 12 12 12 11
32 32 31 30 29 28 27 26 25 24 24 23 22 22 21 20 19 18 15 13 13 16 20 22 22 21 21 22 22 21 21 21 20 20 20 21 21 20 19 18 17 17 17 16 16 16 17 17 17 17 17 17 17 15 14 13 13 12 12 12 13 13 12
33 33 33 32 31 30 29 28 27 26 26 25 25 23 22 22 22 20 19 17 13 11 14 18 20 21 22 23 24 24 23 20 19 19 20 21 22 22 21 20 19 18 18 18 17 16 16 17 18 18 19 19 18 17 15 14 13 13 13 13 13 14 14
34 34 35 34 33 32 31 30 29 28 28 28 27 26 23 23 23 22 21 21 19 13 11 14 19 23 24 23 23 23 22 20 20 21 22 22 23 22 22 22 21 20 20 20 18 17 17 17 18 18 19 19 19 18 17 15 14 14 13 13 14 14 15
35 36 36 36 36 35 33 32 30 30 29 29 29 28 27 25 24 24 23 23 24 21 15 13 15 19 22 22 21 21 21 21 22 23 23 24 25 25 24 24 23 22 22 21 19 18 18 17 18 18 18 19 19 18 18 17 16 15 15 15 15 15 15
37 37 38 38 39 38 36 34 33 32 32 31 30 29 29 27 25 25 25 24 24 24 21 17 13 12 15 18 20 21 21 21 22 22 22 23 25 24 24 23 22 22 23 22 20 20 18 17 17 18 18 18 18 19 19 18 17 17 17 16 15 15 15
37 38 38 39 40 41 40 38 36 34 34 34 33 32 31 30 28 27 26 26 25 23 22 21 19 15 14 16 18 21 21 21 22 22 21 22 23 22 22 23 22 23 24 23 22 21 20 18 18 18 18 18 18 19 19 19 19 18 18 18 17 16 15
38 39 39 39 40 41 42 41 39 37 36 36 35 35 34 33 32 30 28 28 28 27 25 24 23 21 19 17 18 20 20 20 20 22 23 24 24 22 23 23 23 24 25 24 24 24 21 20 19 19 19 19 19 19 19 19 19 19 20 20 20 18 16
38 40 40 40 41 42 42 43 41 40 39 38 37 37 36 36 35 33 32 31 31 30 29 29 27 26 24 23 22 23 22 19 19 21 24 26 24 22 23 25 24 24 24 25 26 25 22 21 21 20 20 20 20 20 19 19 20 20 21 22 22 22 19
38 40 41 42 42 43 43 44 43 42 41 40 39 39 38 38 37 36 35 34 33 33 33 33 32 30 29 28 28 27 26 24 24 24 24 23 22 21 24 27 26 23 22 25 27 27 24 23 23 22 21 22 22 21 21 21 21 21 22 23 24 25 23
40 41 42 43 43 44 45 45 45 45 44 42 41 41 40 40 40 39 38 37 36 36 36 36 36 34 33 33 32 32 31 29 29 28 26 24 23 22 24 26 26 23 22 24 27 27 25 24 24 24 24 24 24 23 22 22 23 22 22 23 25 27 26
42 42 43 44 44 45 46 47 47 47 47 45 45 44 44 43 42 42 41 40 39 39 38 38 38 38 38 37 36 36 35 33 32 32 30 27 26 25 24 24 24 24 25 25 25 25 25 25 26 26 25 25 25 24 23 23 24 24 24 24 26 28 28
43 44 45 45 45 45 46 48 48 49 49 48 47 47 46 46 46 45 44 44 43 42 41 41 41 41 40 40 40 38 37 36 35 34 33 31 30 29 27 25 24 24 24 25 25 25 25 26 26 26 26 27 27 25 23 24 25 26 25 26 27 28 28
43 44 45 46 46 45 46 48 49 50 50 50 49 49 48 48 48 48 47 47 46 45 45 44 43 43 43 43 43 42 41 41 39 36 34 33 33 32 29 26 25 25 24 24 24 24 24 25 25 26 27 28 29 27 26 26 26 27 27 28 29 29 29
44 43 45 45 45 45 46 48 49 49 50 50 50 50 50 49 49 49 49 49 49 48 47 47 47 46 46 45 45 45 45 45 43 38 35 35 35 34 31 28 26 25 24 24 25 25 24 25 26 26 27 29 30 31 30 29 28 28 29 30 31 32 31
46 45 46 46 46 46 47 48 48 49 49 49 50 51 50 49 49 49 50 50 50 49 49 49 49 49 49 48 48 48 49 49 47 44 41 40 38 36 33 31 30 29 27 26 26 27 27 27 27 27 27 28 31 33 33 32 32 32 33 33 34 34 34
47 48 48 48 47 48 48 48 48 49 49 49 49 50 50 49 48 49 49 50 50 50 49 49 50 51 51 51 51 51 51 51 50 48 47 45 43 40 37 34 33 32 31 29 29 29 29 30 29 28 27 28 29 31 33 35 36 36 36 35 35 35 35
48 49 49 50 49 49 49 49 49 49 50 50 50 50 50 49 49 48 49 50 50 50 50 50 50 51 52 52 53 53 53 53 52 51 49 48 48 46 43 40 37 34 32 31 32 32 31 30 30 29 29 30 30 31 34 37 37 35 32 31 32 32 32
52 52 52 52 52 51 50 50 50 50 51 52 52 51 51 51 50 50 50 50 50 50 50 50 50 51 52 53 53 54 54 54 54 53 51 50 50 49 48 46 43 40 36 33 32 32 33 31 30 30 31 32 32 34 36 36 35 32 28 27 29 31 32
54 54 54 54 54 53 52 52 52 52 53 53 53 53 53 52 52 52 51 51 51 51 51 51 51 52 52 53 53 54 55 55 55 55 54 52 52 51 50 48 47 45 44 40 37 36 35 34 32 31 32 33 34 35 35 33 32 32 30 29 30 33 35
53 54 55 56 56 56 56 55 55 54 55 55 55 55 55 54 54 54 53 53 53 53 53 53 52 52 52 53 53 54 55 55 56 56 55 55 54 53 51 50 48 47 47 46 43 41 39 37 35 33 32 32 33 33 33 32 31 32 32 33 34 35 35
55 55 55 56 56 57 57 57 57 57 57 57 58 58 57 57 56 56 56 56 55 55 55 55 54 54 53 54 54 54 55 55 55 56 56 56 55 54 53 52 50 49 49 49 47 45 43 41 39 37 34 33 32 31 31 31 31 32 34 36 36 36 35
54 55 55 56 56 57 57 58 58 58 58 59 60 60 60 60 59 59 59 59 58 58 58 57 57 56 55 55 55 56 56 56 56 56 56 56 56 55 55 53 52 51 50 50 49 48 46 45 43 41 39 37 35 34 33 32 31 33 35 37 37 37 36
52 53 54 56 56 57 57 58 59 59 59 60 61 62 62 62 62 62 62 62 61 61 61 60 60 59 58 58 58 58 58 57 57 57 57 57 56 56 55 55 54 52 51 51 51 50 48 48 46 45 43 42 39 37 35 33 33 35 36 36 36 36 37
50 52 53 54 56 57 57 58 58 59 60 60 61 62 63 63 63 64 64 64 64 64 63 63 63 62 61 61 60 60 60 60 60 59 59 58 57 57 56 56 55 54 52 52 51 51 50 49 48 47 46 45 43 40 38 36 36 37 38 37 36 37 38
49 50 51 52 54 55 57 57 58 59 59 60 60 61 62 63 64 65 65 66 66 66 66 65 65 65 64 64 64 63 63 63 62 62 61 60 59 59 58 58 57 56 54 53 53 53 52 50 49 48 47 46 45 43 42 40 39 40 41 41 40 40 41
49 49 50 51 52 53 54 56 57 58 58 59 60 60 61 63 64 65 66 67 67 68 68 68 67 67 66 67 67 66 66 66 65 65 64 64 63 61 60 60 59 59 57 56 55 54 54 53 51 50 49 48 46 44 44 43 42 42 43 43 43 43 43
50 51 51 51 52 53 53 54 55 57 58 58 59 60 60 61 63 64 65 66 67 68 69 69 69 69 68 68 68 69 69 69 68 68 67 67 66 65 64 62 61 61 60 60 59 58 57 56 54 52 51 50 48 46 45 45 44 45 45 45 45 44 44

ECMWFFLT1_500_spd_081.txt.gz
Wind_Speed
11 13 15 16 14 12 12 13 13 13 15 15 14 14 14 13 12 11 9 9 10 10 10 11 12 13 15 16 16 15 14 12 10 9 8 7 7 8 8 9 9 9 9 8 7 6 7 7 6 6 5 5 5 5 4 3 2 2 1 2 2 3 4
15 14 13 13 12 12 14 15 13 12 14 16 16 14 14 13 12 12 14 13 11 10 10 10 10 11 12 14 15 15 15 14 11 10 10 8 8 8 9 10 10 10 10 9 8 8 7 8 7 6 6 6 5 5 4 3 2 1 1 2 3 3 3
18 18 15 14 13 14 16 15 14 14 14 16 17 14 14 15 14 15 17 17 14 12 11 11 11 11 11 12 14 15 16 15 13 11 10 9 7 8 9 10 10 11 11 11 10 9 8 8 8 8 7 6 5 5 4 3 3 2 1 2 3 4 3
15 17 17 15 15 16 16 15 16 17 18 19 18 15 14 15 13 13 16 18 17 15 14 14 13 12 11 10 12 14 16 16 15 13 11 9 8 8 9 10 11 11 12 11 10 10 9 9 9 9 8 6 5 5 5 4 4 3 3 3 3 4 4
14 14 17 17 16 16 17 17 19 21 22 22 18 14 13 13 12 12 15 19 20 18 16 15 15 13 12 10 10 12 15 16 16 14 12 10 8 8 9 10 11 12 12 12 11 11 10 10 9 9 9 8 7 6 5 5 5 5 5 4 4 4 5
16 14 17 19 18 17 18 20 22 21 19 18 14 10 10 10 10 12 16 18 20 20 19 17 15 15 14 12 10 11 13 16 17 16 14 12 9 8 10 10 11 12 12 13 12 12 11 10 10 10 10 9 8 7 7 7 6 6 6 6 6 5 6
19 18 18 18 20 20 19 20 20 15 11 11 10 10 10 8 8 12 15 17 19 20 20 18 17 17 16 14 13 12 14 16 17 18 17 14 11 9 9 10 11 12 12 13 14 13 12 11 10 10 10 10 9 9 8 8 7 7 7 8 8 8 8
20 21 19 18 19 21 22 22 18 11 7 8 10 10 9 8 8 11 13 14 17 19 20 20 20 19 18 17 16 16 16 17 17 18 19 17 14 11 11 11 11 11 12 13 14 14 14 13 12 11 11 11 10 10 9 9 8 8 8 8 9 9 9
20 21 20 18 18 20 21 20 17 11 8 9 11 11 10 9 8 11 12 11 14 18 20 21 21 19 19 18 18 18 19 19 18 19 21 20 17 15 14 13 12 12 12 13 14 15 15 15 14 12 12 12 12 11 11 10 10 9 9 9 10 10 10
21 20 20 19 20 20 20 20 18 15 12 11 12 13 12 10 8 10 11 8 9 15 20 21 21 20 20 20 20 20 20 20 20 21 22 23 22 19 17 16 15 14 13 13 14 14 15 16 15 14 13 13 14 13 13 12 11 11 10 10 10 11 11
21 20 21 22 22 21 21 21 20 18 14 12 12 13 12 9 8 9 10 7 7 11 17 21 22 22 22 22 22 21 20 21 22 22 23 23 22 20 19 18 18 17 16 15 14 15 15 16 16 16 15 15 15 15 14 13 13 13 12 11 12 12 12
22 22 24 25 24 22 22 21 20 20 17 14 13 15 14 11 11 11 11 10 9 11 14 18 21 23 22 21 21 21 20 20 21 21 21 20 18 17 18 19 18 18 17 16 16 15 15 16 17 17 17 16 16 15 15 14 13 13 13 13 13 13 13
22 23 24 25 25 24 23 22 21 21 20 17 16 17 17 16 14 13 13 13 13 13 13 14 17 20 21 20 20 21 20 20 21 22 21 18 17 17 19 21 19 18 17 16 15 15 15 16 16 16 17 17 16 16 15 15 14 13 13 13 13 13 14
23 24 24 25 25 25 24 23 23 22 21 21 21 21 21 19 17 15 15 15 16 16 15 13 13 15 18 21 21 21 21 21 22 22 20 18 18 20 22 23 22 20 18 16 15 15 15 15 15 15 16 16 16 16 15 15 14 14 14 14 13 13 14
24 25 26 26 26 26 26 25 24 24 24 24 23 21 20 20 18 16 16 17 18 18 18 15 11 11 14 18 20 20 20 21 22 21 19 19 20 22 24 25 24 22 18 16 15 15 15 15 14 14 15 15 15 15 15 15 15 15 15 15 14 14 14
24 26 27 28 27 27 27 26 26 26 26 26 25 23 21 20 20 19 18 18 18 19 20 18 14 12 11 15 19 20 21 22 22 21 21 22 23 23 25 26 26 23 18 15 15 14 15 15 14 13 14 15 15 15 15 15 16 16 16 16 15 15 15
26 27 28 28 28 28 28 28 27 27 27 28 28 27 26 24 23 23 22 21 20 20 20 19 17 15 13 13 16 20 21 22 22 22 22 23 24 24 24 24 24 23 19 16 15 15 15 16 15 15 15 16 16 16 16 16 17 18 17 17 17 17 16
26 29 30 31 31 31 30 29 29 29 29 29 28 28 28 28 27 26 25 25 24 22 21 20 18 18 17 16 16 17 18 19 20 21 21 20 21 22 22 22 21 22 21 19 17 17 17 17 17 17 16 16 16 17 17 18 19 19 19 19 18 18 18
25 28 30 32 33 33 33 32 31 31 30 30 30 29 29 30 30 29 28 28 28 27 25 24 22 21 21 20 19 18 17 16 17 17 18 19 21 22 22 23 22 21 22 22 19 18 19 19 19 19 17 17 17 18 19 19 20 20 20 20 20 20 20
23 25 28 31 33 34 35 35 34 33 33 32 32 31 31 31 31 31 31 31 31 31 30 29 28 26 24 23 22 21 20 19 18 16 16 18 20 20 20 21 21 21 22 22 20 20 21 21 21 21 20 19 19 19 20 21 21 21 22 22 22 22 22
26 25 26 29 32 34 36 36 36 35 35 34 34 33 33 33 32 33 34 34 33 33 33 33 32 31 29 28 26 25 24 22 21 20 19 19 18 17 17 17 19 20 22 23 22 22 22 22 23 24 23 22 22 21 22 23 24 24 23 23 24 24 24
33 32 30 30 31 33 35 37 37 37 36 36 35 35 35 35 35 35 35 36 36 36 35 35 35 34 33 32 31 30 28 27 26 25 24 22 20 19 18 18 17 18 20 23 24 24 24 23 24 25 25 24 24 23 24 25 27 28 27 26 26 26 26
36 36 36 34 34 34 35 36 38 38 39 39 38 37 36 36 36 36 36 37 37 38 38 38 37 37 36 35 34 33 32 31 29 28 27 25 22 21 21 20 20 19 20 21 23 25 26 26 26 26 26 25 26 26 26 28 30 31 30 28 27 26 26
39 38 37 36 37 37 37 37 38 38 40 41 41 40 39 38 38 38 38 38 39 39 40 40 39 39 38 38 37 37 36 35 33 32 31 28 25 24 23 22 23 23 23 23 23 24 26 29 29 28 27 27 28 28 29 30 32 32 29 27 27 27 25
41 39 37 36 37 38 39 40 40 40 40 42 42 42 41 41 40 41 41 41 41 41 41 42 42 41 41 41 40 39 39 38 38 36 35 33 31 29 27 26 26 26 26 26 25 24 26 28 30 30 28 28 28 30 31 31 32 30 28 28 29 28 26
41 40 40 40 40 40 40 41 42 42 42 43 43 43 43 43 42 43 42 42 42 42 43 43 43 43 43 43 43 42 41 41 41 40 39 37 36 33 31 30 30 29 29 28 26 24 25 26 29 30 30 29 30 30 30 29 29 29 30 31 32 31 30
41 40 40 41 42 42 42 42 42 42 43 44 44 43 44 44 44 44 44 43 43 43 44 44 45 45 45 44 44 44 44 43 44 44 43 42 40 38 35 34 33 32 32 31 29 26 25 25 27 29 29 29 30 30 28 26 27 30 33 35 36 35 32
41 41 41 41 42 43 44 43 43 43 43 44 44 44 44 45 45 46 46 45 44 44 45 46 46 45 45 45 46 46 46 46 46 46 46 45 44 42 40 38 37 36 35 34 33 31 29 27 27 28 29 29 30 29 27 25 27 30 34 36 37 36 34
43 43 44 44 43 44 45 45 44 44 44 43 44 44 44 44 45 46 46 46 46 46 46 46 46 46 46 46 46 46 46 47 47 47 47 47 47 46 44 42 40 39 37 36 35 35 34 32 31 31 31 30 30 29 28 27 28 30 32 34 36 36 37
44 45 46 47 46 46 46 46 46 46 46 45 45 45 44 44 45 45 46 47 47 47 47 46 46 46 46 46 46 46 46 47 47 47 48 48 48 48 47 46 44 42 40 38 37 37 37 36 35 34 33 31 30 29 29 30 31 31 32 32 33 35 36
45 46 47 48 48 48 49 48 48 48 48 47 47 46 46 46 46 46 47 47 48 48 48 47 46 46 46 46 46 46 46 46 47 47 47 47 48 48 48 48 47 46 44 42 40 38 38 38 37 36 35 33 31 30 30 31 32 32 32 33 33 34 35
47 48 49 50 50 50 50 50 51 51 50 50 49 49 49 49 48 48 48 48 49 49 49 48 48 47 47 46 46 46 46 46 46 47 47 47 47 47 48 48 48 47 47 45 43 41 40 39 38 37 36 36 35 35 34 34 33 33 33 34 34 34 34
48 47 49 51 52 52 52 52 53 53 53 53 53 53 52 51 51 51 51 50 50 50 50 50 50 49 48 48 47 47 46 46 47 47 47 47 47 47 47 48 48 47 47 47 46 44 42 41 40 39 38 38 38 39 39 37 36 36 35 35 36 35 35
50 49 48 49 51 52 53 53 54 54 55 55 55 55 55 55 54 53 53 53 53 52 52 52 52 51 51 50 50 49 49 48 48 48 48 48 48 48 48 48 48 48 47 47 47 46 45 44 42 41 41 40 40 40 40 39 39 39 38 37 37 36 36
50 50 50 50 50 51 52 53 53 54 55 55 56 56 56 57 57 56 56 56 55 55 54 54 54 54 54 53 53 53 52 51 51 50 50 50 49 49 49 49 49 49 48 48 48 48 47 46 45 44 43 42 41 41 41 40 41 41 42 41 40 38 37
47 48 49 49 50 50 51 52 52 52 53 53 54 54 55 56 57 57 57 57 57 57 57 57 57 57 57 57 56 56 55 55 54 54 53 53 52 52 51 51 51 51 50 49 49 49 48 48 47 46 45 44 43 42 42 41 41 42 43 43 43 41 40
45 45 46 46 47 49 50 51 51 51 51 52 52 53 54 54 55 56 56 57 58 58 59 59 59 59 59 59 59 59 59 59 58 58 57 57 56 55 54 54 53 53 52 51 51 50 50 50 49 48 48 46 45 44 43 43 43 42 42 43 44 43 42
45 45 45 45 46 47 47 48 49 49 50 50 51 51 52 53 54 55 55 56 57 57 58 58 59 59 60 61 61 62 62 62 62 61 61 60 60 59 58 57 56 56 56 55 54 53 52 52 51 50 50 49 48 47 46 46 45 44 43 44 44 44 43

ECMWFFLT1_500_spd_084.txt.gz
Wind_Speed
13 19 23 23 23 22 21 19 18 17 15 14 13 12 12 12 11 10 9 9 9 9 9 9 10 11 11 11 10 10 11 11 9 7 6 7 8 9 10 10 11 11 10 9 9 9 10 10 10 10 9 8 8 7 7 7 6 6 6 6 7 7 8
10 15 21 24 23 21 21 21 20 18 16 15 14 14 15 15 14 13 12 12 11 11 11 10 10 10 10 11 11 10 10 11 11 9 7 7 8 9 10 11 11 12 11 11 10 10 11 11 11 11 10 10 9 8 8 7 6 6 6 6 8 7 8
13 14 19 24 23 22 23 24 22 18 14 14 15 15 15 16 17 16 15 14 13 13 13 13 13 12 11 11 11 11 11 12 12 12 10 9 8 9 10 11 12 12 13 12 11 11 11 12 12 12 12 11 10 10 9 8 7 7 6 7 7 8 8
16 18 21 22 23 25 25 23 22 18 13 13 16 16 15 16 17 17 17 16 16 15 15 15 15 14 13 12 11 12 13 13 14 14 13 11 9 9 11 12 12 13 14 13 13 12 12 13 13 12 12 12 11 11 10 9 8 7 7 7 8 8 8
18 22 24 22 21 23 20 15 16 16 15 17 19 18 16 16 17 18 18 18 18 18 18 16 15 15 14 14 14 14 14 15 16 16 15 13 11 10 11 12 13 14 14 15 14 14 14 14 13 13 13 12 12 11 11 10 10 9 8 8 9 9 9
21 23 24 20 17 17 14 12 14 16 17 19 21 21 19 17 18 19 19 18 18 19 20 19 17 16 16 16 17 17 16 17 18 18 17 16 13 12 11 12 14 14 15 16 16 15 15 14 14 14 14 13 12 12 11 11 11 11 10 10 10 10 10
22 22 20 15 13 13 12 13 14 15 17 17 18 20 20 17 16 17 19 19 19 20 22 23 21 20 20 20 19 19 19 19 19 20 19 18 16 13 12 12 13 14 15 16 17 16 16 15 15 15 15 14 13 13 12 12 12 12 11 12 11 11 11
21 19 16 13 12 13 15 15 14 14 16 15 16 18 19 17 17 18 20 21 22 22 22 24 25 24 23 22 19 17 17 16 16 16 17 17 15 12 11 11 12 13 14 15 16 16 16 15 15 15 15 15 14 14 13 12 11 12 12 12 12 12 12
20 18 16 15 14 14 16 17 16 15 15 15 15 16 18 19 20 20 19 20 24 24 22 23 26 25 22 19 16 15 16 14 12 12 13 15 16 14 12 12 11 11 12 13 14 15 16 15 15 15 15 15 15 14 13 12 12 12 12 12 13 13 12
23 20 16 15 16 16 17 18 19 18 17 17 17 18 19 19 20 20 18 17 20 21 21 22 24 22 20 19 17 16 17 16 14 14 14 15 18 18 15 13 12 12 12 12 12 14 15 15 15 15 15 15 15 15 14 13 12 12 12 13 13 13 13
25 24 20 17 18 19 19 20 20 20 20 20 19 20 20 18 18 18 17 15 13 13 17 21 23 22 21 21 21 20 19 19 18 17 15 15 17 18 17 15 13 13 13 13 13 13 13 14 15 16 15 15 14 14 14 13 12 12 13 13 14 14 14
24 24 23 21 21 22 22 22 22 20 21 21 20 21 21 18 16 16 14 12 10 10 13 17 20 22 23 23 22 23 23 21 21 20 17 16 18 20 19 18 17 16 15 14 14 13 13 13 15 16 16 15 15 14 14 14 13 13 13 14 14 15 15
22 23 24 24 24 24 24 24 23 22 21 22 22 23 23 20 18 17 14 10 8 9 11 12 14 16 20 23 23 23 22 21 21 21 20 20 20 21 22 21 20 19 17 16 15 14 14 13 14 15 16 16 16 15 15 15 15 14 14 15 15 16 16
22 23 24 25 24 24 25 25 25 24 23 23 23 23 23 22 21 20 17 12 9 10 12 12 10 9 12 19 22 22 21 20 21 22 21 21 21 22 23 23 22 21 20 19 17 16 16 15 14 14 16 16 17 16 16 16 16 16 16 16 16 17 17
25 24 24 24 24 25 26 27 27 26 26 24 22 22 23 22 22 22 20 16 12 12 14 14 11 8 8 12 17 21 22 21 21 22 22 21 22 23 24 24 24 24 22 21 19 18 18 17 16 15 16 17 17 17 16 16 17 18 18 17 17 17 17
25 24 24 24 25 26 26 27 28 27 26 26 24 24 24 23 23 22 22 20 17 16 16 15 13 12 10 9 11 16 20 21 21 22 23 24 24 25 26 26 25 25 24 22 21 21 20 19 18 17 17 18 19 18 18 18 18 19 19 19 18 18 18
24 24 24 24 25 27 28 28 29 28 27 26 26 25 24 24 23 22 22 22 20 18 16 14 13 13 12 10 9 11 15 19 21 22 23 24 25 26 26 25 25 24 25 24 23 22 21 20 19 19 19 19 19 20 20 20 21 21 21 21 20 20 19
23 24 24 25 26 28 29 30 30 29 28 27 27 26 25 24 23 22 23 24 22 19 16 14 12 12 12 11 11 10 13 17 19 21 22 23 24 26 26 26 25 25 26 26 25 24 22 21 21 21 20 20 20 20 20 21 22 22 22 22 22 21 21
23 24 26 28 28 29 30 32 32 32 31 30 29 28 27 26 25 22 22 23 22 20 18 16 14 13 12 12 13 13 13 15 17 19 21 23 24 26 27 27 27 27 27 28 28 27 24 22 22 22 21 22 22 21 21 22 22 22 22 22 22 22 21
23 23 25 28 29 30 31 33 33 33 33 32 31 30 30 30 29 27 25 25 25 24 23 21 20 18 16 15 16 15 14 15 16 16 17 20 22 24 26 28 28 28 28 29 29 29 27 26 25 24 24 24 25 24 23 23 23 23 22 22 22 22 21
26 24 24 26 29 31 32 33 34 34 34 34 33 32 32 31 30 30 29 29 29 28 27 26 25 23 22 21 20 19 17 17 17 17 17 17 17 19 22 25 27 28 28 29 29 29 29 29 28 27 27 27 27 27 26 25 24 23 23 23 24 24 24
29 28 27 27 28 30 32 34 34 34 34 34 34 34 33 32 32 31 30 29 28 27 28 28 28 27 26 25 24 23 22 21 20 20 20 19 17 16 17 20 23 25 27 29 30 29 28 29 30 30 29 29 29 29 28 27 25 24 24 25 26 27 27
32 31 31 29 28 29 32 34 35 35 35 35 35 35 35 34 34 33 33 32 31 30 30 30 31 30 29 28 27 26 25 25 24 23 23 22 21 20 19 18 20 22 23 24 26 27 28 29 30 31 31 30 29 30 30 29 27 27 27 28 29 30 29
38 35 33 31 30 30 31 32 34 35 36 36 37 37 37 36 35 35 35 34 34 33 32 32 31 31 30 30 29 29 28 27 27 26 25 24 24 24 23 22 22 22 22 22 22 24 26 28 31 32 31 30 29 30 30 31 31 31 31 31 31 31 31
41 40 37 35 33 33 33 34 34 34 35 36 38 39 39 38 38 37 37 36 36 36 35 34 33 33 33 32 32 31 31 30 29 29 28 27 26 26 26 26 25 24 23 23 22 23 24 26 29 31 30 29 29 29 30 32 33 33 33 32 32 32 32
38 40 40 40 38 37 37 37 36 36 36 37 38 39 39 40 39 39 39 39 39 38 37 37 36 35 35 35 34 34 33 33 33 32 31 30 29 29 28 28 28 26 25 24 25 26 27 27 28 28 27 27 27 29 30 32 32 33 32 33 33 32 32
35 35 38 40 40 40 40 40 39 39 39 39 40 40 40 40 41 41 41 41 41 40 40 40 39 38 38 37 37 37 36 36 35 35 34 33 32 32 31 31 30 30 29 28 28 29 30 30 29 27 24 23 24 27 30 32 33 32 32 32 33 33 33
36 36 37 39 40 41 41 41 41 40 40 40 40 41 42 42 42 42 42 43 43 43 42 42 41 40 40 39 39 39 38 37 37 37 37 36 35 35 34 34 34 33 33 32 32 32 31 31 30 28 25 23 24 25 28 30 32 33 32 32 32 33 33
37 37 38 40 41 42 42 42 42 42 41 41 41 41 42 43 44 44 44 44 44 44 44 44 43 42 42 41 41 41 41 40 40 40 39 38 37 37 36 36 36 36 35 34 34 33 33 32 31 29 28 26 26 26 26 27 29 31 31 32 32 32 33
36 37 39 41 43 44 44 44 44 44 44 44 43 43 43 43 44 44 45 45 46 46 46 45 44 43 43 42 42 43 43 42 42 42 42 41 41 39 39 38 38 37 36 35 34 34 33 33 32 31 30 29 29 28 28 28 29 29 30 30 31 32 33
38 39 41 42 44 45 46 47 47 47 46 46 46 45 45 45 45 45 45 45 45 46 46 46 45 44 43 43 43 43 43 44 43 43 43 43 43 42 41 40 39 38 37 36 35 35 34 34 34 33 32 31 31 31 31 31 32 31 31 31 31 32 33
41 41 43 44 45 46 47 47 48 48 48 48 47 47 46 46 46 46 45 45 45 45 46 46 46 45 44 43 43 43 43 44 44 44 44 44 44 44 43 42 41 40 39 38 37 37 36 36 35 35 34 34 34 34 33 33 34 34 33 33 33 33 34
42 42 43 44 46 46 46 47 47 48 48 48 48 48 47 47 47 46 46 46 45 45 45 45 46 45 45 44 44 43 43 43 43 44 44 44 44 44 44 44 43 43 42 40 39 39 38 38 37 37 36 36 36 36 36 35 35 35 36 36 36 36 36
44 43 43 43 45 47 48 48 48 48 48 48 48 48 48 47 47 47 47 47 46 46 46 46 46 46 46 46 45 44 44 43 43 44 44 44 44 44 44 44 44 44 44 43 42 41 40 39 39 38 38 37 37 37 38 37 37 37 38 38 39 39 39
48 48 47 45 45 46 47 48 48 49 49 49 49 49 49 48 48 48 48 49 49 49 49 48 48 48 47 47 47 46 46 45 45 44 44 44 45 45 44 45 45 45 45 45 44 43 42 41 41 41 40 39 38 38 39 39 39 39 39 40 40 41 41
47 48 48 48 47 47 47 48 48 49 50 50 50 50 50 50 50 50 50 50 50 50 50 50 50 50 50 50 50 49 49 49 48 47 47 46 46 46 46 46 46 45 46 46 46 46 45 44 43 43 42 41 41 40 40 40 40 41 41 41 41 41 41
44 44 44 45 46 47 48 49 49 49 49 50 51 51 51 51 51 51 51 51 52 52 52 52 52 52 52 52 52 52 52 52 51 51 50 49 49 48 48 48 48 48 47 47 47 48 47 47 45 45 45 44 44 44 43 42 41 42 43 42 42 42 43
42 42 42 42 43 44 46 48 49 49 50 51 52 52 53 53 52 52 52 52 52 53 53 53 54 54 54 54 54 54 54 54 54 53 53 53 52 52 52 51 51 51 51 50 49 49 49 49 49 48 47 47 46 46 46 45 45 44 44 44 43 43 44

ECMWFFLT1_500_spd_087.txt.gz
Wind_Speed
30 30 30 30 28 25 24 22 20 18 16 15 14 12 12 12 11 11 11 12 13 13 13 14 16 17 16 15 15 14 14 13 12 10 9 9 10 12 13 13 12 12 11 10 11 11 12 12 12 12 11 10 10 10 10 10 10 9 9 9 9 9 9
30 31 32 32 29 26 24 22 20 16 14 14 13 13 13 13 12 12 12 13 14 14 14 15 16 17 18 17 16 15 15 15 14 12 11 10 11 12 13 14 13 13 12 11 11 11 12 12 12 12 12 11 11 11 10 10 10 9 9 9 9 9 10
29 30 31 31 29 26 23 20 18 16 14 14 14 14 14 14 15 15 15 15 15 15 15 15 16 17 18 18 17 17 17 16 16 15 14 13 12 12 13 14 14 14 14 13 11 11 12 12 13 13 13 12 12 11 10 10 10 9 9 10 10 10 10
23 24 26 28 29 28 24 20 19 19 18 17 17 17 17 18 18 18 17 16 15 15 15 16 17 16 17 17 17 18 18 18 18 18 17 15 13 13 13 14 14 15 14 13 12 12 12 12 13 13 12 13 12 12 11 10 10 9 10 10 10 10 10
16 17 18 22 26 28 27 24 23 23 21 19 18 20 21 21 22 21 20 19 17 17 17 16 16 15 15 15 16 17 18 19 20 19 18 16 14 13 13 13 13 14 13 13 12 12 12 12 12 12 12 12 12 12 11 11 10 10 10 10 11 10 10
12 14 14 15 19 24 27 28 27 26 24 22 21 22 23 23 23 22 22 21 20 19 18 15 13 12 12 13 14 15 17 18 19 19 18 17 15 13 12 11 12 12 13 13 13 12 12 11 11 11 11 12 12 12 12 11 11 11 10 10 11 11 11
12 13 13 14 15 18 24 28 28 26 26 25 23 23 24 24 23 22 22 21 21 20 18 15 14 13 14 15 16 16 16 17 18 19 19 17 16 13 11 11 12 12 13 13 14 14 13 12 11 11 12 12 12 12 12 11 11 11 11 11 11 11 11
15 14 14 14 14 16 20 24 26 26 26 27 25 24 25 26 23 21 20 20 21 21 20 18 17 19 21 20 19 18 17 17 18 19 19 19 18 16 14 13 13 13 13 14 14 14 14 13 12 12 12 12 12 12 12 12 12 12 12 11 11 11 11
18 16 15 16 16 18 20 21 23 23 25 26 25 24 25 25 23 22 20 20 20 21 22 21 22 24 26 24 22 20 19 19 18 18 19 20 20 19 16 15 14 14 14 15 15 15 15 14 13 12 12 12 13 13 13 12 12 12 12 12 12 12 13
19 18 18 17 18 20 20 20 21 21 22 23 24 23 22 21 22 23 23 21 20 22 24 25 26 27 28 27 25 23 22 21 19 17 18 20 21 20 18 15 14 15 15 15 16 16 16 15 15 14 13 13 13 13 13 13 12 12 12 13 13 14 14
20 19 19 17 18 20 20 20 19 19 20 21 21 20 18 16 18 22 24 23 22 21 22 24 28 30 28 29 28 25 23 22 21 20 19 19 19 20 19 18 16 16 16 16 16 17 17 17 16 16 15 14 13 13 13 14 14 13 13 13 14 14 15
23 21 20 19 19 20 21 20 19 19 20 21 20 17 15 15 17 20 23 24 22 20 20 21 25 27 27 28 29 28 25 23 23 23 21 19 19 20 21 21 19 18 17 17 16 16 16 17 17 17 17 15 13 13 13 14 14 14 14 14 14 15 16
27 25 24 23 22 22 23 22 22 22 22 22 21 19 18 16 18 20 20 19 19 19 20 19 18 20 23 26 29 29 27 26 26 25 24 22 20 20 21 22 22 20 18 18 17 16 15 16 17 18 18 17 15 14 13 14 14 15 15 15 15 15 16
28 27 27 27 26 25 25 24 24 24 23 23 22 21 20 18 19 19 17 17 18 19 18 17 15 16 20 25 30 30 29 28 27 26 24 23 22 21 21 22 23 22 20 19 18 17 16 16 16 17 17 17 17 16 15 14 15 15 16 16 16 16 16
24 24 25 27 27 27 27 26 26 25 23 23 22 20 20 20 21 19 17 17 19 18 16 16 16 15 16 20 26 30 29 27 26 26 25 24 24 23 23 23 24 24 23 21 20 19 19 18 18 17 17 18 19 18 17 16 16 16 17 17 17 17 17
23 23 23 25 26 27 27 27 27 26 25 24 23 22 21 21 20 19 18 18 19 18 17 15 15 14 13 14 19 24 27 26 25 26 25 24 25 26 25 26 26 25 25 24 23 21 21 20 20 19 19 19 19 20 19 19 18 18 18 18 18 18 18
25 24 24 25 25 26 27 28 28 28 27 26 26 25 24 22 21 21 21 20 20 21 20 18 17 16 15 15 14 16 21 23 23 23 24 23 24 26 26 27 27 27 27 26 25 23 22 22 22 21 21 20 20 20 21 20 20 19 19 20 20 19 19
26 26 26 27 27 27 28 29 29 29 29 28 27 27 26 24 23 23 23 22 22 22 20 18 17 17 16 15 14 12 14 17 19 21 23 23 24 25 26 27 28 27 27 27 26 25 24 23 23 23 22 22 22 22 22 22 21 20 20 21 21 21 21
28 26 26 27 28 29 30 30 30 31 30 29 29 28 28 27 26 25 24 23 23 23 21 20 19 18 16 15 14 13 12 13 15 18 20 22 23 24 26 27 27 26 26 26 26 26 26 26 26 25 24 24 23 23 23 23 23 22 22 22 23 23 23
30 27 24 24 26 29 30 30 31 32 32 31 30 29 29 28 28 27 25 24 24 23 24 23 21 19 18 17 16 15 15 14 14 14 16 19 20 21 23 25 25 25 25 26 26 27 28 29 29 28 26 25 24 24 24 24 25 25 24 24 25 25 24
34 32 28 25 25 27 29 30 31 32 33 33 32 31 30 29 29 28 25 24 24 23 24 25 23 20 20 19 18 17 17 17 15 13 14 15 16 18 20 23 25 26 26 27 28 29 30 31 31 30 29 27 26 25 25 26 26 26 26 26 26 25 25
34 34 33 30 28 27 28 30 32 33 34 34 34 33 32 31 31 29 26 25 24 23 23 25 24 22 21 21 21 20 19 18 17 16 16 15 15 16 17 19 23 25 27 28 29 29 30 31 32 32 31 29 28 27 27 27 27 27 27 27 26 26 26
32 32 31 30 29 28 28 31 33 34 35 35 35 35 34 33 33 31 29 28 27 26 25 26 26 26 25 26 26 24 23 21 21 20 20 19 19 19 18 18 19 20 21 24 28 28 27 28 30 31 32 31 30 29 29 30 29 29 29 29 29 29 27
32 32 31 30 30 29 29 30 32 33 35 35 36 36 35 35 35 33 31 31 30 29 30 30 29 28 28 28 28 27 25 25 24 24 24 23 22 22 21 20 19 19 19 20 23 26 25 25 25 26 28 30 31 31 31 32 32 31 30 31 32 32 30
37 37 37 36 35 33 31 31 31 32 33 35 36 37 36 36 36 35 34 34 33 32 32 32 31 29 28 28 29 29 29 28 28 27 27 26 26 25 24 22 21 21 22 21 22 22 23 23 23 23 24 27 30 31 31 32 33 33 32 32 33 34 34
42 41 41 40 38 36 34 33 33 33 33 34 35 36 37 37 37 36 36 35 35 35 35 35 35 33 32 32 32 32 32 31 30 29 28 28 28 28 27 25 24 24 24 24 24 23 23 22 22 22 23 25 27 28 30 31 32 33 33 33 33 35 35
40 39 40 41 41 40 38 36 35 35 35 35 35 36 37 38 38 38 37 37 37 37 37 37 37 36 35 35 35 35 34 33 32 31 30 30 30 29 28 28 27 27 26 25 25 26 26 24 23 23 23 24 24 25 27 28 29 30 31 33 34 35 34
42 39 39 41 43 42 41 40 38 38 38 37 38 38 38 39 39 39 39 39 39 39 39 39 38 38 38 38 37 37 37 36 35 34 33 33 32 31 31 30 30 29 29 27 27 27 28 28 27 26 26 26 25 25 26 27 27 27 28 29 32 33 32
45 43 41 42 45 46 45 44 43 42 42 41 41 41 41 41 41 41 41 41 41 41 41 41 41 41 40 40 39 39 38 38 37 37 37 36 35 34 33 32 31 31 30 30 30 29 29 29 29 28 29 29 28 27 28 28 28 28 27 26 28 30 30
45 44 42 42 44 45 45 46 46 46 45 45 45 45 45 45 44 44 43 43 43 43 43 43 43 43 43 42 42 41 40 40 40 40 39 38 37 36 35 34 33 33 32 32 32 31 31 31 30 30 31 31 31 30 30 31 31 31 31 29 29 29 29
43 44 45 46 45 45 45 46 46 46 46 47 47 48 48 48 48 47 46 46 46 46 45 45 45 45 45 44 44 43 43 42 42 42 41 40 39 38 37 36 36 35 35 34 34 33 33 32 32 32 32 33 33 33 33 33 34 34 34 33 33 32 31
41 42 45 48 50 50 49 49 49 48 48 48 48 48 49 49 49 49 48 48 48 48 48 48 48 47 47 47 46 45 45 44 44 43 43 43 42 41 40 39 39 38 37 36 36 35 35 34 34 33 33 34 35 35 35 35 36 36 36 36 36 35 34
46 44 44 46 47 48 48 49 50 50 49 49 49 49 49 50 50 50 50 49 49 49 49 49 49 49 49 48 48 47 47 47 46 46 45 45 44 44 43 42 41 40 40 39 38 37 37 37 36 35 35 35 36 37 37 37 38 38 38 38 37 37 36
52 50 49 48 48 47 47 48 49 50 50 50 50 51 51 51 51 51 51 51 50 50 50 49 49 49 49 49 49 49 48 48 48 47 47 47 46 46 45 45 44 43 42 41 40 40 39 39 39 38 37 37 37 38 38 39 39 39 39 39 38 38 38
52 52 51 51 51 50 49 49 49 50 51 51 51 52 52 52 52 52 51 51 51 51 51 51 50 50 50 50 50 49 49 49 49 48 48 48 47 47 47 46 46 45 45 44 43 42 41 41 41 40 40 39 39 39 39 39 40 40 40 40 40 40 39
49 51 52 52 51 50 50 50 50 51 51 52 52 53 53 53 53 53 53 53 53 52 52 52 52 52 51 51 51 51 50 50 50 49 49 49 48 48 48 47 47 46 46 46 45 44 43 43 43 43 42 41 40 40 40 40 40 41 41 41 41 41 41
47 49 51 51 51 50 50 51 52 52 52 53 53 54 54 54 55 54 54 54 54 54 54 54 53 53 53 53 53 52 52 52 51 51 51 50 50 49 49 48 48 48 47 47 46 46 46 45 44 44 44 43 43 42 41 41 41 42 42 43 43 43 43
45 45 46 47 49 51 52 52 53 54 54 54 54 55 55 55 56 56 56 56 55 55 55 55 55 54 54 54 54 54 54 53 53 53 52 52 52 51 51 50 50 50 49 48 48 48 48 47 47 46 46 46 45 45 44 44 44 44 44 44 45 45 45

ECMWFFLT1_500_spd_090.txt.gz
Wind_Speed
33 30 26 25 22 21 20 20 19 19 19 18 17 16 16 16 17 17 18 17 17 17 18 19 19 19 19 19 18 18 16 15 13 11 11 11 11 12 12 10 10 9 8 8 9 10 10 10 10 9 10 10 10 9 9 8 8 8 8 8 8 9 8
31 29 25 23 21 20 20 21 21 20 19 19 18 17 16 16 17 18 18 17 16 17 18 19 20 21 21 20 19 19 18 17 15 13 12 11 11 11 11 11 10 9 8 8 9 9 9 10 10 10 10 10 10 9 9 9 8 8 8 8 8 9 9
29 29 27 25 24 22 21 22 22 21 20 19 17 17 17 18 18 18 17 17 17 16 17 19 21 22 21 20 20 19 18 18 17 15 13 12 11 10 10 11 10 10 9 9 8 9 9 10 10 10 10 10 10 10 10 9 9 8 8 8 8 8 9
32 32 32 30 28 26 25 24 24 22 21 20 19 20 20 20 20 19 18 17 17 16 17 18 20 21 21 21 20 19 18 18 18 17 15 13 11 11 11 12 12 12 11 10 9 9 9 10 11 11 11 11 10 10 10 10 9 9 8 8 8 8 8
27 30 34 34 31 29 28 27 26 24 23 22 23 23 23 22 21 20 18 17 15 15 15 15 15 16 17 18 19 18 18 18 18 18 17 15 13 12 13 13 13 13 12 11 10 10 9 10 11 11 11 11 11 11 10 10 9 9 8 8 8 8 8
18 21 25 30 32 32 32 31 29 27 26 24 24 23 22 21 20 19 17 16 15 14 14 13 12 12 13 14 16 17 18 18 18 18 18 17 16 14 13 13 13 14 13 13 12 11 11 10 10 11 11 11 12 11 11 10 10 9 9 8 8 9 9
15 15 17 21 26 30 33 34 32 30 29 27 25 23 22 21 19 18 16 16 17 16 15 14 14 13 13 14 15 16 17 18 18 18 19 19 18 17 15 14 14 14 14 14 14 14 13 12 11 11 11 11 12 11 11 10 10 10 9 9 9 9 9
15 15 17 18 19 21 28 35 35 32 31 29 27 24 23 21 20 18 18 18 18 18 18 18 17 15 15 15 16 17 17 17 17 18 19 20 21 20 19 17 16 15 16 16 16 15 14 14 13 12 12 12 12 11 11 11 10 10 10 10 10 10 10
15 15 17 18 17 16 21 31 34 32 30 28 26 25 24 23 21 21 21 20 19 19 20 20 20 19 17 16 17 18 18 18 18 18 19 20 23 23 21 19 17 16 17 18 18 17 16 15 15 14 13 12 12 12 12 12 11 11 11 11 11 11 11
16 16 17 17 17 16 17 23 29 31 29 27 25 25 26 25 24 23 23 21 19 19 20 21 23 23 21 20 20 21 21 21 19 19 19 20 23 24 23 21 18 17 17 18 18 19 18 17 16 16 15 14 13 13 13 13 12 11 11 11 11 12 12
17 18 18 18 17 17 17 18 22 25 26 27 26 27 28 28 26 23 23 22 21 22 22 22 22 23 24 23 23 24 25 24 22 21 20 21 22 24 25 23 20 19 18 18 18 19 18 17 17 17 17 16 15 14 14 13 13 12 12 12 12 12 13
16 17 18 18 18 17 18 18 19 21 23 25 27 28 29 29 26 23 23 23 24 24 24 23 22 23 24 25 26 26 26 27 25 24 23 22 23 23 25 25 23 21 20 19 18 18 18 18 18 18 18 17 16 15 15 14 14 13 12 12 12 12 13
18 17 18 19 19 19 19 19 20 21 22 23 25 26 27 26 24 23 23 25 26 27 26 24 23 23 24 26 28 28 28 28 28 27 25 23 23 23 24 25 25 24 22 20 19 18 19 19 19 19 19 18 18 17 16 15 15 14 13 13 13 13 13
24 23 22 21 21 21 21 21 22 22 21 21 23 24 24 23 23 23 24 25 26 27 27 26 25 25 24 25 26 28 29 31 32 30 28 26 25 23 23 24 26 26 24 21 20 19 19 20 20 20 19 19 18 18 18 17 17 17 16 15 14 14 14
32 30 28 26 25 24 23 23 24 21 20 21 23 23 23 23 24 24 24 24 24 24 25 25 25 24 24 23 23 24 27 31 34 33 33 31 28 26 24 24 25 26 25 23 22 20 20 20 20 20 20 20 19 19 19 19 20 20 19 18 17 16 15
33 32 31 30 29 29 27 27 26 23 20 22 23 23 23 23 24 24 23 22 23 23 24 24 23 22 22 22 21 21 23 28 32 35 36 34 31 28 27 25 25 26 26 25 24 23 21 21 21 21 21 21 20 20 20 20 21 21 21 21 20 18 17
31 31 32 32 32 32 32 31 30 28 25 23 23 23 23 23 23 23 22 21 22 23 23 23 22 22 21 20 19 18 19 22 27 33 36 34 31 31 29 27 27 26 25 26 26 25 24 23 22 22 21 21 21 21 21 21 22 22 22 22 22 21 19
30 30 30 31 32 32 33 34 33 32 30 27 24 24 24 25 25 24 23 21 22 23 23 22 21 21 20 19 18 17 17 17 19 25 31 31 30 31 29 28 28 27 25 25 25 25 25 24 23 23 22 22 21 21 21 22 22 22 22 22 22 22 21
30 30 29 29 30 30 31 32 32 32 31 29 26 25 26 27 27 27 25 23 23 24 24 22 21 20 19 19 17 16 16 15 14 17 23 27 28 29 28 27 28 27 26 25 24 24 24 25 25 25 24 24 23 23 23 23 23 22 22 22 22 22 22
30 30 30 30 29 29 28 29 29 30 30 30 28 27 27 28 29 28 27 25 24 24 23 21 20 21 20 19 17 16 16 16 15 14 17 21 24 25 25 25 26 26 25 24 23 23 24 26 27 27 26 26 26 26 25 24 23 23 23 23 23 23 22
31 31 31 31 30 29 28 29 29 29 29 30 30 29 30 31 31 31 30 28 26 25 23 21 20 21 21 20 19 17 16 17 17 16 15 16 18 19 21 22 23 24 24 24 23 24 25 26 27 28 28 28 28 28 27 25 24 24 24 24 24 23 23
31 31 32 32 31 29 28 28 29 30 30 30 31 31 32 32 32 32 32 31 29 28 27 26 23 21 21 22 21 20 17 16 16 16 14 13 14 15 17 19 20 22 22 23 24 25 25 26 27 28 28 28 29 29 29 28 27 26 25 25 25 25 24
33 32 32 32 32 30 29 28 28 28 29 30 31 32 33 33 33 33 34 33 31 29 28 28 27 24 23 23 22 21 19 18 17 16 15 15 15 15 15 16 17 19 19 19 20 22 24 26 27 29 30 30 30 31 30 30 29 29 28 26 26 26 25
35 33 32 33 33 32 31 30 30 29 29 29 31 32 33 34 34 35 35 35 33 31 29 27 27 25 24 24 24 23 21 20 19 18 17 18 18 18 17 17 17 17 17 16 16 18 20 23 26 29 31 32 32 31 31 31 32 32 31 29 28 27 27
38 37 36 35 34 34 33 32 31 31 30 30 31 31 33 34 35 36 36 36 35 33 31 29 28 26 26 26 26 26 24 23 23 22 21 21 21 21 21 20 20 20 19 17 17 18 18 19 21 24 27 28 29 28 29 30 32 34 33 32 30 29 29
40 40 39 37 36 36 35 34 32 31 31 31 30 31 33 34 35 36 37 37 37 35 34 32 30 29 29 28 28 28 27 27 26 25 25 25 24 23 23 23 23 23 22 20 19 20 20 19 20 21 21 22 23 23 23 26 28 29 31 31 31 31 31
44 43 42 40 39 38 38 37 36 34 33 33 32 31 32 33 35 37 38 38 38 38 37 35 34 33 32 31 31 32 31 29 28 26 26 27 26 25 24 25 25 25 25 24 22 21 21 22 23 24 22 20 21 22 23 24 23 23 24 25 26 28 29
44 45 45 44 43 41 41 40 39 38 37 37 36 35 34 34 35 37 38 39 40 40 39 38 37 36 35 34 34 34 33 31 30 29 29 30 29 28 27 27 28 28 27 27 26 25 24 24 25 26 25 23 23 24 26 26 23 22 23 25 26 27 27
43 45 46 47 47 47 47 46 45 43 42 41 40 39 38 37 37 38 38 39 40 40 40 40 39 38 37 36 36 35 35 35 33 32 33 33 33 32 31 31 30 30 30 29 29 28 28 27 27 28 29 28 27 27 28 28 27 25 27 29 29 29 28
46 46 47 48 50 50 52 52 51 48 46 44 43 42 41 41 41 41 40 40 40 40 40 41 40 39 38 38 37 37 37 37 36 35 36 36 36 35 35 34 34 33 33 32 32 31 30 30 30 31 32 32 32 31 31 31 31 31 31 30 30 30 30
45 46 47 49 51 52 53 54 54 52 49 47 46 45 44 44 44 44 44 43 43 42 42 42 41 41 40 40 39 39 39 38 38 38 38 38 38 38 38 37 37 37 36 36 35 34 33 33 32 32 32 33 34 34 34 34 34 35 35 34 33 33 32
43 43 43 45 49 51 51 52 53 52 50 49 48 47 46 47 47 47 47 46 45 45 45 44 44 43 42 42 41 41 41 40 40 40 40 40 40 40 40 40 40 39 39 39 38 37 37 36 35 34 34 34 34 35 35 35 35 35 36 36 36 36 35
46 45 44 43 46 49 50 50 50 50 49 49 50 49 49 49 49 49 49 49 48 47 47 46 46 46 46 45 44 44 43 43 42 42 42 42 42 42 42 43 42 42 41 41 40 40 39 39 38 37 37 37 36 36 36 36 36 36 36 37 37 38 37
49 51 50 48 46 48 48 47 48 49 50 50 51 51 51 52 53 52 52 51 51 50 49 49 49 49 49 48 48 47 47 46 46 45 45 45 45 45 45 45 45 44 44 43 43 42 42 42 41 40 39 39 39 38 38 38 38 37 37 38 38 38 38
49 51 53 53 52 52 51 49 47 48 50 51 52 53 53 54 55 55 55 54 54 54 53 53 53 53 53 52 52 51 51 50 50 49 49 48 48 48 47 47 47 47 46 46 45 45 44 44 43 43 42 41 41 40 40 40 40 39 39 39 39 39 39
49 48 49 50 50 51 53 55 54 52 51 52 52 53 54 55 55 55 55 54 54 54 54 54 54 55 55 55 55 55 54 54 53 53 52 52 51 51 50 50 50 49 49 48 48 47 46 46 46 45 44 43 43 42 42 42 42 42 42 41 41 41 41
51 51 49 48 46 44 47 53 57 58 57 55 53 54 55 55 56 57 57 56 56 56 55 55 55 55 55 56 56 56 56 55 55 54 53 53 53 52 52 52 52 51 51 50 50 49 49 48 48 47 46 46 45 45 45 44 44 44 44 44 44 43 43
53 53 51 48 44 41 40 44 50 55 58 58 56 55 55 55 55 55 55 56 56 57 56 56 56 56 56 56 56 56 56 55 55 54 54 54 53 53 53 53 53 53 52 52 52 52 51 50 50 49 49 48 48 47 47 47 46 46 46 46 46 46 45

ECMWFFLT1_500_spd_093.txt.gz
Wind_Speed
32 31 28 27 26 24 24 23 23 23 22 22 22 22 21 21 21 21 21 21 21 20 20 20 20 20 19 18 16 15 13 11 9 8 8 8 8 9 9 9 8 8 8 8 9 10 9 9 8 8 8 8 8 7 7 7 7 7 7 7 7 8 8
32 32 30 28 27 25 25 24 24 24 25 24 23 22 21 20 21 21 21 22 21 21 21 21 21 21 20 19 18 17 15 13 11 10 9 9 9 10 10 10 10 9 9 8 9 10 10 9 9 9 9 9 8 8 8 7 7 7 7 7 7 8 8
31 31 31 28 28 26 25 24 24 24 24 24 23 22 21 21 21 21 21 21 21 20 21 21 22 22 21 20 19 18 17 15 14 13 11 10 10 10 10 11 11 11 10 9 9 10 10 10 10 9 9 9 9 8 8 8 7 7 7 7 7 8 8
33 32 31 30 28 27 27 26 25 25 24 23 22 22 22 21 21 21 20 19 19 19 19 20 20 21 21 20 19 18 17 17 16 15 13 12 11 11 11 12 12 12 11 10 10 11 10 10 10 10 10 10 9 9 8 8 8 7 7 7 7 7 8
35 36 34 32 30 27 27 27 27 26 25 24 23 21 21 20 19 19 18 17 17 18 18 18 17 18 19 20 19 18 18 17 17 17 16 14 13 12 13 13 13 13 12 12 12 12 11 11 11 11 11 10 10 9 9 8 8 8 8 8 8 7 8
31 39 36 31 29 27 26 27 27 27 26 25 24 22 21 19 18 18 17 17 17 18 17 17 16 16 18 19 20 19 18 18 18 17 17 17 16 15 14 14 14 14 14 14 14 13 13 12 12 11 11 11 11 10 9 9 9 8 8 8 8 8 8
23 37 39 33 31 29 27 27 27 27 27 26 25 23 21 19 18 17 17 17 17 17 17 17 16 16 18 19 20 20 20 19 19 18 17 18 18 18 16 15 15 15 16 16 16 16 15 14 13 12 12 12 12 11 11 10 9 9 9 9 8 8 8
15 29 39 39 37 35 32 31 30 29 28 27 26 24 22 21 19 18 18 18 18 17 17 17 17 17 18 18 19 20 20 19 19 18 18 18 19 20 19 18 17 16 17 18 18 18 18 16 15 14 13 13 13 12 12 11 11 10 10 9 9 9 9
12 19 27 32 36 37 37 36 35 32 31 29 28 26 24 23 22 20 19 19 18 18 19 18 18 18 17 17 18 18 19 19 18 18 18 19 20 21 21 20 18 17 18 18 19 19 19 18 17 16 15 15 14 14 13 13 12 11 10 10 10 9 9
12 13 15 19 24 29 34 38 38 36 33 31 31 29 26 24 24 22 20 20 20 20 21 21 21 20 18 18 18 17 18 18 18 18 18 19 21 22 22 22 21 19 19 18 19 19 19 19 18 17 17 16 15 15 14 14 13 12 11 11 11 10 10
12 11 11 13 14 16 20 26 31 35 37 35 33 32 29 26 25 23 22 22 23 23 24 24 23 22 21 21 21 20 19 19 19 19 19 19 20 21 22 22 22 22 21 19 19 19 20 20 19 19 18 17 16 16 15 15 15 14 13 13 12 12 12
10 9 9 9 10 10 11 13 17 24 34 39 37 33 31 29 27 26 26 26 25 24 25 25 24 23 22 22 24 24 23 22 22 22 21 21 20 21 22 23 24 24 23 22 20 19 19 20 20 20 20 19 17 16 16 15 16 16 16 15 15 14 13
11 10 9 8 9 9 10 13 14 15 23 34 39 35 32 30 30 30 29 28 27 26 27 27 26 25 23 23 25 27 27 26 24 23 24 23 22 22 22 23 24 25 25 24 22 21 20 21 21 22 21 20 19 18 17 17 17 17 17 17 17 16 16
14 12 11 10 10 10 13 15 16 13 14 23 30 32 31 31 31 30 30 30 29 28 28 27 27 27 26 25 26 27 28 28 27 26 26 25 25 25 24 23 23 24 25 26 25 24 22 21 21 22 23 22 21 20 19 18 18 19 19 19 19 18 18
19 17 16 16 15 15 17 16 14 13 14 16 20 24 27 28 29 30 31 31 31 31 30 28 27 28 27 27 26 26 26 27 28 29 29 28 29 29 27 25 24 24 25 26 27 26 24 22 21 22 23 23 22 21 20 20 20 20 20 20 20 19 19
24 24 23 23 23 22 23 20 17 16 16 15 16 19 22 24 26 28 30 30 31 31 30 28 27 28 28 28 28 28 27 27 28 30 29 31 33 33 31 29 27 26 25 26 28 28 26 23 22 22 23 23 22 22 21 21 22 21 21 21 20 20 19
27 27 27 27 27 27 27 26 23 21 20 18 17 18 20 22 25 27 26 25 25 26 27 26 26 26 28 29 29 29 27 26 27 28 28 28 32 34 35 32 29 28 27 26 27 28 28 26 23 22 23 22 22 22 22 22 22 22 22 22 21 21 20
26 27 27 28 28 29 29 28 26 25 24 23 22 20 20 21 23 25 23 22 22 24 24 25 25 25 25 25 26 26 25 24 25 25 24 24 25 30 36 35 31 30 29 27 26 27 28 27 25 23 23 23 22 22 22 22 22 22 22 22 21 21 21
25 25 26 26 27 28 28 27 27 27 27 27 27 25 23 22 22 23 23 21 22 24 24 24 24 24 23 23 24 24 23 21 21 21 20 20 20 23 31 35 34 32 30 28 27 27 28 28 27 25 25 25 24 23 22 21 21 21 21 21 21 21 21
26 25 25 25 25 26 26 26 26 28 28 28 29 28 27 26 25 25 24 23 24 25 25 25 25 24 23 23 23 23 22 20 20 20 19 18 18 19 24 30 33 33 31 29 28 28 28 28 27 26 26 27 26 25 23 21 21 21 21 21 21 21 21
26 25 25 24 25 25 25 24 25 27 28 29 29 29 29 29 28 27 26 26 26 26 26 26 26 25 24 23 22 22 21 20 20 20 19 18 18 18 19 24 29 31 30 29 29 29 29 28 26 25 26 27 28 26 24 23 23 23 22 22 21 21 21
27 27 26 25 24 24 25 25 25 26 27 27 27 28 28 29 29 29 28 28 28 28 28 27 27 27 26 25 24 23 22 21 21 20 19 19 20 20 19 21 25 28 28 28 29 29 28 27 26 25 25 26 27 27 26 26 26 26 25 24 22 22 21
28 28 27 26 26 26 27 28 28 28 29 28 28 28 28 28 29 29 29 30 30 30 29 29 28 28 27 27 26 24 23 23 23 21 18 17 18 19 17 17 20 23 24 25 26 26 27 26 26 25 25 25 26 27 27 27 27 27 26 25 25 25 24
32 31 29 29 29 29 29 30 30 30 31 30 30 29 29 30 30 30 30 31 32 32 32 31 31 31 30 30 30 27 24 24 24 23 19 15 14 14 13 12 14 17 19 21 22 23 23 25 25 25 25 26 27 27 27 27 27 27 26 26 27 27 27
37 36 34 33 33 33 32 31 31 32 32 31 31 31 31 31 31 32 32 32 32 33 33 32 32 33 33 33 33 31 29 28 26 25 24 21 18 16 15 14 15 16 18 19 19 20 20 21 22 22 23 25 26 27 27 28 28 28 28 28 29 29 29
43 42 39 37 36 36 35 34 33 33 33 33 33 33 32 31 32 33 33 33 34 34 34 34 33 33 33 32 33 33 31 30 28 27 28 27 24 20 18 18 18 19 20 20 19 19 17 17 18 20 21 21 21 23 24 25 27 28 29 29 29 28 29
45 44 42 41 40 38 38 37 36 35 35 35 35 36 35 35 34 33 33 34 34 35 35 35 36 36 34 32 31 31 31 31 30 29 30 30 28 24 21 21 21 21 21 21 21 20 18 18 20 21 21 20 19 19 20 20 21 24 26 26 25 25 26
44 42 42 43 43 41 40 40 39 39 38 38 37 37 37 38 38 37 35 34 35 36 36 36 37 38 37 35 33 31 31 32 32 32 32 32 31 28 26 25 25 24 23 22 23 23 23 24 25 25 24 23 22 21 20 20 20 21 23 23 23 22 22
41 40 41 43 44 44 43 42 41 41 41 41 40 39 39 39 40 40 39 38 36 36 37 37 37 37 37 38 38 36 35 34 34 34 34 34 33 32 29 28 29 29 27 25 25 25 26 27 28 27 27 26 25 24 23 23 23 24 25 25 24 23 24
39 39 39 42 44 45 45 45 43 43 42 42 42 42 41 41 41 41 41 40 39 38 37 37 37 37 37 38 38 39 38 37 36 36 35 35 36 35 33 31 31 32 32 30 29 28 28 28 29 29 29 28 28 27 27 27 27 27 28 28 27 27 29
40 39 38 38 40 42 43 44 44 44 44 44 44 43 43 43 43 43 43 42 41 40 38 37 37 37 38 38 39 39 39 39 39 39 37 37 38 37 36 35 34 34 34 34 33 32 31 30 30 31 31 30 30 30 30 30 31 31 31 31 31 31 33
43 43 42 41 41 42 44 45 45 46 46 46 46 46 46 46 46 46 45 44 43 41 40 39 39 38 38 39 39 40 40 40 40 41 40 39 39 39 38 38 37 37 37 37 36 35 34 34 34 33 33 33 33 32 32 32 33 33 34 34 34 34 34
44 46 46 45 45 46 48 48 49 50 50 50 50 49 49 49 49 50 50 49 48 46 45 43 42 42 41 41 41 41 42 42 42 42 41 41 41 41 40 40 40 39 39 39 39 38 38 37 37 37 37 36 36 35 35 34 34 35 35 36 36 36 36
45 46 46 45 45 46 47 47 48 49 51 52 52 52 51 51 51 52 52 53 53 52 51 49 47 45 45 45 45 44 44 43 43 43 43 43 42 42 42 42 42 42 41 41 41 41 41 40 40 39 39 39 39 39 38 37 37 37 37 38 38 38 38
46 46 46 46 46 46 46 47 47 47 47 49 50 51 52 52 52 53 53 54 54 54 53 53 52 50 48 48 48 48 48 47 46 46 45 45 45 44 44 44 44 44 43 43 43 43 43 42 42 42 42 42 42 42 41 41 40 40 40 40 40 40 40
49 48 47 47 48 48 49 49 49 48 48 48 49 49 50 50 50 50 50 52 54 54 53 53 53 52 51 50 50 50 50 50 50 49 48 48 47 47 47 47 46 46 46 46 46 45 45 45 44 44 44 44 44 45 44 44 43 43 43 43 43 43 43
51 50 49 49 49 50 50 49 50 50 49 49 50 51 51 51 51 50 49 50 52 54 54 54 54 53 53 52 52 52 53 52 52 52 51 50 50 49 49 49 49 49 49 48 48 48 48 48 47 47 47 47 47 47 47 47 47 46 46 46 46 45 45
51 51 51 51 51 52 50 49 50 50 49 49 50 50 51 52 53 54 53 53 53 54 55 55 54 55 55 54 54 54 54 54 54 54 53 53 53 53 53 53 53 53 52 52 52 52 52 51 51 51 51 51 50 50 50 49 49 49 49 48 48 48 48

ECMWFFLT1_500_spd_096.txt.gz
Wind_Speed
35 40 33 32 31 27 25 24 24 25 24 25 26 26 26 25 25 24 24 24 23 22 22 21 21 20 19 17 15 14 13 12 12 12 12 13 13 12 11 10 9 8 8 8 8 8 8 7 7 7 6 7 6 6 6 5 5 5 6 6 7 8 8
30 41 36 32 32 29 27 26 26 27 26 26 26 26 26 26 25 26 25 25 24 23 22 22 22 21 20 18 17 16 15 13 12 12 12 12 12 12 12 12 11 10 9 8 8 9 9 8 8 8 7 7 7 7 6 6 5 6 6 7 7 8 8
21 35 37 33 31 30 28 27 27 28 27 27 27 25 26 26 26 27 26 26 25 24 23 22 22 21 19 19 18 18 17 15 13 12 11 11 11 12 13 13 12 11 10 10 10 10 10 10 9 9 8 8 8 8 7 7 6 6 6 7 7 8 9
16 26 35 35 32 30 29 28 28 28 28 27 26 26 26 27 27 27 26 25 24 23 23 22 21 20 19 19 18 18 17 17 15 14 12 11 11 12 12 13 13 12 11 11 11 11 11 11 11 10 10 9 9 9 8 8 8 7 7 7 7 7 8
16 22 32 37 34 31 30 28 28 28 28 28 27 27 27 26 26 25 25 24 24 23 22 21 19 19 19 19 19 18 18 18 17 16 14 13 12 12 12 13 13 13 13 13 12 12 12 13 12 12 11 11 10 10 9 9 9 8 8 7 7 7 8
15 20 34 39 34 31 29 28 28 29 29 29 29 28 27 26 25 24 23 23 23 22 21 20 19 18 19 19 19 20 19 19 18 18 17 17 15 14 13 13 14 14 14 15 14 14 14 13 13 13 13 12 12 12 11 10 10 9 9 8 7 7 7
11 17 32 38 33 30 30 29 29 29 30 30 30 29 27 26 25 23 23 23 22 22 21 20 19 18 18 19 20 21 21 20 20 19 19 19 18 17 15 14 14 15 15 16 16 15 15 14 14 14 13 13 13 13 13 12 11 10 10 9 8 7 7
8 12 23 31 31 30 30 30 30 30 31 31 30 29 28 26 25 23 22 22 22 21 20 19 19 18 18 19 20 21 21 21 20 19 19 19 19 19 18 16 15 14 15 16 16 16 16 15 14 14 14 14 14 14 14 13 13 12 11 10 9 9 8
9 11 16 23 31 33 31 31 32 32 33 33 31 30 29 27 26 24 23 22 21 21 21 20 19 19 19 19 19 20 21 21 21 20 19 19 20 20 20 19 17 15 15 15 16 16 16 16 15 15 15 15 15 15 15 15 14 13 12 12 11 10 9
9 10 12 18 27 37 39 36 34 34 34 33 32 32 31 29 28 26 24 23 22 22 22 22 21 21 20 20 19 18 19 20 20 21 21 21 21 21 21 20 19 18 17 16 15 16 16 17 16 16 16 16 16 16 16 16 15 15 14 13 12 11 11
10 11 11 12 20 38 48 42 37 38 38 36 34 33 32 31 30 28 26 25 24 24 23 22 22 22 21 19 18 17 18 19 19 20 21 21 22 22 21 20 20 20 19 18 17 16 16 17 17 17 17 17 17 16 16 16 17 16 16 15 14 13 12
10 10 10 9 12 28 43 42 40 41 40 37 35 33 33 32 31 29 28 27 26 24 23 23 22 22 21 19 19 19 19 19 19 19 19 19 19 19 19 19 20 21 21 20 19 17 17 17 18 18 19 18 18 18 17 17 17 17 17 16 15 14 13
11 9 10 9 9 17 28 33 36 40 41 39 37 36 37 35 32 31 30 28 27 24 23 24 23 22 21 21 22 22 22 21 21 20 19 19 20 19 19 19 19 20 21 21 22 21 20 19 19 19 20 20 20 19 19 18 18 18 18 17 16 15 14
12 11 11 10 9 11 16 19 22 27 32 34 35 39 41 39 35 35 34 31 28 26 25 24 24 23 22 23 23 23 24 24 24 23 23 23 23 22 21 21 21 21 21 22 23 23 23 21 20 20 20 21 21 21 20 20 20 19 18 17 17 16 15
14 14 14 11 10 12 13 13 14 16 18 20 21 26 34 41 41 37 35 34 31 29 28 26 25 25 25 25 26 26 26 26 27 27 27 27 27 25 23 23 23 23 23 23 24 24 25 24 23 21 20 21 22 22 21 21 21 20 20 19 18 17 16
17 18 17 16 15 15 14 15 16 16 14 15 15 13 18 33 43 41 36 34 33 30 30 29 28 28 28 28 28 28 27 26 27 28 28 28 28 27 26 26 27 27 27 26 26 26 25 25 25 24 22 22 22 22 22 22 21 21 21 21 19 18 17
21 22 21 20 19 17 16 17 18 17 15 14 14 12 12 17 32 39 36 34 34 32 30 31 30 30 30 30 30 30 28 27 28 28 27 26 25 26 27 27 28 30 31 31 29 27 26 26 26 26 25 23 22 22 21 21 21 22 22 21 21 20 19
25 25 23 21 20 18 18 18 18 18 17 15 15 15 14 11 15 23 26 28 31 32 31 31 32 32 32 32 31 30 28 28 28 28 27 26 25 26 26 26 27 29 33 35 33 30 28 27 25 26 27 26 24 23 22 21 21 22 22 22 21 21 21
29 28 25 22 20 20 20 19 18 18 19 20 19 18 18 16 14 14 15 17 20 23 25 25 25 26 26 27 27 26 25 26 26 26 27 27 26 25 25 24 25 26 29 33 36 34 31 29 27 26 28 28 27 25 22 21 22 22 22 21 21 21 21
31 31 28 24 22 22 22 21 19 19 19 21 21 21 20 20 20 18 16 15 15 17 19 19 20 20 20 21 22 23 24 24 23 24 25 25 24 24 23 22 22 23 26 30 34 36 34 31 29 27 28 29 28 26 23 22 23 22 21 21 21 21 22
29 30 28 25 23 22 22 22 21 21 22 22 22 22 22 22 23 22 21 20 19 18 19 19 19 19 19 20 22 23 24 24 22 22 23 24 24 23 23 21 21 22 25 27 30 35 37 34 30 29 29 29 29 27 25 25 25 23 22 22 22 22 22
26 28 27 25 23 22 21 22 22 23 23 23 23 22 23 23 24 24 24 24 24 23 22 22 21 21 21 21 22 23 24 23 23 22 22 23 24 24 23 22 21 22 23 23 26 31 36 35 32 30 30 30 29 27 26 27 27 26 25 24 24 24 24
27 27 27 27 26 25 23 22 22 23 23 24 23 22 22 22 23 25 26 26 26 26 26 26 25 24 24 23 23 24 24 24 24 23 22 23 24 23 23 23 23 22 22 23 24 27 32 34 32 31 30 30 29 27 25 26 29 29 28 27 27 27 27
30 29 30 30 30 29 27 25 24 24 24 24 24 23 23 22 23 25 26 26 26 28 28 28 28 27 27 26 25 25 25 25 25 25 25 25 25 23 21 21 21 21 22 23 23 24 28 31 31 30 29 29 28 26 24 26 28 29 29 29 29 29 29
34 34 34 35 34 33 32 29 27 26 26 26 26 26 26 25 25 26 26 26 27 30 31 31 30 29 28 28 27 27 28 29 28 28 27 28 27 25 21 19 17 16 17 18 19 22 25 28 29 29 28 28 28 27 26 26 28 29 29 29 29 29 30
38 38 38 38 38 38 36 34 32 30 29 28 28 29 29 29 29 29 28 29 30 31 31 32 32 31 30 30 29 28 28 29 29 28 27 27 27 26 24 21 19 18 16 14 15 18 21 23 25 26 27 28 28 27 26 27 28 28 29 29 29 29 30
40 40 41 41 42 41 41 39 37 34 33 31 31 31 31 31 31 31 31 32 33 32 32 33 34 33 32 32 32 30 29 29 28 27 27 29 30 29 27 25 25 26 23 18 15 15 16 17 19 21 23 25 25 25 25 26 26 26 27 28 29 29 29
41 41 41 42 44 45 44 43 42 38 37 36 34 34 33 33 32 33 33 33 33 33 32 33 34 34 33 33 32 32 32 32 31 29 29 30 31 32 31 29 29 30 27 23 22 21 19 18 19 20 21 22 23 23 23 23 23 23 23 24 25 26 27
40 41 40 39 41 43 42 44 46 43 39 38 38 37 36 35 34 34 34 34 34 34 33 33 34 34 34 34 33 32 32 33 32 32 32 32 32 32 31 31 32 32 31 29 28 27 26 24 24 24 25 25 25 25 24 24 24 23 23 23 23 24 25
41 44 43 41 41 40 37 38 43 45 41 40 40 39 38 38 37 36 36 36 36 36 36 35 35 35 35 34 33 33 32 32 33 33 33 33 33 33 32 31 32 33 33 32 32 31 30 28 28 28 28 28 27 27 27 26 26 25 25 26 26 26 26
43 45 46 45 43 44 42 39 39 42 43 41 41 41 41 40 40 39 39 38 37 37 37 37 37 37 37 36 35 35 35 34 34 34 34 33 32 32 33 33 34 35 35 35 33 33 32 32 31 30 30 30 29 28 28 29 28 28 28 28 28 28 28
44 44 46 46 44 45 47 44 40 40 43 43 43 44 44 43 43 42 41 41 40 40 39 39 39 39 39 39 38 37 37 35 35 35 36 36 35 34 34 35 36 36 37 37 36 35 35 34 34 34 33 33 32 31 31 31 31 31 31 31 31 31 31
44 43 44 46 46 46 47 46 43 41 42 44 45 46 46 46 45 45 44 43 42 42 42 41 41 41 41 41 40 39 39 38 36 36 36 37 38 38 38 38 38 38 38 38 38 38 37 37 36 36 36 36 36 35 34 34 34 34 34 34 34 34 34
44 44 44 45 46 46 46 48 48 45 43 43 46 47 48 47 47 46 45 44 43 44 44 44 44 43 43 43 43 42 41 40 39 37 37 37 38 38 40 41 41 41 41 40 40 41 41 40 39 39 39 39 39 39 39 38 37 37 37 37 37 37 36
46 46 46 46 47 47 46 47 49 48 46 45 45 46 47 46 46 45 45 45 45 45 47 47 47 47 46 46 45 45 44 43 42 40 40 39 39 39 40 41 42 42 42 42 41 42 43 43 43 43 42 42 42 42 42 41 41 40 40 40 39 39 39
49 49 48 49 50 50 49 49 50 50 50 49 47 47 47 48 48 49 49 49 49 49 49 50 50 51 51 50 50 49 48 47 46 45 44 44 43 43 43 43 43 43 43 43 43 43 44 44 45 45 45 45 45 44 44 43 43 43 42 42 42 41 41
50 51 51 51 51 52 51 51 52 52 52 51 50 49 49 50 51 52 52 53 53 52 52 53 53 53 54 54 54 53 53 52 51 50 49 49 48 47 47 46 46 45 45 45 45 45 45 45 46 46 47 46 46 46 45 45 45 44 44 44 43 43 43
49 50 52 52 53 53 53 53 53 54 54 53 52 51 51 51 51 51 51 51 52 52 53 53 54 54 55 55 56 56 56 56 56 54 53 52 51 51 50 50 49 49 48 48 48 48 48 48 48 48 48 47 47 47 46 46 46 46 46 46 46 46 46

ECMWFFLT1_500_spd_099.txt.gz
Wind_Speed
12 16 21 25 26 24 23 23 22 23 25 27 27 27 26 26 25 25 24 24 23 22 20 18 17 17 16 15 15 14 12 11 12 11 11 11 11 10 10 9 9 8 7 6 7 6 6 6 6 5 5 5 4 5 4 4 5 5 5 6 7 7 7
12 13 15 21 26 27 25 24 23 23 24 27 28 28 28 27 26 26 26 26 25 24 22 20 19 19 18 17 15 15 13 13 12 12 12 12 11 11 12 11 10 10 9 8 8 7 7 7 6 5 5 5 5 5 5 5 5 6 6 6 7 7 7
12 13 14 17 23 29 28 25 24 24 24 27 28 29 29 28 28 27 27 27 26 25 23 22 21 20 20 19 17 16 15 14 13 13 12 12 12 13 13 13 12 11 10 10 9 8 7 7 7 7 6 5 6 6 5 5 5 6 6 6 7 7 7
12 12 14 16 21 30 32 28 26 26 25 27 27 27 28 29 30 29 28 28 26 25 24 22 22 21 21 20 19 18 17 16 15 14 13 12 12 13 14 14 14 12 11 11 10 9 9 9 9 8 8 7 7 7 6 6 6 6 6 6 7 7 8
14 13 14 16 19 28 33 29 27 28 27 28 28 27 28 30 30 28 28 28 27 25 24 22 22 22 21 21 21 20 19 18 17 16 15 13 13 13 13 13 13 13 12 12 11 11 10 10 10 9 9 8 8 8 8 7 7 7 7 6 6 7 7
16 15 15 16 17 24 33 30 28 29 28 28 29 28 28 29 28 27 27 27 26 25 24 23 23 22 22 22 22 21 20 20 20 19 18 16 15 14 12 12 12 13 13 12 12 11 11 11 11 10 10 10 9 9 9 9 8 8 8 7 7 7 7
16 15 16 17 15 19 30 32 30 30 29 29 30 30 28 27 26 27 26 26 25 24 24 23 23 23 23 23 22 22 21 21 20 20 19 19 17 16 13 12 12 11 12 13 13 12 12 12 12 12 12 11 11 10 10 9 9 9 9 9 8 7 7
15 16 16 18 17 19 26 32 32 30 30 30 31 30 28 25 24 24 25 26 25 24 24 23 22 22 22 22 22 22 21 21 20 19 19 19 18 17 16 14 13 12 12 12 13 13 13 13 13 13 13 13 12 12 11 10 10 10 10 9 9 9 8
14 15 15 16 18 20 25 32 35 32 31 31 30 30 27 23 21 23 26 27 25 25 24 22 22 22 21 21 21 20 20 20 19 19 19 18 18 18 17 16 15 14 14 14 13 13 13 13 13 14 14 14 14 13 13 12 12 11 11 11 10 10 10
13 14 14 14 16 18 24 33 37 35 33 32 30 29 28 25 25 29 31 28 26 26 24 22 22 21 20 20 20 19 18 18 18 18 18 19 18 18 17 17 17 16 16 16 15 14 13 13 14 15 15 15 15 15 14 14 14 13 13 12 12 12 12
13 13 13 13 14 14 19 29 36 35 33 33 31 31 32 31 32 35 33 30 28 26 24 23 23 21 21 20 20 19 18 17 17 18 18 19 19 19 18 18 18 17 17 17 17 16 15 14 14 15 16 16 16 16 15 15 15 14 14 14 14 13 13
15 14 13 13 14 14 16 24 33 35 34 34 34 34 34 34 35 35 33 30 28 26 24 24 23 22 22 21 20 19 18 18 17 17 18 19 20 20 20 19 19 19 18 18 18 18 18 17 16 16 16 17 18 18 17 16 16 15 16 16 16 15 14
16 15 14 14 15 16 17 20 27 35 38 37 36 36 34 34 35 35 33 31 29 27 26 25 24 23 22 21 21 20 20 19 18 17 17 18 19 20 20 20 19 19 19 19 19 19 20 19 19 19 18 18 18 18 18 18 17 17 17 17 17 16 16
17 16 15 15 16 16 17 19 23 32 40 42 40 38 37 35 36 36 34 33 31 29 28 26 25 24 23 23 22 22 22 21 19 18 18 18 18 19 19 20 19 19 19 19 19 20 20 21 21 21 20 19 19 19 19 19 19 19 18 18 17 17 17
20 18 17 17 17 16 16 19 20 25 36 45 43 38 37 36 36 37 37 35 34 32 30 29 26 25 25 25 24 23 24 23 21 20 20 20 20 20 20 20 21 21 20 20 20 21 21 22 22 22 22 21 21 20 20 20 21 21 20 19 18 17 17
23 22 20 20 19 16 15 15 15 17 27 41 44 39 37 37 38 38 38 37 37 35 33 31 29 28 28 27 26 26 25 24 23 22 22 22 22 22 23 23 24 24 23 22 21 22 22 23 23 24 24 23 23 22 21 21 21 21 21 20 20 19 17
24 24 24 22 19 18 17 15 14 14 19 29 35 35 36 39 42 42 42 42 41 39 37 35 33 32 32 30 29 28 27 26 25 25 25 24 24 24 25 26 27 27 26 25 24 23 25 26 26 26 25 25 25 24 23 22 21 20 21 22 21 20 20
23 25 25 21 17 18 20 18 16 17 17 21 25 26 26 30 36 40 43 44 45 43 41 39 37 35 34 33 31 30 29 29 29 28 27 26 25 25 25 25 25 25 25 25 25 25 26 27 28 28 27 26 26 26 26 24 21 21 22 22 22 22 22
25 27 26 21 18 19 21 19 18 17 18 20 21 21 22 24 26 28 29 32 39 44 43 39 38 36 35 35 34 31 30 30 30 30 29 29 28 27 26 26 25 25 25 25 25 26 25 25 27 29 29 28 27 27 27 25 23 23 22 21 22 23 22
31 29 26 22 22 21 19 18 19 19 18 18 17 19 21 22 23 23 20 18 24 35 41 39 37 34 34 34 33 31 31 32 31 31 31 31 30 27 27 28 27 26 26 26 26 25 24 23 25 28 30 30 29 29 28 27 27 26 23 22 22 22 22
30 26 24 23 24 24 22 20 20 21 20 19 17 18 19 19 20 21 20 15 14 21 30 33 31 29 29 30 30 30 31 32 31 30 30 29 27 24 26 26 26 26 26 26 25 24 24 24 23 26 30 31 31 30 29 29 29 27 25 23 23 22 22
27 23 22 22 23 25 26 24 22 22 22 21 19 19 19 20 20 20 19 17 15 17 20 21 21 22 23 24 26 26 26 26 27 26 26 26 24 22 22 22 23 24 24 24 24 23 26 27 25 27 30 33 34 32 30 30 31 28 27 26 24 24 23
27 23 23 25 25 26 27 27 25 23 23 22 21 20 20 21 22 22 21 20 19 20 20 19 20 20 21 22 24 24 23 22 23 24 23 24 23 21 21 21 22 23 23 23 24 24 26 27 27 26 28 32 35 33 31 32 32 30 29 28 27 26 24
30 30 32 33 30 27 27 28 28 25 24 24 23 22 22 22 22 23 23 22 22 23 23 23 23 22 22 23 24 24 23 21 21 22 22 22 21 21 21 22 22 22 22 22 24 24 25 25 25 24 24 28 33 34 33 33 32 30 29 29 29 29 28
31 33 35 34 31 29 28 28 28 28 27 26 25 24 25 25 24 24 24 23 25 26 25 24 25 25 25 25 24 24 24 23 23 23 22 21 21 21 22 22 22 23 23 22 22 23 23 24 24 24 25 28 33 35 34 31 30 30 29 28 28 29 29
34 33 31 29 29 30 29 28 29 29 28 27 26 26 26 27 27 27 26 25 26 27 26 26 27 28 27 26 26 27 27 26 25 24 23 22 22 22 23 23 22 23 24 23 20 18 19 21 23 24 26 28 31 34 34 31 29 28 27 27 28 28 29
37 36 35 32 30 30 31 30 29 29 30 30 29 28 28 28 29 29 29 29 28 28 28 29 29 29 28 27 27 28 28 27 26 25 25 24 24 24 24 24 23 23 24 23 21 19 18 18 19 19 21 23 27 31 32 31 29 28 27 27 28 28 28
36 37 38 37 34 33 33 32 31 32 32 32 32 31 30 29 30 30 31 31 31 30 31 31 30 31 32 31 29 27 27 28 28 27 27 26 25 24 25 25 24 25 25 25 24 25 25 24 22 20 18 18 21 25 28 28 28 28 28 28 28 29 29
36 36 37 37 35 35 34 34 34 35 35 35 34 33 32 32 32 31 32 33 33 32 33 34 32 32 33 33 32 31 30 30 29 28 28 27 27 26 26 26 26 26 28 28 27 28 29 28 28 25 21 17 16 18 21 23 24 25 26 27 28 29 29
37 38 38 38 37 36 36 35 36 37 38 38 36 35 36 37 37 35 33 34 35 33 34 35 35 34 33 33 32 31 32 33 33 31 30 30 29 28 28 29 29 29 30 30 29 28 30 30 30 29 26 23 20 19 19 20 22 24 26 26 27 28 28
39 39 39 38 39 38 37 37 38 38 38 39 38 36 34 36 39 39 36 35 36 36 35 35 35 35 35 35 33 32 32 33 33 32 32 32 30 29 29 30 30 30 32 32 31 29 29 30 31 31 31 31 29 27 26 25 25 26 27 27 28 28 29
40 40 39 38 39 40 39 39 39 39 39 39 39 37 35 33 35 39 40 38 38 38 37 37 36 36 36 36 36 35 34 34 34 33 32 32 32 31 31 31 30 30 31 32 31 31 30 30 30 31 32 32 31 30 30 30 30 30 30 30 30 30 30
42 43 42 42 42 43 42 42 41 41 41 42 41 40 39 37 35 37 40 41 40 40 40 39 39 39 38 38 37 36 36 36 36 35 34 34 35 35 34 33 33 32 32 31 30 30 32 33 32 32 32 31 30 30 31 31 31 33 34 34 33 32 32
41 42 44 45 47 47 47 46 45 44 44 45 44 43 41 40 37 37 39 43 43 42 42 42 41 41 42 42 40 39 38 37 37 37 37 36 36 36 36 36 36 36 37 36 33 31 32 32 32 32 31 30 31 31 32 31 32 34 36 36 35 35 35
40 40 41 42 44 47 48 48 48 48 47 46 47 45 43 42 40 39 40 43 45 45 44 44 44 44 44 44 44 43 42 41 40 40 40 39 39 38 38 38 38 38 38 39 37 34 33 33 33 33 33 32 33 34 34 34 36 37 37 37 37 38 38
42 42 41 41 41 43 45 46 47 48 48 47 47 47 45 44 43 42 42 43 46 47 47 46 47 47 47 47 46 46 45 45 44 43 43 43 42 42 41 41 41 40 40 40 40 39 39 38 37 37 36 35 36 37 37 38 40 41 40 40 40 40 40
42 43 43 43 43 43 44 45 46 46 46 47 48 47 46 45 44 44 44 44 46 49 49 49 49 50 50 49 48 48 47 47 46 46 46 46 46 45 45 44 43 42 42 42 42 42 42 42 40 39 38 37 38 38 39 40 42 43 43 43 43 43 44
40 42 43 43 44 44 46 47 47 47 46 47 47 48 48 47 47 46 46 46 47 49 51 52 52 52 52 51 50 50 49 48 47 47 48 48 48 49 49 49 48 47 46 45 45 44 44 44 43 42 41 40 40 40 41 42 43 44 45 45 46 46 47

ECMWFFLT1_500_spd_102.txt.gz
Wind_Speed
17 21 23 22 21 20 19 19 18 18 19 20 22 22 22 22 21 21 20 18 17 16 16 16 15 15 14 12 11 11 10 9 9 9 10 10 8 7 6 5 4 4 4 4 4 3 3 3 3 2 2 2 2 2 2 2 2 2 3 4 4 4 3
11 13 18 21 22 21 20 19 18 17 18 19 21 22 23 23 23 22 21 20 19 18 17 16 16 16 15 14 13 12 11 11 11 10 11 10 8 7 7 6 5 5 6 6 4 4 4 4 4 3 3 3 2 2 2 2 2 2 3 3 4 4 4
10 9 11 16 18 20 21 21 20 18 18 18 19 21 23 24 24 23 22 22 21 20 18 18 18 17 16 15 13 13 12 12 12 11 11 9 8 8 8 8 7 7 7 7 5 5 5 5 5 4 4 3 3 3 3 3 2 2 3 3 4 5 5
12 10 11 14 15 17 19 21 22 21 19 19 19 20 22 24 25 25 24 23 22 21 20 19 19 19 18 17 15 14 13 13 12 12 11 9 7 8 9 9 9 9 8 8 7 8 7 7 6 5 5 5 4 4 4 3 3 3 3 4 5 5 6
14 14 14 15 15 17 17 17 21 22 21 21 20 20 21 23 25 26 25 25 24 23 21 21 21 21 20 19 17 16 15 15 14 13 11 10 9 9 10 10 10 10 10 10 10 10 9 9 7 7 7 6 5 5 5 4 4 4 4 4 5 6 6
16 15 14 14 14 16 18 17 18 22 23 23 22 20 20 22 23 24 25 25 25 24 22 22 21 21 21 20 20 18 17 17 16 15 14 13 12 11 11 11 10 10 11 11 11 11 11 10 9 9 8 7 6 6 6 6 5 5 5 5 5 6 6
18 16 14 15 15 16 19 19 18 22 25 24 23 22 21 21 22 23 24 24 25 24 24 23 23 22 22 21 20 19 18 18 18 17 17 17 15 14 13 12 11 10 11 11 12 12 11 11 10 10 9 9 8 7 7 7 6 6 6 6 6 7 7
17 16 16 19 19 20 21 20 19 24 27 26 25 24 23 22 21 22 23 23 23 23 23 24 23 23 23 21 21 20 19 19 18 18 19 19 18 17 16 15 13 11 11 11 11 11 12 12 11 10 10 11 10 10 9 8 8 7 7 7 7 7 7
15 17 20 21 22 22 23 22 19 22 27 28 26 24 22 21 20 21 22 22 22 22 22 22 21 22 22 21 21 20 20 20 19 20 21 21 20 20 19 17 16 15 13 12 11 11 12 12 12 12 12 12 12 11 11 11 10 9 9 9 8 8 8
14 17 18 17 19 20 23 25 20 19 26 29 27 24 22 23 23 23 23 22 22 21 20 20 19 19 20 20 20 20 20 20 21 21 22 22 22 21 20 19 18 17 17 15 14 13 12 12 12 13 13 13 13 13 12 12 12 11 11 10 10 9 9
15 17 15 12 15 18 23 26 22 19 25 29 28 24 24 27 26 23 24 24 22 21 20 19 19 19 19 20 20 20 21 21 21 22 22 23 23 22 21 21 20 19 18 18 17 16 14 13 13 13 13 13 14 14 13 13 13 13 12 12 12 11 11
17 18 15 12 13 16 19 23 23 22 24 27 29 28 28 30 28 25 25 25 24 24 23 21 20 19 19 20 20 21 21 21 21 22 22 23 23 23 22 21 20 20 19 19 18 17 16 15 15 14 13 13 14 14 15 15 15 14 14 14 13 13 13
16 16 15 12 11 13 16 18 22 23 24 26 29 31 31 31 29 27 27 27 26 26 25 22 21 21 21 20 20 21 21 21 21 21 21 21 22 23 22 22 21 20 19 18 18 17 17 16 16 16 15 15 14 15 16 16 16 16 15 15 15 14 14
16 15 14 11 10 11 14 16 18 20 23 26 30 33 33 33 31 29 28 29 29 28 26 24 24 25 24 22 22 22 21 22 22 21 21 21 21 21 21 20 20 19 18 17 16 16 16 16 17 17 17 17 17 17 16 16 17 17 17 16 16 16 16
16 17 16 14 12 12 14 16 18 18 19 23 28 33 35 36 34 31 29 30 31 31 30 28 28 28 26 24 24 24 23 23 22 21 21 21 20 19 19 18 18 18 17 17 16 16 16 16 16 17 18 18 18 19 18 18 18 18 18 18 17 18 17
19 18 18 17 15 15 16 17 19 20 20 21 24 28 33 36 36 33 31 31 33 34 33 30 30 29 28 27 26 26 26 25 24 23 22 22 21 19 19 19 18 18 18 18 18 18 18 18 18 18 19 19 19 19 20 21 20 19 18 19 19 20 19
24 21 20 21 19 18 19 19 20 21 22 22 22 24 29 35 37 36 35 34 34 35 34 32 32 31 30 29 29 29 28 27 26 25 24 24 23 22 21 21 20 20 20 21 21 20 20 21 21 22 22 22 22 21 20 21 23 23 21 20 20 21 21
21 21 21 22 22 21 20 19 20 20 20 19 19 21 25 30 35 38 38 36 35 35 35 34 34 34 34 33 32 31 30 29 29 28 27 27 26 25 24 24 23 23 23 24 24 23 24 25 25 25 25 25 26 25 22 22 25 25 24 23 21 21 21
20 20 20 20 21 22 20 19 19 20 19 17 17 18 20 23 29 35 38 38 37 37 37 37 37 37 37 36 35 33 32 31 32 32 30 29 28 28 27 26 25 25 25 24 24 24 25 26 26 26 27 27 27 27 25 25 26 26 25 25 24 22 23
22 17 16 19 21 23 23 21 19 19 19 19 18 17 16 17 21 27 32 34 36 37 38 39 41 41 40 38 37 36 36 35 35 35 33 31 31 31 30 28 27 27 26 25 25 25 25 26 26 26 27 28 28 28 28 28 27 27 27 27 26 25 24
24 17 16 21 23 24 24 24 22 20 20 20 19 18 17 16 17 19 22 25 28 29 30 32 34 37 40 41 41 41 39 38 37 37 36 34 33 34 33 31 30 29 28 28 28 29 30 29 28 27 28 28 28 29 30 30 29 29 29 29 28 27 27
24 19 19 23 24 25 25 25 25 24 22 20 19 18 18 17 17 17 17 18 21 24 26 25 25 27 32 37 42 44 42 40 39 40 39 37 36 36 35 33 32 31 30 31 32 33 33 31 29 27 27 27 28 28 28 29 31 32 31 31 30 29 29
23 20 20 22 23 24 24 26 27 28 26 23 21 20 19 19 18 18 17 16 17 20 23 25 23 22 22 26 34 41 42 40 38 39 38 37 37 37 35 34 33 31 29 29 29 30 29 29 28 26 26 28 29 30 31 31 32 32 32 33 32 31 30
25 23 23 24 23 22 22 24 26 27 28 26 24 22 21 20 20 19 19 18 17 17 19 21 21 20 19 20 24 30 34 32 31 31 32 31 32 33 32 31 31 28 26 25 25 24 25 26 25 24 26 28 30 31 34 35 34 33 33 35 34 32 30
27 27 26 26 24 23 23 24 24 25 27 27 25 24 23 21 21 21 20 20 20 20 20 20 20 19 20 21 22 23 24 23 24 25 25 24 25 25 24 25 25 23 22 22 21 21 22 22 21 21 25 28 29 30 34 37 37 34 33 35 36 33 30
28 27 27 27 26 26 28 28 26 26 27 26 25 25 23 22 21 21 21 21 22 22 22 22 21 20 21 23 25 24 22 21 22 24 24 22 22 22 23 23 21 20 19 18 17 17 17 16 18 22 26 27 27 28 31 34 35 32 29 31 34 33 30
31 29 28 27 27 28 30 30 29 29 29 26 25 25 23 23 22 22 22 23 23 24 24 24 24 23 23 25 26 25 24 24 23 24 25 24 23 23 24 24 22 20 19 17 16 16 14 14 18 25 27 26 23 21 22 24 27 28 28 29 32 32 29
34 32 31 30 29 28 29 30 29 29 29 27 26 25 24 24 25 24 24 25 26 26 26 25 26 26 26 26 27 27 27 27 26 24 24 24 24 25 26 26 24 22 21 19 18 18 17 17 22 27 28 26 23 22 21 22 22 23 27 30 30 30 28
35 34 33 32 32 30 30 31 30 30 30 29 28 27 25 25 27 27 26 27 28 28 28 28 28 28 28 28 28 28 28 29 29 28 27 25 24 24 24 24 24 23 21 21 21 21 21 21 23 25 25 25 25 25 25 24 22 20 23 27 29 29 27
33 34 33 33 32 31 31 32 32 32 32 31 31 30 28 28 29 30 29 29 29 29 29 29 30 30 30 30 30 30 30 29 30 32 33 32 30 28 25 22 22 22 22 22 22 23 24 24 25 24 24 25 26 26 25 24 21 17 16 19 23 24 24
33 34 34 34 33 32 32 32 33 34 33 32 32 32 31 30 31 31 32 32 31 31 30 30 30 30 31 32 32 32 31 30 29 31 34 35 34 35 34 31 29 27 25 25 25 26 27 27 28 28 27 27 28 28 27 26 24 22 20 20 20 20 21
35 34 35 35 35 34 33 33 34 35 35 34 34 33 33 32 32 33 34 34 34 34 34 33 33 33 33 33 33 33 33 32 31 32 33 33 33 33 35 36 34 31 29 29 29 28 28 29 30 31 29 28 29 30 29 27 26 27 27 27 24 22 23
36 35 35 35 36 35 35 35 36 36 37 37 37 36 35 35 35 35 35 35 35 35 34 34 35 36 36 35 35 35 35 35 34 33 34 34 34 33 33 33 33 32 32 31 31 31 31 31 31 30 29 27 29 31 30 27 27 27 27 27 26 25 26
36 35 35 36 36 36 36 36 37 38 38 39 39 39 38 38 38 38 38 38 37 37 36 35 34 35 36 38 38 38 37 37 37 36 36 36 36 35 34 33 33 33 33 32 32 32 33 33 33 31 29 27 28 30 31 30 29 29 28 26 26 26 27
34 34 35 35 35 36 36 37 37 38 38 39 41 41 41 41 41 41 40 40 40 39 39 38 37 36 36 37 39 40 41 40 39 39 39 39 38 37 36 36 36 37 36 34 34 34 34 35 35 34 33 31 29 31 33 33 32 32 30 27 26 28 28
32 34 35 35 36 37 38 38 38 38 38 39 40 41 43 43 43 43 43 43 43 42 41 40 40 40 39 38 39 40 42 43 42 42 42 42 41 41 40 39 39 40 39 38 37 37 36 37 37 36 36 34 32 31 31 29 29 30 29 26 27 29 31
31 33 34 34 35 36 38 39 40 40 40 40 40 41 42 43 43 44 44 44 45 45 44 43 41 41 41 41 40 40 42 45 45 45 45 45 45 44 44 43 42 42 42 41 40 40 39 39 39 39 38 37 37 37 36 33 32 31 30 30 31 33 34
32 33 33 33 33 34 35 37 38 39 40 41 41 42 42 42 43 43 43 44 45 46 46 45 44 42 42 42 42 42 44 46 48 48 47 48 48 48 48 47 46 45 45 45 45 44 43 42 42 42 41 40 41 42 43 41 38 36 35 35 36 36 37

ECMWFFLT1_500_spd_108.txt.gz
Wind_Speed
26 25 23 21 20 21 22 22 21 20 19 18 17 17 16 15 15 15 14 14 14 13 12 11 11 10 10 9 9 8 7 8 7 7 7 7 6 5 5 5 5 6 6 5 5 5 5 5 5 5 5 5 5 5 4 5 5 5 5 5 5 5 4
27 26 25 22 20 20 21 23 23 22 21 20 19 18 18 17 17 17 16 16 15 15 14 13 12 11 10 10 9 8 7 7 7 7 7 7 7 7 6 6 6 6 6 6 5 6 5 5 5 5 5 5 6 6 5 5 4 4 4 4 4 4 4
25 24 24 23 21 20 21 21 22 22 22 21 21 20 20 20 20 20 19 18 17 16 15 14 14 13 12 11 10 10 9 8 8 8 7 7 8 8 8 7 6 6 6 6 6 6 6 6 5 5 5 5 5 6 6 5 5 4 4 4 3 3 3
24 23 23 23 21 21 22 21 21 21 22 22 22 22 22 22 22 22 21 20 19 18 17 16 15 14 13 13 11 11 11 10 9 9 9 9 9 9 8 8 7 7 7 7 7 7 7 6 6 6 6 6 6 6 6 6 5 5 5 5 4 4 4
27 26 26 25 24 23 23 22 21 20 20 22 23 23 23 23 22 22 22 21 20 19 18 17 16 15 14 13 13 12 11 11 10 10 10 10 10 9 9 9 9 9 9 9 8 8 8 8 8 8 7 7 7 7 6 6 6 6 6 5 5 5 4
29 28 28 27 27 26 25 23 22 21 20 20 21 22 22 21 20 21 21 20 20 20 19 19 18 17 16 15 14 14 13 12 12 11 11 11 11 10 10 9 9 9 10 10 10 10 10 10 10 10 9 9 8 8 8 8 7 7 7 6 6 6 5
28 26 24 23 25 26 26 25 23 22 20 19 20 20 20 19 18 17 18 18 19 19 19 20 19 19 18 17 16 15 15 14 13 13 13 13 12 11 11 10 10 10 10 10 11 11 12 12 12 12 11 11 11 10 10 10 9 9 8 8 7 7 6
28 26 22 21 23 24 25 26 25 23 22 21 20 20 20 19 17 14 13 14 15 17 18 19 20 20 19 18 17 17 17 16 15 15 15 15 14 14 13 12 11 10 10 10 11 11 12 13 13 14 14 13 13 12 12 11 11 10 10 9 9 8 7
26 25 24 25 25 24 24 26 27 25 24 24 23 22 22 21 18 15 14 13 14 15 17 19 20 20 19 18 18 17 17 17 17 17 17 17 17 16 16 15 14 13 12 12 11 11 12 13 14 15 15 14 14 14 14 14 13 12 11 11 10 9 9
25 24 24 26 27 27 26 27 28 27 25 24 23 22 22 22 20 19 18 16 15 16 17 19 21 21 20 20 19 19 19 19 19 18 18 19 18 18 18 17 17 16 15 15 14 13 12 12 13 14 15 15 15 15 15 15 15 14 13 12 12 11 10
25 26 28 28 28 29 29 28 29 28 26 25 24 23 23 23 22 22 21 18 17 17 18 19 20 20 19 20 20 21 20 20 20 19 20 20 19 19 19 19 19 18 18 17 16 16 15 15 15 15 15 15 15 15 16 16 16 15 15 15 14 13 13
24 27 30 30 30 30 31 31 32 30 28 27 27 26 26 25 24 24 24 22 20 18 18 20 20 19 19 19 20 21 21 21 21 21 20 21 21 21 20 20 20 19 18 18 17 17 17 18 18 18 17 15 15 15 15 16 16 16 16 16 16 16 15
21 26 30 30 29 29 30 32 33 33 32 29 29 28 28 27 28 27 26 26 25 22 20 21 21 19 19 20 20 20 20 20 21 21 20 20 20 20 20 20 20 19 19 19 18 18 18 18 19 19 19 18 17 16 15 15 16 16 17 17 17 17 17
20 24 27 28 27 27 28 31 32 33 33 32 31 30 30 30 30 31 30 29 29 26 22 20 19 19 19 18 18 19 18 18 18 18 18 17 17 18 18 18 18 19 19 19 19 19 19 19 19 19 19 19 19 18 17 16 17 17 17 17 17 18 18
18 20 23 25 26 25 25 27 30 32 33 34 34 33 32 31 30 32 33 31 31 29 25 21 21 22 20 17 18 19 18 17 18 17 16 15 15 16 17 17 17 17 18 18 19 19 19 20 20 19 19 19 18 18 18 18 19 19 18 18 18 18 18
12 14 15 17 20 21 22 24 27 30 33 33 34 35 33 29 29 32 32 30 30 30 28 24 23 25 22 18 19 21 20 19 18 17 16 15 15 17 17 17 17 17 17 17 18 19 19 19 20 19 18 17 17 16 17 18 19 19 19 19 19 19 19
10 10 10 11 12 15 19 22 24 28 32 33 33 34 33 29 29 31 29 30 31 28 25 24 24 25 24 20 20 22 22 22 21 19 18 17 16 17 18 18 18 18 18 18 18 18 18 18 19 19 18 18 17 17 17 17 18 18 18 19 19 20 21
11 11 12 12 12 13 15 18 22 25 28 31 31 31 32 31 30 29 29 31 31 26 23 24 25 25 24 22 22 24 25 25 24 21 20 18 17 18 19 19 19 20 20 19 19 19 18 18 19 19 19 19 18 18 18 18 17 18 18 19 19 19 20
11 11 12 12 12 11 12 14 19 22 24 27 27 28 31 31 29 28 28 29 28 27 26 26 27 28 26 24 24 26 26 26 24 23 22 21 20 21 21 22 22 22 22 22 22 21 20 20 20 20 20 20 19 19 19 19 19 20 21 21 21 21 21
14 14 15 15 15 15 14 14 17 20 22 23 23 23 25 26 25 24 24 24 24 26 26 26 27 28 27 26 25 26 26 26 25 25 25 25 24 24 25 25 26 26 26 25 25 24 24 23 22 22 22 21 21 21 21 21 21 22 24 25 25 24 24
19 18 16 16 17 18 19 20 20 20 20 20 19 18 19 20 20 20 20 19 18 19 21 22 24 25 26 26 26 26 26 25 26 26 26 26 26 27 27 28 29 31 31 29 28 28 28 26 25 25 25 24 24 23 23 23 23 24 26 29 30 28 26
24 22 19 18 18 20 22 23 21 19 19 19 19 20 20 19 18 16 15 14 14 16 17 19 20 21 23 25 26 26 26 26 27 27 28 28 29 29 29 29 32 35 35 34 32 32 31 29 28 28 28 27 26 26 26 27 26 28 31 34 34 34 32
27 26 24 22 21 22 23 22 21 20 20 21 21 22 22 21 19 17 17 16 16 17 18 19 21 22 24 26 27 27 27 28 30 30 30 30 31 32 32 33 36 39 38 37 36 35 34 32 31 31 31 30 29 29 29 30 30 33 37 38 37 37 35
27 27 26 23 23 24 24 24 25 25 24 23 22 22 22 22 22 21 21 20 19 19 19 20 21 21 22 23 24 25 25 27 28 28 27 26 27 29 31 34 38 40 41 41 40 38 37 36 34 34 33 32 32 32 33 34 34 36 39 40 39 38 36
28 28 27 24 23 25 24 23 24 26 26 24 21 21 21 21 22 21 21 21 22 21 21 20 20 20 20 20 20 21 22 24 25 26 25 24 23 23 24 27 30 34 39 42 43 41 40 38 37 37 36 35 36 37 39 39 39 39 41 42 42 41 39
25 26 27 26 24 23 21 20 20 21 23 22 21 21 22 21 21 20 20 21 22 22 22 22 21 20 19 19 20 20 21 21 22 23 23 23 23 22 21 21 23 25 30 35 38 40 40 39 39 39 39 38 38 39 40 40 40 39 39 40 40 40 40
21 19 18 20 23 22 19 17 16 16 17 19 21 22 23 22 21 19 19 20 22 23 23 22 21 22 21 22 22 22 21 22 21 21 21 21 22 21 21 21 21 22 25 28 31 35 38 41 42 41 41 40 38 37 37 37 36 36 36 36 36 35 36
23 19 16 16 18 19 18 17 17 17 16 17 19 21 22 23 22 22 21 22 23 25 24 22 23 25 24 24 24 24 24 24 23 22 22 22 22 22 22 22 23 23 23 24 26 29 32 35 37 39 41 40 39 39 39 37 37 37 36 35 36 35 34
23 21 20 19 18 17 18 18 18 18 17 17 19 21 22 23 24 24 24 24 24 25 25 24 24 25 25 24 25 25 25 25 25 25 25 25 24 23 23 23 24 24 24 25 25 26 26 27 28 30 32 32 33 35 36 34 34 34 31 28 28 28 29
22 20 19 19 19 19 19 19 19 18 18 19 20 21 23 24 25 26 26 26 26 26 26 27 27 27 26 26 27 27 27 27 27 27 27 27 27 26 25 25 25 25 25 25 26 26 26 26 26 26 27 28 29 32 32 31 31 32 29 24 21 23 25
24 23 20 19 19 19 19 20 20 20 21 21 23 24 25 26 27 28 29 29 29 29 29 29 30 30 30 29 29 30 30 29 28 28 28 28 29 29 28 27 27 27 27 26 26 27 27 27 27 26 26 27 29 31 31 30 30 30 30 29 26 24 26
25 25 25 24 23 23 22 21 22 22 23 23 24 26 27 28 29 30 30 31 32 32 31 31 32 32 32 31 31 30 30 30 30 30 30 30 31 30 30 30 29 29 29 29 28 28 28 28 28 28 27 28 29 31 30 29 29 29 31 32 32 30 29
24 25 26 27 27 28 27 27 26 25 25 25 25 26 28 29 30 31 31 32 33 34 34 34 34 34 34 34 34 33 32 32 32 33 33 33 33 32 32 32 32 32 32 31 31 30 29 28 29 29 29 30 32 32 30 28 29 30 30 31 32 32 31
23 24 25 25 26 27 28 29 29 29 29 29 29 29 29 30 31 31 32 33 34 35 36 36 37 37 37 37 37 37 38 38 37 37 37 37 36 36 35 35 35 34 34 34 34 34 33 32 32 31 31 32 33 33 33 32 32 33 33 33 33 34 33
23 23 24 25 25 25 26 27 28 29 30 31 31 31 31 31 32 32 33 34 35 36 37 37 38 39 39 40 40 40 41 41 41 41 40 40 39 39 39 38 38 38 38 37 37 37 37 37 36 35 35 35 35 35 36 35 34 35 36 36 36 37 37
21 23 24 24 25 26 26 27 27 28 29 30 31 32 32 32 32 33 34 35 36 37 38 39 40 41 41 42 42 42 43 43 43 43 42 42 41 41 41 41 41 41 41 41 41 41 41 40 40 40 40 40 40 40 39 38 36 37 38 38 37 37 39
19 20 21 22 24 25 26 27 28 28 29 30 31 32 32 33 33 33 34 34 35 36 38 40 41 42 43 44 45 45 45 45 45 44 44 44 43 43 42 42 42 42 42 43 43 44 44 44 44 43 43 43 43 43 42 41 40 39 39 39 38 38 38
17 18 19 20 21 23 24 25 26 27 28 29 30 31 32 33 34 35 35 35 35 36 37 38 40 42 43 45 46 47 47 48 47 47 47 47 47 46 46 45 45 45 44 44 45 45 46 46 47 47 46 46 45 46 46 45 44 42 41 41 40 40 40

ECMWFFLT1_500_spd_111.txt.gz
Wind_Speed
29 27 26 24 23 22 21 20 20 19 19 19 19 18 18 18 18 18 18 17 16 16 15 14 13 13 13 13 13 12 12 12 12 11 11 10 9 7 6 5 5 5 5 4 4 3 3 3 3 2 2 2 3 3 5 6 6 6 6 6 6 7 7
30 29 28 26 24 23 22 22 22 21 20 20 20 19 19 19 19 19 19 18 17 16 15 15 14 14 13 13 13 12 12 12 12 11 11 10 9 8 7 6 6 5 5 4 3 4 4 4 4 3 3 3 3 3 4 4 5 5 6 7 7 7 7
29 28 28 27 26 24 24 23 23 22 21 21 20 20 19 19 20 20 20 20 19 18 17 16 15 15 14 13 13 13 12 12 12 11 11 11 10 9 8 7 7 6 6 5 4 5 5 5 5 5 5 4 4 4 4 4 5 5 6 6 6 7 7
28 26 26 26 27 26 26 25 25 24 23 22 21 21 21 21 21 21 20 20 20 19 18 18 17 16 15 14 14 13 13 12 12 11 11 11 10 9 9 8 8 8 7 6 6 6 6 6 6 6 6 6 6 6 5 5 5 5 5 6 6 6 6
28 27 25 25 26 27 26 25 25 25 25 23 23 23 23 22 22 21 20 20 20 20 20 18 17 17 16 15 14 14 13 13 12 12 11 11 10 10 9 9 9 9 8 8 8 8 8 8 8 8 7 7 7 7 6 6 6 6 6 6 6 6 6
30 28 26 25 27 27 26 25 23 24 25 25 25 25 24 23 22 21 20 20 20 21 20 19 18 18 18 17 16 15 14 13 13 12 12 12 11 11 10 10 10 10 10 10 10 10 10 10 10 9 9 8 8 8 7 7 7 7 7 6 6 7 6
31 30 28 27 28 27 26 25 24 23 24 25 26 26 25 22 21 21 21 21 20 21 21 22 21 20 20 19 18 17 16 15 14 14 13 13 12 12 12 11 11 11 11 11 11 11 11 11 11 11 11 10 10 9 9 9 9 8 8 8 8 8 8
30 30 30 29 29 29 29 28 26 25 24 25 25 25 22 20 20 20 20 20 20 21 22 24 24 23 22 21 20 20 19 18 16 16 15 15 14 13 13 12 12 11 11 11 11 12 12 12 12 12 12 12 12 11 11 11 10 10 10 10 9 9 9
33 34 33 33 32 31 30 29 27 26 25 26 26 25 23 21 19 19 19 19 18 19 22 24 25 25 24 23 23 22 21 20 19 18 18 17 16 16 15 14 14 13 12 12 11 11 11 11 12 12 13 13 13 13 13 13 13 12 11 11 10 10 10
33 37 37 35 34 32 31 31 30 29 27 26 28 28 27 24 22 21 20 19 18 18 21 23 25 26 26 25 25 24 23 23 22 21 21 20 19 19 18 17 16 16 15 14 13 13 12 12 12 12 12 13 13 14 14 15 14 14 14 13 12 12 11
25 32 34 33 32 31 31 33 35 34 31 29 29 29 29 28 26 25 23 22 21 21 22 24 26 28 28 28 27 25 25 24 24 24 23 23 22 20 19 18 18 17 17 16 16 15 15 14 14 13 13 12 12 13 14 15 15 16 15 15 14 14 14
18 24 28 28 28 28 30 31 33 35 35 34 34 33 30 29 28 28 28 28 27 25 24 23 25 28 29 29 28 27 26 26 25 25 25 24 22 21 20 19 18 17 17 17 17 17 17 17 16 16 16 15 14 13 14 14 15 16 16 17 17 16 16
17 21 24 25 26 27 29 29 30 32 34 36 38 37 34 32 31 30 29 29 27 24 22 22 22 24 26 27 27 27 27 27 26 26 25 24 22 21 19 18 17 17 17 18 18 18 18 18 18 18 18 18 17 16 16 15 15 16 17 18 18 17 17
16 18 20 22 25 27 29 29 28 29 30 33 37 39 38 36 34 32 32 32 29 27 27 27 25 23 23 23 24 25 25 26 26 26 25 24 23 21 20 19 18 18 18 18 18 18 18 18 19 20 20 19 19 18 18 18 18 18 18 18 18 17 18
16 16 17 20 23 26 28 29 29 29 29 31 33 36 38 37 36 36 35 35 34 32 32 32 28 24 22 22 23 24 24 24 25 25 24 23 23 22 21 21 20 19 19 19 19 18 18 19 20 20 20 20 19 19 19 19 20 20 20 19 19 18 18
15 17 18 19 20 23 25 27 28 29 29 29 30 32 35 36 36 37 36 35 35 33 31 31 30 26 24 25 26 26 25 24 23 24 24 23 22 22 21 20 20 20 19 19 18 18 18 18 19 19 20 20 20 19 20 20 21 21 21 20 20 20 19
11 12 14 14 15 17 19 22 24 26 27 28 28 30 34 36 36 36 35 35 35 34 33 33 33 30 27 27 28 27 26 25 24 23 22 22 21 20 19 19 19 19 19 18 17 17 17 18 18 19 19 19 19 19 20 21 21 21 20 19 19 18 18
9 9 10 10 9 11 13 14 15 18 22 25 27 29 32 35 36 36 36 35 35 35 36 35 34 33 30 28 28 29 29 27 25 23 23 22 21 20 19 19 19 19 19 18 17 17 17 17 17 18 18 19 19 19 20 20 20 20 20 18 17 16 17
13 11 11 11 11 12 13 13 13 15 17 21 23 26 28 31 34 35 36 37 36 35 36 36 35 35 33 31 30 31 31 30 27 25 25 24 23 22 21 20 19 19 19 19 18 17 17 16 16 17 18 19 19 19 20 20 21 21 20 20 19 18 18
14 13 13 12 13 15 15 14 15 15 15 17 19 22 24 27 31 33 36 38 37 35 35 34 33 33 33 34 33 31 30 30 28 26 25 25 25 25 23 22 20 19 20 20 19 19 18 17 17 17 18 20 20 21 21 21 22 22 22 22 22 23 22
16 15 14 14 16 17 16 15 15 15 15 14 15 19 22 25 29 33 36 38 36 34 31 29 28 29 31 33 34 32 30 29 28 26 26 26 26 27 25 24 23 22 23 23 23 22 22 21 20 20 20 21 22 23 24 24 24 24 25 26 26 26 25
19 19 18 18 18 16 15 15 14 15 17 15 13 15 18 22 27 30 32 30 28 25 22 21 21 24 27 30 31 31 32 31 29 27 26 26 26 26 26 26 26 26 27 27 27 26 26 25 25 25 25 25 25 26 27 28 28 28 28 28 28 29 28
22 22 22 22 20 16 16 17 15 16 18 17 15 14 15 17 20 20 20 20 20 19 17 17 17 19 21 23 25 27 29 29 28 26 24 24 24 25 26 26 27 28 29 30 30 30 30 30 28 29 30 29 29 30 30 30 30 30 30 30 30 31 30
23 24 25 25 23 21 22 22 20 19 20 20 19 18 16 15 14 14 14 16 17 16 15 14 14 14 15 16 17 19 21 22 23 23 23 23 23 25 27 27 27 27 28 29 30 32 33 33 31 32 33 32 32 34 34 33 32 32 33 34 33 33 32
23 25 27 27 26 25 24 23 21 20 21 22 22 21 21 20 19 18 18 19 18 17 16 15 14 14 16 17 18 19 19 20 22 23 23 24 24 25 26 27 28 28 28 28 29 30 33 34 33 34 35 35 36 37 37 36 35 34 35 35 35 36 36
23 24 28 30 29 28 27 26 24 22 23 24 25 26 26 26 26 25 23 22 22 22 21 20 18 18 17 18 18 18 20 21 22 23 24 23 22 22 23 24 26 28 27 27 27 26 27 29 31 32 34 35 37 39 39 38 37 36 36 36 36 37 38
22 22 25 30 30 29 29 29 27 25 25 25 26 27 26 25 24 22 21 21 21 21 20 19 18 17 16 16 17 18 19 20 21 22 22 21 21 22 23 23 25 26 26 26 26 25 25 26 26 26 28 31 34 37 39 39 38 38 37 37 37 36 35
21 20 20 22 25 27 28 29 28 27 26 25 24 24 23 22 21 20 19 20 20 20 19 19 18 18 18 18 17 18 20 20 21 21 22 22 22 23 23 24 25 25 25 25 26 27 27 27 26 25 27 30 32 33 35 36 37 37 38 39 39 38 38
22 21 18 17 18 21 24 25 26 24 22 20 19 18 18 19 20 21 22 22 22 22 22 21 20 20 20 20 20 21 23 23 23 24 24 24 25 25 25 26 26 26 25 25 25 26 27 28 28 27 28 30 31 31 33 33 33 34 36 38 38 38 38
23 22 20 18 17 17 18 20 21 21 19 18 17 16 16 17 19 21 22 22 23 23 24 24 24 24 24 24 24 25 26 26 25 25 26 26 27 28 28 29 29 29 29 28 28 28 28 28 29 29 29 30 30 30 30 30 30 30 31 32 32 32 33
24 22 20 19 18 18 20 20 20 21 21 22 21 20 19 19 20 21 23 24 25 25 26 26 27 27 27 27 27 28 29 28 28 27 28 28 29 30 31 31 32 32 32 32 32 31 31 30 30 30 30 30 31 31 30 29 29 30 32 32 32 32 32
22 21 20 18 17 18 19 21 21 22 22 23 23 23 23 22 23 24 25 27 28 29 30 30 30 30 30 30 30 31 31 31 32 32 32 31 32 32 33 33 34 34 34 34 34 34 33 33 33 32 31 31 31 31 31 31 30 31 32 33 33 32 32
20 21 20 19 19 19 19 20 21 21 21 21 22 23 23 24 25 26 27 29 30 31 32 32 32 32 32 32 32 33 33 34 34 34 34 34 34 34 34 35 35 35 35 35 34 34 34 34 35 34 34 33 32 31 31 31 31 31 32 33 33 32 32
21 22 22 22 22 22 22 22 23 23 23 23 24 24 25 26 27 28 29 31 32 33 34 35 36 36 35 35 35 35 35 36 36 36 36 36 36 36 36 36 35 35 35 35 35 35 35 35 36 36 36 35 35 34 33 32 32 32 33 34 35 35 34
22 22 23 23 24 24 24 24 25 26 27 28 28 29 29 30 30 31 31 32 34 35 36 37 38 38 39 39 38 38 38 39 39 39 39 39 39 39 39 39 39 39 38 38 38 38 38 39 39 39 39 38 38 37 37 36 35 35 35 35 36 37 37
23 23 24 24 25 25 26 26 26 27 28 29 30 31 32 33 33 34 34 35 35 36 37 38 39 39 40 40 40 40 41 41 41 42 42 42 43 43 43 44 44 44 44 44 43 43 42 42 43 43 43 42 42 41 41 40 39 39 38 38 39 39 40
24 24 25 25 26 26 27 27 27 28 28 29 29 30 31 32 33 34 35 36 36 37 37 38 39 40 41 42 42 43 43 43 44 44 44 45 45 46 46 47 47 47 47 47 46 46 46 45 45 45 45 45 45 45 45 45 44 43 42 42 42 42 43
23 24 24 25 25 26 26 27 27 27 28 28 29 30 31 32 32 34 35 35 36 36 37 37 38 39 40 41 42 43 44 45 46 46 47 47 47 48 48 48 48 49 49 48 48 48 48 48 47 47 47 47 47 47 47 47 47 46 46 45 44 44 45

ECMWFFLT1_500_spd_114.txt.gz
Wind_Speed
33 31 29 27 26 24 23 23 22 21 21 22 22 21 21 20 20 19 19 18 17 16 16 15 15 15 14 13 13 12 11 11 10 9 9 8 7 7 6 6 6 6 5 6 6 6 5 5 5 5 5 5 4 4 4 4 4 4 4 4 4 4 4
37 34 32 30 28 26 25 25 24 23 23 23 23 23 22 22 21 21 20 19 18 18 17 16 15 15 15 14 13 13 12 12 11 10 10 9 8 7 7 7 7 6 6 5 5 5 6 6 6 5 5 4 4 4 4 4 4 4 4 4 5 4 5
38 37 35 32 29 28 28 27 26 25 25 24 24 23 23 23 22 22 21 20 19 18 18 17 17 16 15 15 14 14 13 13 12 11 10 10 9 9 8 8 7 7 7 6 5 5 5 5 5 5 5 4 4 4 4 4 4 4 5 5 5 5 5
36 36 35 33 32 31 30 30 29 27 26 25 25 25 24 24 24 23 22 21 20 20 20 20 19 18 18 17 16 15 15 14 13 12 12 11 11 10 10 9 8 8 7 7 6 6 6 5 5 5 5 4 4 4 4 4 4 4 5 5 5 5 6
33 35 35 34 33 33 31 30 30 29 28 27 26 26 25 25 25 24 23 22 21 21 21 21 20 19 19 18 18 17 16 15 15 14 14 13 13 12 12 11 10 9 8 8 7 7 7 6 5 5 5 4 4 5 5 5 5 5 5 5 6 6 6
31 32 32 33 32 31 30 30 29 29 28 28 27 27 27 26 26 25 24 23 23 23 22 21 20 20 19 19 19 18 18 17 17 17 16 16 15 14 13 12 11 11 10 9 9 8 8 7 6 6 6 6 6 5 5 5 6 6 5 6 6 6 7
30 30 30 31 30 29 30 30 30 30 29 29 30 29 29 28 26 26 25 24 24 24 23 23 23 23 22 21 20 20 20 19 19 19 18 18 17 16 15 14 13 12 12 11 10 10 9 9 8 8 8 8 8 7 7 7 7 6 6 7 7 7 8
31 31 29 30 30 29 29 28 29 30 30 30 31 30 30 29 28 27 26 26 25 24 24 24 25 25 24 23 22 22 21 21 20 20 19 18 17 17 16 15 14 14 12 11 11 11 11 10 10 10 10 10 10 10 9 9 9 8 8 9 9 9 9
34 33 32 31 31 29 28 27 26 26 27 27 28 29 29 29 28 28 28 27 26 25 25 26 27 27 26 25 25 24 23 22 21 20 20 19 18 17 17 16 15 14 13 12 12 12 11 11 11 11 12 12 12 12 12 12 11 11 11 11 11 11 10
37 36 35 32 31 29 28 27 26 24 23 23 25 26 27 27 27 28 28 28 27 26 26 27 28 29 28 27 26 26 25 24 23 22 21 21 20 19 18 17 16 15 14 13 13 13 12 11 11 12 12 13 13 13 14 14 14 13 13 13 13 13 12
41 39 36 33 31 31 30 29 27 25 23 23 23 24 25 25 25 25 26 25 25 25 27 28 29 30 29 28 28 28 27 27 25 24 24 23 22 21 21 19 18 17 16 15 15 14 14 13 13 13 12 12 13 13 13 14 14 14 14 15 15 15 14
40 39 35 33 32 32 32 30 29 28 27 26 25 25 25 25 23 23 23 23 22 22 22 24 26 29 30 29 29 29 29 29 28 27 27 26 25 24 23 21 20 19 18 18 17 16 16 16 16 16 15 14 13 13 13 13 13 14 14 15 16 16 16
34 35 34 35 35 35 35 34 33 32 31 30 29 28 27 27 25 23 23 24 23 21 20 21 24 26 28 29 29 29 29 30 30 29 29 28 27 25 24 22 21 21 20 19 18 18 18 19 19 18 17 17 16 16 15 14 14 14 15 15 15 15 16
27 27 29 33 36 38 38 36 35 34 33 33 32 31 30 30 28 26 26 26 26 25 24 24 24 25 26 26 26 27 28 29 29 30 30 29 27 25 23 23 22 22 21 20 20 20 20 20 19 19 19 19 19 18 17 17 16 16 16 16 15 15 15
19 19 21 24 30 37 40 39 37 36 35 34 33 32 33 34 32 30 29 30 30 29 28 28 27 26 25 25 24 25 26 27 29 29 29 28 27 25 24 23 23 23 22 22 22 22 22 21 20 20 20 20 20 19 18 18 19 19 18 18 17 16 16
13 15 15 16 20 27 33 36 35 34 34 33 31 30 30 34 37 36 34 34 34 33 32 31 30 29 28 27 25 25 25 26 28 29 29 28 27 26 25 24 23 23 23 23 23 23 22 22 21 20 20 20 19 19 19 20 21 21 20 19 18 18 17
7 10 12 13 14 17 21 25 27 28 28 28 29 28 27 28 34 38 39 39 38 36 36 35 33 33 31 29 28 28 26 26 27 27 27 27 27 26 25 24 23 22 22 22 22 22 22 22 21 20 20 20 19 19 20 21 22 22 21 20 19 18 17
3 5 8 10 12 13 15 17 19 21 24 26 26 26 26 26 29 33 38 41 42 41 40 38 36 35 33 30 31 32 29 28 28 28 27 26 26 25 24 23 22 21 21 21 21 21 21 21 21 21 20 20 19 19 20 20 22 22 22 21 19 18 17
6 5 6 7 8 9 9 9 10 13 16 19 21 22 24 26 28 30 34 38 42 44 44 41 38 36 34 34 36 36 33 30 29 28 27 26 24 24 23 22 21 21 21 20 20 20 21 22 22 21 20 20 19 19 19 19 20 21 22 21 20 18 16
12 10 9 8 8 8 8 8 8 9 11 14 16 17 19 22 26 29 32 35 38 42 44 44 43 38 37 41 42 39 36 34 30 28 28 26 24 23 22 21 21 20 20 20 21 21 22 22 21 21 21 21 20 19 19 19 19 20 21 21 20 19 18
16 15 13 11 11 11 11 11 11 12 13 14 14 14 17 19 23 28 31 33 37 41 43 44 45 43 41 43 45 41 38 37 33 29 29 28 26 24 22 22 21 21 21 22 22 21 22 22 23 23 23 22 21 21 21 20 20 20 20 21 21 21 21
18 18 16 14 13 14 14 14 13 13 15 15 14 14 15 16 18 23 27 30 33 39 43 43 43 43 42 43 43 40 38 38 35 32 30 29 28 26 23 22 23 24 26 26 25 24 24 25 27 27 26 24 24 24 24 22 22 22 22 23 23 24 24
19 19 17 16 16 17 17 16 15 14 14 14 14 15 14 13 14 18 22 24 26 30 37 40 40 40 40 39 38 36 35 36 35 33 31 29 28 26 24 24 26 28 29 29 29 28 28 28 30 30 29 29 29 29 29 27 26 26 26 26 26 26 26
19 20 19 19 20 21 21 21 19 17 17 16 15 14 13 13 14 15 16 17 17 16 20 26 30 31 31 31 31 31 32 34 34 33 32 31 29 28 26 27 29 29 30 31 30 29 29 29 31 31 31 31 32 32 32 31 30 30 30 30 29 29 29
21 22 21 20 20 20 22 23 22 22 22 22 20 18 15 14 16 17 16 14 11 9 9 12 15 19 20 21 22 23 25 28 31 32 32 32 31 30 29 29 29 28 29 29 29 29 28 28 28 28 28 29 30 30 31 31 32 32 33 33 32 32 32
24 24 24 24 23 21 19 18 18 18 19 18 17 18 17 16 16 17 16 16 14 13 12 10 10 13 15 14 14 15 16 19 22 24 23 23 24 25 24 25 26 26 27 28 28 28 27 27 27 26 26 26 27 27 28 28 29 31 33 34 35 35 35
26 26 27 28 28 27 24 22 20 19 18 17 18 19 19 18 19 18 16 15 15 14 14 14 15 16 17 15 13 13 14 16 18 18 18 17 19 21 22 24 26 26 26 26 27 27 26 27 27 25 24 25 27 26 26 25 25 26 28 30 32 33 34
25 24 25 28 29 29 29 29 28 27 26 26 25 24 23 23 24 24 22 19 17 14 13 14 14 15 16 17 15 14 14 16 16 17 17 18 19 21 23 25 26 26 26 26 27 27 27 27 27 24 24 27 28 27 26 25 24 25 25 27 27 28 30
20 20 22 24 26 27 28 28 27 27 28 27 26 25 25 24 25 25 23 19 17 16 14 13 12 13 15 16 15 14 15 15 16 17 18 19 20 21 23 25 25 25 25 26 27 28 27 27 26 25 26 28 29 28 27 26 26 26 27 27 28 28 28
16 17 19 22 24 25 24 21 20 20 23 25 25 25 24 24 25 25 23 20 20 19 17 16 16 15 16 16 16 16 16 16 16 17 18 19 20 22 23 24 25 25 25 26 26 27 27 27 27 27 28 29 29 29 29 28 28 28 28 28 29 29 29
17 18 19 21 24 25 24 20 17 16 16 19 22 22 21 20 20 21 21 22 22 21 19 19 19 18 17 17 17 18 18 19 19 20 21 22 23 24 24 25 26 26 26 26 27 28 29 30 30 31 31 31 31 31 31 30 30 29 29 29 29 29 29
24 24 23 22 24 25 24 21 19 17 14 14 16 18 17 17 17 17 18 19 20 20 20 20 20 20 20 20 20 21 22 22 23 24 25 26 27 28 28 28 28 28 28 29 29 30 31 32 32 33 33 34 34 34 34 33 33 32 31 31 30 30 30
27 26 24 23 23 24 23 21 18 17 16 16 17 18 19 19 19 19 19 19 19 20 21 21 22 23 23 24 24 25 25 26 26 27 27 28 29 30 30 31 31 32 32 32 33 33 33 33 34 34 35 35 35 36 36 36 35 35 34 33 33 32 32
29 26 24 23 22 22 22 20 18 18 18 18 18 19 20 20 21 21 21 21 21 21 22 23 24 25 26 27 28 28 28 29 29 29 30 30 31 32 33 33 34 35 35 36 36 36 36 36 36 36 36 36 37 37 37 37 36 35 35 35 35 35 34
29 26 24 23 22 21 20 20 19 19 20 20 20 21 21 22 22 23 23 23 23 24 25 26 27 28 29 30 30 31 31 32 32 32 33 33 34 34 35 35 36 37 37 38 38 39 39 39 39 39 38 38 38 38 38 38 38 37 37 37 37 38 37
27 26 24 23 22 22 21 20 20 20 21 22 23 24 24 25 25 26 26 27 28 28 28 29 29 30 31 32 32 33 34 34 35 36 36 36 37 38 38 38 39 39 40 40 41 41 42 42 42 42 42 42 42 42 42 42 42 42 42 42 42 42 41
26 25 25 24 23 23 23 22 22 22 22 23 24 25 27 28 28 29 30 30 31 31 32 32 33 33 34 35 35 36 36 37 37 38 38 39 40 40 41 41 42 42 42 43 43 44 45 45 46 46 46 47 47 47 47 47 47 47 47 47 46 46 46
26 25 25 25 24 24 25 25 25 25 25 25 25 26 27 28 29 31 32 32 33 34 34 34 35 36 36 37 38 38 39 39 40 40 41 41 42 42 43 44 44 45 45 45 46 47 47 48 49 49 50 50 50 50 50 50 50 50 50 50 50 49 49

ECMWFFLT1_500_spd_117.txt.gz
Wind_Speed
32 31 30 28 26 24 23 23 23 22 22 23 23 22 21 20 19 19 18 17 16 16 16 16 16 16 15 14 13 13 12 11 11 10 10 10 10 10 9 8 8 7 7 7 7 7 8 8 7 7 7 7 7 7 7 6 6 6 5 5 5 4 4
35 33 32 31 28 26 25 26 26 24 24 24 24 23 23 22 21 20 19 18 17 17 17 17 17 17 16 16 15 14 13 12 12 11 11 11 10 9 9 8 8 7 7 7 6 6 7 8 7 7 7 6 7 7 7 7 7 7 6 6 6 5 5
34 34 34 33 30 28 27 27 27 27 26 25 24 24 24 24 23 22 21 20 19 18 18 17 17 18 18 17 16 15 15 14 14 13 12 11 10 9 9 8 7 7 7 7 6 6 6 7 7 7 7 6 7 7 7 7 7 7 7 6 6 6 6
34 33 35 35 33 31 30 29 29 29 28 26 25 25 26 26 25 24 23 23 22 21 20 19 19 19 19 19 18 17 16 16 15 14 13 12 12 11 10 9 8 7 7 7 7 7 7 7 7 7 6 6 6 7 6 6 7 7 6 6 6 6 6
35 34 35 36 36 34 32 31 30 30 30 28 27 27 27 27 26 26 25 25 24 23 22 21 20 20 20 20 19 18 17 17 16 15 14 14 13 13 12 10 9 8 8 8 8 8 8 8 7 7 7 6 6 6 6 7 7 7 6 6 6 6 6
37 34 35 36 36 34 33 32 31 31 31 30 30 29 28 27 27 26 26 26 25 25 24 22 21 21 20 20 20 19 18 17 17 16 15 15 14 14 13 12 11 10 10 10 9 9 9 9 8 8 8 8 7 7 7 7 7 7 7 7 6 6 7
37 34 34 35 34 34 33 33 32 32 32 32 32 31 30 29 28 27 27 26 26 26 25 24 23 22 22 21 20 20 19 18 18 17 17 16 16 15 14 14 14 13 12 12 11 10 10 9 9 9 9 9 8 8 8 8 8 8 8 8 7 7 8
36 34 34 33 33 33 33 33 32 33 32 32 32 31 30 29 29 28 27 27 27 26 25 25 24 24 23 22 22 21 21 20 19 18 18 18 17 16 16 16 15 15 15 14 13 12 12 11 11 10 11 10 10 10 10 10 9 9 9 9 9 9 9
36 36 35 34 33 33 32 33 33 33 33 32 31 30 29 29 28 28 27 27 27 26 26 25 24 24 24 23 23 23 22 21 20 20 19 19 19 18 18 18 17 16 16 15 14 14 13 13 12 12 12 12 12 12 12 11 11 11 10 10 11 11 11
38 38 37 36 35 34 34 34 33 33 32 31 31 30 28 28 27 27 27 26 26 26 26 25 25 24 24 24 24 24 23 23 22 21 21 21 20 20 19 19 18 18 18 17 16 15 15 14 14 14 14 13 13 13 13 13 13 13 12 12 12 12 12
39 39 39 38 37 36 35 33 32 31 31 30 30 29 27 27 26 26 26 25 26 26 26 26 25 25 25 25 25 24 24 24 23 23 23 23 22 21 20 20 20 19 19 18 17 16 16 15 15 14 14 14 13 13 14 14 14 15 14 14 14 14 13
39 40 40 39 39 37 35 34 32 31 31 30 29 28 27 27 27 27 27 27 26 26 26 27 27 27 26 26 26 26 25 26 26 25 25 25 24 23 22 21 21 20 20 19 18 18 18 17 16 16 15 15 14 14 14 14 15 15 15 15 14 14 13
39 40 41 40 40 39 37 35 34 33 32 31 30 29 28 27 27 27 27 27 28 28 28 28 28 27 28 28 28 27 27 27 28 28 27 27 26 25 23 22 22 22 21 21 20 20 20 20 20 19 18 17 16 16 16 16 16 16 16 15 15 14 13
40 40 41 42 41 40 38 37 36 34 33 32 31 30 29 28 27 27 27 27 28 29 29 30 30 29 28 29 29 29 29 30 30 31 30 29 28 26 25 24 24 24 24 23 23 23 23 23 23 22 22 21 20 19 19 19 19 19 19 18 17 15 14
40 41 43 43 43 42 40 38 36 34 33 32 31 30 29 28 27 26 25 26 27 28 28 29 29 29 28 28 28 29 30 31 31 32 32 32 30 29 27 27 27 27 26 26 25 25 25 25 25 24 24 23 23 22 21 21 21 22 21 21 20 19 17
32 39 46 47 45 44 41 38 37 35 33 32 31 31 30 29 29 27 26 26 26 27 28 28 28 28 28 27 27 28 29 30 30 31 32 33 32 31 30 29 29 28 28 28 27 27 26 26 25 25 25 25 24 23 23 23 23 23 23 22 22 21 20
19 29 42 46 43 41 39 37 36 36 35 34 32 31 31 30 29 29 28 28 28 29 29 30 30 30 29 29 28 28 28 28 27 28 29 30 31 31 31 30 30 30 29 29 28 27 26 25 25 25 25 25 25 24 24 24 24 24 24 23 22 21 21
14 21 29 34 34 35 36 38 38 37 36 36 35 34 32 32 32 31 32 32 33 33 33 33 33 33 32 31 29 29 29 29 27 26 27 27 28 30 31 31 30 30 29 28 28 27 26 25 26 27 27 26 26 25 24 23 23 23 23 23 22 22 21
9 15 19 22 24 25 27 32 38 41 41 39 37 36 36 35 35 34 35 35 35 35 36 37 37 36 35 33 30 31 33 34 30 27 27 27 26 26 28 29 29 29 28 28 28 27 25 25 26 28 28 27 26 25 23 22 22 22 21 21 21 21 21
6 10 13 15 17 19 19 22 28 36 42 42 40 39 38 37 37 36 35 34 33 34 36 38 39 39 38 37 35 34 36 38 35 32 31 30 28 27 26 26 27 29 29 29 29 28 26 26 27 28 28 26 25 23 22 21 21 21 21 20 20 20 20
10 10 11 11 13 15 15 15 17 23 29 32 33 33 33 33 33 32 31 31 31 32 33 34 37 41 42 41 40 39 39 38 37 37 37 35 33 32 29 27 27 29 29 28 28 28 28 29 29 28 26 24 22 21 21 21 21 21 21 20 20 20 20
16 16 15 13 12 12 12 13 14 15 17 19 20 21 22 22 23 23 23 24 26 28 31 33 35 39 43 45 44 44 43 41 40 41 41 39 37 36 34 31 30 30 28 27 28 29 30 29 28 27 25 23 22 23 23 23 22 22 21 21 21 22 22
16 16 17 17 15 13 12 12 13 14 13 13 14 14 15 15 16 16 16 17 18 21 25 31 35 38 42 45 48 50 48 44 42 43 42 39 39 38 37 35 34 31 29 30 31 31 31 30 29 28 26 25 25 25 25 25 24 24 24 24 25 25 25
16 17 18 17 14 13 13 13 13 13 12 12 12 13 14 14 14 14 13 12 13 14 16 21 28 34 38 42 46 52 52 48 45 46 46 43 41 41 38 35 34 33 33 34 35 34 33 32 31 30 29 28 28 28 28 28 28 28 28 28 29 30 30
15 17 15 14 13 12 13 13 13 13 14 13 14 14 14 14 13 13 13 12 12 11 11 12 16 22 29 34 38 44 49 50 47 45 45 45 43 41 39 37 35 34 34 36 37 36 34 33 32 32 32 31 30 30 30 30 30 31 31 31 31 32 33
10 13 13 12 11 12 13 13 13 13 14 14 16 17 17 16 15 13 13 13 13 12 12 12 14 16 19 25 31 35 39 43 44 42 42 42 40 37 36 37 37 36 35 36 38 37 35 33 32 32 32 31 29 29 28 28 28 28 28 28 29 29 29
11 12 14 13 12 13 14 14 14 16 16 14 14 15 15 15 15 14 12 12 13 12 10 9 11 12 12 14 21 25 27 28 30 31 33 35 36 36 36 36 37 36 35 35 36 35 33 32 30 29 28 27 26 26 26 26 26 26 26 26 26 26 26
15 15 16 16 15 15 16 16 15 17 18 17 16 16 16 16 17 18 17 16 15 15 14 12 12 12 11 11 14 16 16 15 14 15 17 19 24 29 32 31 30 31 31 31 30 29 28 28 27 27 26 25 24 25 26 27 26 25 25 26 26 25 25
15 17 18 18 17 17 18 18 17 17 18 17 17 19 21 21 22 22 23 21 18 19 19 16 14 13 12 13 14 14 15 14 12 13 14 15 17 20 22 23 24 25 26 27 27 27 27 27 27 27 27 26 25 26 27 27 27 26 26 25 26 26 27
15 15 17 18 18 18 18 18 20 21 21 20 18 17 18 19 19 21 23 23 21 20 18 16 16 17 16 15 15 15 16 14 13 13 15 15 16 18 20 22 24 25 25 26 26 26 26 26 26 26 26 26 26 26 27 27 27 27 26 26 26 27 28
17 14 13 15 15 15 15 16 19 21 22 22 22 21 20 18 18 20 21 22 21 20 19 19 19 20 19 18 16 16 16 15 13 13 15 16 16 17 18 21 23 24 25 25 25 25 25 25 26 26 26 27 27 28 28 28 28 29 29 29 30 30 30
19 16 14 14 14 13 13 14 17 19 20 20 20 19 18 16 16 17 20 22 22 21 21 21 21 21 19 18 17 17 18 17 16 16 17 18 18 18 18 20 22 23 24 24 24 24 25 26 27 27 28 29 29 30 31 31 32 33 33 33 33 33 33
20 19 18 18 17 16 15 15 16 17 19 20 20 19 18 15 13 13 16 18 20 21 21 22 23 23 21 19 18 18 18 18 18 18 19 20 21 21 21 22 23 25 25 26 26 27 27 28 28 29 30 30 31 32 33 34 35 36 36 36 36 35 35
22 22 22 22 21 20 19 18 17 18 19 20 20 20 20 18 15 14 15 16 17 18 19 20 21 23 22 21 20 20 20 21 21 22 22 23 24 25 25 26 27 28 29 29 30 30 31 31 32 32 33 34 35 36 36 37 37 38 38 38 38 37 37
26 25 25 25 25 23 22 21 20 20 20 21 22 21 21 21 20 19 19 19 20 21 21 22 22 23 23 23 23 23 24 24 25 25 26 27 27 28 29 30 31 32 32 33 33 34 34 35 35 36 37 38 38 39 40 40 40 40 40 40 40 39 39
29 28 26 26 26 26 24 23 21 21 21 21 22 23 22 22 22 22 21 22 22 23 23 23 24 24 24 24 24 24 25 26 26 27 28 29 30 31 32 33 33 34 35 35 36 37 37 38 39 39 40 41 41 42 42 43 43 43 43 43 43 43 43
31 30 28 27 27 26 25 24 23 22 22 22 23 23 24 23 23 24 23 23 23 24 24 24 25 25 26 26 26 27 27 28 28 29 30 31 32 33 34 35 36 36 37 38 38 39 40 40 41 42 42 43 44 45 45 45 45 46 46 46 47 47 47
31 31 29 27 26 25 25 25 24 23 22 22 23 23 23 24 24 24 24 25 25 25 26 27 27 28 29 30 30 31 31 32 32 33 33 34 35 36 37 38 38 39 40 40 41 42 43 43 44 44 45 45 46 47 47 47 48 48 49 49 49 50 50

ECMWFFLT1_500_spd_120.txt.gz
Wind_Speed
34 33 32 29 27 24 22 22 22 22 23 22 22 22 21 20 20 19 18 17 17 18 17 17 16 16 16 15 15 15 14 14 13 13 12 11 10 10 9 8 8 8 8 8 8 8 8 8 7 7 7 6 6 5 5 5 4 4 4 3 3 3 3
36 34 34 31 29 27 25 25 24 24 25 24 23 23 23 22 21 20 20 19 18 18 18 18 17 17 17 16 16 15 14 14 14 13 12 11 11 10 10 9 9 9 9 8 8 8 8 8 8 8 8 7 7 7 7 6 6 6 5 5 4 4 4
38 34 34 34 30 29 28 27 27 25 25 26 25 24 24 23 22 22 21 20 19 18 18 19 18 18 18 17 17 16 15 15 14 13 12 11 11 11 11 10 10 10 10 10 9 9 9 8 8 8 8 8 8 8 8 8 8 8 7 7 7 6 6
39 35 35 37 33 31 31 29 28 27 26 26 26 26 26 25 24 24 22 21 20 19 19 20 19 19 18 18 17 16 15 15 14 13 12 11 11 12 12 11 11 11 11 11 11 10 10 10 9 9 9 9 9 9 9 9 9 9 9 8 8 8 8
40 38 35 38 37 34 33 31 29 28 27 27 27 28 27 27 26 25 24 22 22 21 21 20 19 18 18 18 17 16 15 14 14 13 13 12 12 13 12 11 11 10 11 11 11 11 10 11 11 11 11 10 10 9 9 9 9 9 9 9 9 9 8
39 39 38 38 39 38 34 32 31 30 29 28 28 29 28 27 26 25 24 24 23 22 21 20 19 18 18 18 17 16 15 14 14 14 14 14 14 14 13 12 11 11 11 11 11 11 11 11 11 11 12 11 11 11 10 10 10 10 10 9 9 9 9
43 39 40 39 39 39 36 34 33 32 31 31 30 30 29 27 27 26 24 24 23 23 22 20 20 19 18 18 18 17 16 16 15 15 15 15 15 15 14 14 13 12 12 12 12 12 11 11 11 12 12 12 12 12 11 11 11 11 11 10 10 10 10
48 43 41 41 40 39 39 37 35 33 33 32 32 30 29 28 27 26 25 24 24 23 22 21 20 20 19 19 19 18 18 17 17 17 17 17 17 16 16 15 15 14 14 13 13 12 12 12 12 12 12 13 13 12 12 11 11 11 11 11 11 11 11
44 48 45 43 42 41 41 40 38 36 34 33 32 31 30 29 28 26 25 24 23 23 22 22 21 21 21 20 20 19 19 19 18 18 18 18 18 18 17 17 16 16 16 15 15 14 13 13 13 13 14 14 14 13 13 13 12 12 12 12 12 12 11
36 47 47 45 44 42 41 41 40 38 36 34 33 32 31 30 29 28 27 25 24 24 23 22 22 22 22 22 21 21 20 20 20 19 20 20 20 20 19 19 18 18 17 17 16 16 15 15 15 15 15 15 15 15 14 14 14 14 14 14 14 14 13
30 41 45 46 46 42 40 42 42 40 37 35 34 33 32 31 30 29 28 26 26 25 25 24 23 23 23 23 23 22 22 22 21 21 21 22 22 21 21 21 20 20 19 18 18 17 17 17 17 17 17 17 16 16 16 16 16 16 15 15 16 15 15
29 38 45 47 45 41 40 42 43 40 39 37 35 35 33 32 31 30 29 28 28 27 27 26 26 26 25 25 25 24 24 24 23 23 23 24 24 23 23 23 22 22 21 20 19 19 18 18 18 18 17 17 17 17 16 16 16 16 16 16 16 16 16
31 40 46 47 44 41 41 42 42 40 39 37 36 35 35 33 32 31 30 30 30 30 29 29 29 28 28 28 27 27 27 26 26 26 26 26 26 25 25 24 24 24 23 21 21 20 20 20 19 19 19 18 18 18 17 17 17 16 16 15 15 15 15
34 43 47 48 44 41 41 41 41 40 38 37 37 36 35 35 34 33 32 32 32 32 31 32 31 31 31 31 30 30 30 30 29 29 29 29 29 28 27 26 26 26 25 24 23 23 22 21 21 21 20 20 20 19 19 19 18 18 18 16 16 15 14
36 47 48 48 46 42 42 41 40 40 39 38 38 37 36 36 34 34 33 33 33 32 32 33 32 32 32 32 32 32 32 32 32 32 32 32 31 30 29 29 28 28 27 27 26 25 25 24 23 23 22 22 22 22 22 21 19 20 21 20 18 17 16
31 50 50 48 47 43 43 43 41 41 40 39 38 38 37 36 35 35 35 34 34 33 33 33 32 32 32 32 33 33 33 33 33 32 32 33 32 32 31 30 29 29 29 29 28 27 26 26 25 25 25 25 25 25 24 23 21 23 24 23 21 20 19
22 47 52 48 48 46 44 44 43 42 41 41 40 39 38 37 36 35 35 34 33 32 32 32 32 33 32 32 33 34 33 32 32 31 31 31 31 31 31 31 30 30 30 30 30 29 28 28 27 28 28 27 27 27 25 24 24 26 26 25 24 23 22
11 36 49 47 46 47 46 45 44 43 42 42 41 40 39 37 36 35 34 32 31 30 30 30 30 30 29 30 31 32 31 30 29 29 28 27 28 30 31 31 30 31 31 31 31 31 30 30 29 30 30 29 29 29 26 25 26 26 26 25 25 25 24
5 21 41 46 45 46 47 47 45 44 44 43 41 40 38 36 35 34 32 31 29 28 28 28 27 27 27 27 28 29 29 29 28 27 26 27 28 30 31 30 29 29 30 32 32 33 33 32 31 31 31 30 31 30 27 26 27 26 26 26 26 25 25
7 10 26 41 48 49 48 47 46 45 45 44 42 40 38 36 35 34 33 32 30 29 29 29 29 28 29 30 30 30 31 32 31 29 28 29 30 30 31 31 29 29 30 32 33 32 32 32 32 32 32 31 31 30 28 28 28 26 26 26 26 25 25
12 11 14 27 43 51 51 48 49 49 48 46 43 41 39 37 36 35 35 34 34 33 33 33 32 32 32 33 33 33 34 34 34 32 31 31 31 32 33 33 33 31 31 31 32 32 30 30 32 33 33 32 32 30 28 27 27 27 26 26 25 25 24
13 12 8 14 29 47 55 52 49 48 45 43 41 41 41 40 39 38 37 36 36 35 35 34 33 33 33 33 34 35 36 37 38 37 34 34 34 35 35 35 36 36 34 32 32 32 31 29 30 32 33 33 32 30 28 28 27 26 25 25 24 24 24
13 11 9 9 15 30 44 46 42 42 43 44 44 43 41 40 39 38 37 36 35 35 35 34 34 34 35 35 35 36 36 38 41 42 40 39 38 38 37 37 39 41 40 37 36 35 33 32 31 32 33 33 32 30 29 28 27 26 25 25 25 25 26
14 13 14 12 11 17 25 29 28 29 31 35 41 45 45 44 42 39 38 37 36 36 36 35 33 33 33 34 34 35 36 38 40 43 45 45 42 41 42 42 44 45 44 42 40 37 36 35 35 35 35 34 33 31 29 29 28 27 27 26 27 27 28
14 14 15 15 14 16 17 18 17 16 16 19 23 29 36 40 40 39 37 35 34 33 31 30 28 27 27 28 30 33 35 37 38 40 44 46 46 46 47 46 46 46 45 44 42 38 37 37 38 39 38 35 33 31 30 29 30 30 29 29 29 30 31
14 14 15 15 16 18 18 17 15 14 14 15 15 16 20 24 27 29 28 27 27 26 24 23 22 21 19 18 22 25 28 31 36 38 39 41 44 48 49 49 50 49 47 44 41 38 38 40 40 40 39 36 34 32 32 32 32 32 32 32 32 33 33
16 15 16 16 16 17 19 18 16 14 14 16 16 16 17 18 20 21 21 21 21 21 20 19 18 18 14 10 11 16 20 24 30 35 39 43 46 49 50 50 51 51 47 44 41 40 41 42 42 41 39 37 36 34 33 33 33 34 35 35 34 34 33
18 17 19 18 17 17 17 16 15 14 13 14 15 16 18 19 20 20 20 20 18 17 17 17 17 18 17 13 13 17 20 21 22 25 30 34 37 40 44 46 47 46 42 41 42 43 44 42 40 40 39 38 38 37 36 34 34 33 33 33 32 32 31
19 16 18 20 20 18 16 14 13 12 10 11 14 15 16 18 20 21 21 21 20 19 18 18 17 17 18 17 16 17 17 16 14 13 14 16 17 20 27 35 42 44 42 40 40 41 42 41 39 38 38 38 38 38 37 34 32 31 30 29 30 30 30
19 14 13 17 19 18 15 13 12 12 11 11 13 14 15 17 18 19 19 19 20 20 21 21 20 20 19 18 17 17 16 14 12 9 8 9 10 10 10 14 22 28 30 31 30 29 30 32 32 33 35 35 35 36 36 33 32 31 30 30 30 30 31
20 17 12 12 13 13 12 11 10 11 13 13 14 15 16 16 16 15 15 17 18 19 21 21 22 23 22 20 20 20 19 17 14 10 8 9 10 9 7 6 8 10 13 16 17 17 17 18 19 22 26 26 27 30 31 30 30 30 30 30 29 30 30
20 20 15 11 9 9 8 8 8 9 12 13 13 14 14 15 15 14 13 15 17 18 19 20 20 22 22 21 22 23 24 23 19 15 13 13 12 10 9 10 11 11 13 15 17 16 17 20 21 22 23 22 22 24 25 26 28 29 29 30 30 31 31
18 19 17 14 12 11 10 9 8 8 8 10 12 13 13 13 15 14 13 14 16 18 19 19 19 20 21 21 21 22 24 25 22 18 16 17 16 15 15 15 17 18 19 21 21 21 22 24 25 25 24 23 23 24 26 27 29 30 30 31 31 32 33
17 17 17 16 15 15 14 13 12 12 10 10 11 13 13 14 14 15 15 15 15 16 17 18 18 20 21 22 22 23 24 24 23 21 20 19 19 19 19 19 20 21 22 23 24 24 25 26 26 26 26 26 26 27 28 29 31 32 32 33 34 35 36
19 19 19 18 17 17 17 16 16 16 15 15 14 14 15 14 14 15 16 16 16 15 15 15 16 17 19 21 22 23 24 24 24 23 23 22 21 22 22 22 23 24 25 26 26 27 28 28 28 29 30 30 31 31 32 33 34 35 36 37 38 38 39
22 20 21 21 20 19 19 18 18 18 18 18 17 16 16 16 15 16 16 17 18 18 18 19 19 19 20 21 22 23 24 24 25 25 25 24 24 24 25 26 26 27 28 29 29 30 30 31 31 32 32 33 34 35 36 37 37 38 39 40 41 42 42
24 22 22 23 23 22 20 19 19 19 19 18 18 18 18 17 17 17 17 18 19 20 21 22 23 23 23 23 23 24 24 25 25 26 26 26 27 26 27 27 28 29 30 31 31 32 33 33 34 35 35 36 36 37 38 39 40 41 41 42 43 44 45
26 25 25 24 23 22 21 20 20 20 19 19 19 19 19 19 19 18 19 20 21 22 23 24 24 25 25 26 25 26 26 26 27 28 28 29 29 30 30 31 31 32 33 33 34 35 36 37 37 38 39 39 40 40 41 42 42 43 44 44 45 46 46

ECMWFFLT1_500_spd_123.txt.gz
Wind_Speed
33 33 31 30 29 26 24 23 22 23 23 23 22 21 19 19 17 17 17 17 17 17 16 15 15 14 13 12 11 12 12 11 12 11 10 10 9 9 9 9 8 8 8 7 7 7 6 6 5 5 4 4 3 3 3 3 3 3 3 3 3 2 2
34 34 33 32 31 28 26 24 23 23 24 24 23 22 21 19 19 18 18 18 18 18 17 16 16 15 14 13 12 12 11 11 11 10 10 9 9 9 8 8 8 8 7 7 7 7 7 7 6 6 5 5 4 4 4 3 3 3 3 2 2 2 2
37 33 34 34 32 30 28 26 25 25 25 25 24 23 22 21 20 20 19 18 18 18 17 17 16 15 15 14 14 12 12 12 11 10 10 9 9 9 9 8 8 7 7 7 7 7 7 7 7 7 7 6 6 5 5 5 4 4 4 3 3 3 2
41 37 34 36 34 32 31 29 27 27 26 26 25 24 24 23 22 21 21 19 19 18 18 17 16 15 15 14 14 13 13 12 12 11 11 10 10 10 10 9 8 8 8 8 8 8 8 8 8 8 8 7 7 7 6 6 6 5 5 5 5 4 4
40 42 37 36 36 34 33 32 29 29 29 28 27 26 25 24 23 22 22 20 20 20 19 18 17 16 15 15 14 14 14 13 12 12 11 11 11 11 11 10 9 9 9 9 9 9 9 9 9 9 8 8 7 7 7 7 6 6 6 6 6 6 6
34 42 40 37 38 36 34 33 31 31 31 30 29 28 27 26 24 23 22 21 21 20 19 18 18 17 16 16 15 14 14 13 13 13 13 12 12 12 12 11 10 10 10 10 10 10 10 10 10 10 10 9 8 8 7 8 8 7 7 8 7 7 7
31 37 42 40 38 38 36 34 33 33 33 32 31 31 29 27 26 25 23 23 22 21 19 18 18 17 17 17 16 16 16 15 15 15 14 14 14 14 13 12 12 11 11 11 11 11 11 11 11 11 11 10 10 10 10 9 9 9 9 9 9 9 9
31 33 43 44 40 40 38 35 35 35 35 34 33 32 30 28 28 27 25 24 23 22 21 19 18 17 17 17 17 17 18 17 17 16 16 16 16 15 15 14 14 13 13 12 12 11 11 11 11 12 12 12 12 12 12 11 11 11 11 11 11 10 10
30 30 40 47 43 41 41 38 37 37 36 36 35 32 32 31 29 28 27 26 25 23 22 21 20 18 18 18 18 18 18 18 18 18 17 17 17 17 17 16 16 15 15 14 13 12 12 12 12 12 12 13 13 13 13 12 12 12 12 12 12 11 11
27 26 33 46 46 41 42 41 39 40 39 37 36 33 32 32 31 29 29 28 26 25 24 23 22 21 20 20 19 19 19 19 19 19 18 18 18 18 18 18 17 17 16 16 15 14 14 13 13 13 13 13 13 14 14 13 13 13 13 13 13 13 13
25 24 27 43 50 43 41 44 43 41 40 38 37 35 33 32 32 30 30 29 28 27 26 25 24 23 22 22 21 20 20 20 20 20 19 19 19 19 19 19 18 18 18 18 17 16 16 16 16 15 15 14 14 15 15 15 15 15 14 14 14 14 14
24 24 23 35 50 47 42 44 45 42 42 41 39 38 37 35 33 32 31 30 30 29 27 26 25 25 24 24 23 23 22 22 22 22 21 21 21 21 20 20 19 19 19 19 19 18 18 18 17 17 16 16 15 16 16 16 16 16 16 15 15 15 15
23 25 22 25 40 49 46 44 46 46 44 44 42 40 39 38 35 34 34 33 32 31 29 28 27 26 26 26 26 25 25 25 24 24 24 23 23 23 22 22 22 21 20 20 20 20 20 20 19 18 17 17 16 16 16 16 16 16 16 16 17 16 16
21 24 24 22 29 45 52 48 47 48 46 45 45 42 40 40 38 36 36 35 33 32 31 30 29 29 28 28 27 27 27 27 26 25 25 25 25 25 24 24 24 23 22 21 22 22 22 21 20 19 18 18 18 17 17 17 18 18 18 18 18 18 18
20 22 26 25 25 36 48 49 47 46 46 45 45 45 44 43 41 39 37 35 33 32 32 31 31 30 30 29 29 29 28 28 27 26 26 26 25 25 24 24 24 24 24 23 24 24 23 22 21 20 19 19 19 18 18 19 19 20 21 20 20 20 20
22 20 22 26 27 31 40 49 50 47 46 46 46 46 45 44 42 39 38 35 34 33 32 32 32 31 30 30 30 29 28 28 27 27 27 26 24 23 23 24 25 25 24 24 25 25 24 24 24 23 22 21 21 21 21 21 22 24 24 23 22 22 22
23 20 17 21 29 34 40 49 51 49 48 47 46 45 45 44 41 39 37 35 34 34 34 33 33 32 32 32 31 29 29 29 29 28 27 26 24 24 24 25 26 26 26 25 26 26 26 26 26 25 24 23 23 24 24 24 26 27 27 25 24 24 24
22 20 15 18 30 39 41 46 48 49 50 48 46 46 45 43 40 38 37 36 35 35 36 35 34 34 33 33 32 30 30 30 29 28 28 27 26 26 26 27 28 29 28 27 26 27 28 28 28 28 28 27 26 26 25 26 28 29 29 28 27 26 26
19 19 13 17 32 43 44 45 47 49 51 49 47 47 46 43 41 39 37 36 36 36 35 35 35 35 35 34 32 30 30 29 28 28 28 27 27 27 28 29 30 30 30 29 29 29 29 29 29 29 30 30 28 27 27 29 30 30 29 28 28 28 28
18 19 13 14 28 43 47 47 49 51 50 48 47 46 45 43 41 39 38 37 36 36 35 35 35 35 35 34 32 29 29 29 28 27 26 27 27 27 28 28 28 29 30 29 30 29 29 29 30 30 31 31 30 29 30 32 32 32 31 30 30 29 29
19 19 15 14 20 36 47 47 48 50 47 44 45 45 44 43 40 39 39 38 37 37 36 35 36 35 35 34 31 29 29 29 27 26 26 26 26 26 27 28 28 29 29 29 30 30 29 29 30 29 30 30 30 30 32 33 34 34 34 33 32 31 30
22 21 18 16 16 28 43 48 48 49 46 44 46 47 45 43 42 41 40 39 38 38 37 36 35 34 33 32 30 29 29 29 28 28 27 27 27 27 29 30 30 30 31 32 33 32 31 31 32 30 29 29 29 30 32 35 37 36 35 35 34 33 31
23 23 20 17 15 20 33 45 48 49 49 47 46 46 46 44 42 41 40 39 39 37 36 35 34 33 32 32 31 31 31 30 29 29 30 29 29 31 32 33 33 34 35 36 37 37 35 34 33 32 31 31 30 30 32 36 37 36 34 34 34 33 32
23 24 22 18 14 13 21 38 48 48 49 49 46 45 45 44 43 41 40 39 39 38 37 37 35 34 33 33 32 32 32 31 32 33 33 33 35 37 37 37 38 38 38 38 39 40 38 36 35 35 35 35 33 32 34 37 37 35 34 34 34 34 33
21 23 23 20 15 10 10 26 43 47 46 46 46 46 46 45 44 43 40 40 40 39 38 37 36 34 33 32 32 33 33 34 36 37 38 38 39 40 41 41 42 43 43 43 43 42 40 38 36 35 37 38 38 37 38 39 39 37 35 33 34 35 35
21 21 21 20 18 14 7 11 27 40 45 46 46 46 45 45 44 43 42 42 42 40 39 38 36 34 33 33 34 35 35 36 36 36 37 38 37 38 40 41 41 42 44 45 45 45 44 42 39 38 38 40 42 43 42 42 41 39 36 34 35 36 37
21 20 19 18 18 18 12 6 12 26 37 43 47 46 44 44 44 44 43 43 43 42 39 37 35 34 34 35 36 36 36 35 33 33 35 36 35 37 39 39 39 41 42 42 42 45 47 47 45 43 40 39 41 44 43 42 41 39 37 36 36 37 37
22 21 19 17 16 16 14 9 9 14 21 28 37 40 39 38 39 39 39 42 44 44 42 40 38 38 38 37 36 34 34 34 34 34 35 34 34 34 34 32 32 35 37 38 39 42 45 46 45 42 38 38 41 42 41 40 40 40 40 40 39 38 38
22 22 20 18 16 15 15 12 10 12 14 17 24 27 26 25 26 26 27 30 33 35 36 37 35 34 34 33 32 30 27 24 24 25 27 26 25 27 30 30 28 29 33 36 38 39 39 40 39 38 39 41 42 40 39 39 40 41 42 42 40 39 40
22 22 21 19 16 15 16 13 10 12 15 17 19 21 20 18 18 19 20 21 23 23 25 27 28 29 29 29 30 30 25 19 16 16 17 16 15 18 24 26 25 26 29 31 34 37 40 40 38 36 37 38 38 37 38 38 38 38 40 40 40 40 41
23 21 20 20 17 15 15 16 13 13 15 16 16 17 17 16 15 15 16 18 19 20 20 22 23 25 26 27 28 28 26 23 20 18 16 14 12 13 16 18 18 18 17 16 17 23 31 36 35 32 29 28 27 26 27 29 30 31 30 30 32 35 38
24 22 20 20 18 16 14 15 15 15 14 14 14 15 16 17 16 15 15 15 16 17 18 20 20 20 21 23 25 26 26 24 24 23 20 16 14 14 14 15 14 14 12 9 8 9 13 20 22 21 19 18 16 16 17 19 22 24 23 22 24 27 29
24 21 19 19 19 17 15 14 14 14 13 13 13 13 14 15 14 13 12 11 11 11 12 14 16 17 18 19 21 22 23 22 22 22 22 19 18 18 18 18 16 15 13 12 11 10 11 12 14 15 16 16 15 15 16 18 21 23 24 24 25 25 25
21 20 18 18 19 19 17 13 12 13 14 15 14 12 12 13 13 12 11 11 10 11 12 13 14 15 16 17 18 19 19 19 19 20 21 21 20 20 21 20 19 18 18 18 17 17 17 17 18 19 20 20 20 21 22 23 24 25 25 26 27 27 27
19 19 18 18 19 20 18 15 13 13 14 14 14 12 11 12 12 11 11 11 11 12 13 14 14 14 14 14 16 17 18 18 19 20 22 22 22 22 22 21 20 20 20 20 21 21 22 22 23 24 25 25 26 27 28 28 29 29 29 29 30 30 31
24 23 22 21 20 20 19 18 17 16 15 15 14 13 12 12 11 11 11 11 11 11 12 14 15 14 14 14 14 15 16 17 18 20 20 22 22 22 22 22 21 21 22 22 22 23 24 24 26 27 28 29 30 31 31 32 32 32 33 33 33 34 35
27 26 25 23 21 21 21 19 19 18 17 16 15 15 14 13 12 12 12 12 13 13 14 16 17 18 18 18 18 18 18 19 20 20 21 22 22 23 23 23 23 23 23 23 24 25 25 26 27 28 29 31 32 33 33 34 35 35 35 36 36 37 37
28 26 25 24 22 23 22 19 17 17 16 15 14 14 14 14 14 14 14 14 15 16 16 18 19 20 20 21 21 21 22 22 22 22 22 23 23 24 24 25 25 26 26 27 27 28 28 29 30 30 31 32 33 34 35 36 37 38 38 39 39 40 40

ECMWFFLT1_500_spd_126.txt.gz
Wind_Speed
32 32 31 29 26 24 24 23 22 22 22 21 20 19 18 18 17 16 15 14 13 12 11 10 10 10 10 9 10 10 9 9 8 8 7 7 6 6 5 5 5 5 4 4 4 4 4 4 4 4 5 5 5 4 4 4 4 3 3 2 2 2 2
32 35 33 30 28 26 25 25 23 22 23 22 21 20 19 19 18 17 16 16 15 14 13 11 11 11 10 10 10 10 10 9 9 8 8 7 7 7 6 6 5 5 5 4 3 3 3 3 3 3 3 3 3 4 3 3 3 2 2 2 1 1 1
29 34 34 31 30 28 26 26 24 24 24 24 23 22 21 20 19 18 17 17 16 15 14 13 12 12 11 11 11 11 10 10 10 9 9 8 8 8 7 6 6 6 5 5 4 4 3 3 2 2 2 2 2 2 2 2 1 1 1 1 0 0 1
25 32 35 33 32 31 29 27 26 25 25 25 24 23 22 22 20 19 19 18 17 17 16 15 14 13 13 12 12 11 11 11 10 10 10 9 9 9 8 7 7 6 6 5 5 4 4 3 3 3 2 2 2 2 1 1 1 1 1 2 2 2 3
25 30 36 36 34 33 31 29 28 27 27 26 26 25 24 23 22 21 21 20 19 18 18 17 16 15 15 14 14 13 12 11 11 10 10 10 10 9 9 8 8 7 6 6 5 5 4 4 4 3 3 2 2 2 2 2 2 2 2 3 2 3 3
27 30 34 35 36 35 32 31 30 29 29 28 27 27 26 24 24 23 22 21 20 20 19 18 18 17 17 16 16 15 14 13 12 12 11 11 11 10 10 9 9 8 8 7 6 6 6 5 5 4 4 4 3 3 4 4 3 3 3 4 4 4 4
28 30 32 35 37 37 33 31 32 31 31 31 29 28 27 26 26 26 24 23 22 21 20 19 19 19 18 18 17 17 16 15 14 13 13 13 12 11 10 10 10 9 9 8 7 7 7 6 6 6 5 6 5 5 6 6 5 5 5 6 6 6 6
29 31 32 34 37 39 36 32 34 34 33 33 32 30 29 28 27 27 26 25 24 23 22 21 21 20 19 19 19 18 18 17 16 15 15 14 13 12 12 11 11 10 9 8 7 7 7 7 7 7 7 7 7 7 8 8 8 7 8 8 8 7 7
28 30 32 33 34 39 40 36 35 36 36 35 34 32 31 30 29 28 27 27 26 24 23 22 22 21 21 20 20 20 19 18 18 17 17 16 15 14 14 13 12 11 10 10 8 8 8 8 8 8 8 9 8 9 10 10 10 9 10 10 9 8 8
24 27 30 33 33 34 38 40 39 38 38 37 36 35 34 33 31 30 29 28 27 25 24 23 23 22 22 22 21 21 20 19 19 19 18 17 16 16 15 14 13 13 12 11 10 10 10 10 9 9 10 10 10 10 10 11 11 11 12 12 11 10 10
18 23 26 29 31 30 33 39 43 40 39 39 39 38 37 35 34 32 31 30 28 27 26 25 24 24 23 23 22 22 21 20 20 19 19 18 17 17 16 15 14 14 14 13 12 12 12 12 12 12 13 13 12 12 12 12 13 13 14 13 13 12 12
14 17 21 23 28 31 29 34 42 43 41 40 40 39 38 37 36 34 32 31 30 29 28 27 26 25 25 24 24 22 21 21 20 19 19 19 18 17 17 16 15 16 15 14 14 14 14 15 14 14 15 15 14 14 15 15 15 15 16 15 14 15 15
21 17 19 19 24 29 28 30 39 43 41 41 40 39 39 37 36 35 33 32 32 31 30 29 28 27 26 25 24 23 22 21 21 20 19 19 18 17 17 17 16 16 16 15 16 16 15 16 16 16 16 16 16 16 17 16 16 17 17 16 15 16 16
25 21 20 19 21 25 26 31 39 43 41 42 42 40 38 37 36 35 34 34 34 33 32 30 28 27 27 26 25 23 23 21 20 20 19 19 18 17 17 16 16 16 16 16 17 17 17 17 17 17 18 18 17 18 18 17 17 18 19 17 16 17 17
23 23 21 20 20 22 24 29 40 45 44 43 43 42 40 38 37 37 36 36 35 34 33 31 29 28 28 26 25 24 23 21 20 19 19 18 17 17 17 17 17 17 16 17 17 18 18 18 18 18 19 20 19 18 18 18 19 20 19 18 18 18 18
23 23 23 22 21 22 23 27 36 45 48 45 43 43 42 40 39 39 38 38 36 34 33 32 30 29 28 27 25 25 23 22 21 20 18 18 18 19 19 19 19 18 18 18 18 18 19 19 19 20 20 20 19 19 20 21 22 22 21 20 20 20 19
24 25 25 24 23 23 24 28 32 38 47 49 45 42 43 43 43 42 41 40 38 35 34 34 32 31 30 29 27 26 25 24 22 21 19 19 20 21 22 21 21 20 20 20 20 20 20 20 21 22 21 21 21 22 22 22 23 24 24 23 23 22 22
25 27 28 27 26 25 26 29 31 31 38 47 48 45 45 45 45 44 44 42 40 38 36 34 32 31 31 30 29 28 27 26 24 22 22 22 22 23 24 24 24 24 23 22 22 22 22 22 22 22 23 24 24 23 24 24 25 26 26 26 26 25 25
27 28 29 29 29 28 28 29 32 33 36 44 49 49 47 44 43 45 45 43 40 40 39 35 33 32 31 30 30 29 27 26 24 23 23 24 24 24 26 26 26 26 26 25 25 25 24 25 24 24 24 24 24 25 26 26 27 27 28 28 28 28 27
26 27 29 30 29 29 28 29 32 36 39 44 49 51 48 46 46 46 46 44 42 40 39 37 36 35 33 31 30 29 28 27 26 26 26 26 26 26 27 28 28 28 28 27 27 27 26 27 26 25 24 23 24 28 29 27 28 29 30 30 30 30 30
21 23 26 29 30 29 27 25 28 34 40 45 49 50 48 47 47 45 42 40 39 37 36 37 38 37 35 32 30 30 31 31 30 29 29 28 28 26 26 29 30 29 29 29 29 28 27 26 25 24 24 25 27 30 31 29 29 31 32 32 32 31 31
18 21 23 26 30 30 26 20 20 26 35 44 49 51 50 49 48 45 41 36 34 35 37 38 39 38 36 33 31 33 34 33 31 31 30 28 27 26 26 29 30 29 29 30 30 28 27 26 26 25 25 27 28 30 31 31 32 33 33 32 32 32 32
18 20 23 24 27 30 26 20 17 20 27 37 46 50 50 51 50 48 44 40 36 36 38 40 39 38 37 36 34 33 33 32 30 29 28 28 28 27 27 28 29 29 30 30 30 29 27 28 29 28 28 29 30 31 31 32 35 36 35 34 33 33 34
17 19 22 25 27 28 26 21 18 17 21 30 40 46 47 48 50 49 47 45 41 37 38 40 39 39 39 39 36 33 32 31 30 28 27 29 30 29 28 29 30 30 30 30 31 30 29 30 32 33 33 33 34 34 34 34 37 39 38 37 36 35 35
18 18 20 23 26 28 27 21 17 16 18 24 32 40 43 44 46 47 47 47 44 40 40 41 40 40 41 40 38 34 31 30 31 29 29 32 32 31 31 32 32 33 33 33 34 34 34 34 35 37 38 38 38 38 37 37 40 41 41 41 39 38 36
18 18 18 20 23 27 28 25 20 18 18 22 29 37 41 41 42 43 45 46 44 41 41 41 40 41 41 39 37 35 32 32 33 31 31 33 32 31 33 34 34 35 36 36 38 39 37 36 37 38 39 41 42 43 42 43 43 42 42 43 42 40 39
16 17 18 18 19 21 24 25 25 22 19 20 26 35 40 41 41 41 41 43 43 42 41 40 40 40 40 38 38 36 35 35 34 31 30 31 31 31 31 32 34 36 37 37 38 38 37 36 36 37 38 40 43 44 43 42 43 43 42 40 38 39 42
14 15 16 16 15 16 19 22 27 27 23 19 19 27 36 40 42 43 41 40 41 41 40 40 40 40 40 39 39 38 37 36 35 32 30 29 30 30 29 30 35 36 34 32 30 32 36 36 33 34 37 37 37 37 35 34 38 41 41 38 37 38 41
16 15 16 15 13 11 12 17 21 24 24 21 18 20 29 36 40 43 44 41 39 39 40 40 41 41 41 41 40 40 39 36 34 32 30 30 30 31 31 35 37 35 33 32 31 33 37 35 29 30 35 35 34 35 35 35 37 39 40 42 41 38 37
16 13 13 14 13 9 9 14 18 17 17 17 14 13 20 30 34 38 42 42 38 37 38 40 40 41 42 42 42 41 39 36 34 33 32 31 28 26 28 32 36 37 39 40 39 37 35 31 29 31 34 35 36 37 37 36 39 40 41 42 40 37 36
16 15 13 12 13 12 11 13 16 14 13 14 11 8 12 19 22 25 31 38 40 38 38 40 41 41 42 42 42 41 39 38 37 34 34 32 27 21 18 19 22 28 33 34 33 32 30 28 27 27 29 32 36 37 34 35 37 38 38 38 38 37 37
17 17 15 12 12 13 12 10 9 9 10 14 13 11 11 14 15 13 16 24 31 32 33 34 35 36 38 38 39 40 40 38 35 32 32 34 31 24 19 16 15 17 21 22 23 22 21 20 20 20 21 25 32 36 36 35 34 33 34 34 33 33 34
17 17 16 15 14 15 16 14 11 7 9 13 14 13 13 15 15 12 10 13 16 18 20 21 21 21 23 24 26 29 30 29 27 25 26 29 28 25 21 19 18 18 19 19 19 18 16 15 15 14 14 16 21 26 27 26 24 23 23 22 22 23 23
19 19 18 17 17 16 16 16 15 14 14 15 15 14 14 14 14 14 13 11 10 10 11 12 11 10 10 11 13 16 17 17 16 16 17 18 20 19 18 17 17 18 19 21 22 21 20 18 17 17 16 16 17 19 20 20 20 20 19 19 20 21 21
21 20 19 19 19 18 16 16 17 18 18 18 17 16 15 14 13 13 13 12 10 9 10 9 8 8 9 9 11 12 13 13 13 13 14 15 15 16 16 17 18 19 20 22 23 24 23 22 21 21 20 20 21 21 22 23 24 24 25 25 26 27 28
23 22 20 20 22 21 19 18 18 17 16 17 17 16 15 14 13 12 12 12 12 12 13 12 12 11 11 11 11 11 11 12 12 13 14 14 15 16 17 17 18 19 20 22 23 23 24 24 23 22 22 22 23 23 24 25 27 28 29 30 30 31 32
27 25 23 23 24 24 22 20 21 19 16 15 14 14 14 14 14 13 13 13 13 13 13 13 12 11 10 11 11 12 12 12 13 14 14 15 16 17 17 18 19 20 21 22 23 24 25 25 25 24 23 23 23 24 25 26 27 29 30 31 32 33 33
28 27 25 25 26 26 24 22 21 21 18 15 14 14 13 13 13 13 13 13 13 13 13 12 12 11 12 12 13 14 15 16 16 17 17 18 19 19 20 20 21 22 23 24 24 25 26 26 27 26 26 25 25 25 25 25 26 28 29 30 31 32 33